<?xml version="1.0" encoding="UTF-8" standalone="no" ?>
<gpx xmlns="http://www.topografix.com/GPX/1/1" xmlns:xsi="http://www.w3.org/2001/XMLSchema-instance" xsi:schemaLocation="http://www.topografix.com/GPX/1/1 http://www.topografix.com/GPX/1/1/gpx.xsd" version="1.1" creator="VisuGPX - https://www.visugpx.com">
  <metadata>
    <name>Pornichet 02/08/2020</name>
    <desc><![CDATA[Sortie VTT du dimanche 02 août 2020]]></desc>
  </metadata>
  <trk>
    <name><![CDATA[Pornichet Cyclisme]]></name>
    <trkseg>
      <trkpt lat="47.26406" lon="-2.31564">
        <ele>9.6</ele>
        <time>2020-08-02T06:53:17.000Z</time>
      </trkpt>
      <trkpt lat="47.26406" lon="-2.31577">
        <ele>9.6</ele>
        <time>2020-08-02T06:53:20.000Z</time>
      </trkpt>
      <trkpt lat="47.26406" lon="-2.31582">
        <ele>-0.20000000298023</ele>
        <time>2020-08-02T06:53:21.000Z</time>
      </trkpt>
      <trkpt lat="47.26406" lon="-2.31586">
        <ele>-0.20000000298023</ele>
        <time>2020-08-02T06:53:22.000Z</time>
      </trkpt>
      <trkpt lat="47.26406" lon="-2.31612">
        <ele>-0.20000000298023</ele>
        <time>2020-08-02T06:53:28.000Z</time>
      </trkpt>
      <trkpt lat="47.26405" lon="-2.31642">
        <ele>-0.20000000298023</ele>
        <time>2020-08-02T06:53:34.000Z</time>
      </trkpt>
      <trkpt lat="47.26406" lon="-2.31661">
        <ele>-0.20000000298023</ele>
        <time>2020-08-02T06:53:38.000Z</time>
      </trkpt>
      <trkpt lat="47.26403" lon="-2.31664">
        <ele>-0.20000000298023</ele>
        <time>2020-08-02T06:53:39.000Z</time>
      </trkpt>
      <trkpt lat="47.26395" lon="-2.31668">
        <ele>-0.20000000298023</ele>
        <time>2020-08-02T06:53:42.000Z</time>
      </trkpt>
      <trkpt lat="47.26392" lon="-2.31669">
        <ele>-0.20000000298023</ele>
        <time>2020-08-02T06:53:43.000Z</time>
      </trkpt>
      <trkpt lat="47.26374" lon="-2.31679">
        <ele>-0.60000002384186</ele>
        <time>2020-08-02T06:53:48.000Z</time>
      </trkpt>
      <trkpt lat="47.26372" lon="-2.31681">
        <ele>-1</ele>
        <time>2020-08-02T06:53:49.000Z</time>
      </trkpt>
      <trkpt lat="47.26369" lon="-2.31683">
        <ele>-1.3999999761581</ele>
        <time>2020-08-02T06:53:50.000Z</time>
      </trkpt>
      <trkpt lat="47.26365" lon="-2.31685">
        <ele>-1.7999999523163</ele>
        <time>2020-08-02T06:53:51.000Z</time>
      </trkpt>
      <trkpt lat="47.26362" lon="-2.31688">
        <ele>-2.2000000476837</ele>
        <time>2020-08-02T06:53:52.000Z</time>
      </trkpt>
      <trkpt lat="47.26351" lon="-2.31694">
        <ele>-2.2000000476837</ele>
        <time>2020-08-02T06:53:55.000Z</time>
      </trkpt>
      <trkpt lat="47.2633" lon="-2.31704">
        <ele>-2.2000000476837</ele>
        <time>2020-08-02T06:54:00.000Z</time>
      </trkpt>
      <trkpt lat="47.26321" lon="-2.3171">
        <ele>-2.2000000476837</ele>
        <time>2020-08-02T06:54:02.000Z</time>
      </trkpt>
      <trkpt lat="47.26303" lon="-2.31717">
        <ele>-2.5999999046326</ele>
        <time>2020-08-02T06:54:06.000Z</time>
      </trkpt>
      <trkpt lat="47.263" lon="-2.31722">
        <ele>-3</ele>
        <time>2020-08-02T06:54:07.000Z</time>
      </trkpt>
      <trkpt lat="47.26299" lon="-2.31727">
        <ele>-3.4000000953674</ele>
        <time>2020-08-02T06:54:08.000Z</time>
      </trkpt>
      <trkpt lat="47.26299" lon="-2.31732">
        <ele>-4.1999998092651</ele>
        <time>2020-08-02T06:54:09.000Z</time>
      </trkpt>
      <trkpt lat="47.263" lon="-2.31737">
        <ele>-4.1999998092651</ele>
        <time>2020-08-02T06:54:10.000Z</time>
      </trkpt>
      <trkpt lat="47.26301" lon="-2.31748">
        <ele>-4.1999998092651</ele>
        <time>2020-08-02T06:54:12.000Z</time>
      </trkpt>
      <trkpt lat="47.26302" lon="-2.31768">
        <ele>-4.1999998092651</ele>
        <time>2020-08-02T06:54:16.000Z</time>
      </trkpt>
      <trkpt lat="47.26303" lon="-2.31792">
        <ele>-4.1999998092651</ele>
        <time>2020-08-02T06:54:22.000Z</time>
      </trkpt>
      <trkpt lat="47.26303" lon="-2.31819">
        <ele>-4.1999998092651</ele>
        <time>2020-08-02T06:54:28.000Z</time>
      </trkpt>
      <trkpt lat="47.26302" lon="-2.3184">
        <ele>-4.1999998092651</ele>
        <time>2020-08-02T06:54:34.000Z</time>
      </trkpt>
      <trkpt lat="47.26301" lon="-2.31869">
        <ele>-4.1999998092651</ele>
        <time>2020-08-02T06:54:41.000Z</time>
      </trkpt>
      <trkpt lat="47.26298" lon="-2.31885">
        <ele>-4.1999998092651</ele>
        <time>2020-08-02T06:54:45.000Z</time>
      </trkpt>
      <trkpt lat="47.26293" lon="-2.3189">
        <ele>-4.1999998092651</ele>
        <time>2020-08-02T06:54:47.000Z</time>
      </trkpt>
      <trkpt lat="47.26285" lon="-2.31899">
        <ele>-4.1999998092651</ele>
        <time>2020-08-02T06:54:50.000Z</time>
      </trkpt>
      <trkpt lat="47.26275" lon="-2.3191">
        <ele>-4.1999998092651</ele>
        <time>2020-08-02T06:54:53.000Z</time>
      </trkpt>
      <trkpt lat="47.26262" lon="-2.31935">
        <ele>-4.1999998092651</ele>
        <time>2020-08-02T06:54:59.000Z</time>
      </trkpt>
      <trkpt lat="47.2625" lon="-2.31955">
        <ele>-4.1999998092651</ele>
        <time>2020-08-02T06:55:04.000Z</time>
      </trkpt>
      <trkpt lat="47.2624" lon="-2.31975">
        <ele>-4.1999998092651</ele>
        <time>2020-08-02T06:55:09.000Z</time>
      </trkpt>
      <trkpt lat="47.26237" lon="-2.31975">
        <ele>-4.1999998092651</ele>
        <time>2020-08-02T06:55:10.000Z</time>
      </trkpt>
      <trkpt lat="47.26232" lon="-2.31977">
        <ele>-4.5999999046326</ele>
        <time>2020-08-02T06:55:12.000Z</time>
      </trkpt>
      <trkpt lat="47.2623" lon="-2.31979">
        <ele>-5</ele>
        <time>2020-08-02T06:55:13.000Z</time>
      </trkpt>
      <trkpt lat="47.26228" lon="-2.31981">
        <ele>-5.4000000953674</ele>
        <time>2020-08-02T06:55:14.000Z</time>
      </trkpt>
      <trkpt lat="47.26225" lon="-2.31983">
        <ele>-5.8000001907349</ele>
        <time>2020-08-02T06:55:15.000Z</time>
      </trkpt>
      <trkpt lat="47.26223" lon="-2.31985">
        <ele>-6.1999998092651</ele>
        <time>2020-08-02T06:55:16.000Z</time>
      </trkpt>
      <trkpt lat="47.26217" lon="-2.31991">
        <ele>-6.1999998092651</ele>
        <time>2020-08-02T06:55:19.000Z</time>
      </trkpt>
      <trkpt lat="47.26204" lon="-2.32001">
        <ele>-6.1999998092651</ele>
        <time>2020-08-02T06:55:24.000Z</time>
      </trkpt>
      <trkpt lat="47.262" lon="-2.32017">
        <ele>-6.1999998092651</ele>
        <time>2020-08-02T06:55:29.000Z</time>
      </trkpt>
      <trkpt lat="47.2619" lon="-2.32019">
        <ele>-6.1999998092651</ele>
        <time>2020-08-02T06:55:34.000Z</time>
      </trkpt>
      <trkpt lat="47.26187" lon="-2.32018">
        <ele>-6.1999998092651</ele>
        <time>2020-08-02T06:55:35.000Z</time>
      </trkpt>
      <trkpt lat="47.26176" lon="-2.32021">
        <ele>-6.1999998092651</ele>
        <time>2020-08-02T06:55:39.000Z</time>
      </trkpt>
      <trkpt lat="47.26162" lon="-2.3203">
        <ele>-6.1999998092651</ele>
        <time>2020-08-02T06:55:44.000Z</time>
      </trkpt>
      <trkpt lat="47.26152" lon="-2.32052">
        <ele>-6.1999998092651</ele>
        <time>2020-08-02T06:55:49.000Z</time>
      </trkpt>
      <trkpt lat="47.26147" lon="-2.32073">
        <ele>-6.1999998092651</ele>
        <time>2020-08-02T06:55:53.000Z</time>
      </trkpt>
      <trkpt lat="47.26144" lon="-2.32084">
        <ele>-6.1999998092651</ele>
        <time>2020-08-02T06:55:55.000Z</time>
      </trkpt>
      <trkpt lat="47.26129" lon="-2.3213">
        <ele>-6.1999998092651</ele>
        <time>2020-08-02T06:56:04.000Z</time>
      </trkpt>
      <trkpt lat="47.26116" lon="-2.32171">
        <ele>-6.1999998092651</ele>
        <time>2020-08-02T06:56:12.000Z</time>
      </trkpt>
      <trkpt lat="47.26105" lon="-2.32194">
        <ele>-6.1999998092651</ele>
        <time>2020-08-02T06:56:17.000Z</time>
      </trkpt>
      <trkpt lat="47.26086" lon="-2.32226">
        <ele>-6.1999998092651</ele>
        <time>2020-08-02T06:56:25.000Z</time>
      </trkpt>
      <trkpt lat="47.26068" lon="-2.32248">
        <ele>-6.1999998092651</ele>
        <time>2020-08-02T06:56:31.000Z</time>
      </trkpt>
      <trkpt lat="47.2605" lon="-2.32269">
        <ele>-6.1999998092651</ele>
        <time>2020-08-02T06:56:37.000Z</time>
      </trkpt>
      <trkpt lat="47.26024" lon="-2.32298">
        <ele>-6.1999998092651</ele>
        <time>2020-08-02T06:56:45.000Z</time>
      </trkpt>
      <trkpt lat="47.26001" lon="-2.32325">
        <ele>-6.1999998092651</ele>
        <time>2020-08-02T06:56:52.000Z</time>
      </trkpt>
      <trkpt lat="47.25978" lon="-2.3236">
        <ele>-6.1999998092651</ele>
        <time>2020-08-02T06:57:00.000Z</time>
      </trkpt>
      <trkpt lat="47.25951" lon="-2.32394">
        <ele>-6.1999998092651</ele>
        <time>2020-08-02T06:57:09.000Z</time>
      </trkpt>
      <trkpt lat="47.25925" lon="-2.32424">
        <ele>-6.1999998092651</ele>
        <time>2020-08-02T06:57:17.000Z</time>
      </trkpt>
      <trkpt lat="47.25908" lon="-2.32447">
        <ele>-6.1999998092651</ele>
        <time>2020-08-02T06:57:23.000Z</time>
      </trkpt>
      <trkpt lat="47.25894" lon="-2.32469">
        <ele>-6.1999998092651</ele>
        <time>2020-08-02T06:57:29.000Z</time>
      </trkpt>
      <trkpt lat="47.2588" lon="-2.32473">
        <ele>-6.1999998092651</ele>
        <time>2020-08-02T06:57:33.000Z</time>
      </trkpt>
      <trkpt lat="47.25852" lon="-2.32474">
        <ele>-6.1999998092651</ele>
        <time>2020-08-02T06:57:40.000Z</time>
      </trkpt>
      <trkpt lat="47.25832" lon="-2.3247">
        <ele>-5.8000001907349</ele>
        <time>2020-08-02T06:57:45.000Z</time>
      </trkpt>
      <trkpt lat="47.25828" lon="-2.32468">
        <ele>-5.4000000953674</ele>
        <time>2020-08-02T06:57:46.000Z</time>
      </trkpt>
      <trkpt lat="47.25825" lon="-2.32466">
        <ele>-5</ele>
        <time>2020-08-02T06:57:47.000Z</time>
      </trkpt>
      <trkpt lat="47.25821" lon="-2.32464">
        <ele>-4.5999999046326</ele>
        <time>2020-08-02T06:57:48.000Z</time>
      </trkpt>
      <trkpt lat="47.25817" lon="-2.32462">
        <ele>-4.1999998092651</ele>
        <time>2020-08-02T06:57:49.000Z</time>
      </trkpt>
      <trkpt lat="47.25794" lon="-2.32456">
        <ele>-4.1999998092651</ele>
        <time>2020-08-02T06:57:55.000Z</time>
      </trkpt>
      <trkpt lat="47.25779" lon="-2.32454">
        <ele>-4.1999998092651</ele>
        <time>2020-08-02T06:58:00.000Z</time>
      </trkpt>
      <trkpt lat="47.25771" lon="-2.32436">
        <ele>-4.1999998092651</ele>
        <time>2020-08-02T06:58:04.000Z</time>
      </trkpt>
      <trkpt lat="47.25757" lon="-2.32427">
        <ele>-4.1999998092651</ele>
        <time>2020-08-02T06:58:08.000Z</time>
      </trkpt>
      <trkpt lat="47.25752" lon="-2.32426">
        <ele>-4.1999998092651</ele>
        <time>2020-08-02T06:58:09.000Z</time>
      </trkpt>
      <trkpt lat="47.25732" lon="-2.32426">
        <ele>-4.1999998092651</ele>
        <time>2020-08-02T06:58:13.000Z</time>
      </trkpt>
      <trkpt lat="47.2569" lon="-2.32423">
        <ele>-4.1999998092651</ele>
        <time>2020-08-02T06:58:22.000Z</time>
      </trkpt>
      <trkpt lat="47.25663" lon="-2.32423">
        <ele>-4.1999998092651</ele>
        <time>2020-08-02T06:58:29.000Z</time>
      </trkpt>
      <trkpt lat="47.25661" lon="-2.32426">
        <ele>-4.1999998092651</ele>
        <time>2020-08-02T06:58:30.000Z</time>
      </trkpt>
      <trkpt lat="47.25661" lon="-2.32438">
        <ele>-4.1999998092651</ele>
        <time>2020-08-02T06:58:32.000Z</time>
      </trkpt>
      <trkpt lat="47.25663" lon="-2.32451">
        <ele>-4.1999998092651</ele>
        <time>2020-08-02T06:58:34.000Z</time>
      </trkpt>
      <trkpt lat="47.25667" lon="-2.32467">
        <ele>-3.7999999523163</ele>
        <time>2020-08-02T06:58:37.000Z</time>
      </trkpt>
      <trkpt lat="47.25669" lon="-2.32472">
        <ele>-3.4000000953674</ele>
        <time>2020-08-02T06:58:38.000Z</time>
      </trkpt>
      <trkpt lat="47.2567" lon="-2.32477">
        <ele>-3</ele>
        <time>2020-08-02T06:58:39.000Z</time>
      </trkpt>
      <trkpt lat="47.25672" lon="-2.32482">
        <ele>-2.5999999046326</ele>
        <time>2020-08-02T06:58:40.000Z</time>
      </trkpt>
      <trkpt lat="47.25674" lon="-2.32486">
        <ele>-2.2000000476837</ele>
        <time>2020-08-02T06:58:41.000Z</time>
      </trkpt>
      <trkpt lat="47.2568" lon="-2.32505">
        <ele>-2.2000000476837</ele>
        <time>2020-08-02T06:58:45.000Z</time>
      </trkpt>
      <trkpt lat="47.25693" lon="-2.32539">
        <ele>-2.2000000476837</ele>
        <time>2020-08-02T06:58:53.000Z</time>
      </trkpt>
      <trkpt lat="47.25697" lon="-2.32558">
        <ele>-1.7999999523163</ele>
        <time>2020-08-02T06:58:57.000Z</time>
      </trkpt>
      <trkpt lat="47.25699" lon="-2.32562">
        <ele>-1.3999999761581</ele>
        <time>2020-08-02T06:58:58.000Z</time>
      </trkpt>
      <trkpt lat="47.257" lon="-2.32567">
        <ele>-1</ele>
        <time>2020-08-02T06:58:59.000Z</time>
      </trkpt>
      <trkpt lat="47.25701" lon="-2.32571">
        <ele>-0.60000002384186</ele>
        <time>2020-08-02T06:59:00.000Z</time>
      </trkpt>
      <trkpt lat="47.25702" lon="-2.32576">
        <ele>-0.20000000298023</ele>
        <time>2020-08-02T06:59:01.000Z</time>
      </trkpt>
      <trkpt lat="47.25709" lon="-2.32599">
        <ele>-0.20000000298023</ele>
        <time>2020-08-02T06:59:06.000Z</time>
      </trkpt>
      <trkpt lat="47.25708" lon="-2.32623">
        <ele>-0.20000000298023</ele>
        <time>2020-08-02T06:59:11.000Z</time>
      </trkpt>
      <trkpt lat="47.25697" lon="-2.32628">
        <ele>-0.20000000298023</ele>
        <time>2020-08-02T06:59:14.000Z</time>
      </trkpt>
      <trkpt lat="47.25674" lon="-2.32637">
        <ele>0.20000000298023</ele>
        <time>2020-08-02T06:59:21.000Z</time>
      </trkpt>
      <trkpt lat="47.25671" lon="-2.32639">
        <ele>0.60000002384186</ele>
        <time>2020-08-02T06:59:22.000Z</time>
      </trkpt>
      <trkpt lat="47.25668" lon="-2.32641">
        <ele>1</ele>
        <time>2020-08-02T06:59:23.000Z</time>
      </trkpt>
      <trkpt lat="47.25664" lon="-2.32643">
        <ele>1.3999999761581</ele>
        <time>2020-08-02T06:59:24.000Z</time>
      </trkpt>
      <trkpt lat="47.25661" lon="-2.32644">
        <ele>2</ele>
        <time>2020-08-02T06:59:25.000Z</time>
      </trkpt>
      <trkpt lat="47.25655" lon="-2.32648">
        <ele>2</ele>
        <time>2020-08-02T06:59:27.000Z</time>
      </trkpt>
      <trkpt lat="47.25625" lon="-2.32661">
        <ele>2</ele>
        <time>2020-08-02T06:59:36.000Z</time>
      </trkpt>
      <trkpt lat="47.25601" lon="-2.3267">
        <ele>2.4000000953674</ele>
        <time>2020-08-02T06:59:43.000Z</time>
      </trkpt>
      <trkpt lat="47.25598" lon="-2.3267">
        <ele>2.7999999523163</ele>
        <time>2020-08-02T06:59:44.000Z</time>
      </trkpt>
      <trkpt lat="47.25594" lon="-2.32671">
        <ele>3.2000000476837</ele>
        <time>2020-08-02T06:59:45.000Z</time>
      </trkpt>
      <trkpt lat="47.25591" lon="-2.32673">
        <ele>3.5999999046326</ele>
        <time>2020-08-02T06:59:46.000Z</time>
      </trkpt>
      <trkpt lat="47.25587" lon="-2.32674">
        <ele>4</ele>
        <time>2020-08-02T06:59:47.000Z</time>
      </trkpt>
      <trkpt lat="47.25564" lon="-2.32684">
        <ele>4</ele>
        <time>2020-08-02T06:59:53.000Z</time>
      </trkpt>
      <trkpt lat="47.25532" lon="-2.32698">
        <ele>4</ele>
        <time>2020-08-02T07:00:02.000Z</time>
      </trkpt>
      <trkpt lat="47.2552" lon="-2.32702">
        <ele>4</ele>
        <time>2020-08-02T07:00:05.000Z</time>
      </trkpt>
      <trkpt lat="47.25504" lon="-2.32702">
        <ele>4</ele>
        <time>2020-08-02T07:00:09.000Z</time>
      </trkpt>
      <trkpt lat="47.25483" lon="-2.32706">
        <ele>4</ele>
        <time>2020-08-02T07:00:14.000Z</time>
      </trkpt>
      <trkpt lat="47.25476" lon="-2.32711">
        <ele>4</ele>
        <time>2020-08-02T07:00:16.000Z</time>
      </trkpt>
      <trkpt lat="47.25466" lon="-2.32724">
        <ele>4</ele>
        <time>2020-08-02T07:00:19.000Z</time>
      </trkpt>
      <trkpt lat="47.2546" lon="-2.32733">
        <ele>4</ele>
        <time>2020-08-02T07:00:21.000Z</time>
      </trkpt>
      <trkpt lat="47.25437" lon="-2.32769">
        <ele>4</ele>
        <time>2020-08-02T07:00:29.000Z</time>
      </trkpt>
      <trkpt lat="47.25435" lon="-2.32779">
        <ele>4</ele>
        <time>2020-08-02T07:00:31.000Z</time>
      </trkpt>
      <trkpt lat="47.25429" lon="-2.32789">
        <ele>4</ele>
        <time>2020-08-02T07:00:33.000Z</time>
      </trkpt>
      <trkpt lat="47.25396" lon="-2.32834">
        <ele>4</ele>
        <time>2020-08-02T07:00:42.000Z</time>
      </trkpt>
      <trkpt lat="47.25376" lon="-2.32857">
        <ele>3.5999999046326</ele>
        <time>2020-08-02T07:00:47.000Z</time>
      </trkpt>
      <trkpt lat="47.25372" lon="-2.32861">
        <ele>3.2000000476837</ele>
        <time>2020-08-02T07:00:48.000Z</time>
      </trkpt>
      <trkpt lat="47.25368" lon="-2.32865">
        <ele>2.7999999523163</ele>
        <time>2020-08-02T07:00:49.000Z</time>
      </trkpt>
      <trkpt lat="47.25364" lon="-2.32869">
        <ele>2.4000000953674</ele>
        <time>2020-08-02T07:00:50.000Z</time>
      </trkpt>
      <trkpt lat="47.2536" lon="-2.32873">
        <ele>2</ele>
        <time>2020-08-02T07:00:51.000Z</time>
      </trkpt>
      <trkpt lat="47.25321" lon="-2.3291">
        <ele>2</ele>
        <time>2020-08-02T07:01:01.000Z</time>
      </trkpt>
      <trkpt lat="47.25317" lon="-2.32914">
        <ele>2</ele>
        <time>2020-08-02T07:01:02.000Z</time>
      </trkpt>
      <trkpt lat="47.25309" lon="-2.3293">
        <ele>2</ele>
        <time>2020-08-02T07:01:05.000Z</time>
      </trkpt>
      <trkpt lat="47.2531" lon="-2.32955">
        <ele>2</ele>
        <time>2020-08-02T07:01:09.000Z</time>
      </trkpt>
      <trkpt lat="47.25312" lon="-2.3296">
        <ele>2</ele>
        <time>2020-08-02T07:01:10.000Z</time>
      </trkpt>
      <trkpt lat="47.2532" lon="-2.32983">
        <ele>2</ele>
        <time>2020-08-02T07:01:14.000Z</time>
      </trkpt>
      <trkpt lat="47.25338" lon="-2.33026">
        <ele>2</ele>
        <time>2020-08-02T07:01:22.000Z</time>
      </trkpt>
      <trkpt lat="47.25355" lon="-2.3307">
        <ele>2</ele>
        <time>2020-08-02T07:01:30.000Z</time>
      </trkpt>
      <trkpt lat="47.25368" lon="-2.33106">
        <ele>2</ele>
        <time>2020-08-02T07:01:37.000Z</time>
      </trkpt>
      <trkpt lat="47.25368" lon="-2.3311">
        <ele>2</ele>
        <time>2020-08-02T07:01:40.000Z</time>
      </trkpt>
      <trkpt lat="47.25368" lon="-2.3311">
        <ele>1.6000000238419</ele>
        <time>2020-08-02T07:01:41.000Z</time>
      </trkpt>
      <trkpt lat="47.25371" lon="-2.33109">
        <ele>-0.20000000298023</ele>
        <time>2020-08-02T07:01:49.000Z</time>
      </trkpt>
      <trkpt lat="47.25373" lon="-2.33107">
        <ele>-0.20000000298023</ele>
        <time>2020-08-02T07:01:51.000Z</time>
      </trkpt>
      <trkpt lat="47.25377" lon="-2.33121">
        <ele>-0.20000000298023</ele>
        <time>2020-08-02T07:09:50.000Z</time>
      </trkpt>
      <trkpt lat="47.2538" lon="-2.33129">
        <ele>-0.20000000298023</ele>
        <time>2020-08-02T07:09:53.000Z</time>
      </trkpt>
      <trkpt lat="47.25383" lon="-2.33136">
        <ele>-0.20000000298023</ele>
        <time>2020-08-02T07:09:57.000Z</time>
      </trkpt>
      <trkpt lat="47.25384" lon="-2.33137">
        <ele>-0.20000000298023</ele>
        <time>2020-08-02T07:10:15.000Z</time>
      </trkpt>
      <trkpt lat="47.25385" lon="-2.33138">
        <ele>-0.20000000298023</ele>
        <time>2020-08-02T07:10:16.000Z</time>
      </trkpt>
      <trkpt lat="47.25392" lon="-2.33137">
        <ele>-0.20000000298023</ele>
        <time>2020-08-02T07:10:20.000Z</time>
      </trkpt>
      <trkpt lat="47.25404" lon="-2.33127">
        <ele>-0.20000000298023</ele>
        <time>2020-08-02T07:10:26.000Z</time>
      </trkpt>
      <trkpt lat="47.25429" lon="-2.33117">
        <ele>-0.20000000298023</ele>
        <time>2020-08-02T07:10:34.000Z</time>
      </trkpt>
      <trkpt lat="47.25455" lon="-2.33106">
        <ele>-0.20000000298023</ele>
        <time>2020-08-02T07:10:42.000Z</time>
      </trkpt>
      <trkpt lat="47.25478" lon="-2.33094">
        <ele>-0.20000000298023</ele>
        <time>2020-08-02T07:10:49.000Z</time>
      </trkpt>
      <trkpt lat="47.25496" lon="-2.33078">
        <ele>-0.20000000298023</ele>
        <time>2020-08-02T07:10:56.000Z</time>
      </trkpt>
      <trkpt lat="47.25512" lon="-2.33058">
        <ele>-0.20000000298023</ele>
        <time>2020-08-02T07:11:02.000Z</time>
      </trkpt>
      <trkpt lat="47.25536" lon="-2.33044">
        <ele>-0.20000000298023</ele>
        <time>2020-08-02T07:11:09.000Z</time>
      </trkpt>
      <trkpt lat="47.25562" lon="-2.33036">
        <ele>-0.20000000298023</ele>
        <time>2020-08-02T07:11:17.000Z</time>
      </trkpt>
      <trkpt lat="47.25575" lon="-2.33034">
        <ele>0.20000000298023</ele>
        <time>2020-08-02T07:11:21.000Z</time>
      </trkpt>
      <trkpt lat="47.25579" lon="-2.33033">
        <ele>0.60000002384186</ele>
        <time>2020-08-02T07:11:22.000Z</time>
      </trkpt>
      <trkpt lat="47.25582" lon="-2.33032">
        <ele>1</ele>
        <time>2020-08-02T07:11:23.000Z</time>
      </trkpt>
      <trkpt lat="47.25586" lon="-2.33032">
        <ele>1.3999999761581</ele>
        <time>2020-08-02T07:11:24.000Z</time>
      </trkpt>
      <trkpt lat="47.25589" lon="-2.33031">
        <ele>1.7999999523163</ele>
        <time>2020-08-02T07:11:25.000Z</time>
      </trkpt>
      <trkpt lat="47.25613" lon="-2.33023">
        <ele>1.7999999523163</ele>
        <time>2020-08-02T07:11:32.000Z</time>
      </trkpt>
      <trkpt lat="47.25614" lon="-2.33018">
        <ele>1.7999999523163</ele>
        <time>2020-08-02T07:11:33.000Z</time>
      </trkpt>
      <trkpt lat="47.25616" lon="-2.33007">
        <ele>1.7999999523163</ele>
        <time>2020-08-02T07:11:35.000Z</time>
      </trkpt>
      <trkpt lat="47.25613" lon="-2.32991">
        <ele>1.7999999523163</ele>
        <time>2020-08-02T07:11:38.000Z</time>
      </trkpt>
      <trkpt lat="47.25611" lon="-2.3298">
        <ele>1.7999999523163</ele>
        <time>2020-08-02T07:11:40.000Z</time>
      </trkpt>
      <trkpt lat="47.25607" lon="-2.32958">
        <ele>2.2000000476837</ele>
        <time>2020-08-02T07:11:44.000Z</time>
      </trkpt>
      <trkpt lat="47.25606" lon="-2.32953">
        <ele>2.7999999523163</ele>
        <time>2020-08-02T07:11:45.000Z</time>
      </trkpt>
      <trkpt lat="47.25605" lon="-2.32948">
        <ele>3.2000000476837</ele>
        <time>2020-08-02T07:11:46.000Z</time>
      </trkpt>
      <trkpt lat="47.25604" lon="-2.32942">
        <ele>3.5999999046326</ele>
        <time>2020-08-02T07:11:47.000Z</time>
      </trkpt>
      <trkpt lat="47.25605" lon="-2.32936">
        <ele>4</ele>
        <time>2020-08-02T07:11:48.000Z</time>
      </trkpt>
      <trkpt lat="47.25602" lon="-2.32913">
        <ele>4</ele>
        <time>2020-08-02T07:11:52.000Z</time>
      </trkpt>
      <trkpt lat="47.25593" lon="-2.32853">
        <ele>4</ele>
        <time>2020-08-02T07:12:02.000Z</time>
      </trkpt>
      <trkpt lat="47.25592" lon="-2.32823">
        <ele>4</ele>
        <time>2020-08-02T07:12:07.000Z</time>
      </trkpt>
      <trkpt lat="47.25593" lon="-2.32817">
        <ele>4</ele>
        <time>2020-08-02T07:12:08.000Z</time>
      </trkpt>
      <trkpt lat="47.25599" lon="-2.32774">
        <ele>4</ele>
        <time>2020-08-02T07:12:15.000Z</time>
      </trkpt>
      <trkpt lat="47.25601" lon="-2.32724">
        <ele>4</ele>
        <time>2020-08-02T07:12:23.000Z</time>
      </trkpt>
      <trkpt lat="47.25603" lon="-2.32675">
        <ele>4</ele>
        <time>2020-08-02T07:12:31.000Z</time>
      </trkpt>
      <trkpt lat="47.25611" lon="-2.32662">
        <ele>4</ele>
        <time>2020-08-02T07:12:35.000Z</time>
      </trkpt>
      <trkpt lat="47.25615" lon="-2.3266">
        <ele>4</ele>
        <time>2020-08-02T07:12:36.000Z</time>
      </trkpt>
      <trkpt lat="47.25633" lon="-2.32652">
        <ele>4</ele>
        <time>2020-08-02T07:12:40.000Z</time>
      </trkpt>
      <trkpt lat="47.2567" lon="-2.32636">
        <ele>4</ele>
        <time>2020-08-02T07:12:47.000Z</time>
      </trkpt>
      <trkpt lat="47.25704" lon="-2.32619">
        <ele>4</ele>
        <time>2020-08-02T07:12:53.000Z</time>
      </trkpt>
      <trkpt lat="47.25709" lon="-2.32599">
        <ele>4</ele>
        <time>2020-08-02T07:12:56.000Z</time>
      </trkpt>
      <trkpt lat="47.25705" lon="-2.32584">
        <ele>3.5999999046326</ele>
        <time>2020-08-02T07:12:58.000Z</time>
      </trkpt>
      <trkpt lat="47.25703" lon="-2.32576">
        <ele>3</ele>
        <time>2020-08-02T07:12:59.000Z</time>
      </trkpt>
      <trkpt lat="47.257" lon="-2.32569">
        <ele>2.5999999046326</ele>
        <time>2020-08-02T07:13:00.000Z</time>
      </trkpt>
      <trkpt lat="47.25698" lon="-2.32561">
        <ele>2.2000000476837</ele>
        <time>2020-08-02T07:13:01.000Z</time>
      </trkpt>
      <trkpt lat="47.25695" lon="-2.32552">
        <ele>1.7999999523163</ele>
        <time>2020-08-02T07:13:02.000Z</time>
      </trkpt>
      <trkpt lat="47.25681" lon="-2.32509">
        <ele>1.7999999523163</ele>
        <time>2020-08-02T07:13:07.000Z</time>
      </trkpt>
      <trkpt lat="47.25666" lon="-2.32463">
        <ele>1.3999999761581</ele>
        <time>2020-08-02T07:13:12.000Z</time>
      </trkpt>
      <trkpt lat="47.25664" lon="-2.32454">
        <ele>1</ele>
        <time>2020-08-02T07:13:13.000Z</time>
      </trkpt>
      <trkpt lat="47.25662" lon="-2.32444">
        <ele>0.40000000596046</ele>
        <time>2020-08-02T07:13:14.000Z</time>
      </trkpt>
      <trkpt lat="47.2566" lon="-2.32434">
        <ele>5.2</ele>
        <time>2020-08-02T07:13:15.000Z</time>
      </trkpt>
      <trkpt lat="47.25658" lon="-2.32425">
        <ele>-0.40000000596046</ele>
        <time>2020-08-02T07:13:16.000Z</time>
      </trkpt>
      <trkpt lat="47.25654" lon="-2.3241">
        <ele>-0.40000000596046</ele>
        <time>2020-08-02T07:13:18.000Z</time>
      </trkpt>
      <trkpt lat="47.25656" lon="-2.32403">
        <ele>-0.40000000596046</ele>
        <time>2020-08-02T07:13:19.000Z</time>
      </trkpt>
      <trkpt lat="47.25662" lon="-2.32399">
        <ele>-0.40000000596046</ele>
        <time>2020-08-02T07:13:21.000Z</time>
      </trkpt>
      <trkpt lat="47.2567" lon="-2.3241">
        <ele>-0.40000000596046</ele>
        <time>2020-08-02T07:13:24.000Z</time>
      </trkpt>
      <trkpt lat="47.25685" lon="-2.32417">
        <ele>-0.40000000596046</ele>
        <time>2020-08-02T07:13:27.000Z</time>
      </trkpt>
      <trkpt lat="47.25691" lon="-2.32418">
        <ele>-0.40000000596046</ele>
        <time>2020-08-02T07:13:28.000Z</time>
      </trkpt>
      <trkpt lat="47.25728" lon="-2.32421">
        <ele>-0.40000000596046</ele>
        <time>2020-08-02T07:13:34.000Z</time>
      </trkpt>
      <trkpt lat="47.25757" lon="-2.32422">
        <ele>-0.40000000596046</ele>
        <time>2020-08-02T07:13:39.000Z</time>
      </trkpt>
      <trkpt lat="47.25762" lon="-2.3242">
        <ele>-0.40000000596046</ele>
        <time>2020-08-02T07:13:40.000Z</time>
      </trkpt>
      <trkpt lat="47.25779" lon="-2.32414">
        <ele>-0.40000000596046</ele>
        <time>2020-08-02T07:13:44.000Z</time>
      </trkpt>
      <trkpt lat="47.25789" lon="-2.32428">
        <ele>-0.40000000596046</ele>
        <time>2020-08-02T07:13:47.000Z</time>
      </trkpt>
      <trkpt lat="47.25792" lon="-2.32435">
        <ele>-0.40000000596046</ele>
        <time>2020-08-02T07:13:48.000Z</time>
      </trkpt>
      <trkpt lat="47.25802" lon="-2.32454">
        <ele>-0.40000000596046</ele>
        <time>2020-08-02T07:13:51.000Z</time>
      </trkpt>
      <trkpt lat="47.25807" lon="-2.32467">
        <ele>-0.40000000596046</ele>
        <time>2020-08-02T07:13:53.000Z</time>
      </trkpt>
      <trkpt lat="47.25811" lon="-2.32473">
        <ele>-0.40000000596046</ele>
        <time>2020-08-02T07:13:54.000Z</time>
      </trkpt>
      <trkpt lat="47.25826" lon="-2.32496">
        <ele>-0.40000000596046</ele>
        <time>2020-08-02T07:13:58.000Z</time>
      </trkpt>
      <trkpt lat="47.25841" lon="-2.32517">
        <ele>-0.80000001192093</ele>
        <time>2020-08-02T07:14:02.000Z</time>
      </trkpt>
      <trkpt lat="47.25845" lon="-2.32522">
        <ele>-1.2000000476837</ele>
        <time>2020-08-02T07:14:03.000Z</time>
      </trkpt>
      <trkpt lat="47.25849" lon="-2.32528">
        <ele>-1.6000000238419</ele>
        <time>2020-08-02T07:14:04.000Z</time>
      </trkpt>
      <trkpt lat="47.25853" lon="-2.32534">
        <ele>-2</ele>
        <time>2020-08-02T07:14:05.000Z</time>
      </trkpt>
      <trkpt lat="47.25857" lon="-2.32539">
        <ele>-2.4000000953674</ele>
        <time>2020-08-02T07:14:06.000Z</time>
      </trkpt>
      <trkpt lat="47.25877" lon="-2.3257">
        <ele>-2.4000000953674</ele>
        <time>2020-08-02T07:14:11.000Z</time>
      </trkpt>
      <trkpt lat="47.25888" lon="-2.32586">
        <ele>-2.4000000953674</ele>
        <time>2020-08-02T07:14:14.000Z</time>
      </trkpt>
      <trkpt lat="47.25897" lon="-2.32593">
        <ele>-2.4000000953674</ele>
        <time>2020-08-02T07:14:16.000Z</time>
      </trkpt>
      <trkpt lat="47.2591" lon="-2.32609">
        <ele>-2.4000000953674</ele>
        <time>2020-08-02T07:14:19.000Z</time>
      </trkpt>
      <trkpt lat="47.25918" lon="-2.3262">
        <ele>-2.4000000953674</ele>
        <time>2020-08-02T07:14:21.000Z</time>
      </trkpt>
      <trkpt lat="47.25948" lon="-2.32654">
        <ele>-2.4000000953674</ele>
        <time>2020-08-02T07:14:28.000Z</time>
      </trkpt>
      <trkpt lat="47.25953" lon="-2.32657">
        <ele>-2.4000000953674</ele>
        <time>2020-08-02T07:14:29.000Z</time>
      </trkpt>
      <trkpt lat="47.2597" lon="-2.32658">
        <ele>-2.4000000953674</ele>
        <time>2020-08-02T07:14:32.000Z</time>
      </trkpt>
      <trkpt lat="47.25975" lon="-2.32658">
        <ele>-2.4000000953674</ele>
        <time>2020-08-02T07:14:33.000Z</time>
      </trkpt>
      <trkpt lat="47.25981" lon="-2.32658">
        <ele>-2.4000000953674</ele>
        <time>2020-08-02T07:14:34.000Z</time>
      </trkpt>
      <trkpt lat="47.25991" lon="-2.32659">
        <ele>-2.4000000953674</ele>
        <time>2020-08-02T07:14:36.000Z</time>
      </trkpt>
      <trkpt lat="47.25996" lon="-2.32658">
        <ele>-2.4000000953674</ele>
        <time>2020-08-02T07:14:37.000Z</time>
      </trkpt>
      <trkpt lat="47.26035" lon="-2.32651">
        <ele>-2.4000000953674</ele>
        <time>2020-08-02T07:14:45.000Z</time>
      </trkpt>
      <trkpt lat="47.26084" lon="-2.32642">
        <ele>-2.4000000953674</ele>
        <time>2020-08-02T07:14:55.000Z</time>
      </trkpt>
      <trkpt lat="47.26104" lon="-2.32638">
        <ele>-2.4000000953674</ele>
        <time>2020-08-02T07:14:59.000Z</time>
      </trkpt>
      <trkpt lat="47.26118" lon="-2.32636">
        <ele>-2.4000000953674</ele>
        <time>2020-08-02T07:15:02.000Z</time>
      </trkpt>
      <trkpt lat="47.26133" lon="-2.32637">
        <ele>-2.4000000953674</ele>
        <time>2020-08-02T07:15:05.000Z</time>
      </trkpt>
      <trkpt lat="47.26142" lon="-2.3264">
        <ele>-2.4000000953674</ele>
        <time>2020-08-02T07:15:07.000Z</time>
      </trkpt>
      <trkpt lat="47.26151" lon="-2.32643">
        <ele>-2.4000000953674</ele>
        <time>2020-08-02T07:15:09.000Z</time>
      </trkpt>
      <trkpt lat="47.26184" lon="-2.32665">
        <ele>-2.4000000953674</ele>
        <time>2020-08-02T07:15:16.000Z</time>
      </trkpt>
      <trkpt lat="47.26222" lon="-2.32707">
        <ele>-2.4000000953674</ele>
        <time>2020-08-02T07:15:25.000Z</time>
      </trkpt>
      <trkpt lat="47.2626" lon="-2.32761">
        <ele>-2.4000000953674</ele>
        <time>2020-08-02T07:15:34.000Z</time>
      </trkpt>
      <trkpt lat="47.26279" lon="-2.32803">
        <ele>-2.4000000953674</ele>
        <time>2020-08-02T07:15:40.000Z</time>
      </trkpt>
      <trkpt lat="47.26287" lon="-2.32833">
        <ele>-2.4000000953674</ele>
        <time>2020-08-02T07:15:44.000Z</time>
      </trkpt>
      <trkpt lat="47.26288" lon="-2.32841">
        <ele>-2.4000000953674</ele>
        <time>2020-08-02T07:15:45.000Z</time>
      </trkpt>
      <trkpt lat="47.26289" lon="-2.32849">
        <ele>-2.4000000953674</ele>
        <time>2020-08-02T07:15:46.000Z</time>
      </trkpt>
      <trkpt lat="47.26297" lon="-2.3286">
        <ele>-2.4000000953674</ele>
        <time>2020-08-02T07:15:48.000Z</time>
      </trkpt>
      <trkpt lat="47.26317" lon="-2.32873">
        <ele>-2.4000000953674</ele>
        <time>2020-08-02T07:15:52.000Z</time>
      </trkpt>
      <trkpt lat="47.26326" lon="-2.32893">
        <ele>-2.4000000953674</ele>
        <time>2020-08-02T07:15:55.000Z</time>
      </trkpt>
      <trkpt lat="47.26328" lon="-2.329">
        <ele>-2.4000000953674</ele>
        <time>2020-08-02T07:15:56.000Z</time>
      </trkpt>
      <trkpt lat="47.26347" lon="-2.3296">
        <ele>-2.4000000953674</ele>
        <time>2020-08-02T07:16:04.000Z</time>
      </trkpt>
      <trkpt lat="47.2635" lon="-2.32967">
        <ele>-2.4000000953674</ele>
        <time>2020-08-02T07:16:05.000Z</time>
      </trkpt>
      <trkpt lat="47.26362" lon="-2.32984">
        <ele>-2.4000000953674</ele>
        <time>2020-08-02T07:16:08.000Z</time>
      </trkpt>
      <trkpt lat="47.26365" lon="-2.32991">
        <ele>-2.4000000953674</ele>
        <time>2020-08-02T07:16:09.000Z</time>
      </trkpt>
      <trkpt lat="47.26367" lon="-2.33005">
        <ele>-2.4000000953674</ele>
        <time>2020-08-02T07:16:11.000Z</time>
      </trkpt>
      <trkpt lat="47.26367" lon="-2.33021">
        <ele>-2.4000000953674</ele>
        <time>2020-08-02T07:16:13.000Z</time>
      </trkpt>
      <trkpt lat="47.26368" lon="-2.33053">
        <ele>-2.4000000953674</ele>
        <time>2020-08-02T07:16:17.000Z</time>
      </trkpt>
      <trkpt lat="47.26369" lon="-2.33061">
        <ele>-2.7999999523163</ele>
        <time>2020-08-02T07:16:18.000Z</time>
      </trkpt>
      <trkpt lat="47.26369" lon="-2.33069">
        <ele>-3.2000000476837</ele>
        <time>2020-08-02T07:16:19.000Z</time>
      </trkpt>
      <trkpt lat="47.26369" lon="-2.33078">
        <ele>-3.5999999046326</ele>
        <time>2020-08-02T07:16:20.000Z</time>
      </trkpt>
      <trkpt lat="47.2637" lon="-2.33086">
        <ele>-4</ele>
        <time>2020-08-02T07:16:21.000Z</time>
      </trkpt>
      <trkpt lat="47.2637" lon="-2.33094">
        <ele>-4.5999999046326</ele>
        <time>2020-08-02T07:16:22.000Z</time>
      </trkpt>
      <trkpt lat="47.26372" lon="-2.33119">
        <ele>-4.5999999046326</ele>
        <time>2020-08-02T07:16:25.000Z</time>
      </trkpt>
      <trkpt lat="47.26376" lon="-2.33174">
        <ele>-4.5999999046326</ele>
        <time>2020-08-02T07:16:32.000Z</time>
      </trkpt>
      <trkpt lat="47.26381" lon="-2.33246">
        <ele>-4.5999999046326</ele>
        <time>2020-08-02T07:16:41.000Z</time>
      </trkpt>
      <trkpt lat="47.2639" lon="-2.33263">
        <ele>-4.5999999046326</ele>
        <time>2020-08-02T07:16:44.000Z</time>
      </trkpt>
      <trkpt lat="47.26406" lon="-2.33268">
        <ele>-4.5999999046326</ele>
        <time>2020-08-02T07:16:47.000Z</time>
      </trkpt>
      <trkpt lat="47.26447" lon="-2.33271">
        <ele>-4.5999999046326</ele>
        <time>2020-08-02T07:16:56.000Z</time>
      </trkpt>
      <trkpt lat="47.26487" lon="-2.33279">
        <ele>-4.5999999046326</ele>
        <time>2020-08-02T07:17:05.000Z</time>
      </trkpt>
      <trkpt lat="47.26501" lon="-2.3328">
        <ele>-4.5999999046326</ele>
        <time>2020-08-02T07:17:08.000Z</time>
      </trkpt>
      <trkpt lat="47.26504" lon="-2.33283">
        <ele>-4.5999999046326</ele>
        <time>2020-08-02T07:17:09.000Z</time>
      </trkpt>
      <trkpt lat="47.26522" lon="-2.33291">
        <ele>-4.5999999046326</ele>
        <time>2020-08-02T07:17:14.000Z</time>
      </trkpt>
      <trkpt lat="47.26533" lon="-2.33293">
        <ele>-4.5999999046326</ele>
        <time>2020-08-02T07:17:17.000Z</time>
      </trkpt>
      <trkpt lat="47.26542" lon="-2.33298">
        <ele>-4.5999999046326</ele>
        <time>2020-08-02T07:17:21.000Z</time>
      </trkpt>
      <trkpt lat="47.26547" lon="-2.33291">
        <ele>-4.5999999046326</ele>
        <time>2020-08-02T07:17:23.000Z</time>
      </trkpt>
      <trkpt lat="47.26553" lon="-2.33284">
        <ele>-4.5999999046326</ele>
        <time>2020-08-02T07:17:25.000Z</time>
      </trkpt>
      <trkpt lat="47.26581" lon="-2.33256">
        <ele>-4.5999999046326</ele>
        <time>2020-08-02T07:17:32.000Z</time>
      </trkpt>
      <trkpt lat="47.26585" lon="-2.33252">
        <ele>-4</ele>
        <time>2020-08-02T07:17:33.000Z</time>
      </trkpt>
      <trkpt lat="47.26589" lon="-2.33248">
        <ele>-3.5999999046326</ele>
        <time>2020-08-02T07:17:34.000Z</time>
      </trkpt>
      <trkpt lat="47.26593" lon="-2.33244">
        <ele>-3.2000000476837</ele>
        <time>2020-08-02T07:17:35.000Z</time>
      </trkpt>
      <trkpt lat="47.26597" lon="-2.3324">
        <ele>-2.7999999523163</ele>
        <time>2020-08-02T07:17:36.000Z</time>
      </trkpt>
      <trkpt lat="47.26602" lon="-2.33235">
        <ele>-2.4000000953674</ele>
        <time>2020-08-02T07:17:37.000Z</time>
      </trkpt>
      <trkpt lat="47.26619" lon="-2.33217">
        <ele>-2.4000000953674</ele>
        <time>2020-08-02T07:17:41.000Z</time>
      </trkpt>
      <trkpt lat="47.26659" lon="-2.33177">
        <ele>-2.4000000953674</ele>
        <time>2020-08-02T07:17:50.000Z</time>
      </trkpt>
      <trkpt lat="47.26698" lon="-2.33137">
        <ele>-2.4000000953674</ele>
        <time>2020-08-02T07:17:59.000Z</time>
      </trkpt>
      <trkpt lat="47.26732" lon="-2.33103">
        <ele>-2.4000000953674</ele>
        <time>2020-08-02T07:18:07.000Z</time>
      </trkpt>
      <trkpt lat="47.26753" lon="-2.33089">
        <ele>-2.4000000953674</ele>
        <time>2020-08-02T07:18:13.000Z</time>
      </trkpt>
      <trkpt lat="47.26761" lon="-2.33103">
        <ele>-2.4000000953674</ele>
        <time>2020-08-02T07:18:16.000Z</time>
      </trkpt>
      <trkpt lat="47.26761" lon="-2.33132">
        <ele>-2.4000000953674</ele>
        <time>2020-08-02T07:18:20.000Z</time>
      </trkpt>
      <trkpt lat="47.26755" lon="-2.33157">
        <ele>-2.4000000953674</ele>
        <time>2020-08-02T07:18:23.000Z</time>
      </trkpt>
      <trkpt lat="47.26751" lon="-2.33174">
        <ele>-2.4000000953674</ele>
        <time>2020-08-02T07:18:25.000Z</time>
      </trkpt>
      <trkpt lat="47.26736" lon="-2.33228">
        <ele>-2.4000000953674</ele>
        <time>2020-08-02T07:18:32.000Z</time>
      </trkpt>
      <trkpt lat="47.26729" lon="-2.33261">
        <ele>-2.4000000953674</ele>
        <time>2020-08-02T07:18:36.000Z</time>
      </trkpt>
      <trkpt lat="47.26729" lon="-2.33279">
        <ele>-2.4000000953674</ele>
        <time>2020-08-02T07:18:38.000Z</time>
      </trkpt>
      <trkpt lat="47.26731" lon="-2.33298">
        <ele>-2.4000000953674</ele>
        <time>2020-08-02T07:18:40.000Z</time>
      </trkpt>
      <trkpt lat="47.26734" lon="-2.33306">
        <ele>-2.4000000953674</ele>
        <time>2020-08-02T07:18:41.000Z</time>
      </trkpt>
      <trkpt lat="47.26738" lon="-2.33322">
        <ele>-2.4000000953674</ele>
        <time>2020-08-02T07:18:43.000Z</time>
      </trkpt>
      <trkpt lat="47.26749" lon="-2.33379">
        <ele>-2.4000000953674</ele>
        <time>2020-08-02T07:18:50.000Z</time>
      </trkpt>
      <trkpt lat="47.26753" lon="-2.33403">
        <ele>-2.4000000953674</ele>
        <time>2020-08-02T07:18:53.000Z</time>
      </trkpt>
      <trkpt lat="47.26756" lon="-2.33428">
        <ele>-2.4000000953674</ele>
        <time>2020-08-02T07:18:56.000Z</time>
      </trkpt>
      <trkpt lat="47.26764" lon="-2.33493">
        <ele>-2.4000000953674</ele>
        <time>2020-08-02T07:19:04.000Z</time>
      </trkpt>
      <trkpt lat="47.26775" lon="-2.33547">
        <ele>-2.4000000953674</ele>
        <time>2020-08-02T07:19:11.000Z</time>
      </trkpt>
      <trkpt lat="47.26775" lon="-2.33554">
        <ele>-2.4000000953674</ele>
        <time>2020-08-02T07:19:12.000Z</time>
      </trkpt>
      <trkpt lat="47.26782" lon="-2.3357">
        <ele>-2.4000000953674</ele>
        <time>2020-08-02T07:19:15.000Z</time>
      </trkpt>
      <trkpt lat="47.26795" lon="-2.33567">
        <ele>-2.4000000953674</ele>
        <time>2020-08-02T07:19:18.000Z</time>
      </trkpt>
      <trkpt lat="47.26828" lon="-2.33551">
        <ele>-2.4000000953674</ele>
        <time>2020-08-02T07:19:25.000Z</time>
      </trkpt>
      <trkpt lat="47.26838" lon="-2.33549">
        <ele>-2.4000000953674</ele>
        <time>2020-08-02T07:19:27.000Z</time>
      </trkpt>
      <trkpt lat="47.26852" lon="-2.33545">
        <ele>-2.4000000953674</ele>
        <time>2020-08-02T07:19:30.000Z</time>
      </trkpt>
      <trkpt lat="47.26883" lon="-2.33531">
        <ele>-2.4000000953674</ele>
        <time>2020-08-02T07:19:36.000Z</time>
      </trkpt>
      <trkpt lat="47.26886" lon="-2.33526">
        <ele>-2.4000000953674</ele>
        <time>2020-08-02T07:19:37.000Z</time>
      </trkpt>
      <trkpt lat="47.26887" lon="-2.33509">
        <ele>-2.4000000953674</ele>
        <time>2020-08-02T07:19:40.000Z</time>
      </trkpt>
      <trkpt lat="47.26885" lon="-2.33499">
        <ele>-1.6000000238419</ele>
        <time>2020-08-02T07:19:42.000Z</time>
      </trkpt>
      <trkpt lat="47.26884" lon="-2.33494">
        <ele>-1</ele>
        <time>2020-08-02T07:19:43.000Z</time>
      </trkpt>
      <trkpt lat="47.26883" lon="-2.33489">
        <ele>-0.60000002384186</ele>
        <time>2020-08-02T07:19:44.000Z</time>
      </trkpt>
      <trkpt lat="47.26882" lon="-2.33484">
        <ele>-0.20000000298023</ele>
        <time>2020-08-02T07:19:45.000Z</time>
      </trkpt>
      <trkpt lat="47.26882" lon="-2.33479">
        <ele>-0.20000000298023</ele>
        <time>2020-08-02T07:19:46.000Z</time>
      </trkpt>
      <trkpt lat="47.26881" lon="-2.33474">
        <ele>0.20000000298023</ele>
        <time>2020-08-02T07:19:47.000Z</time>
      </trkpt>
      <trkpt lat="47.26881" lon="-2.3347">
        <ele>0.60000002384186</ele>
        <time>2020-08-02T07:19:48.000Z</time>
      </trkpt>
      <trkpt lat="47.2688" lon="-2.33465">
        <ele>1</ele>
        <time>2020-08-02T07:19:49.000Z</time>
      </trkpt>
      <trkpt lat="47.2688" lon="-2.33461">
        <ele>1.6000000238419</ele>
        <time>2020-08-02T07:19:50.000Z</time>
      </trkpt>
      <trkpt lat="47.26879" lon="-2.33457">
        <ele>2</ele>
        <time>2020-08-02T07:19:51.000Z</time>
      </trkpt>
      <trkpt lat="47.26878" lon="-2.33448">
        <ele>2.4000000953674</ele>
        <time>2020-08-02T07:19:53.000Z</time>
      </trkpt>
      <trkpt lat="47.26878" lon="-2.33444">
        <ele>2.7999999523163</ele>
        <time>2020-08-02T07:19:54.000Z</time>
      </trkpt>
      <trkpt lat="47.26878" lon="-2.3344">
        <ele>3.2000000476837</ele>
        <time>2020-08-02T07:19:55.000Z</time>
      </trkpt>
      <trkpt lat="47.26878" lon="-2.33436">
        <ele>3.5999999046326</ele>
        <time>2020-08-02T07:19:56.000Z</time>
      </trkpt>
      <trkpt lat="47.26879" lon="-2.33433">
        <ele>4</ele>
        <time>2020-08-02T07:19:57.000Z</time>
      </trkpt>
      <trkpt lat="47.2688" lon="-2.33427">
        <ele>4.4000000953674</ele>
        <time>2020-08-02T07:19:59.000Z</time>
      </trkpt>
      <trkpt lat="47.26881" lon="-2.33424">
        <ele>4.8000001907349</ele>
        <time>2020-08-02T07:20:00.000Z</time>
      </trkpt>
      <trkpt lat="47.26882" lon="-2.33421">
        <ele>5.1999998092651</ele>
        <time>2020-08-02T07:20:01.000Z</time>
      </trkpt>
      <trkpt lat="47.26885" lon="-2.33419">
        <ele>5.5999999046326</ele>
        <time>2020-08-02T07:20:02.000Z</time>
      </trkpt>
      <trkpt lat="47.26887" lon="-2.33417">
        <ele>6</ele>
        <time>2020-08-02T07:20:03.000Z</time>
      </trkpt>
      <trkpt lat="47.26896" lon="-2.33412">
        <ele>6</ele>
        <time>2020-08-02T07:20:06.000Z</time>
      </trkpt>
      <trkpt lat="47.26899" lon="-2.3341">
        <ele>6.8000001907349</ele>
        <time>2020-08-02T07:20:07.000Z</time>
      </trkpt>
      <trkpt lat="47.26902" lon="-2.33409">
        <ele>7.1999998092651</ele>
        <time>2020-08-02T07:20:08.000Z</time>
      </trkpt>
      <trkpt lat="47.26906" lon="-2.33407">
        <ele>7.5999999046326</ele>
        <time>2020-08-02T07:20:09.000Z</time>
      </trkpt>
      <trkpt lat="47.26909" lon="-2.33406">
        <ele>8</ele>
        <time>2020-08-02T07:20:10.000Z</time>
      </trkpt>
      <trkpt lat="47.26924" lon="-2.33398">
        <ele>8.3999996185303</ele>
        <time>2020-08-02T07:20:15.000Z</time>
      </trkpt>
      <trkpt lat="47.26927" lon="-2.33396">
        <ele>8.8000001907349</ele>
        <time>2020-08-02T07:20:16.000Z</time>
      </trkpt>
      <trkpt lat="47.2693" lon="-2.33395">
        <ele>9.1999998092651</ele>
        <time>2020-08-02T07:20:17.000Z</time>
      </trkpt>
      <trkpt lat="47.26933" lon="-2.33394">
        <ele>9.6000003814697</ele>
        <time>2020-08-02T07:20:18.000Z</time>
      </trkpt>
      <trkpt lat="47.26936" lon="-2.33392">
        <ele>10</ele>
        <time>2020-08-02T07:20:19.000Z</time>
      </trkpt>
      <trkpt lat="47.26958" lon="-2.33381">
        <ele>10</ele>
        <time>2020-08-02T07:20:26.000Z</time>
      </trkpt>
      <trkpt lat="47.26971" lon="-2.3337">
        <ele>10.60000038147</ele>
        <time>2020-08-02T07:20:31.000Z</time>
      </trkpt>
      <trkpt lat="47.2697" lon="-2.33365">
        <ele>11.39999961853</ele>
        <time>2020-08-02T07:20:32.000Z</time>
      </trkpt>
      <trkpt lat="47.26969" lon="-2.33361">
        <ele>11.800000190735</ele>
        <time>2020-08-02T07:20:33.000Z</time>
      </trkpt>
      <trkpt lat="47.26967" lon="-2.33356">
        <ele>12.199999809265</ele>
        <time>2020-08-02T07:20:34.000Z</time>
      </trkpt>
      <trkpt lat="47.26961" lon="-2.33341">
        <ele>12.199999809265</ele>
        <time>2020-08-02T07:20:37.000Z</time>
      </trkpt>
      <trkpt lat="47.26959" lon="-2.33335">
        <ele>12.199999809265</ele>
        <time>2020-08-02T07:20:38.000Z</time>
      </trkpt>
      <trkpt lat="47.26948" lon="-2.33303">
        <ele>12.199999809265</ele>
        <time>2020-08-02T07:20:43.000Z</time>
      </trkpt>
      <trkpt lat="47.26934" lon="-2.33259">
        <ele>12.199999809265</ele>
        <time>2020-08-02T07:20:50.000Z</time>
      </trkpt>
      <trkpt lat="47.26927" lon="-2.33234">
        <ele>12.199999809265</ele>
        <time>2020-08-02T07:20:54.000Z</time>
      </trkpt>
      <trkpt lat="47.26928" lon="-2.33227">
        <ele>12.199999809265</ele>
        <time>2020-08-02T07:20:55.000Z</time>
      </trkpt>
      <trkpt lat="47.26937" lon="-2.33216">
        <ele>12.199999809265</ele>
        <time>2020-08-02T07:20:58.000Z</time>
      </trkpt>
      <trkpt lat="47.26941" lon="-2.33213">
        <ele>12.199999809265</ele>
        <time>2020-08-02T07:20:59.000Z</time>
      </trkpt>
      <trkpt lat="47.26962" lon="-2.33202">
        <ele>12.199999809265</ele>
        <time>2020-08-02T07:21:04.000Z</time>
      </trkpt>
      <trkpt lat="47.2697" lon="-2.33196">
        <ele>12.199999809265</ele>
        <time>2020-08-02T07:21:06.000Z</time>
      </trkpt>
      <trkpt lat="47.26979" lon="-2.33184">
        <ele>12.199999809265</ele>
        <time>2020-08-02T07:21:09.000Z</time>
      </trkpt>
      <trkpt lat="47.26983" lon="-2.33179">
        <ele>12.199999809265</ele>
        <time>2020-08-02T07:21:10.000Z</time>
      </trkpt>
      <trkpt lat="47.26991" lon="-2.33172">
        <ele>12.199999809265</ele>
        <time>2020-08-02T07:21:12.000Z</time>
      </trkpt>
      <trkpt lat="47.26999" lon="-2.33165">
        <ele>12.199999809265</ele>
        <time>2020-08-02T07:21:14.000Z</time>
      </trkpt>
      <trkpt lat="47.27011" lon="-2.33155">
        <ele>12.199999809265</ele>
        <time>2020-08-02T07:21:17.000Z</time>
      </trkpt>
      <trkpt lat="47.27023" lon="-2.33143">
        <ele>12.199999809265</ele>
        <time>2020-08-02T07:21:20.000Z</time>
      </trkpt>
      <trkpt lat="47.27055" lon="-2.33109">
        <ele>12.199999809265</ele>
        <time>2020-08-02T07:21:28.000Z</time>
      </trkpt>
      <trkpt lat="47.2708" lon="-2.33083">
        <ele>12.199999809265</ele>
        <time>2020-08-02T07:21:34.000Z</time>
      </trkpt>
      <trkpt lat="47.27107" lon="-2.33057">
        <ele>12.199999809265</ele>
        <time>2020-08-02T07:21:40.000Z</time>
      </trkpt>
      <trkpt lat="47.27127" lon="-2.33041">
        <ele>12.199999809265</ele>
        <time>2020-08-02T07:21:44.000Z</time>
      </trkpt>
      <trkpt lat="47.27137" lon="-2.33034">
        <ele>12.199999809265</ele>
        <time>2020-08-02T07:21:46.000Z</time>
      </trkpt>
      <trkpt lat="47.27167" lon="-2.33012">
        <ele>12.199999809265</ele>
        <time>2020-08-02T07:21:52.000Z</time>
      </trkpt>
      <trkpt lat="47.27207" lon="-2.32984">
        <ele>12.199999809265</ele>
        <time>2020-08-02T07:22:00.000Z</time>
      </trkpt>
      <trkpt lat="47.27216" lon="-2.32983">
        <ele>12.199999809265</ele>
        <time>2020-08-02T07:22:03.000Z</time>
      </trkpt>
      <trkpt lat="47.27229" lon="-2.32994">
        <ele>12.199999809265</ele>
        <time>2020-08-02T07:22:08.000Z</time>
      </trkpt>
      <trkpt lat="47.27231" lon="-2.32998">
        <ele>12.199999809265</ele>
        <time>2020-08-02T07:22:09.000Z</time>
      </trkpt>
      <trkpt lat="47.27246" lon="-2.33023">
        <ele>12.199999809265</ele>
        <time>2020-08-02T07:22:14.000Z</time>
      </trkpt>
      <trkpt lat="47.27256" lon="-2.33043">
        <ele>12.199999809265</ele>
        <time>2020-08-02T07:22:18.000Z</time>
      </trkpt>
      <trkpt lat="47.27263" lon="-2.33053">
        <ele>12.199999809265</ele>
        <time>2020-08-02T07:22:20.000Z</time>
      </trkpt>
      <trkpt lat="47.27267" lon="-2.33058">
        <ele>12.60000038147</ele>
        <time>2020-08-02T07:22:21.000Z</time>
      </trkpt>
      <trkpt lat="47.2727" lon="-2.33063">
        <ele>13</ele>
        <time>2020-08-02T07:22:22.000Z</time>
      </trkpt>
      <trkpt lat="47.27272" lon="-2.33068">
        <ele>13.39999961853</ele>
        <time>2020-08-02T07:22:23.000Z</time>
      </trkpt>
      <trkpt lat="47.27275" lon="-2.33073">
        <ele>14</ele>
        <time>2020-08-02T07:22:24.000Z</time>
      </trkpt>
      <trkpt lat="47.27278" lon="-2.33078">
        <ele>14.39999961853</ele>
        <time>2020-08-02T07:22:25.000Z</time>
      </trkpt>
      <trkpt lat="47.27284" lon="-2.33086">
        <ele>14.39999961853</ele>
        <time>2020-08-02T07:22:27.000Z</time>
      </trkpt>
      <trkpt lat="47.27302" lon="-2.33113">
        <ele>14.39999961853</ele>
        <time>2020-08-02T07:22:33.000Z</time>
      </trkpt>
      <trkpt lat="47.27307" lon="-2.33113">
        <ele>14.39999961853</ele>
        <time>2020-08-02T07:22:34.000Z</time>
      </trkpt>
      <trkpt lat="47.27316" lon="-2.33104">
        <ele>14.39999961853</ele>
        <time>2020-08-02T07:22:37.000Z</time>
      </trkpt>
      <trkpt lat="47.27322" lon="-2.33089">
        <ele>14.39999961853</ele>
        <time>2020-08-02T07:22:40.000Z</time>
      </trkpt>
      <trkpt lat="47.27331" lon="-2.33064">
        <ele>14.39999961853</ele>
        <time>2020-08-02T07:22:44.000Z</time>
      </trkpt>
      <trkpt lat="47.27347" lon="-2.33014">
        <ele>14.39999961853</ele>
        <time>2020-08-02T07:22:51.000Z</time>
      </trkpt>
      <trkpt lat="47.27365" lon="-2.32972">
        <ele>14.39999961853</ele>
        <time>2020-08-02T07:22:58.000Z</time>
      </trkpt>
      <trkpt lat="47.27368" lon="-2.32967">
        <ele>14.39999961853</ele>
        <time>2020-08-02T07:22:59.000Z</time>
      </trkpt>
      <trkpt lat="47.27381" lon="-2.32939">
        <ele>14</ele>
        <time>2020-08-02T07:23:04.000Z</time>
      </trkpt>
      <trkpt lat="47.27383" lon="-2.32935">
        <ele>13.39999961853</ele>
        <time>2020-08-02T07:23:05.000Z</time>
      </trkpt>
      <trkpt lat="47.27386" lon="-2.32932">
        <ele>13</ele>
        <time>2020-08-02T07:23:06.000Z</time>
      </trkpt>
      <trkpt lat="47.27389" lon="-2.32927">
        <ele>12.60000038147</ele>
        <time>2020-08-02T07:23:07.000Z</time>
      </trkpt>
      <trkpt lat="47.27391" lon="-2.32922">
        <ele>12.199999809265</ele>
        <time>2020-08-02T07:23:08.000Z</time>
      </trkpt>
      <trkpt lat="47.27398" lon="-2.32902">
        <ele>12.199999809265</ele>
        <time>2020-08-02T07:23:12.000Z</time>
      </trkpt>
      <trkpt lat="47.27404" lon="-2.32893">
        <ele>12.199999809265</ele>
        <time>2020-08-02T07:23:14.000Z</time>
      </trkpt>
      <trkpt lat="47.27407" lon="-2.32887">
        <ele>12.199999809265</ele>
        <time>2020-08-02T07:23:15.000Z</time>
      </trkpt>
      <trkpt lat="47.27411" lon="-2.32874">
        <ele>12.199999809265</ele>
        <time>2020-08-02T07:23:17.000Z</time>
      </trkpt>
      <trkpt lat="47.27425" lon="-2.32837">
        <ele>12.199999809265</ele>
        <time>2020-08-02T07:23:23.000Z</time>
      </trkpt>
      <trkpt lat="47.27426" lon="-2.3283">
        <ele>11.39999961853</ele>
        <time>2020-08-02T07:23:24.000Z</time>
      </trkpt>
      <trkpt lat="47.27428" lon="-2.32822">
        <ele>11</ele>
        <time>2020-08-02T07:23:25.000Z</time>
      </trkpt>
      <trkpt lat="47.27429" lon="-2.32814">
        <ele>10.60000038147</ele>
        <time>2020-08-02T07:23:26.000Z</time>
      </trkpt>
      <trkpt lat="47.27431" lon="-2.32805">
        <ele>10</ele>
        <time>2020-08-02T07:23:27.000Z</time>
      </trkpt>
      <trkpt lat="47.27433" lon="-2.32791">
        <ele>10</ele>
        <time>2020-08-02T07:23:29.000Z</time>
      </trkpt>
      <trkpt lat="47.27441" lon="-2.3276">
        <ele>9.6000003814697</ele>
        <time>2020-08-02T07:23:33.000Z</time>
      </trkpt>
      <trkpt lat="47.27444" lon="-2.32752">
        <ele>9.1999998092651</ele>
        <time>2020-08-02T07:23:34.000Z</time>
      </trkpt>
      <trkpt lat="47.27447" lon="-2.32743">
        <ele>8.8000001907349</ele>
        <time>2020-08-02T07:23:35.000Z</time>
      </trkpt>
      <trkpt lat="47.27451" lon="-2.32734">
        <ele>8.3999996185303</ele>
        <time>2020-08-02T07:23:36.000Z</time>
      </trkpt>
      <trkpt lat="47.27455" lon="-2.32725">
        <ele>8</ele>
        <time>2020-08-02T07:23:37.000Z</time>
      </trkpt>
      <trkpt lat="47.27462" lon="-2.32708">
        <ele>7.5999999046326</ele>
        <time>2020-08-02T07:23:39.000Z</time>
      </trkpt>
      <trkpt lat="47.27466" lon="-2.32701">
        <ele>7.1999998092651</ele>
        <time>2020-08-02T07:23:40.000Z</time>
      </trkpt>
      <trkpt lat="47.27471" lon="-2.32696">
        <ele>6.5999999046326</ele>
        <time>2020-08-02T07:23:41.000Z</time>
      </trkpt>
      <trkpt lat="47.27476" lon="-2.32691">
        <ele>6.1999998092651</ele>
        <time>2020-08-02T07:23:42.000Z</time>
      </trkpt>
      <trkpt lat="47.27482" lon="-2.32687">
        <ele>5.5999999046326</ele>
        <time>2020-08-02T07:23:43.000Z</time>
      </trkpt>
      <trkpt lat="47.27489" lon="-2.32682">
        <ele>5.5999999046326</ele>
        <time>2020-08-02T07:23:44.000Z</time>
      </trkpt>
      <trkpt lat="47.27495" lon="-2.32676">
        <ele>5.1999998092651</ele>
        <time>2020-08-02T07:23:45.000Z</time>
      </trkpt>
      <trkpt lat="47.275" lon="-2.3267">
        <ele>4.8000001907349</ele>
        <time>2020-08-02T07:23:46.000Z</time>
      </trkpt>
      <trkpt lat="47.27504" lon="-2.32662">
        <ele>4.4000000953674</ele>
        <time>2020-08-02T07:23:47.000Z</time>
      </trkpt>
      <trkpt lat="47.27508" lon="-2.32653">
        <ele>3.4000000953674</ele>
        <time>2020-08-02T07:23:48.000Z</time>
      </trkpt>
      <trkpt lat="47.27514" lon="-2.32635">
        <ele>3.4000000953674</ele>
        <time>2020-08-02T07:23:50.000Z</time>
      </trkpt>
      <trkpt lat="47.27528" lon="-2.32622">
        <ele>3.4000000953674</ele>
        <time>2020-08-02T07:23:53.000Z</time>
      </trkpt>
      <trkpt lat="47.27534" lon="-2.32619">
        <ele>3.4000000953674</ele>
        <time>2020-08-02T07:23:54.000Z</time>
      </trkpt>
      <trkpt lat="47.27539" lon="-2.32613">
        <ele>3.4000000953674</ele>
        <time>2020-08-02T07:23:55.000Z</time>
      </trkpt>
      <trkpt lat="47.27547" lon="-2.32601">
        <ele>3.4000000953674</ele>
        <time>2020-08-02T07:23:57.000Z</time>
      </trkpt>
      <trkpt lat="47.2755" lon="-2.32595">
        <ele>3</ele>
        <time>2020-08-02T07:23:58.000Z</time>
      </trkpt>
      <trkpt lat="47.27552" lon="-2.32587">
        <ele>2.5999999046326</ele>
        <time>2020-08-02T07:23:59.000Z</time>
      </trkpt>
      <trkpt lat="47.27554" lon="-2.32579">
        <ele>2.2000000476837</ele>
        <time>2020-08-02T07:24:00.000Z</time>
      </trkpt>
      <trkpt lat="47.27554" lon="-2.32572">
        <ele>1.7999999523163</ele>
        <time>2020-08-02T07:24:01.000Z</time>
      </trkpt>
      <trkpt lat="47.27552" lon="-2.32566">
        <ele>1.3999999761581</ele>
        <time>2020-08-02T07:24:02.000Z</time>
      </trkpt>
      <trkpt lat="47.27546" lon="-2.32556">
        <ele>1.3999999761581</ele>
        <time>2020-08-02T07:24:04.000Z</time>
      </trkpt>
      <trkpt lat="47.27543" lon="-2.32551">
        <ele>1.3999999761581</ele>
        <time>2020-08-02T07:24:05.000Z</time>
      </trkpt>
      <trkpt lat="47.27538" lon="-2.32534">
        <ele>1.7999999523163</ele>
        <time>2020-08-02T07:24:09.000Z</time>
      </trkpt>
      <trkpt lat="47.27538" lon="-2.3253">
        <ele>2.4000000953674</ele>
        <time>2020-08-02T07:24:10.000Z</time>
      </trkpt>
      <trkpt lat="47.27539" lon="-2.32526">
        <ele>2.7999999523163</ele>
        <time>2020-08-02T07:24:11.000Z</time>
      </trkpt>
      <trkpt lat="47.27539" lon="-2.32522">
        <ele>3.2000000476837</ele>
        <time>2020-08-02T07:24:12.000Z</time>
      </trkpt>
      <trkpt lat="47.2754" lon="-2.32518">
        <ele>4.1999998092651</ele>
        <time>2020-08-02T07:24:13.000Z</time>
      </trkpt>
      <trkpt lat="47.27541" lon="-2.32515">
        <ele>4.5999999046326</ele>
        <time>2020-08-02T07:24:14.000Z</time>
      </trkpt>
      <trkpt lat="47.27542" lon="-2.32511">
        <ele>5</ele>
        <time>2020-08-02T07:24:15.000Z</time>
      </trkpt>
      <trkpt lat="47.27544" lon="-2.32507">
        <ele>5.4000000953674</ele>
        <time>2020-08-02T07:24:16.000Z</time>
      </trkpt>
      <trkpt lat="47.27546" lon="-2.32503">
        <ele>5.8000001907349</ele>
        <time>2020-08-02T07:24:17.000Z</time>
      </trkpt>
      <trkpt lat="47.27548" lon="-2.32495">
        <ele>6.1999998092651</ele>
        <time>2020-08-02T07:24:19.000Z</time>
      </trkpt>
      <trkpt lat="47.2755" lon="-2.3249">
        <ele>6.5999999046326</ele>
        <time>2020-08-02T07:24:20.000Z</time>
      </trkpt>
      <trkpt lat="47.27552" lon="-2.32485">
        <ele>7.1999998092651</ele>
        <time>2020-08-02T07:24:21.000Z</time>
      </trkpt>
      <trkpt lat="47.27554" lon="-2.32481">
        <ele>7.5999999046326</ele>
        <time>2020-08-02T07:24:22.000Z</time>
      </trkpt>
      <trkpt lat="47.27556" lon="-2.32475">
        <ele>8</ele>
        <time>2020-08-02T07:24:23.000Z</time>
      </trkpt>
      <trkpt lat="47.27559" lon="-2.32462">
        <ele>8.3999996185303</ele>
        <time>2020-08-02T07:24:25.000Z</time>
      </trkpt>
      <trkpt lat="47.27561" lon="-2.32457">
        <ele>9</ele>
        <time>2020-08-02T07:24:26.000Z</time>
      </trkpt>
      <trkpt lat="47.27562" lon="-2.3245">
        <ele>9.3999996185303</ele>
        <time>2020-08-02T07:24:27.000Z</time>
      </trkpt>
      <trkpt lat="47.27563" lon="-2.32445">
        <ele>9.8000001907349</ele>
        <time>2020-08-02T07:24:28.000Z</time>
      </trkpt>
      <trkpt lat="47.27564" lon="-2.3244">
        <ele>10.199999809265</ele>
        <time>2020-08-02T07:24:29.000Z</time>
      </trkpt>
      <trkpt lat="47.27571" lon="-2.32429">
        <ele>10.199999809265</ele>
        <time>2020-08-02T07:24:32.000Z</time>
      </trkpt>
      <trkpt lat="47.27581" lon="-2.32431">
        <ele>10.199999809265</ele>
        <time>2020-08-02T07:24:36.000Z</time>
      </trkpt>
      <trkpt lat="47.27596" lon="-2.32442">
        <ele>10.199999809265</ele>
        <time>2020-08-02T07:24:41.000Z</time>
      </trkpt>
      <trkpt lat="47.27615" lon="-2.32469">
        <ele>10.60000038147</ele>
        <time>2020-08-02T07:24:48.000Z</time>
      </trkpt>
      <trkpt lat="47.27618" lon="-2.32474">
        <ele>11</ele>
        <time>2020-08-02T07:24:49.000Z</time>
      </trkpt>
      <trkpt lat="47.2762" lon="-2.32481">
        <ele>11.39999961853</ele>
        <time>2020-08-02T07:24:50.000Z</time>
      </trkpt>
      <trkpt lat="47.27622" lon="-2.32487">
        <ele>12</ele>
        <time>2020-08-02T07:24:51.000Z</time>
      </trkpt>
      <trkpt lat="47.27624" lon="-2.32493">
        <ele>12.39999961853</ele>
        <time>2020-08-02T07:24:52.000Z</time>
      </trkpt>
      <trkpt lat="47.27626" lon="-2.325">
        <ele>12.39999961853</ele>
        <time>2020-08-02T07:24:53.000Z</time>
      </trkpt>
      <trkpt lat="47.2764" lon="-2.32549">
        <ele>12.39999961853</ele>
        <time>2020-08-02T07:24:59.000Z</time>
      </trkpt>
      <trkpt lat="47.27651" lon="-2.32588">
        <ele>11.800000190735</ele>
        <time>2020-08-02T07:25:03.000Z</time>
      </trkpt>
      <trkpt lat="47.27654" lon="-2.326">
        <ele>11.39999961853</ele>
        <time>2020-08-02T07:25:04.000Z</time>
      </trkpt>
      <trkpt lat="47.27658" lon="-2.32612">
        <ele>10.800000190735</ele>
        <time>2020-08-02T07:25:05.000Z</time>
      </trkpt>
      <trkpt lat="47.27662" lon="-2.32624">
        <ele>10.39999961853</ele>
        <time>2020-08-02T07:25:06.000Z</time>
      </trkpt>
      <trkpt lat="47.27666" lon="-2.32636">
        <ele>9.8000001907349</ele>
        <time>2020-08-02T07:25:07.000Z</time>
      </trkpt>
      <trkpt lat="47.2767" lon="-2.32648">
        <ele>9.1999998092651</ele>
        <time>2020-08-02T07:25:08.000Z</time>
      </trkpt>
      <trkpt lat="47.27675" lon="-2.3266">
        <ele>8.8000001907349</ele>
        <time>2020-08-02T07:25:09.000Z</time>
      </trkpt>
      <trkpt lat="47.2768" lon="-2.32671">
        <ele>8.1999998092651</ele>
        <time>2020-08-02T07:25:10.000Z</time>
      </trkpt>
      <trkpt lat="47.27685" lon="-2.32682">
        <ele>7.5999999046326</ele>
        <time>2020-08-02T07:25:11.000Z</time>
      </trkpt>
      <trkpt lat="47.2769" lon="-2.32691">
        <ele>7.1999998092651</ele>
        <time>2020-08-02T07:25:12.000Z</time>
      </trkpt>
      <trkpt lat="47.27694" lon="-2.32701">
        <ele>6.5999999046326</ele>
        <time>2020-08-02T07:25:13.000Z</time>
      </trkpt>
      <trkpt lat="47.27698" lon="-2.32708">
        <ele>6.1999998092651</ele>
        <time>2020-08-02T07:25:14.000Z</time>
      </trkpt>
      <trkpt lat="47.27701" lon="-2.32714">
        <ele>5.5999999046326</ele>
        <time>2020-08-02T07:25:15.000Z</time>
      </trkpt>
      <trkpt lat="47.27703" lon="-2.32718">
        <ele>5</ele>
        <time>2020-08-02T07:25:16.000Z</time>
      </trkpt>
      <trkpt lat="47.27706" lon="-2.3272">
        <ele>4.4000000953674</ele>
        <time>2020-08-02T07:25:17.000Z</time>
      </trkpt>
      <trkpt lat="47.27708" lon="-2.32719">
        <ele>3.7999999523163</ele>
        <time>2020-08-02T07:25:18.000Z</time>
      </trkpt>
      <trkpt lat="47.27709" lon="-2.32717">
        <ele>3.2000000476837</ele>
        <time>2020-08-02T07:25:19.000Z</time>
      </trkpt>
      <trkpt lat="47.2771" lon="-2.32712">
        <ele>3.2000000476837</ele>
        <time>2020-08-02T07:25:20.000Z</time>
      </trkpt>
      <trkpt lat="47.27713" lon="-2.32701">
        <ele>3.2000000476837</ele>
        <time>2020-08-02T07:25:22.000Z</time>
      </trkpt>
      <trkpt lat="47.27719" lon="-2.32692">
        <ele>3.2000000476837</ele>
        <time>2020-08-02T07:25:25.000Z</time>
      </trkpt>
      <trkpt lat="47.27726" lon="-2.32676">
        <ele>3.5999999046326</ele>
        <time>2020-08-02T07:25:31.000Z</time>
      </trkpt>
      <trkpt lat="47.27727" lon="-2.32673">
        <ele>4</ele>
        <time>2020-08-02T07:25:32.000Z</time>
      </trkpt>
      <trkpt lat="47.27728" lon="-2.3267">
        <ele>4.4000000953674</ele>
        <time>2020-08-02T07:25:33.000Z</time>
      </trkpt>
      <trkpt lat="47.27729" lon="-2.32667">
        <ele>4.8000001907349</ele>
        <time>2020-08-02T07:25:34.000Z</time>
      </trkpt>
      <trkpt lat="47.27729" lon="-2.32664">
        <ele>5.1999998092651</ele>
        <time>2020-08-02T07:25:35.000Z</time>
      </trkpt>
      <trkpt lat="47.27731" lon="-2.32658">
        <ele>5.1999998092651</ele>
        <time>2020-08-02T07:25:37.000Z</time>
      </trkpt>
      <trkpt lat="47.27732" lon="-2.32655">
        <ele>5.5999999046326</ele>
        <time>2020-08-02T07:25:38.000Z</time>
      </trkpt>
      <trkpt lat="47.27732" lon="-2.32652">
        <ele>6</ele>
        <time>2020-08-02T07:25:39.000Z</time>
      </trkpt>
      <trkpt lat="47.27734" lon="-2.32649">
        <ele>6.5999999046326</ele>
        <time>2020-08-02T07:25:40.000Z</time>
      </trkpt>
      <trkpt lat="47.27735" lon="-2.32645">
        <ele>7</ele>
        <time>2020-08-02T07:25:41.000Z</time>
      </trkpt>
      <trkpt lat="47.27736" lon="-2.32643">
        <ele>7.4000000953674</ele>
        <time>2020-08-02T07:25:42.000Z</time>
      </trkpt>
      <trkpt lat="47.2774" lon="-2.32636">
        <ele>7.4000000953674</ele>
        <time>2020-08-02T07:25:44.000Z</time>
      </trkpt>
      <trkpt lat="47.27741" lon="-2.32634">
        <ele>7.8000001907349</ele>
        <time>2020-08-02T07:25:45.000Z</time>
      </trkpt>
      <trkpt lat="47.27742" lon="-2.3263">
        <ele>8.1999998092651</ele>
        <time>2020-08-02T07:25:46.000Z</time>
      </trkpt>
      <trkpt lat="47.27744" lon="-2.32628">
        <ele>8.6000003814697</ele>
        <time>2020-08-02T07:25:47.000Z</time>
      </trkpt>
      <trkpt lat="47.27747" lon="-2.32624">
        <ele>9</ele>
        <time>2020-08-02T07:25:48.000Z</time>
      </trkpt>
      <trkpt lat="47.27749" lon="-2.32621">
        <ele>9.3999996185303</ele>
        <time>2020-08-02T07:25:49.000Z</time>
      </trkpt>
      <trkpt lat="47.27753" lon="-2.32614">
        <ele>9.3999996185303</ele>
        <time>2020-08-02T07:25:51.000Z</time>
      </trkpt>
      <trkpt lat="47.27772" lon="-2.32586">
        <ele>9.3999996185303</ele>
        <time>2020-08-02T07:25:58.000Z</time>
      </trkpt>
      <trkpt lat="47.2778" lon="-2.32575">
        <ele>9.8000001907349</ele>
        <time>2020-08-02T07:26:01.000Z</time>
      </trkpt>
      <trkpt lat="47.27783" lon="-2.32572">
        <ele>10.199999809265</ele>
        <time>2020-08-02T07:26:02.000Z</time>
      </trkpt>
      <trkpt lat="47.27786" lon="-2.32568">
        <ele>10.800000190735</ele>
        <time>2020-08-02T07:26:03.000Z</time>
      </trkpt>
      <trkpt lat="47.27789" lon="-2.32565">
        <ele>11.199999809265</ele>
        <time>2020-08-02T07:26:04.000Z</time>
      </trkpt>
      <trkpt lat="47.27791" lon="-2.32561">
        <ele>11.60000038147</ele>
        <time>2020-08-02T07:26:05.000Z</time>
      </trkpt>
      <trkpt lat="47.27804" lon="-2.32543">
        <ele>11.60000038147</ele>
        <time>2020-08-02T07:26:11.000Z</time>
      </trkpt>
      <trkpt lat="47.27819" lon="-2.32523">
        <ele>11.60000038147</ele>
        <time>2020-08-02T07:26:18.000Z</time>
      </trkpt>
      <trkpt lat="47.27826" lon="-2.32506">
        <ele>11.60000038147</ele>
        <time>2020-08-02T07:26:23.000Z</time>
      </trkpt>
      <trkpt lat="47.27842" lon="-2.32481">
        <ele>11.60000038147</ele>
        <time>2020-08-02T07:26:28.000Z</time>
      </trkpt>
      <trkpt lat="47.27855" lon="-2.32465">
        <ele>11.60000038147</ele>
        <time>2020-08-02T07:26:31.000Z</time>
      </trkpt>
      <trkpt lat="47.2786" lon="-2.32462">
        <ele>11.60000038147</ele>
        <time>2020-08-02T07:26:32.000Z</time>
      </trkpt>
      <trkpt lat="47.27875" lon="-2.32439">
        <ele>11.60000038147</ele>
        <time>2020-08-02T07:26:37.000Z</time>
      </trkpt>
      <trkpt lat="47.27878" lon="-2.32433">
        <ele>11.60000038147</ele>
        <time>2020-08-02T07:26:38.000Z</time>
      </trkpt>
      <trkpt lat="47.27882" lon="-2.32427">
        <ele>11.60000038147</ele>
        <time>2020-08-02T07:26:39.000Z</time>
      </trkpt>
      <trkpt lat="47.27888" lon="-2.32417">
        <ele>11.60000038147</ele>
        <time>2020-08-02T07:26:41.000Z</time>
      </trkpt>
      <trkpt lat="47.27901" lon="-2.32392">
        <ele>11.60000038147</ele>
        <time>2020-08-02T07:26:46.000Z</time>
      </trkpt>
      <trkpt lat="47.27912" lon="-2.32387">
        <ele>11.60000038147</ele>
        <time>2020-08-02T07:26:50.000Z</time>
      </trkpt>
      <trkpt lat="47.2793" lon="-2.32392">
        <ele>11.60000038147</ele>
        <time>2020-08-02T07:26:56.000Z</time>
      </trkpt>
      <trkpt lat="47.27948" lon="-2.324">
        <ele>11.60000038147</ele>
        <time>2020-08-02T07:27:00.000Z</time>
      </trkpt>
      <trkpt lat="47.27959" lon="-2.32404">
        <ele>11.60000038147</ele>
        <time>2020-08-02T07:27:02.000Z</time>
      </trkpt>
      <trkpt lat="47.27994" lon="-2.32417">
        <ele>11.60000038147</ele>
        <time>2020-08-02T07:27:07.000Z</time>
      </trkpt>
      <trkpt lat="47.28037" lon="-2.32426">
        <ele>11.60000038147</ele>
        <time>2020-08-02T07:27:14.000Z</time>
      </trkpt>
      <trkpt lat="47.28075" lon="-2.32427">
        <ele>11.60000038147</ele>
        <time>2020-08-02T07:27:21.000Z</time>
      </trkpt>
      <trkpt lat="47.2808" lon="-2.32428">
        <ele>11.60000038147</ele>
        <time>2020-08-02T07:27:22.000Z</time>
      </trkpt>
      <trkpt lat="47.28094" lon="-2.32434">
        <ele>11.60000038147</ele>
        <time>2020-08-02T07:27:25.000Z</time>
      </trkpt>
      <trkpt lat="47.28098" lon="-2.32437">
        <ele>11.60000038147</ele>
        <time>2020-08-02T07:27:26.000Z</time>
      </trkpt>
      <trkpt lat="47.28122" lon="-2.32448">
        <ele>11.60000038147</ele>
        <time>2020-08-02T07:27:31.000Z</time>
      </trkpt>
      <trkpt lat="47.28137" lon="-2.32447">
        <ele>11.60000038147</ele>
        <time>2020-08-02T07:27:34.000Z</time>
      </trkpt>
      <trkpt lat="47.28146" lon="-2.32444">
        <ele>11.60000038147</ele>
        <time>2020-08-02T07:27:36.000Z</time>
      </trkpt>
      <trkpt lat="47.2817" lon="-2.32439">
        <ele>11.60000038147</ele>
        <time>2020-08-02T07:27:42.000Z</time>
      </trkpt>
      <trkpt lat="47.28174" lon="-2.32439">
        <ele>11.199999809265</ele>
        <time>2020-08-02T07:27:43.000Z</time>
      </trkpt>
      <trkpt lat="47.28179" lon="-2.32439">
        <ele>10.60000038147</ele>
        <time>2020-08-02T07:27:44.000Z</time>
      </trkpt>
      <trkpt lat="47.28183" lon="-2.32439">
        <ele>10.199999809265</ele>
        <time>2020-08-02T07:27:45.000Z</time>
      </trkpt>
      <trkpt lat="47.28188" lon="-2.3244">
        <ele>9.8000001907349</ele>
        <time>2020-08-02T07:27:46.000Z</time>
      </trkpt>
      <trkpt lat="47.28193" lon="-2.32442">
        <ele>9.3999996185303</ele>
        <time>2020-08-02T07:27:47.000Z</time>
      </trkpt>
      <trkpt lat="47.28199" lon="-2.32445">
        <ele>9.3999996185303</ele>
        <time>2020-08-02T07:27:48.000Z</time>
      </trkpt>
      <trkpt lat="47.28223" lon="-2.32461">
        <ele>9.3999996185303</ele>
        <time>2020-08-02T07:27:54.000Z</time>
      </trkpt>
      <trkpt lat="47.2824" lon="-2.32484">
        <ele>9.3999996185303</ele>
        <time>2020-08-02T07:28:00.000Z</time>
      </trkpt>
      <trkpt lat="47.28259" lon="-2.32505">
        <ele>9.3999996185303</ele>
        <time>2020-08-02T07:28:07.000Z</time>
      </trkpt>
      <trkpt lat="47.28281" lon="-2.32512">
        <ele>9.3999996185303</ele>
        <time>2020-08-02T07:28:14.000Z</time>
      </trkpt>
      <trkpt lat="47.283" lon="-2.32516">
        <ele>9.3999996185303</ele>
        <time>2020-08-02T07:28:21.000Z</time>
      </trkpt>
      <trkpt lat="47.28329" lon="-2.32517">
        <ele>9.3999996185303</ele>
        <time>2020-08-02T07:28:28.000Z</time>
      </trkpt>
      <trkpt lat="47.28349" lon="-2.32519">
        <ele>9.3999996185303</ele>
        <time>2020-08-02T07:28:33.000Z</time>
      </trkpt>
      <trkpt lat="47.28356" lon="-2.32525">
        <ele>9.3999996185303</ele>
        <time>2020-08-02T07:28:35.000Z</time>
      </trkpt>
      <trkpt lat="47.28357" lon="-2.32535">
        <ele>9.3999996185303</ele>
        <time>2020-08-02T07:28:37.000Z</time>
      </trkpt>
      <trkpt lat="47.28363" lon="-2.32572">
        <ele>9.3999996185303</ele>
        <time>2020-08-02T07:28:45.000Z</time>
      </trkpt>
      <trkpt lat="47.28368" lon="-2.32576">
        <ele>9.3999996185303</ele>
        <time>2020-08-02T07:28:47.000Z</time>
      </trkpt>
      <trkpt lat="47.28373" lon="-2.32574">
        <ele>9.3999996185303</ele>
        <time>2020-08-02T07:28:49.000Z</time>
      </trkpt>
      <trkpt lat="47.28379" lon="-2.32573">
        <ele>9.3999996185303</ele>
        <time>2020-08-02T07:28:51.000Z</time>
      </trkpt>
      <trkpt lat="47.28386" lon="-2.32578">
        <ele>9.3999996185303</ele>
        <time>2020-08-02T07:28:54.000Z</time>
      </trkpt>
      <trkpt lat="47.28399" lon="-2.32598">
        <ele>9.3999996185303</ele>
        <time>2020-08-02T07:28:59.000Z</time>
      </trkpt>
      <trkpt lat="47.28406" lon="-2.32606">
        <ele>9.3999996185303</ele>
        <time>2020-08-02T07:29:02.000Z</time>
      </trkpt>
      <trkpt lat="47.28407" lon="-2.32608">
        <ele>9.3999996185303</ele>
        <time>2020-08-02T07:29:04.000Z</time>
      </trkpt>
      <trkpt lat="47.2841" lon="-2.3261">
        <ele>9.3999996185303</ele>
        <time>2020-08-02T07:29:13.000Z</time>
      </trkpt>
      <trkpt lat="47.28417" lon="-2.32617">
        <ele>9.3999996185303</ele>
        <time>2020-08-02T07:29:16.000Z</time>
      </trkpt>
      <trkpt lat="47.28423" lon="-2.32635">
        <ele>9.3999996185303</ele>
        <time>2020-08-02T07:29:20.000Z</time>
      </trkpt>
      <trkpt lat="47.28434" lon="-2.32668">
        <ele>9.3999996185303</ele>
        <time>2020-08-02T07:29:26.000Z</time>
      </trkpt>
      <trkpt lat="47.28436" lon="-2.32674">
        <ele>9.3999996185303</ele>
        <time>2020-08-02T07:29:27.000Z</time>
      </trkpt>
      <trkpt lat="47.28452" lon="-2.3272">
        <ele>9.3999996185303</ele>
        <time>2020-08-02T07:29:34.000Z</time>
      </trkpt>
      <trkpt lat="47.28472" lon="-2.32782">
        <ele>9.3999996185303</ele>
        <time>2020-08-02T07:29:43.000Z</time>
      </trkpt>
      <trkpt lat="47.28487" lon="-2.32842">
        <ele>9.3999996185303</ele>
        <time>2020-08-02T07:29:51.000Z</time>
      </trkpt>
      <trkpt lat="47.28504" lon="-2.32916">
        <ele>9.3999996185303</ele>
        <time>2020-08-02T07:30:00.000Z</time>
      </trkpt>
      <trkpt lat="47.28522" lon="-2.32993">
        <ele>9.3999996185303</ele>
        <time>2020-08-02T07:30:09.000Z</time>
      </trkpt>
      <trkpt lat="47.28536" lon="-2.33068">
        <ele>9.3999996185303</ele>
        <time>2020-08-02T07:30:18.000Z</time>
      </trkpt>
      <trkpt lat="47.28553" lon="-2.33135">
        <ele>9.3999996185303</ele>
        <time>2020-08-02T07:30:27.000Z</time>
      </trkpt>
      <trkpt lat="47.2856" lon="-2.3316">
        <ele>10</ele>
        <time>2020-08-02T07:30:30.000Z</time>
      </trkpt>
      <trkpt lat="47.28563" lon="-2.33168">
        <ele>10.39999961853</ele>
        <time>2020-08-02T07:30:31.000Z</time>
      </trkpt>
      <trkpt lat="47.28565" lon="-2.33177">
        <ele>10.800000190735</ele>
        <time>2020-08-02T07:30:32.000Z</time>
      </trkpt>
      <trkpt lat="47.28568" lon="-2.33185">
        <ele>11.199999809265</ele>
        <time>2020-08-02T07:30:33.000Z</time>
      </trkpt>
      <trkpt lat="47.28571" lon="-2.33193">
        <ele>11.800000190735</ele>
        <time>2020-08-02T07:30:34.000Z</time>
      </trkpt>
      <trkpt lat="47.28593" lon="-2.33259">
        <ele>11.800000190735</ele>
        <time>2020-08-02T07:30:43.000Z</time>
      </trkpt>
      <trkpt lat="47.28597" lon="-2.33273">
        <ele>12.199999809265</ele>
        <time>2020-08-02T07:30:45.000Z</time>
      </trkpt>
      <trkpt lat="47.286" lon="-2.3328">
        <ele>12.60000038147</ele>
        <time>2020-08-02T07:30:46.000Z</time>
      </trkpt>
      <trkpt lat="47.28602" lon="-2.33287">
        <ele>13</ele>
        <time>2020-08-02T07:30:47.000Z</time>
      </trkpt>
      <trkpt lat="47.28604" lon="-2.33294">
        <ele>13.800000190735</ele>
        <time>2020-08-02T07:30:48.000Z</time>
      </trkpt>
      <trkpt lat="47.28613" lon="-2.33322">
        <ele>13.800000190735</ele>
        <time>2020-08-02T07:30:52.000Z</time>
      </trkpt>
      <trkpt lat="47.28626" lon="-2.3336">
        <ele>14.199999809265</ele>
        <time>2020-08-02T07:30:57.000Z</time>
      </trkpt>
      <trkpt lat="47.28629" lon="-2.33367">
        <ele>14.60000038147</ele>
        <time>2020-08-02T07:30:58.000Z</time>
      </trkpt>
      <trkpt lat="47.28632" lon="-2.33375">
        <ele>15</ele>
        <time>2020-08-02T07:30:59.000Z</time>
      </trkpt>
      <trkpt lat="47.28635" lon="-2.33383">
        <ele>15.39999961853</ele>
        <time>2020-08-02T07:31:00.000Z</time>
      </trkpt>
      <trkpt lat="47.28639" lon="-2.33391">
        <ele>16</ele>
        <time>2020-08-02T07:31:01.000Z</time>
      </trkpt>
      <trkpt lat="47.28667" lon="-2.33439">
        <ele>16</ele>
        <time>2020-08-02T07:31:08.000Z</time>
      </trkpt>
      <trkpt lat="47.28707" lon="-2.33489">
        <ele>16</ele>
        <time>2020-08-02T07:31:17.000Z</time>
      </trkpt>
      <trkpt lat="47.28713" lon="-2.33492">
        <ele>16</ele>
        <time>2020-08-02T07:31:18.000Z</time>
      </trkpt>
      <trkpt lat="47.28724" lon="-2.33493">
        <ele>16</ele>
        <time>2020-08-02T07:31:20.000Z</time>
      </trkpt>
      <trkpt lat="47.28742" lon="-2.33489">
        <ele>16</ele>
        <time>2020-08-02T07:31:23.000Z</time>
      </trkpt>
      <trkpt lat="47.28754" lon="-2.33487">
        <ele>16</ele>
        <time>2020-08-02T07:31:25.000Z</time>
      </trkpt>
      <trkpt lat="47.28809" lon="-2.33477">
        <ele>16</ele>
        <time>2020-08-02T07:31:34.000Z</time>
      </trkpt>
      <trkpt lat="47.28832" lon="-2.33472">
        <ele>16.39999961853</ele>
        <time>2020-08-02T07:31:38.000Z</time>
      </trkpt>
      <trkpt lat="47.28838" lon="-2.33471">
        <ele>16.799999237061</ele>
        <time>2020-08-02T07:31:39.000Z</time>
      </trkpt>
      <trkpt lat="47.28844" lon="-2.3347">
        <ele>17.200000762939</ele>
        <time>2020-08-02T07:31:40.000Z</time>
      </trkpt>
      <trkpt lat="47.28849" lon="-2.33469">
        <ele>17.60000038147</ele>
        <time>2020-08-02T07:31:41.000Z</time>
      </trkpt>
      <trkpt lat="47.28855" lon="-2.33467">
        <ele>18</ele>
        <time>2020-08-02T07:31:42.000Z</time>
      </trkpt>
      <trkpt lat="47.2886" lon="-2.33466">
        <ele>18</ele>
        <time>2020-08-02T07:31:43.000Z</time>
      </trkpt>
      <trkpt lat="47.28876" lon="-2.33458">
        <ele>18</ele>
        <time>2020-08-02T07:31:46.000Z</time>
      </trkpt>
      <trkpt lat="47.28887" lon="-2.33449">
        <ele>18</ele>
        <time>2020-08-02T07:31:48.000Z</time>
      </trkpt>
      <trkpt lat="47.28891" lon="-2.33443">
        <ele>18</ele>
        <time>2020-08-02T07:31:49.000Z</time>
      </trkpt>
      <trkpt lat="47.28902" lon="-2.33422">
        <ele>18</ele>
        <time>2020-08-02T07:31:52.000Z</time>
      </trkpt>
      <trkpt lat="47.28911" lon="-2.33385">
        <ele>18</ele>
        <time>2020-08-02T07:31:56.000Z</time>
      </trkpt>
      <trkpt lat="47.28913" lon="-2.33375">
        <ele>18</ele>
        <time>2020-08-02T07:31:57.000Z</time>
      </trkpt>
      <trkpt lat="47.28926" lon="-2.33323">
        <ele>18</ele>
        <time>2020-08-02T07:32:03.000Z</time>
      </trkpt>
      <trkpt lat="47.28942" lon="-2.33282">
        <ele>18</ele>
        <time>2020-08-02T07:32:09.000Z</time>
      </trkpt>
      <trkpt lat="47.28965" lon="-2.33234">
        <ele>18</ele>
        <time>2020-08-02T07:32:15.000Z</time>
      </trkpt>
      <trkpt lat="47.28993" lon="-2.33197">
        <ele>18</ele>
        <time>2020-08-02T07:32:21.000Z</time>
      </trkpt>
      <trkpt lat="47.29034" lon="-2.3316">
        <ele>18</ele>
        <time>2020-08-02T07:32:29.000Z</time>
      </trkpt>
      <trkpt lat="47.29063" lon="-2.33136">
        <ele>17.60000038147</ele>
        <time>2020-08-02T07:32:34.000Z</time>
      </trkpt>
      <trkpt lat="47.29069" lon="-2.33132">
        <ele>17.200000762939</ele>
        <time>2020-08-02T07:32:35.000Z</time>
      </trkpt>
      <trkpt lat="47.29075" lon="-2.33127">
        <ele>16.60000038147</ele>
        <time>2020-08-02T07:32:36.000Z</time>
      </trkpt>
      <trkpt lat="47.2908" lon="-2.33121">
        <ele>16.200000762939</ele>
        <time>2020-08-02T07:32:37.000Z</time>
      </trkpt>
      <trkpt lat="47.29086" lon="-2.33116">
        <ele>15.800000190735</ele>
        <time>2020-08-02T07:32:38.000Z</time>
      </trkpt>
      <trkpt lat="47.2911" lon="-2.33085">
        <ele>15.800000190735</ele>
        <time>2020-08-02T07:32:43.000Z</time>
      </trkpt>
      <trkpt lat="47.29149" lon="-2.33029">
        <ele>15.800000190735</ele>
        <time>2020-08-02T07:32:52.000Z</time>
      </trkpt>
      <trkpt lat="47.2917" lon="-2.32999">
        <ele>15.800000190735</ele>
        <time>2020-08-02T07:32:58.000Z</time>
      </trkpt>
      <trkpt lat="47.29178" lon="-2.33006">
        <ele>15.800000190735</ele>
        <time>2020-08-02T07:33:01.000Z</time>
      </trkpt>
      <trkpt lat="47.29181" lon="-2.3301">
        <ele>15.800000190735</ele>
        <time>2020-08-02T07:33:02.000Z</time>
      </trkpt>
      <trkpt lat="47.29193" lon="-2.33031">
        <ele>15.800000190735</ele>
        <time>2020-08-02T07:33:06.000Z</time>
      </trkpt>
      <trkpt lat="47.29213" lon="-2.33075">
        <ele>15.800000190735</ele>
        <time>2020-08-02T07:33:12.000Z</time>
      </trkpt>
      <trkpt lat="47.2924" lon="-2.33123">
        <ele>15.800000190735</ele>
        <time>2020-08-02T07:33:19.000Z</time>
      </trkpt>
      <trkpt lat="47.29263" lon="-2.33169">
        <ele>15.800000190735</ele>
        <time>2020-08-02T07:33:26.000Z</time>
      </trkpt>
      <trkpt lat="47.29276" lon="-2.33191">
        <ele>15.800000190735</ele>
        <time>2020-08-02T07:33:30.000Z</time>
      </trkpt>
      <trkpt lat="47.29283" lon="-2.33195">
        <ele>15.800000190735</ele>
        <time>2020-08-02T07:33:32.000Z</time>
      </trkpt>
      <trkpt lat="47.29293" lon="-2.33187">
        <ele>15.800000190735</ele>
        <time>2020-08-02T07:33:35.000Z</time>
      </trkpt>
      <trkpt lat="47.29296" lon="-2.33182">
        <ele>15.800000190735</ele>
        <time>2020-08-02T07:33:36.000Z</time>
      </trkpt>
      <trkpt lat="47.29317" lon="-2.33153">
        <ele>15.800000190735</ele>
        <time>2020-08-02T07:33:42.000Z</time>
      </trkpt>
      <trkpt lat="47.2935" lon="-2.33127">
        <ele>15.800000190735</ele>
        <time>2020-08-02T07:33:49.000Z</time>
      </trkpt>
      <trkpt lat="47.29367" lon="-2.33121">
        <ele>16.200000762939</ele>
        <time>2020-08-02T07:33:54.000Z</time>
      </trkpt>
      <trkpt lat="47.29371" lon="-2.33123">
        <ele>16.60000038147</ele>
        <time>2020-08-02T07:33:55.000Z</time>
      </trkpt>
      <trkpt lat="47.29375" lon="-2.33127">
        <ele>17</ele>
        <time>2020-08-02T07:33:56.000Z</time>
      </trkpt>
      <trkpt lat="47.29379" lon="-2.3313">
        <ele>17.60000038147</ele>
        <time>2020-08-02T07:33:57.000Z</time>
      </trkpt>
      <trkpt lat="47.29383" lon="-2.33135">
        <ele>18</ele>
        <time>2020-08-02T07:33:58.000Z</time>
      </trkpt>
      <trkpt lat="47.29399" lon="-2.33164">
        <ele>18</ele>
        <time>2020-08-02T07:34:02.000Z</time>
      </trkpt>
      <trkpt lat="47.29413" lon="-2.33206">
        <ele>18</ele>
        <time>2020-08-02T07:34:07.000Z</time>
      </trkpt>
      <trkpt lat="47.29425" lon="-2.33261">
        <ele>18</ele>
        <time>2020-08-02T07:34:14.000Z</time>
      </trkpt>
      <trkpt lat="47.29431" lon="-2.33316">
        <ele>18</ele>
        <time>2020-08-02T07:34:22.000Z</time>
      </trkpt>
      <trkpt lat="47.29432" lon="-2.33335">
        <ele>18</ele>
        <time>2020-08-02T07:34:25.000Z</time>
      </trkpt>
      <trkpt lat="47.29432" lon="-2.33364">
        <ele>18</ele>
        <time>2020-08-02T07:34:29.000Z</time>
      </trkpt>
      <trkpt lat="47.29435" lon="-2.33394">
        <ele>18</ele>
        <time>2020-08-02T07:34:33.000Z</time>
      </trkpt>
      <trkpt lat="47.29437" lon="-2.33401">
        <ele>18</ele>
        <time>2020-08-02T07:34:34.000Z</time>
      </trkpt>
      <trkpt lat="47.29455" lon="-2.33439">
        <ele>18</ele>
        <time>2020-08-02T07:34:39.000Z</time>
      </trkpt>
      <trkpt lat="47.29489" lon="-2.33511">
        <ele>18</ele>
        <time>2020-08-02T07:34:48.000Z</time>
      </trkpt>
      <trkpt lat="47.29518" lon="-2.33578">
        <ele>18</ele>
        <time>2020-08-02T07:34:56.000Z</time>
      </trkpt>
      <trkpt lat="47.29524" lon="-2.33597">
        <ele>18</ele>
        <time>2020-08-02T07:34:58.000Z</time>
      </trkpt>
      <trkpt lat="47.2954" lon="-2.33657">
        <ele>17.39999961853</ele>
        <time>2020-08-02T07:35:04.000Z</time>
      </trkpt>
      <trkpt lat="47.29543" lon="-2.33668">
        <ele>17</ele>
        <time>2020-08-02T07:35:05.000Z</time>
      </trkpt>
      <trkpt lat="47.29546" lon="-2.33678">
        <ele>16.60000038147</ele>
        <time>2020-08-02T07:35:06.000Z</time>
      </trkpt>
      <trkpt lat="47.29549" lon="-2.33687">
        <ele>16.200000762939</ele>
        <time>2020-08-02T07:35:07.000Z</time>
      </trkpt>
      <trkpt lat="47.29553" lon="-2.33696">
        <ele>15.800000190735</ele>
        <time>2020-08-02T07:35:08.000Z</time>
      </trkpt>
      <trkpt lat="47.29558" lon="-2.33705">
        <ele>15.800000190735</ele>
        <time>2020-08-02T07:35:09.000Z</time>
      </trkpt>
      <trkpt lat="47.29564" lon="-2.33713">
        <ele>15.800000190735</ele>
        <time>2020-08-02T07:35:10.000Z</time>
      </trkpt>
      <trkpt lat="47.29593" lon="-2.33753">
        <ele>15.800000190735</ele>
        <time>2020-08-02T07:35:16.000Z</time>
      </trkpt>
      <trkpt lat="47.29614" lon="-2.33791">
        <ele>15.800000190735</ele>
        <time>2020-08-02T07:35:22.000Z</time>
      </trkpt>
      <trkpt lat="47.29641" lon="-2.33844">
        <ele>15.800000190735</ele>
        <time>2020-08-02T07:35:31.000Z</time>
      </trkpt>
      <trkpt lat="47.2965" lon="-2.33851">
        <ele>15.800000190735</ele>
        <time>2020-08-02T07:35:33.000Z</time>
      </trkpt>
      <trkpt lat="47.29655" lon="-2.33851">
        <ele>15.800000190735</ele>
        <time>2020-08-02T07:35:34.000Z</time>
      </trkpt>
      <trkpt lat="47.29665" lon="-2.33847">
        <ele>15.800000190735</ele>
        <time>2020-08-02T07:35:36.000Z</time>
      </trkpt>
      <trkpt lat="47.29674" lon="-2.33836">
        <ele>15.800000190735</ele>
        <time>2020-08-02T07:35:38.000Z</time>
      </trkpt>
      <trkpt lat="47.2969" lon="-2.33816">
        <ele>16.200000762939</ele>
        <time>2020-08-02T07:35:42.000Z</time>
      </trkpt>
      <trkpt lat="47.29694" lon="-2.33812">
        <ele>16.60000038147</ele>
        <time>2020-08-02T07:35:43.000Z</time>
      </trkpt>
      <trkpt lat="47.29697" lon="-2.33808">
        <ele>17</ele>
        <time>2020-08-02T07:35:44.000Z</time>
      </trkpt>
      <trkpt lat="47.29699" lon="-2.33804">
        <ele>18</ele>
        <time>2020-08-02T07:35:45.000Z</time>
      </trkpt>
      <trkpt lat="47.29713" lon="-2.33784">
        <ele>18</ele>
        <time>2020-08-02T07:35:50.000Z</time>
      </trkpt>
      <trkpt lat="47.29727" lon="-2.33752">
        <ele>18</ele>
        <time>2020-08-02T07:35:55.000Z</time>
      </trkpt>
      <trkpt lat="47.29734" lon="-2.33739">
        <ele>18.39999961853</ele>
        <time>2020-08-02T07:35:57.000Z</time>
      </trkpt>
      <trkpt lat="47.29737" lon="-2.33733">
        <ele>18.799999237061</ele>
        <time>2020-08-02T07:35:58.000Z</time>
      </trkpt>
      <trkpt lat="47.29741" lon="-2.33727">
        <ele>19.200000762939</ele>
        <time>2020-08-02T07:35:59.000Z</time>
      </trkpt>
      <trkpt lat="47.29745" lon="-2.3372">
        <ele>19.60000038147</ele>
        <time>2020-08-02T07:36:00.000Z</time>
      </trkpt>
      <trkpt lat="47.29749" lon="-2.33713">
        <ele>20</ele>
        <time>2020-08-02T07:36:01.000Z</time>
      </trkpt>
      <trkpt lat="47.2978" lon="-2.3366">
        <ele>20</ele>
        <time>2020-08-02T07:36:08.000Z</time>
      </trkpt>
      <trkpt lat="47.29818" lon="-2.33596">
        <ele>20</ele>
        <time>2020-08-02T07:36:16.000Z</time>
      </trkpt>
      <trkpt lat="47.29836" lon="-2.33566">
        <ele>19.39999961853</ele>
        <time>2020-08-02T07:36:20.000Z</time>
      </trkpt>
      <trkpt lat="47.2984" lon="-2.33559">
        <ele>19</ele>
        <time>2020-08-02T07:36:21.000Z</time>
      </trkpt>
      <trkpt lat="47.29845" lon="-2.33551">
        <ele>18.60000038147</ele>
        <time>2020-08-02T07:36:22.000Z</time>
      </trkpt>
      <trkpt lat="47.29849" lon="-2.33544">
        <ele>18.200000762939</ele>
        <time>2020-08-02T07:36:23.000Z</time>
      </trkpt>
      <trkpt lat="47.29853" lon="-2.33537">
        <ele>17.799999237061</ele>
        <time>2020-08-02T07:36:24.000Z</time>
      </trkpt>
      <trkpt lat="47.29857" lon="-2.33529">
        <ele>17.799999237061</ele>
        <time>2020-08-02T07:36:25.000Z</time>
      </trkpt>
      <trkpt lat="47.29896" lon="-2.33468">
        <ele>17.799999237061</ele>
        <time>2020-08-02T07:36:34.000Z</time>
      </trkpt>
      <trkpt lat="47.299" lon="-2.33463">
        <ele>17.200000762939</ele>
        <time>2020-08-02T07:36:35.000Z</time>
      </trkpt>
      <trkpt lat="47.29904" lon="-2.33458">
        <ele>16.799999237061</ele>
        <time>2020-08-02T07:36:36.000Z</time>
      </trkpt>
      <trkpt lat="47.29908" lon="-2.33454">
        <ele>16.39999961853</ele>
        <time>2020-08-02T07:36:37.000Z</time>
      </trkpt>
      <trkpt lat="47.29912" lon="-2.3345">
        <ele>15.800000190735</ele>
        <time>2020-08-02T07:36:38.000Z</time>
      </trkpt>
      <trkpt lat="47.29916" lon="-2.33447">
        <ele>15.39999961853</ele>
        <time>2020-08-02T07:36:39.000Z</time>
      </trkpt>
      <trkpt lat="47.29929" lon="-2.33453">
        <ele>15.39999961853</ele>
        <time>2020-08-02T07:36:42.000Z</time>
      </trkpt>
      <trkpt lat="47.29933" lon="-2.33457">
        <ele>15.39999961853</ele>
        <time>2020-08-02T07:36:43.000Z</time>
      </trkpt>
      <trkpt lat="47.29955" lon="-2.33482">
        <ele>15.39999961853</ele>
        <time>2020-08-02T07:36:48.000Z</time>
      </trkpt>
      <trkpt lat="47.29988" lon="-2.33514">
        <ele>15.39999961853</ele>
        <time>2020-08-02T07:36:55.000Z</time>
      </trkpt>
      <trkpt lat="47.30014" lon="-2.33532">
        <ele>15.39999961853</ele>
        <time>2020-08-02T07:37:01.000Z</time>
      </trkpt>
      <trkpt lat="47.30023" lon="-2.33534">
        <ele>15.39999961853</ele>
        <time>2020-08-02T07:37:03.000Z</time>
      </trkpt>
      <trkpt lat="47.30038" lon="-2.3353">
        <ele>15.39999961853</ele>
        <time>2020-08-02T07:37:06.000Z</time>
      </trkpt>
      <trkpt lat="47.30047" lon="-2.33524">
        <ele>15.39999961853</ele>
        <time>2020-08-02T07:37:08.000Z</time>
      </trkpt>
      <trkpt lat="47.30062" lon="-2.33516">
        <ele>15.39999961853</ele>
        <time>2020-08-02T07:37:11.000Z</time>
      </trkpt>
      <trkpt lat="47.30067" lon="-2.33515">
        <ele>15.39999961853</ele>
        <time>2020-08-02T07:37:12.000Z</time>
      </trkpt>
      <trkpt lat="47.30083" lon="-2.33518">
        <ele>15.39999961853</ele>
        <time>2020-08-02T07:37:15.000Z</time>
      </trkpt>
      <trkpt lat="47.30094" lon="-2.33521">
        <ele>15.39999961853</ele>
        <time>2020-08-02T07:37:17.000Z</time>
      </trkpt>
      <trkpt lat="47.30105" lon="-2.33524">
        <ele>15.800000190735</ele>
        <time>2020-08-02T07:37:19.000Z</time>
      </trkpt>
      <trkpt lat="47.30111" lon="-2.33525">
        <ele>16.200000762939</ele>
        <time>2020-08-02T07:37:20.000Z</time>
      </trkpt>
      <trkpt lat="47.30116" lon="-2.33526">
        <ele>16.60000038147</ele>
        <time>2020-08-02T07:37:21.000Z</time>
      </trkpt>
      <trkpt lat="47.30122" lon="-2.33528">
        <ele>17.200000762939</ele>
        <time>2020-08-02T07:37:22.000Z</time>
      </trkpt>
      <trkpt lat="47.30127" lon="-2.3353">
        <ele>17.60000038147</ele>
        <time>2020-08-02T07:37:23.000Z</time>
      </trkpt>
      <trkpt lat="47.30132" lon="-2.33532">
        <ele>17.60000038147</ele>
        <time>2020-08-02T07:37:24.000Z</time>
      </trkpt>
      <trkpt lat="47.30171" lon="-2.33546">
        <ele>18</ele>
        <time>2020-08-02T07:37:32.000Z</time>
      </trkpt>
      <trkpt lat="47.30176" lon="-2.33548">
        <ele>18.39999961853</ele>
        <time>2020-08-02T07:37:33.000Z</time>
      </trkpt>
      <trkpt lat="47.30181" lon="-2.3355">
        <ele>18.799999237061</ele>
        <time>2020-08-02T07:37:34.000Z</time>
      </trkpt>
      <trkpt lat="47.30186" lon="-2.33552">
        <ele>19.39999961853</ele>
        <time>2020-08-02T07:37:35.000Z</time>
      </trkpt>
      <trkpt lat="47.3019" lon="-2.33555">
        <ele>19.799999237061</ele>
        <time>2020-08-02T07:37:36.000Z</time>
      </trkpt>
      <trkpt lat="47.30195" lon="-2.33557">
        <ele>19.799999237061</ele>
        <time>2020-08-02T07:37:37.000Z</time>
      </trkpt>
      <trkpt lat="47.30219" lon="-2.33565">
        <ele>19.799999237061</ele>
        <time>2020-08-02T07:37:42.000Z</time>
      </trkpt>
      <trkpt lat="47.30249" lon="-2.33575">
        <ele>20.200000762939</ele>
        <time>2020-08-02T07:37:49.000Z</time>
      </trkpt>
      <trkpt lat="47.30253" lon="-2.33577">
        <ele>20.60000038147</ele>
        <time>2020-08-02T07:37:50.000Z</time>
      </trkpt>
      <trkpt lat="47.30258" lon="-2.33578">
        <ele>21.200000762939</ele>
        <time>2020-08-02T07:37:51.000Z</time>
      </trkpt>
      <trkpt lat="47.30261" lon="-2.3358">
        <ele>21.60000038147</ele>
        <time>2020-08-02T07:37:52.000Z</time>
      </trkpt>
      <trkpt lat="47.30265" lon="-2.33581">
        <ele>22</ele>
        <time>2020-08-02T07:37:53.000Z</time>
      </trkpt>
      <trkpt lat="47.30275" lon="-2.33586">
        <ele>22</ele>
        <time>2020-08-02T07:37:56.000Z</time>
      </trkpt>
      <trkpt lat="47.3029" lon="-2.33591">
        <ele>22</ele>
        <time>2020-08-02T07:38:00.000Z</time>
      </trkpt>
      <trkpt lat="47.30295" lon="-2.33591">
        <ele>22.39999961853</ele>
        <time>2020-08-02T07:38:01.000Z</time>
      </trkpt>
      <trkpt lat="47.303" lon="-2.33591">
        <ele>22.799999237061</ele>
        <time>2020-08-02T07:38:02.000Z</time>
      </trkpt>
      <trkpt lat="47.30304" lon="-2.3359">
        <ele>23.200000762939</ele>
        <time>2020-08-02T07:38:03.000Z</time>
      </trkpt>
      <trkpt lat="47.30309" lon="-2.33589">
        <ele>23.60000038147</ele>
        <time>2020-08-02T07:38:04.000Z</time>
      </trkpt>
      <trkpt lat="47.30315" lon="-2.33587">
        <ele>24</ele>
        <time>2020-08-02T07:38:05.000Z</time>
      </trkpt>
      <trkpt lat="47.30326" lon="-2.33583">
        <ele>24</ele>
        <time>2020-08-02T07:38:07.000Z</time>
      </trkpt>
      <trkpt lat="47.30331" lon="-2.33581">
        <ele>24</ele>
        <time>2020-08-02T07:38:08.000Z</time>
      </trkpt>
      <trkpt lat="47.30347" lon="-2.33587">
        <ele>24</ele>
        <time>2020-08-02T07:38:11.000Z</time>
      </trkpt>
      <trkpt lat="47.30353" lon="-2.33607">
        <ele>24</ele>
        <time>2020-08-02T07:38:14.000Z</time>
      </trkpt>
      <trkpt lat="47.30355" lon="-2.33621">
        <ele>24</ele>
        <time>2020-08-02T07:38:16.000Z</time>
      </trkpt>
      <trkpt lat="47.3036" lon="-2.33653">
        <ele>24</ele>
        <time>2020-08-02T07:38:20.000Z</time>
      </trkpt>
      <trkpt lat="47.30362" lon="-2.3366">
        <ele>24</ele>
        <time>2020-08-02T07:38:21.000Z</time>
      </trkpt>
      <trkpt lat="47.30373" lon="-2.33678">
        <ele>24</ele>
        <time>2020-08-02T07:38:24.000Z</time>
      </trkpt>
      <trkpt lat="47.30392" lon="-2.33689">
        <ele>24</ele>
        <time>2020-08-02T07:38:28.000Z</time>
      </trkpt>
      <trkpt lat="47.30397" lon="-2.33691">
        <ele>24</ele>
        <time>2020-08-02T07:38:29.000Z</time>
      </trkpt>
      <trkpt lat="47.3041" lon="-2.33697">
        <ele>24.39999961853</ele>
        <time>2020-08-02T07:38:32.000Z</time>
      </trkpt>
      <trkpt lat="47.30415" lon="-2.33697">
        <ele>24.799999237061</ele>
        <time>2020-08-02T07:38:33.000Z</time>
      </trkpt>
      <trkpt lat="47.3042" lon="-2.33695">
        <ele>25.200000762939</ele>
        <time>2020-08-02T07:38:34.000Z</time>
      </trkpt>
      <trkpt lat="47.30424" lon="-2.33693">
        <ele>25.60000038147</ele>
        <time>2020-08-02T07:38:35.000Z</time>
      </trkpt>
      <trkpt lat="47.30429" lon="-2.33691">
        <ele>26</ele>
        <time>2020-08-02T07:38:36.000Z</time>
      </trkpt>
      <trkpt lat="47.30439" lon="-2.33686">
        <ele>26</ele>
        <time>2020-08-02T07:38:38.000Z</time>
      </trkpt>
      <trkpt lat="47.30444" lon="-2.33682">
        <ele>26</ele>
        <time>2020-08-02T07:38:39.000Z</time>
      </trkpt>
      <trkpt lat="47.30467" lon="-2.33667">
        <ele>26</ele>
        <time>2020-08-02T07:38:44.000Z</time>
      </trkpt>
      <trkpt lat="47.30472" lon="-2.33664">
        <ele>26</ele>
        <time>2020-08-02T07:38:45.000Z</time>
      </trkpt>
      <trkpt lat="47.30502" lon="-2.33651">
        <ele>26</ele>
        <time>2020-08-02T07:38:51.000Z</time>
      </trkpt>
      <trkpt lat="47.30537" lon="-2.33643">
        <ele>26</ele>
        <time>2020-08-02T07:38:58.000Z</time>
      </trkpt>
      <trkpt lat="47.30549" lon="-2.33652">
        <ele>26</ele>
        <time>2020-08-02T07:39:01.000Z</time>
      </trkpt>
      <trkpt lat="47.30553" lon="-2.33665">
        <ele>26</ele>
        <time>2020-08-02T07:39:03.000Z</time>
      </trkpt>
      <trkpt lat="47.3056" lon="-2.3369">
        <ele>26</ele>
        <time>2020-08-02T07:39:07.000Z</time>
      </trkpt>
      <trkpt lat="47.30572" lon="-2.33745">
        <ele>26.39999961853</ele>
        <time>2020-08-02T07:39:15.000Z</time>
      </trkpt>
      <trkpt lat="47.30573" lon="-2.33752">
        <ele>26.799999237061</ele>
        <time>2020-08-02T07:39:16.000Z</time>
      </trkpt>
      <trkpt lat="47.30575" lon="-2.33759">
        <ele>27.200000762939</ele>
        <time>2020-08-02T07:39:17.000Z</time>
      </trkpt>
      <trkpt lat="47.30576" lon="-2.33766">
        <ele>27.799999237061</ele>
        <time>2020-08-02T07:39:18.000Z</time>
      </trkpt>
      <trkpt lat="47.30577" lon="-2.33773">
        <ele>28.200000762939</ele>
        <time>2020-08-02T07:39:19.000Z</time>
      </trkpt>
      <trkpt lat="47.30579" lon="-2.3378">
        <ele>28.200000762939</ele>
        <time>2020-08-02T07:39:20.000Z</time>
      </trkpt>
      <trkpt lat="47.30581" lon="-2.33787">
        <ele>28.200000762939</ele>
        <time>2020-08-02T07:39:21.000Z</time>
      </trkpt>
      <trkpt lat="47.30593" lon="-2.33833">
        <ele>28.200000762939</ele>
        <time>2020-08-02T07:39:28.000Z</time>
      </trkpt>
      <trkpt lat="47.30597" lon="-2.3385">
        <ele>28.200000762939</ele>
        <time>2020-08-02T07:39:32.000Z</time>
      </trkpt>
      <trkpt lat="47.30601" lon="-2.33874">
        <ele>28.200000762939</ele>
        <time>2020-08-02T07:39:38.000Z</time>
      </trkpt>
      <trkpt lat="47.30602" lon="-2.33899">
        <ele>28.200000762939</ele>
        <time>2020-08-02T07:39:42.000Z</time>
      </trkpt>
      <trkpt lat="47.30603" lon="-2.33907">
        <ele>28.200000762939</ele>
        <time>2020-08-02T07:39:43.000Z</time>
      </trkpt>
      <trkpt lat="47.30607" lon="-2.33931">
        <ele>28.200000762939</ele>
        <time>2020-08-02T07:39:46.000Z</time>
      </trkpt>
      <trkpt lat="47.30613" lon="-2.33952">
        <ele>28.200000762939</ele>
        <time>2020-08-02T07:39:49.000Z</time>
      </trkpt>
      <trkpt lat="47.3062" lon="-2.33961">
        <ele>28.200000762939</ele>
        <time>2020-08-02T07:39:51.000Z</time>
      </trkpt>
      <trkpt lat="47.30647" lon="-2.33985">
        <ele>28.200000762939</ele>
        <time>2020-08-02T07:39:57.000Z</time>
      </trkpt>
      <trkpt lat="47.30667" lon="-2.33992">
        <ele>28.200000762939</ele>
        <time>2020-08-02T07:40:02.000Z</time>
      </trkpt>
      <trkpt lat="47.3069" lon="-2.33987">
        <ele>28.200000762939</ele>
        <time>2020-08-02T07:40:08.000Z</time>
      </trkpt>
      <trkpt lat="47.30707" lon="-2.33985">
        <ele>28.200000762939</ele>
        <time>2020-08-02T07:40:11.000Z</time>
      </trkpt>
      <trkpt lat="47.30714" lon="-2.33985">
        <ele>28.200000762939</ele>
        <time>2020-08-02T07:40:12.000Z</time>
      </trkpt>
      <trkpt lat="47.30752" lon="-2.33972">
        <ele>28.200000762939</ele>
        <time>2020-08-02T07:40:18.000Z</time>
      </trkpt>
      <trkpt lat="47.30765" lon="-2.33969">
        <ele>28.60000038147</ele>
        <time>2020-08-02T07:40:20.000Z</time>
      </trkpt>
      <trkpt lat="47.30771" lon="-2.33968">
        <ele>29</ele>
        <time>2020-08-02T07:40:21.000Z</time>
      </trkpt>
      <trkpt lat="47.30776" lon="-2.33968">
        <ele>29.39999961853</ele>
        <time>2020-08-02T07:40:22.000Z</time>
      </trkpt>
      <trkpt lat="47.30782" lon="-2.33967">
        <ele>29.799999237061</ele>
        <time>2020-08-02T07:40:23.000Z</time>
      </trkpt>
      <trkpt lat="47.30788" lon="-2.33966">
        <ele>30.200000762939</ele>
        <time>2020-08-02T07:40:24.000Z</time>
      </trkpt>
      <trkpt lat="47.30794" lon="-2.33964">
        <ele>30.200000762939</ele>
        <time>2020-08-02T07:40:25.000Z</time>
      </trkpt>
      <trkpt lat="47.30836" lon="-2.33951">
        <ele>30.200000762939</ele>
        <time>2020-08-02T07:40:32.000Z</time>
      </trkpt>
      <trkpt lat="47.30872" lon="-2.33946">
        <ele>30.200000762939</ele>
        <time>2020-08-02T07:40:38.000Z</time>
      </trkpt>
      <trkpt lat="47.30909" lon="-2.33942">
        <ele>30.200000762939</ele>
        <time>2020-08-02T07:40:45.000Z</time>
      </trkpt>
      <trkpt lat="47.30942" lon="-2.33947">
        <ele>30.200000762939</ele>
        <time>2020-08-02T07:40:51.000Z</time>
      </trkpt>
      <trkpt lat="47.30959" lon="-2.33951">
        <ele>30.200000762939</ele>
        <time>2020-08-02T07:40:54.000Z</time>
      </trkpt>
      <trkpt lat="47.30977" lon="-2.33954">
        <ele>30.200000762939</ele>
        <time>2020-08-02T07:40:57.000Z</time>
      </trkpt>
      <trkpt lat="47.30995" lon="-2.33954">
        <ele>30.200000762939</ele>
        <time>2020-08-02T07:41:00.000Z</time>
      </trkpt>
      <trkpt lat="47.31013" lon="-2.33951">
        <ele>30.200000762939</ele>
        <time>2020-08-02T07:41:03.000Z</time>
      </trkpt>
      <trkpt lat="47.31047" lon="-2.33945">
        <ele>29.799999237061</ele>
        <time>2020-08-02T07:41:09.000Z</time>
      </trkpt>
      <trkpt lat="47.31051" lon="-2.33944">
        <ele>29.39999961853</ele>
        <time>2020-08-02T07:41:10.000Z</time>
      </trkpt>
      <trkpt lat="47.31055" lon="-2.33943">
        <ele>29</ele>
        <time>2020-08-02T07:41:11.000Z</time>
      </trkpt>
      <trkpt lat="47.31058" lon="-2.3394">
        <ele>28.60000038147</ele>
        <time>2020-08-02T07:41:12.000Z</time>
      </trkpt>
      <trkpt lat="47.3106" lon="-2.33937">
        <ele>28.200000762939</ele>
        <time>2020-08-02T07:41:13.000Z</time>
      </trkpt>
      <trkpt lat="47.31062" lon="-2.33922">
        <ele>28.200000762939</ele>
        <time>2020-08-02T07:41:16.000Z</time>
      </trkpt>
      <trkpt lat="47.31062" lon="-2.33915">
        <ele>28.200000762939</ele>
        <time>2020-08-02T07:41:17.000Z</time>
      </trkpt>
      <trkpt lat="47.31063" lon="-2.33888">
        <ele>28.200000762939</ele>
        <time>2020-08-02T07:41:21.000Z</time>
      </trkpt>
      <trkpt lat="47.31063" lon="-2.33881">
        <ele>28.200000762939</ele>
        <time>2020-08-02T07:41:22.000Z</time>
      </trkpt>
      <trkpt lat="47.31066" lon="-2.33832">
        <ele>28.200000762939</ele>
        <time>2020-08-02T07:41:28.000Z</time>
      </trkpt>
      <trkpt lat="47.31071" lon="-2.33799">
        <ele>28.200000762939</ele>
        <time>2020-08-02T07:41:32.000Z</time>
      </trkpt>
      <trkpt lat="47.31074" lon="-2.33791">
        <ele>28.200000762939</ele>
        <time>2020-08-02T07:41:33.000Z</time>
      </trkpt>
      <trkpt lat="47.31091" lon="-2.33752">
        <ele>28.200000762939</ele>
        <time>2020-08-02T07:41:38.000Z</time>
      </trkpt>
      <trkpt lat="47.31099" lon="-2.33706">
        <ele>28.200000762939</ele>
        <time>2020-08-02T07:41:43.000Z</time>
      </trkpt>
      <trkpt lat="47.31107" lon="-2.33646">
        <ele>28.200000762939</ele>
        <time>2020-08-02T07:41:50.000Z</time>
      </trkpt>
      <trkpt lat="47.31113" lon="-2.3358">
        <ele>28.200000762939</ele>
        <time>2020-08-02T07:41:58.000Z</time>
      </trkpt>
      <trkpt lat="47.31108" lon="-2.3353">
        <ele>28.200000762939</ele>
        <time>2020-08-02T07:42:04.000Z</time>
      </trkpt>
      <trkpt lat="47.31098" lon="-2.33474">
        <ele>28.200000762939</ele>
        <time>2020-08-02T07:42:10.000Z</time>
      </trkpt>
      <trkpt lat="47.31097" lon="-2.33464">
        <ele>28.200000762939</ele>
        <time>2020-08-02T07:42:11.000Z</time>
      </trkpt>
      <trkpt lat="47.31095" lon="-2.33403">
        <ele>27.799999237061</ele>
        <time>2020-08-02T07:42:17.000Z</time>
      </trkpt>
      <trkpt lat="47.31095" lon="-2.33394">
        <ele>27.200000762939</ele>
        <time>2020-08-02T07:42:18.000Z</time>
      </trkpt>
      <trkpt lat="47.31095" lon="-2.33384">
        <ele>26.799999237061</ele>
        <time>2020-08-02T07:42:19.000Z</time>
      </trkpt>
      <trkpt lat="47.31095" lon="-2.33375">
        <ele>26</ele>
        <time>2020-08-02T07:42:20.000Z</time>
      </trkpt>
      <trkpt lat="47.31095" lon="-2.33332">
        <ele>26</ele>
        <time>2020-08-02T07:42:25.000Z</time>
      </trkpt>
      <trkpt lat="47.311" lon="-2.33252">
        <ele>26</ele>
        <time>2020-08-02T07:42:34.000Z</time>
      </trkpt>
      <trkpt lat="47.31102" lon="-2.33235">
        <ele>25.60000038147</ele>
        <time>2020-08-02T07:42:36.000Z</time>
      </trkpt>
      <trkpt lat="47.31103" lon="-2.33226">
        <ele>25.200000762939</ele>
        <time>2020-08-02T07:42:37.000Z</time>
      </trkpt>
      <trkpt lat="47.31106" lon="-2.33218">
        <ele>24.799999237061</ele>
        <time>2020-08-02T07:42:38.000Z</time>
      </trkpt>
      <trkpt lat="47.31109" lon="-2.33212">
        <ele>24.200000762939</ele>
        <time>2020-08-02T07:42:39.000Z</time>
      </trkpt>
      <trkpt lat="47.31114" lon="-2.33207">
        <ele>23.799999237061</ele>
        <time>2020-08-02T07:42:40.000Z</time>
      </trkpt>
      <trkpt lat="47.31127" lon="-2.33198">
        <ele>23.799999237061</ele>
        <time>2020-08-02T07:42:43.000Z</time>
      </trkpt>
      <trkpt lat="47.3113" lon="-2.33196">
        <ele>23.799999237061</ele>
        <time>2020-08-02T07:42:44.000Z</time>
      </trkpt>
      <trkpt lat="47.3114" lon="-2.33191">
        <ele>23.799999237061</ele>
        <time>2020-08-02T07:42:48.000Z</time>
      </trkpt>
      <trkpt lat="47.31149" lon="-2.33184">
        <ele>23.799999237061</ele>
        <time>2020-08-02T07:42:54.000Z</time>
      </trkpt>
      <trkpt lat="47.3116" lon="-2.33176">
        <ele>23.799999237061</ele>
        <time>2020-08-02T07:43:01.000Z</time>
      </trkpt>
      <trkpt lat="47.31161" lon="-2.33176">
        <ele>23.799999237061</ele>
        <time>2020-08-02T07:43:02.000Z</time>
      </trkpt>
      <trkpt lat="47.31164" lon="-2.33174">
        <ele>23.799999237061</ele>
        <time>2020-08-02T07:43:15.000Z</time>
      </trkpt>
      <trkpt lat="47.31168" lon="-2.33171">
        <ele>23.799999237061</ele>
        <time>2020-08-02T07:43:17.000Z</time>
      </trkpt>
      <trkpt lat="47.31186" lon="-2.33163">
        <ele>23.799999237061</ele>
        <time>2020-08-02T07:43:22.000Z</time>
      </trkpt>
      <trkpt lat="47.312" lon="-2.33157">
        <ele>23.799999237061</ele>
        <time>2020-08-02T07:43:25.000Z</time>
      </trkpt>
      <trkpt lat="47.31215" lon="-2.33155">
        <ele>23.799999237061</ele>
        <time>2020-08-02T07:43:28.000Z</time>
      </trkpt>
      <trkpt lat="47.31226" lon="-2.33155">
        <ele>23.799999237061</ele>
        <time>2020-08-02T07:43:30.000Z</time>
      </trkpt>
      <trkpt lat="47.31244" lon="-2.33158">
        <ele>23.799999237061</ele>
        <time>2020-08-02T07:43:33.000Z</time>
      </trkpt>
      <trkpt lat="47.31257" lon="-2.33161">
        <ele>23.799999237061</ele>
        <time>2020-08-02T07:43:35.000Z</time>
      </trkpt>
      <trkpt lat="47.31276" lon="-2.33169">
        <ele>23.799999237061</ele>
        <time>2020-08-02T07:43:38.000Z</time>
      </trkpt>
      <trkpt lat="47.31308" lon="-2.33189">
        <ele>23.799999237061</ele>
        <time>2020-08-02T07:43:44.000Z</time>
      </trkpt>
      <trkpt lat="47.3134" lon="-2.33214">
        <ele>23.799999237061</ele>
        <time>2020-08-02T07:43:50.000Z</time>
      </trkpt>
      <trkpt lat="47.31382" lon="-2.33244">
        <ele>23.799999237061</ele>
        <time>2020-08-02T07:43:58.000Z</time>
      </trkpt>
      <trkpt lat="47.31426" lon="-2.33276">
        <ele>23.799999237061</ele>
        <time>2020-08-02T07:44:07.000Z</time>
      </trkpt>
      <trkpt lat="47.3145" lon="-2.33308">
        <ele>23.799999237061</ele>
        <time>2020-08-02T07:44:13.000Z</time>
      </trkpt>
      <trkpt lat="47.31474" lon="-2.33353">
        <ele>23.799999237061</ele>
        <time>2020-08-02T07:44:20.000Z</time>
      </trkpt>
      <trkpt lat="47.31481" lon="-2.33363">
        <ele>23.799999237061</ele>
        <time>2020-08-02T07:44:22.000Z</time>
      </trkpt>
      <trkpt lat="47.3149" lon="-2.33366">
        <ele>23.799999237061</ele>
        <time>2020-08-02T07:44:24.000Z</time>
      </trkpt>
      <trkpt lat="47.31504" lon="-2.33359">
        <ele>23.799999237061</ele>
        <time>2020-08-02T07:44:27.000Z</time>
      </trkpt>
      <trkpt lat="47.31509" lon="-2.33356">
        <ele>23.799999237061</ele>
        <time>2020-08-02T07:44:28.000Z</time>
      </trkpt>
      <trkpt lat="47.31531" lon="-2.33344">
        <ele>24.39999961853</ele>
        <time>2020-08-02T07:44:32.000Z</time>
      </trkpt>
      <trkpt lat="47.31536" lon="-2.33341">
        <ele>24.799999237061</ele>
        <time>2020-08-02T07:44:33.000Z</time>
      </trkpt>
      <trkpt lat="47.31542" lon="-2.33339">
        <ele>25.200000762939</ele>
        <time>2020-08-02T07:44:34.000Z</time>
      </trkpt>
      <trkpt lat="47.31547" lon="-2.33337">
        <ele>25.60000038147</ele>
        <time>2020-08-02T07:44:35.000Z</time>
      </trkpt>
      <trkpt lat="47.31553" lon="-2.33335">
        <ele>26</ele>
        <time>2020-08-02T07:44:36.000Z</time>
      </trkpt>
      <trkpt lat="47.31579" lon="-2.33323">
        <ele>26</ele>
        <time>2020-08-02T07:44:41.000Z</time>
      </trkpt>
      <trkpt lat="47.31613" lon="-2.33303">
        <ele>26</ele>
        <time>2020-08-02T07:44:48.000Z</time>
      </trkpt>
      <trkpt lat="47.31623" lon="-2.33297">
        <ele>26</ele>
        <time>2020-08-02T07:44:50.000Z</time>
      </trkpt>
      <trkpt lat="47.31642" lon="-2.33287">
        <ele>26</ele>
        <time>2020-08-02T07:44:54.000Z</time>
      </trkpt>
      <trkpt lat="47.31676" lon="-2.33269">
        <ele>26</ele>
        <time>2020-08-02T07:45:00.000Z</time>
      </trkpt>
      <trkpt lat="47.31681" lon="-2.33268">
        <ele>26</ele>
        <time>2020-08-02T07:45:01.000Z</time>
      </trkpt>
      <trkpt lat="47.31698" lon="-2.33261">
        <ele>25.60000038147</ele>
        <time>2020-08-02T07:45:05.000Z</time>
      </trkpt>
      <trkpt lat="47.31703" lon="-2.33259">
        <ele>25.200000762939</ele>
        <time>2020-08-02T07:45:06.000Z</time>
      </trkpt>
      <trkpt lat="47.31708" lon="-2.33256">
        <ele>24.799999237061</ele>
        <time>2020-08-02T07:45:07.000Z</time>
      </trkpt>
      <trkpt lat="47.31713" lon="-2.33253">
        <ele>24.200000762939</ele>
        <time>2020-08-02T07:45:08.000Z</time>
      </trkpt>
      <trkpt lat="47.31718" lon="-2.33251">
        <ele>23.799999237061</ele>
        <time>2020-08-02T07:45:09.000Z</time>
      </trkpt>
      <trkpt lat="47.31723" lon="-2.33248">
        <ele>23.799999237061</ele>
        <time>2020-08-02T07:45:10.000Z</time>
      </trkpt>
      <trkpt lat="47.31738" lon="-2.33244">
        <ele>23.39999961853</ele>
        <time>2020-08-02T07:45:13.000Z</time>
      </trkpt>
      <trkpt lat="47.31741" lon="-2.33247">
        <ele>23</ele>
        <time>2020-08-02T07:45:14.000Z</time>
      </trkpt>
      <trkpt lat="47.31743" lon="-2.33251">
        <ele>22.60000038147</ele>
        <time>2020-08-02T07:45:15.000Z</time>
      </trkpt>
      <trkpt lat="47.31744" lon="-2.33256">
        <ele>22.200000762939</ele>
        <time>2020-08-02T07:45:16.000Z</time>
      </trkpt>
      <trkpt lat="47.31745" lon="-2.33262">
        <ele>21.799999237061</ele>
        <time>2020-08-02T07:45:17.000Z</time>
      </trkpt>
      <trkpt lat="47.31746" lon="-2.33275">
        <ele>21.799999237061</ele>
        <time>2020-08-02T07:45:19.000Z</time>
      </trkpt>
      <trkpt lat="47.31748" lon="-2.3329">
        <ele>21.799999237061</ele>
        <time>2020-08-02T07:45:21.000Z</time>
      </trkpt>
      <trkpt lat="47.31749" lon="-2.33298">
        <ele>21.799999237061</ele>
        <time>2020-08-02T07:45:22.000Z</time>
      </trkpt>
      <trkpt lat="47.31763" lon="-2.33321">
        <ele>21.799999237061</ele>
        <time>2020-08-02T07:45:26.000Z</time>
      </trkpt>
      <trkpt lat="47.31781" lon="-2.33319">
        <ele>21.39999961853</ele>
        <time>2020-08-02T07:45:29.000Z</time>
      </trkpt>
      <trkpt lat="47.31787" lon="-2.33316">
        <ele>20.799999237061</ele>
        <time>2020-08-02T07:45:30.000Z</time>
      </trkpt>
      <trkpt lat="47.31793" lon="-2.33312">
        <ele>20.39999961853</ele>
        <time>2020-08-02T07:45:31.000Z</time>
      </trkpt>
      <trkpt lat="47.31799" lon="-2.33307">
        <ele>20</ele>
        <time>2020-08-02T07:45:32.000Z</time>
      </trkpt>
      <trkpt lat="47.31804" lon="-2.33302">
        <ele>19.60000038147</ele>
        <time>2020-08-02T07:45:33.000Z</time>
      </trkpt>
      <trkpt lat="47.3181" lon="-2.33297">
        <ele>19.60000038147</ele>
        <time>2020-08-02T07:45:34.000Z</time>
      </trkpt>
      <trkpt lat="47.31816" lon="-2.33292">
        <ele>19</ele>
        <time>2020-08-02T07:45:35.000Z</time>
      </trkpt>
      <trkpt lat="47.31822" lon="-2.33287">
        <ele>18.60000038147</ele>
        <time>2020-08-02T07:45:36.000Z</time>
      </trkpt>
      <trkpt lat="47.31829" lon="-2.33281">
        <ele>18.200000762939</ele>
        <time>2020-08-02T07:45:37.000Z</time>
      </trkpt>
      <trkpt lat="47.31834" lon="-2.33275">
        <ele>17.200000762939</ele>
        <time>2020-08-02T07:45:38.000Z</time>
      </trkpt>
      <trkpt lat="47.3184" lon="-2.33268">
        <ele>17.200000762939</ele>
        <time>2020-08-02T07:45:39.000Z</time>
      </trkpt>
      <trkpt lat="47.31845" lon="-2.33261">
        <ele>16.799999237061</ele>
        <time>2020-08-02T07:45:40.000Z</time>
      </trkpt>
      <trkpt lat="47.31849" lon="-2.33253">
        <ele>16.39999961853</ele>
        <time>2020-08-02T07:45:41.000Z</time>
      </trkpt>
      <trkpt lat="47.31853" lon="-2.33245">
        <ele>15.800000190735</ele>
        <time>2020-08-02T07:45:42.000Z</time>
      </trkpt>
      <trkpt lat="47.31856" lon="-2.33236">
        <ele>15.39999961853</ele>
        <time>2020-08-02T07:45:43.000Z</time>
      </trkpt>
      <trkpt lat="47.31858" lon="-2.33227">
        <ele>15</ele>
        <time>2020-08-02T07:45:44.000Z</time>
      </trkpt>
      <trkpt lat="47.31863" lon="-2.33195">
        <ele>15</ele>
        <time>2020-08-02T07:45:47.000Z</time>
      </trkpt>
      <trkpt lat="47.31865" lon="-2.33144">
        <ele>14.60000038147</ele>
        <time>2020-08-02T07:45:52.000Z</time>
      </trkpt>
      <trkpt lat="47.31866" lon="-2.33134">
        <ele>14</ele>
        <time>2020-08-02T07:45:53.000Z</time>
      </trkpt>
      <trkpt lat="47.31866" lon="-2.33123">
        <ele>13.60000038147</ele>
        <time>2020-08-02T07:45:54.000Z</time>
      </trkpt>
      <trkpt lat="47.31867" lon="-2.33112">
        <ele>13.199999809265</ele>
        <time>2020-08-02T07:45:55.000Z</time>
      </trkpt>
      <trkpt lat="47.31868" lon="-2.33101">
        <ele>12.800000190735</ele>
        <time>2020-08-02T07:45:56.000Z</time>
      </trkpt>
      <trkpt lat="47.31869" lon="-2.33077">
        <ele>12.199999809265</ele>
        <time>2020-08-02T07:45:58.000Z</time>
      </trkpt>
      <trkpt lat="47.31871" lon="-2.33062">
        <ele>11.800000190735</ele>
        <time>2020-08-02T07:45:59.000Z</time>
      </trkpt>
      <trkpt lat="47.31873" lon="-2.33049">
        <ele>11.39999961853</ele>
        <time>2020-08-02T07:46:00.000Z</time>
      </trkpt>
      <trkpt lat="47.31874" lon="-2.33035">
        <ele>11</ele>
        <time>2020-08-02T07:46:01.000Z</time>
      </trkpt>
      <trkpt lat="47.31875" lon="-2.33022">
        <ele>10.60000038147</ele>
        <time>2020-08-02T07:46:02.000Z</time>
      </trkpt>
      <trkpt lat="47.31875" lon="-2.32997">
        <ele>10.60000038147</ele>
        <time>2020-08-02T07:46:04.000Z</time>
      </trkpt>
      <trkpt lat="47.31875" lon="-2.32986">
        <ele>10.60000038147</ele>
        <time>2020-08-02T07:46:05.000Z</time>
      </trkpt>
      <trkpt lat="47.31879" lon="-2.32948">
        <ele>10.60000038147</ele>
        <time>2020-08-02T07:46:09.000Z</time>
      </trkpt>
      <trkpt lat="47.3188" lon="-2.32921">
        <ele>10.60000038147</ele>
        <time>2020-08-02T07:46:12.000Z</time>
      </trkpt>
      <trkpt lat="47.31879" lon="-2.32902">
        <ele>10.60000038147</ele>
        <time>2020-08-02T07:46:14.000Z</time>
      </trkpt>
      <trkpt lat="47.31879" lon="-2.32891">
        <ele>10.60000038147</ele>
        <time>2020-08-02T07:46:15.000Z</time>
      </trkpt>
      <trkpt lat="47.31881" lon="-2.32858">
        <ele>10.60000038147</ele>
        <time>2020-08-02T07:46:18.000Z</time>
      </trkpt>
      <trkpt lat="47.31879" lon="-2.32798">
        <ele>10.60000038147</ele>
        <time>2020-08-02T07:46:24.000Z</time>
      </trkpt>
      <trkpt lat="47.31879" lon="-2.32771">
        <ele>10.60000038147</ele>
        <time>2020-08-02T07:46:27.000Z</time>
      </trkpt>
      <trkpt lat="47.31876" lon="-2.32755">
        <ele>10.60000038147</ele>
        <time>2020-08-02T07:46:29.000Z</time>
      </trkpt>
      <trkpt lat="47.31872" lon="-2.3274">
        <ele>10.60000038147</ele>
        <time>2020-08-02T07:46:31.000Z</time>
      </trkpt>
      <trkpt lat="47.31861" lon="-2.32713">
        <ele>10.60000038147</ele>
        <time>2020-08-02T07:46:35.000Z</time>
      </trkpt>
      <trkpt lat="47.31844" lon="-2.32669">
        <ele>11</ele>
        <time>2020-08-02T07:46:42.000Z</time>
      </trkpt>
      <trkpt lat="47.31842" lon="-2.32664">
        <ele>11.39999961853</ele>
        <time>2020-08-02T07:46:43.000Z</time>
      </trkpt>
      <trkpt lat="47.3184" lon="-2.32659">
        <ele>11.800000190735</ele>
        <time>2020-08-02T07:46:44.000Z</time>
      </trkpt>
      <trkpt lat="47.3184" lon="-2.32656">
        <ele>12.199999809265</ele>
        <time>2020-08-02T07:46:45.000Z</time>
      </trkpt>
      <trkpt lat="47.31839" lon="-2.32652">
        <ele>12.60000038147</ele>
        <time>2020-08-02T07:46:46.000Z</time>
      </trkpt>
      <trkpt lat="47.31834" lon="-2.3263">
        <ele>12.60000038147</ele>
        <time>2020-08-02T07:46:51.000Z</time>
      </trkpt>
      <trkpt lat="47.31828" lon="-2.32602">
        <ele>12.60000038147</ele>
        <time>2020-08-02T07:46:56.000Z</time>
      </trkpt>
      <trkpt lat="47.31821" lon="-2.32571">
        <ele>13</ele>
        <time>2020-08-02T07:47:02.000Z</time>
      </trkpt>
      <trkpt lat="47.3182" lon="-2.32567">
        <ele>13.39999961853</ele>
        <time>2020-08-02T07:47:03.000Z</time>
      </trkpt>
      <trkpt lat="47.31819" lon="-2.32562">
        <ele>13.800000190735</ele>
        <time>2020-08-02T07:47:04.000Z</time>
      </trkpt>
      <trkpt lat="47.31818" lon="-2.32558">
        <ele>14.199999809265</ele>
        <time>2020-08-02T07:47:05.000Z</time>
      </trkpt>
      <trkpt lat="47.31817" lon="-2.32553">
        <ele>14.60000038147</ele>
        <time>2020-08-02T07:47:06.000Z</time>
      </trkpt>
      <trkpt lat="47.31814" lon="-2.32538">
        <ele>14.60000038147</ele>
        <time>2020-08-02T07:47:09.000Z</time>
      </trkpt>
      <trkpt lat="47.31809" lon="-2.32508">
        <ele>15</ele>
        <time>2020-08-02T07:47:14.000Z</time>
      </trkpt>
      <trkpt lat="47.31807" lon="-2.32502">
        <ele>15.39999961853</ele>
        <time>2020-08-02T07:47:15.000Z</time>
      </trkpt>
      <trkpt lat="47.31806" lon="-2.32496">
        <ele>16</ele>
        <time>2020-08-02T07:47:16.000Z</time>
      </trkpt>
      <trkpt lat="47.31804" lon="-2.3249">
        <ele>16.799999237061</ele>
        <time>2020-08-02T07:47:17.000Z</time>
      </trkpt>
      <trkpt lat="47.31797" lon="-2.32469">
        <ele>17.200000762939</ele>
        <time>2020-08-02T07:47:21.000Z</time>
      </trkpt>
      <trkpt lat="47.31795" lon="-2.32464">
        <ele>17.799999237061</ele>
        <time>2020-08-02T07:47:22.000Z</time>
      </trkpt>
      <trkpt lat="47.31794" lon="-2.32458">
        <ele>18.200000762939</ele>
        <time>2020-08-02T07:47:23.000Z</time>
      </trkpt>
      <trkpt lat="47.31793" lon="-2.32451">
        <ele>18.60000038147</ele>
        <time>2020-08-02T07:47:24.000Z</time>
      </trkpt>
      <trkpt lat="47.31792" lon="-2.32444">
        <ele>19.200000762939</ele>
        <time>2020-08-02T07:47:25.000Z</time>
      </trkpt>
      <trkpt lat="47.3179" lon="-2.32431">
        <ele>19.200000762939</ele>
        <time>2020-08-02T07:47:27.000Z</time>
      </trkpt>
      <trkpt lat="47.31786" lon="-2.32411">
        <ele>19.60000038147</ele>
        <time>2020-08-02T07:47:30.000Z</time>
      </trkpt>
      <trkpt lat="47.31785" lon="-2.32404">
        <ele>20</ele>
        <time>2020-08-02T07:47:31.000Z</time>
      </trkpt>
      <trkpt lat="47.31784" lon="-2.32398">
        <ele>20.39999961853</ele>
        <time>2020-08-02T07:47:32.000Z</time>
      </trkpt>
      <trkpt lat="47.31783" lon="-2.32392">
        <ele>20.799999237061</ele>
        <time>2020-08-02T07:47:33.000Z</time>
      </trkpt>
      <trkpt lat="47.31782" lon="-2.32386">
        <ele>21.200000762939</ele>
        <time>2020-08-02T07:47:34.000Z</time>
      </trkpt>
      <trkpt lat="47.31781" lon="-2.3238">
        <ele>21.200000762939</ele>
        <time>2020-08-02T07:47:35.000Z</time>
      </trkpt>
      <trkpt lat="47.31772" lon="-2.3234">
        <ele>21.200000762939</ele>
        <time>2020-08-02T07:47:41.000Z</time>
      </trkpt>
      <trkpt lat="47.31768" lon="-2.32321">
        <ele>21.60000038147</ele>
        <time>2020-08-02T07:47:44.000Z</time>
      </trkpt>
      <trkpt lat="47.31767" lon="-2.32315">
        <ele>22</ele>
        <time>2020-08-02T07:47:45.000Z</time>
      </trkpt>
      <trkpt lat="47.31766" lon="-2.32309">
        <ele>22.39999961853</ele>
        <time>2020-08-02T07:47:46.000Z</time>
      </trkpt>
      <trkpt lat="47.31764" lon="-2.32302">
        <ele>22.799999237061</ele>
        <time>2020-08-02T07:47:47.000Z</time>
      </trkpt>
      <trkpt lat="47.31763" lon="-2.32296">
        <ele>23.200000762939</ele>
        <time>2020-08-02T07:47:48.000Z</time>
      </trkpt>
      <trkpt lat="47.31756" lon="-2.3226">
        <ele>23.200000762939</ele>
        <time>2020-08-02T07:47:54.000Z</time>
      </trkpt>
      <trkpt lat="47.31754" lon="-2.32237">
        <ele>23.200000762939</ele>
        <time>2020-08-02T07:47:58.000Z</time>
      </trkpt>
      <trkpt lat="47.31757" lon="-2.32234">
        <ele>23.200000762939</ele>
        <time>2020-08-02T07:47:59.000Z</time>
      </trkpt>
      <trkpt lat="47.31773" lon="-2.32231">
        <ele>23.200000762939</ele>
        <time>2020-08-02T07:48:03.000Z</time>
      </trkpt>
      <trkpt lat="47.31782" lon="-2.3223">
        <ele>23.200000762939</ele>
        <time>2020-08-02T07:48:05.000Z</time>
      </trkpt>
      <trkpt lat="47.318" lon="-2.3223">
        <ele>23.200000762939</ele>
        <time>2020-08-02T07:48:09.000Z</time>
      </trkpt>
      <trkpt lat="47.31831" lon="-2.32225">
        <ele>23.200000762939</ele>
        <time>2020-08-02T07:48:16.000Z</time>
      </trkpt>
      <trkpt lat="47.31844" lon="-2.32221">
        <ele>22.799999237061</ele>
        <time>2020-08-02T07:48:19.000Z</time>
      </trkpt>
      <trkpt lat="47.31849" lon="-2.3222">
        <ele>22.200000762939</ele>
        <time>2020-08-02T07:48:20.000Z</time>
      </trkpt>
      <trkpt lat="47.31853" lon="-2.32218">
        <ele>21.799999237061</ele>
        <time>2020-08-02T07:48:21.000Z</time>
      </trkpt>
      <trkpt lat="47.31858" lon="-2.32216">
        <ele>21.39999961853</ele>
        <time>2020-08-02T07:48:22.000Z</time>
      </trkpt>
      <trkpt lat="47.31862" lon="-2.32214">
        <ele>20.799999237061</ele>
        <time>2020-08-02T07:48:23.000Z</time>
      </trkpt>
      <trkpt lat="47.3187" lon="-2.32211">
        <ele>20.39999961853</ele>
        <time>2020-08-02T07:48:25.000Z</time>
      </trkpt>
      <trkpt lat="47.31874" lon="-2.3221">
        <ele>20</ele>
        <time>2020-08-02T07:48:26.000Z</time>
      </trkpt>
      <trkpt lat="47.31877" lon="-2.32209">
        <ele>19.60000038147</ele>
        <time>2020-08-02T07:48:27.000Z</time>
      </trkpt>
      <trkpt lat="47.31881" lon="-2.32208">
        <ele>19.200000762939</ele>
        <time>2020-08-02T07:48:28.000Z</time>
      </trkpt>
      <trkpt lat="47.31884" lon="-2.32208">
        <ele>18.799999237061</ele>
        <time>2020-08-02T07:48:29.000Z</time>
      </trkpt>
      <trkpt lat="47.31904" lon="-2.32205">
        <ele>18.39999961853</ele>
        <time>2020-08-02T07:48:35.000Z</time>
      </trkpt>
      <trkpt lat="47.31908" lon="-2.32205">
        <ele>18</ele>
        <time>2020-08-02T07:48:36.000Z</time>
      </trkpt>
      <trkpt lat="47.31912" lon="-2.32204">
        <ele>17.60000038147</ele>
        <time>2020-08-02T07:48:37.000Z</time>
      </trkpt>
      <trkpt lat="47.31917" lon="-2.32205">
        <ele>17.200000762939</ele>
        <time>2020-08-02T07:48:38.000Z</time>
      </trkpt>
      <trkpt lat="47.31923" lon="-2.32206">
        <ele>16.799999237061</ele>
        <time>2020-08-02T07:48:39.000Z</time>
      </trkpt>
      <trkpt lat="47.31929" lon="-2.32207">
        <ele>16.799999237061</ele>
        <time>2020-08-02T07:48:40.000Z</time>
      </trkpt>
      <trkpt lat="47.31939" lon="-2.3221">
        <ele>16.200000762939</ele>
        <time>2020-08-02T07:48:42.000Z</time>
      </trkpt>
      <trkpt lat="47.31944" lon="-2.32211">
        <ele>15.800000190735</ele>
        <time>2020-08-02T07:48:43.000Z</time>
      </trkpt>
      <trkpt lat="47.31948" lon="-2.32213">
        <ele>15.39999961853</ele>
        <time>2020-08-02T07:48:44.000Z</time>
      </trkpt>
      <trkpt lat="47.31951" lon="-2.32214">
        <ele>14.800000190735</ele>
        <time>2020-08-02T07:48:45.000Z</time>
      </trkpt>
      <trkpt lat="47.31954" lon="-2.32217">
        <ele>14.39999961853</ele>
        <time>2020-08-02T07:48:46.000Z</time>
      </trkpt>
      <trkpt lat="47.31955" lon="-2.3222">
        <ele>14.39999961853</ele>
        <time>2020-08-02T07:48:47.000Z</time>
      </trkpt>
      <trkpt lat="47.31956" lon="-2.32225">
        <ele>14</ele>
        <time>2020-08-02T07:48:48.000Z</time>
      </trkpt>
      <trkpt lat="47.31955" lon="-2.32229">
        <ele>13.60000038147</ele>
        <time>2020-08-02T07:48:49.000Z</time>
      </trkpt>
      <trkpt lat="47.31954" lon="-2.32233">
        <ele>13</ele>
        <time>2020-08-02T07:48:50.000Z</time>
      </trkpt>
      <trkpt lat="47.31953" lon="-2.32237">
        <ele>12.60000038147</ele>
        <time>2020-08-02T07:48:51.000Z</time>
      </trkpt>
      <trkpt lat="47.31951" lon="-2.32242">
        <ele>12.199999809265</ele>
        <time>2020-08-02T07:48:52.000Z</time>
      </trkpt>
      <trkpt lat="47.3195" lon="-2.32262">
        <ele>12.199999809265</ele>
        <time>2020-08-02T07:48:57.000Z</time>
      </trkpt>
      <trkpt lat="47.31952" lon="-2.32264">
        <ele>12.199999809265</ele>
        <time>2020-08-02T07:48:58.000Z</time>
      </trkpt>
      <trkpt lat="47.31959" lon="-2.32258">
        <ele>11.800000190735</ele>
        <time>2020-08-02T07:49:00.000Z</time>
      </trkpt>
      <trkpt lat="47.31962" lon="-2.32252">
        <ele>11.39999961853</ele>
        <time>2020-08-02T07:49:01.000Z</time>
      </trkpt>
      <trkpt lat="47.31965" lon="-2.32245">
        <ele>11</ele>
        <time>2020-08-02T07:49:02.000Z</time>
      </trkpt>
      <trkpt lat="47.31969" lon="-2.3224">
        <ele>10.60000038147</ele>
        <time>2020-08-02T07:49:03.000Z</time>
      </trkpt>
      <trkpt lat="47.31973" lon="-2.32235">
        <ele>10.199999809265</ele>
        <time>2020-08-02T07:49:04.000Z</time>
      </trkpt>
      <trkpt lat="47.31983" lon="-2.32224">
        <ele>9.6000003814697</ele>
        <time>2020-08-02T07:49:06.000Z</time>
      </trkpt>
      <trkpt lat="47.31988" lon="-2.32218">
        <ele>9.1999998092651</ele>
        <time>2020-08-02T07:49:07.000Z</time>
      </trkpt>
      <trkpt lat="47.31994" lon="-2.32213">
        <ele>8.8000001907349</ele>
        <time>2020-08-02T07:49:08.000Z</time>
      </trkpt>
      <trkpt lat="47.31999" lon="-2.32208">
        <ele>8.3999996185303</ele>
        <time>2020-08-02T07:49:09.000Z</time>
      </trkpt>
      <trkpt lat="47.32004" lon="-2.32202">
        <ele>8</ele>
        <time>2020-08-02T07:49:10.000Z</time>
      </trkpt>
      <trkpt lat="47.3203" lon="-2.32188">
        <ele>8</ele>
        <time>2020-08-02T07:49:14.000Z</time>
      </trkpt>
      <trkpt lat="47.32037" lon="-2.32187">
        <ele>8</ele>
        <time>2020-08-02T07:49:15.000Z</time>
      </trkpt>
      <trkpt lat="47.3208" lon="-2.32183">
        <ele>8</ele>
        <time>2020-08-02T07:49:21.000Z</time>
      </trkpt>
      <trkpt lat="47.32087" lon="-2.32183">
        <ele>7.5999999046326</ele>
        <time>2020-08-02T07:49:22.000Z</time>
      </trkpt>
      <trkpt lat="47.32094" lon="-2.32182">
        <ele>7</ele>
        <time>2020-08-02T07:49:23.000Z</time>
      </trkpt>
      <trkpt lat="47.321" lon="-2.32182">
        <ele>6.5999999046326</ele>
        <time>2020-08-02T07:49:24.000Z</time>
      </trkpt>
      <trkpt lat="47.32107" lon="-2.32181">
        <ele>6.1999998092651</ele>
        <time>2020-08-02T07:49:25.000Z</time>
      </trkpt>
      <trkpt lat="47.32114" lon="-2.32179">
        <ele>5.8000001907349</ele>
        <time>2020-08-02T07:49:26.000Z</time>
      </trkpt>
      <trkpt lat="47.32121" lon="-2.32177">
        <ele>5.8000001907349</ele>
        <time>2020-08-02T07:49:27.000Z</time>
      </trkpt>
      <trkpt lat="47.32128" lon="-2.32174">
        <ele>5.8000001907349</ele>
        <time>2020-08-02T07:49:28.000Z</time>
      </trkpt>
      <trkpt lat="47.32147" lon="-2.32159">
        <ele>5.8000001907349</ele>
        <time>2020-08-02T07:49:31.000Z</time>
      </trkpt>
      <trkpt lat="47.32158" lon="-2.32148">
        <ele>5.4000000953674</ele>
        <time>2020-08-02T07:49:33.000Z</time>
      </trkpt>
      <trkpt lat="47.32163" lon="-2.32143">
        <ele>5</ele>
        <time>2020-08-02T07:49:34.000Z</time>
      </trkpt>
      <trkpt lat="47.32168" lon="-2.32138">
        <ele>4.5999999046326</ele>
        <time>2020-08-02T07:49:35.000Z</time>
      </trkpt>
      <trkpt lat="47.32173" lon="-2.32134">
        <ele>4.1999998092651</ele>
        <time>2020-08-02T07:49:36.000Z</time>
      </trkpt>
      <trkpt lat="47.32178" lon="-2.3213">
        <ele>3.7999999523163</ele>
        <time>2020-08-02T07:49:37.000Z</time>
      </trkpt>
      <trkpt lat="47.32182" lon="-2.32126">
        <ele>3.7999999523163</ele>
        <time>2020-08-02T07:49:38.000Z</time>
      </trkpt>
      <trkpt lat="47.32195" lon="-2.32116">
        <ele>3.7999999523163</ele>
        <time>2020-08-02T07:49:43.000Z</time>
      </trkpt>
      <trkpt lat="47.32197" lon="-2.32115">
        <ele>3.7999999523163</ele>
        <time>2020-08-02T07:49:47.000Z</time>
      </trkpt>
      <trkpt lat="47.32202" lon="-2.32113">
        <ele>3.7999999523163</ele>
        <time>2020-08-02T07:49:50.000Z</time>
      </trkpt>
      <trkpt lat="47.32207" lon="-2.32114">
        <ele>3.7999999523163</ele>
        <time>2020-08-02T07:49:52.000Z</time>
      </trkpt>
      <trkpt lat="47.32217" lon="-2.32112">
        <ele>3.7999999523163</ele>
        <time>2020-08-02T07:49:55.000Z</time>
      </trkpt>
      <trkpt lat="47.32224" lon="-2.3211">
        <ele>3.7999999523163</ele>
        <time>2020-08-02T07:49:57.000Z</time>
      </trkpt>
      <trkpt lat="47.32247" lon="-2.32106">
        <ele>3.7999999523163</ele>
        <time>2020-08-02T07:50:03.000Z</time>
      </trkpt>
      <trkpt lat="47.32284" lon="-2.32101">
        <ele>3.7999999523163</ele>
        <time>2020-08-02T07:50:11.000Z</time>
      </trkpt>
      <trkpt lat="47.32315" lon="-2.32101">
        <ele>3.7999999523163</ele>
        <time>2020-08-02T07:50:18.000Z</time>
      </trkpt>
      <trkpt lat="47.32335" lon="-2.32105">
        <ele>3.7999999523163</ele>
        <time>2020-08-02T07:50:24.000Z</time>
      </trkpt>
      <trkpt lat="47.32339" lon="-2.32105">
        <ele>3.7999999523163</ele>
        <time>2020-08-02T07:50:28.000Z</time>
      </trkpt>
      <trkpt lat="47.32341" lon="-2.32104">
        <ele>3.7999999523163</ele>
        <time>2020-08-02T07:50:29.000Z</time>
      </trkpt>
      <trkpt lat="47.32355" lon="-2.32106">
        <ele>3.7999999523163</ele>
        <time>2020-08-02T07:50:33.000Z</time>
      </trkpt>
      <trkpt lat="47.32368" lon="-2.32107">
        <ele>3.7999999523163</ele>
        <time>2020-08-02T07:50:36.000Z</time>
      </trkpt>
      <trkpt lat="47.32382" lon="-2.32107">
        <ele>3.7999999523163</ele>
        <time>2020-08-02T07:50:39.000Z</time>
      </trkpt>
      <trkpt lat="47.32417" lon="-2.32104">
        <ele>3.7999999523163</ele>
        <time>2020-08-02T07:50:47.000Z</time>
      </trkpt>
      <trkpt lat="47.32447" lon="-2.32101">
        <ele>3.7999999523163</ele>
        <time>2020-08-02T07:50:54.000Z</time>
      </trkpt>
      <trkpt lat="47.32451" lon="-2.32101">
        <ele>3.7999999523163</ele>
        <time>2020-08-02T07:50:55.000Z</time>
      </trkpt>
      <trkpt lat="47.32477" lon="-2.32098">
        <ele>3.7999999523163</ele>
        <time>2020-08-02T07:51:02.000Z</time>
      </trkpt>
      <trkpt lat="47.32502" lon="-2.32096">
        <ele>3.7999999523163</ele>
        <time>2020-08-02T07:51:07.000Z</time>
      </trkpt>
      <trkpt lat="47.32507" lon="-2.32096">
        <ele>3.7999999523163</ele>
        <time>2020-08-02T07:51:08.000Z</time>
      </trkpt>
      <trkpt lat="47.3253" lon="-2.32096">
        <ele>3.7999999523163</ele>
        <time>2020-08-02T07:51:13.000Z</time>
      </trkpt>
      <trkpt lat="47.32564" lon="-2.32094">
        <ele>3.7999999523163</ele>
        <time>2020-08-02T07:51:20.000Z</time>
      </trkpt>
      <trkpt lat="47.32579" lon="-2.32095">
        <ele>3.7999999523163</ele>
        <time>2020-08-02T07:51:23.000Z</time>
      </trkpt>
      <trkpt lat="47.32587" lon="-2.32101">
        <ele>3.7999999523163</ele>
        <time>2020-08-02T07:51:25.000Z</time>
      </trkpt>
      <trkpt lat="47.32588" lon="-2.32123">
        <ele>3.7999999523163</ele>
        <time>2020-08-02T07:51:28.000Z</time>
      </trkpt>
      <trkpt lat="47.32584" lon="-2.32142">
        <ele>3.7999999523163</ele>
        <time>2020-08-02T07:51:30.000Z</time>
      </trkpt>
      <trkpt lat="47.32579" lon="-2.32162">
        <ele>3.7999999523163</ele>
        <time>2020-08-02T07:51:32.000Z</time>
      </trkpt>
      <trkpt lat="47.32568" lon="-2.32194">
        <ele>3.2000000476837</ele>
        <time>2020-08-02T07:51:35.000Z</time>
      </trkpt>
      <trkpt lat="47.32564" lon="-2.32206">
        <ele>2.7999999523163</ele>
        <time>2020-08-02T07:51:36.000Z</time>
      </trkpt>
      <trkpt lat="47.32561" lon="-2.32216">
        <ele>2.4000000953674</ele>
        <time>2020-08-02T07:51:37.000Z</time>
      </trkpt>
      <trkpt lat="47.32557" lon="-2.32227">
        <ele>2</ele>
        <time>2020-08-02T07:51:38.000Z</time>
      </trkpt>
      <trkpt lat="47.32553" lon="-2.32237">
        <ele>1.6000000238419</ele>
        <time>2020-08-02T07:51:39.000Z</time>
      </trkpt>
      <trkpt lat="47.32542" lon="-2.32269">
        <ele>1.6000000238419</ele>
        <time>2020-08-02T07:51:43.000Z</time>
      </trkpt>
      <trkpt lat="47.3254" lon="-2.32277">
        <ele>1.6000000238419</ele>
        <time>2020-08-02T07:51:44.000Z</time>
      </trkpt>
      <trkpt lat="47.32536" lon="-2.32304">
        <ele>1.6000000238419</ele>
        <time>2020-08-02T07:51:48.000Z</time>
      </trkpt>
      <trkpt lat="47.32536" lon="-2.32309">
        <ele>2</ele>
        <time>2020-08-02T07:51:49.000Z</time>
      </trkpt>
      <trkpt lat="47.32537" lon="-2.32314">
        <ele>2.5999999046326</ele>
        <time>2020-08-02T07:51:50.000Z</time>
      </trkpt>
      <trkpt lat="47.3254" lon="-2.32316">
        <ele>3</ele>
        <time>2020-08-02T07:51:51.000Z</time>
      </trkpt>
      <trkpt lat="47.32544" lon="-2.32317">
        <ele>3.4000000953674</ele>
        <time>2020-08-02T07:51:52.000Z</time>
      </trkpt>
      <trkpt lat="47.32548" lon="-2.32318">
        <ele>4</ele>
        <time>2020-08-02T07:51:53.000Z</time>
      </trkpt>
      <trkpt lat="47.32556" lon="-2.32317">
        <ele>4</ele>
        <time>2020-08-02T07:51:55.000Z</time>
      </trkpt>
      <trkpt lat="47.32561" lon="-2.32316">
        <ele>4</ele>
        <time>2020-08-02T07:51:56.000Z</time>
      </trkpt>
      <trkpt lat="47.32588" lon="-2.3231">
        <ele>4</ele>
        <time>2020-08-02T07:52:02.000Z</time>
      </trkpt>
      <trkpt lat="47.3262" lon="-2.32308">
        <ele>4</ele>
        <time>2020-08-02T07:52:08.000Z</time>
      </trkpt>
      <trkpt lat="47.32655" lon="-2.32312">
        <ele>4</ele>
        <time>2020-08-02T07:52:14.000Z</time>
      </trkpt>
      <trkpt lat="47.32696" lon="-2.32322">
        <ele>4</ele>
        <time>2020-08-02T07:52:20.000Z</time>
      </trkpt>
      <trkpt lat="47.32734" lon="-2.32341">
        <ele>4</ele>
        <time>2020-08-02T07:52:26.000Z</time>
      </trkpt>
      <trkpt lat="47.32758" lon="-2.32356">
        <ele>3.5999999046326</ele>
        <time>2020-08-02T07:52:30.000Z</time>
      </trkpt>
      <trkpt lat="47.32764" lon="-2.3236">
        <ele>3.2000000476837</ele>
        <time>2020-08-02T07:52:31.000Z</time>
      </trkpt>
      <trkpt lat="47.32771" lon="-2.32364">
        <ele>2.7999999523163</ele>
        <time>2020-08-02T07:52:32.000Z</time>
      </trkpt>
      <trkpt lat="47.32777" lon="-2.32368">
        <ele>2.2000000476837</ele>
        <time>2020-08-02T07:52:33.000Z</time>
      </trkpt>
      <trkpt lat="47.32784" lon="-2.32371">
        <ele>1.7999999523163</ele>
        <time>2020-08-02T07:52:34.000Z</time>
      </trkpt>
      <trkpt lat="47.32802" lon="-2.32384">
        <ele>1.7999999523163</ele>
        <time>2020-08-02T07:52:37.000Z</time>
      </trkpt>
      <trkpt lat="47.32812" lon="-2.32396">
        <ele>1.7999999523163</ele>
        <time>2020-08-02T07:52:39.000Z</time>
      </trkpt>
      <trkpt lat="47.32847" lon="-2.32428">
        <ele>1.7999999523163</ele>
        <time>2020-08-02T07:52:46.000Z</time>
      </trkpt>
      <trkpt lat="47.32884" lon="-2.3245">
        <ele>1.7999999523163</ele>
        <time>2020-08-02T07:52:53.000Z</time>
      </trkpt>
      <trkpt lat="47.32893" lon="-2.32456">
        <ele>1.7999999523163</ele>
        <time>2020-08-02T07:52:55.000Z</time>
      </trkpt>
      <trkpt lat="47.32901" lon="-2.32466">
        <ele>1.7999999523163</ele>
        <time>2020-08-02T07:52:57.000Z</time>
      </trkpt>
      <trkpt lat="47.32908" lon="-2.32488">
        <ele>1.7999999523163</ele>
        <time>2020-08-02T07:53:00.000Z</time>
      </trkpt>
      <trkpt lat="47.32911" lon="-2.32496">
        <ele>1.7999999523163</ele>
        <time>2020-08-02T07:53:01.000Z</time>
      </trkpt>
      <trkpt lat="47.32914" lon="-2.32512">
        <ele>1.7999999523163</ele>
        <time>2020-08-02T07:53:03.000Z</time>
      </trkpt>
      <trkpt lat="47.32919" lon="-2.32547">
        <ele>1.7999999523163</ele>
        <time>2020-08-02T07:53:07.000Z</time>
      </trkpt>
      <trkpt lat="47.32919" lon="-2.32557">
        <ele>1.7999999523163</ele>
        <time>2020-08-02T07:53:08.000Z</time>
      </trkpt>
      <trkpt lat="47.32919" lon="-2.32602">
        <ele>1.7999999523163</ele>
        <time>2020-08-02T07:53:13.000Z</time>
      </trkpt>
      <trkpt lat="47.32919" lon="-2.32618">
        <ele>1.7999999523163</ele>
        <time>2020-08-02T07:53:15.000Z</time>
      </trkpt>
      <trkpt lat="47.32921" lon="-2.32629">
        <ele>1.7999999523163</ele>
        <time>2020-08-02T07:53:17.000Z</time>
      </trkpt>
      <trkpt lat="47.32936" lon="-2.32641">
        <ele>1.7999999523163</ele>
        <time>2020-08-02T07:53:21.000Z</time>
      </trkpt>
      <trkpt lat="47.32946" lon="-2.3264">
        <ele>1.7999999523163</ele>
        <time>2020-08-02T07:53:23.000Z</time>
      </trkpt>
      <trkpt lat="47.32955" lon="-2.32638">
        <ele>1.7999999523163</ele>
        <time>2020-08-02T07:53:25.000Z</time>
      </trkpt>
      <trkpt lat="47.32959" lon="-2.32636">
        <ele>1.7999999523163</ele>
        <time>2020-08-02T07:53:26.000Z</time>
      </trkpt>
      <trkpt lat="47.32964" lon="-2.32634">
        <ele>1.3999999761581</ele>
        <time>2020-08-02T07:53:27.000Z</time>
      </trkpt>
      <trkpt lat="47.32969" lon="-2.32631">
        <ele>1</ele>
        <time>2020-08-02T07:53:28.000Z</time>
      </trkpt>
      <trkpt lat="47.32974" lon="-2.32629">
        <ele>0.60000002384186</ele>
        <time>2020-08-02T07:53:29.000Z</time>
      </trkpt>
      <trkpt lat="47.32979" lon="-2.32625">
        <ele>0.20000000298023</ele>
        <time>2020-08-02T07:53:30.000Z</time>
      </trkpt>
      <trkpt lat="47.32984" lon="-2.32623">
        <ele>-0.20000000298023</ele>
        <time>2020-08-02T07:53:31.000Z</time>
      </trkpt>
      <trkpt lat="47.32989" lon="-2.32622">
        <ele>-0.20000000298023</ele>
        <time>2020-08-02T07:53:32.000Z</time>
      </trkpt>
      <trkpt lat="47.33007" lon="-2.3263">
        <ele>-0.20000000298023</ele>
        <time>2020-08-02T07:53:35.000Z</time>
      </trkpt>
      <trkpt lat="47.3302" lon="-2.32634">
        <ele>-0.20000000298023</ele>
        <time>2020-08-02T07:53:37.000Z</time>
      </trkpt>
      <trkpt lat="47.33032" lon="-2.3263">
        <ele>-0.20000000298023</ele>
        <time>2020-08-02T07:53:39.000Z</time>
      </trkpt>
      <trkpt lat="47.33052" lon="-2.32613">
        <ele>-0.20000000298023</ele>
        <time>2020-08-02T07:53:43.000Z</time>
      </trkpt>
      <trkpt lat="47.33056" lon="-2.3261">
        <ele>-0.20000000298023</ele>
        <time>2020-08-02T07:53:44.000Z</time>
      </trkpt>
      <trkpt lat="47.33081" lon="-2.32593">
        <ele>-0.20000000298023</ele>
        <time>2020-08-02T07:53:49.000Z</time>
      </trkpt>
      <trkpt lat="47.33086" lon="-2.32588">
        <ele>-0.20000000298023</ele>
        <time>2020-08-02T07:53:50.000Z</time>
      </trkpt>
      <trkpt lat="47.33135" lon="-2.32546">
        <ele>-0.20000000298023</ele>
        <time>2020-08-02T07:53:59.000Z</time>
      </trkpt>
      <trkpt lat="47.33146" lon="-2.32538">
        <ele>0.20000000298023</ele>
        <time>2020-08-02T07:54:01.000Z</time>
      </trkpt>
      <trkpt lat="47.33152" lon="-2.32535">
        <ele>0.60000002384186</ele>
        <time>2020-08-02T07:54:02.000Z</time>
      </trkpt>
      <trkpt lat="47.33157" lon="-2.32531">
        <ele>1</ele>
        <time>2020-08-02T07:54:03.000Z</time>
      </trkpt>
      <trkpt lat="47.33163" lon="-2.32527">
        <ele>1.6000000238419</ele>
        <time>2020-08-02T07:54:04.000Z</time>
      </trkpt>
      <trkpt lat="47.33168" lon="-2.32523">
        <ele>2</ele>
        <time>2020-08-02T07:54:05.000Z</time>
      </trkpt>
      <trkpt lat="47.33173" lon="-2.32521">
        <ele>2</ele>
        <time>2020-08-02T07:54:06.000Z</time>
      </trkpt>
      <trkpt lat="47.33211" lon="-2.32504">
        <ele>2</ele>
        <time>2020-08-02T07:54:12.000Z</time>
      </trkpt>
      <trkpt lat="47.3325" lon="-2.32487">
        <ele>2</ele>
        <time>2020-08-02T07:54:18.000Z</time>
      </trkpt>
      <trkpt lat="47.33256" lon="-2.32484">
        <ele>2</ele>
        <time>2020-08-02T07:54:19.000Z</time>
      </trkpt>
      <trkpt lat="47.33298" lon="-2.32465">
        <ele>2</ele>
        <time>2020-08-02T07:54:26.000Z</time>
      </trkpt>
      <trkpt lat="47.33303" lon="-2.32463">
        <ele>2</ele>
        <time>2020-08-02T07:54:27.000Z</time>
      </trkpt>
      <trkpt lat="47.33331" lon="-2.3245">
        <ele>2</ele>
        <time>2020-08-02T07:54:32.000Z</time>
      </trkpt>
      <trkpt lat="47.33337" lon="-2.32444">
        <ele>2</ele>
        <time>2020-08-02T07:54:33.000Z</time>
      </trkpt>
      <trkpt lat="47.33353" lon="-2.32423">
        <ele>2</ele>
        <time>2020-08-02T07:54:36.000Z</time>
      </trkpt>
      <trkpt lat="47.33359" lon="-2.32416">
        <ele>2</ele>
        <time>2020-08-02T07:54:37.000Z</time>
      </trkpt>
      <trkpt lat="47.33371" lon="-2.32404">
        <ele>2</ele>
        <time>2020-08-02T07:54:39.000Z</time>
      </trkpt>
      <trkpt lat="47.33395" lon="-2.32383">
        <ele>2</ele>
        <time>2020-08-02T07:54:43.000Z</time>
      </trkpt>
      <trkpt lat="47.33431" lon="-2.32351">
        <ele>2</ele>
        <time>2020-08-02T07:54:49.000Z</time>
      </trkpt>
      <trkpt lat="47.33479" lon="-2.3232">
        <ele>2</ele>
        <time>2020-08-02T07:54:56.000Z</time>
      </trkpt>
      <trkpt lat="47.3352" lon="-2.32303">
        <ele>2</ele>
        <time>2020-08-02T07:55:02.000Z</time>
      </trkpt>
      <trkpt lat="47.33526" lon="-2.32302">
        <ele>2</ele>
        <time>2020-08-02T07:55:03.000Z</time>
      </trkpt>
      <trkpt lat="47.33546" lon="-2.32302">
        <ele>2</ele>
        <time>2020-08-02T07:55:06.000Z</time>
      </trkpt>
      <trkpt lat="47.33579" lon="-2.32294">
        <ele>2</ele>
        <time>2020-08-02T07:55:11.000Z</time>
      </trkpt>
      <trkpt lat="47.33616" lon="-2.32288">
        <ele>2</ele>
        <time>2020-08-02T07:55:17.000Z</time>
      </trkpt>
      <trkpt lat="47.33659" lon="-2.32276">
        <ele>2</ele>
        <time>2020-08-02T07:55:24.000Z</time>
      </trkpt>
      <trkpt lat="47.33689" lon="-2.32257">
        <ele>2</ele>
        <time>2020-08-02T07:55:29.000Z</time>
      </trkpt>
      <trkpt lat="47.33726" lon="-2.32234">
        <ele>2</ele>
        <time>2020-08-02T07:55:35.000Z</time>
      </trkpt>
      <trkpt lat="47.33774" lon="-2.32208">
        <ele>2</ele>
        <time>2020-08-02T07:55:43.000Z</time>
      </trkpt>
      <trkpt lat="47.33807" lon="-2.32202">
        <ele>2</ele>
        <time>2020-08-02T07:55:48.000Z</time>
      </trkpt>
      <trkpt lat="47.3385" lon="-2.32197">
        <ele>2</ele>
        <time>2020-08-02T07:55:55.000Z</time>
      </trkpt>
      <trkpt lat="47.33887" lon="-2.32198">
        <ele>2</ele>
        <time>2020-08-02T07:56:01.000Z</time>
      </trkpt>
      <trkpt lat="47.33925" lon="-2.32196">
        <ele>2</ele>
        <time>2020-08-02T07:56:07.000Z</time>
      </trkpt>
      <trkpt lat="47.33931" lon="-2.32197">
        <ele>2</ele>
        <time>2020-08-02T07:56:08.000Z</time>
      </trkpt>
      <trkpt lat="47.33947" lon="-2.32208">
        <ele>2</ele>
        <time>2020-08-02T07:56:11.000Z</time>
      </trkpt>
      <trkpt lat="47.33953" lon="-2.32213">
        <ele>2</ele>
        <time>2020-08-02T07:56:12.000Z</time>
      </trkpt>
      <trkpt lat="47.3396" lon="-2.32216">
        <ele>2</ele>
        <time>2020-08-02T07:56:13.000Z</time>
      </trkpt>
      <trkpt lat="47.33972" lon="-2.32219">
        <ele>2</ele>
        <time>2020-08-02T07:56:15.000Z</time>
      </trkpt>
      <trkpt lat="47.33992" lon="-2.32217">
        <ele>2</ele>
        <time>2020-08-02T07:56:18.000Z</time>
      </trkpt>
      <trkpt lat="47.34005" lon="-2.32217">
        <ele>2</ele>
        <time>2020-08-02T07:56:20.000Z</time>
      </trkpt>
      <trkpt lat="47.3404" lon="-2.32216">
        <ele>2</ele>
        <time>2020-08-02T07:56:26.000Z</time>
      </trkpt>
      <trkpt lat="47.34063" lon="-2.3222">
        <ele>2</ele>
        <time>2020-08-02T07:56:30.000Z</time>
      </trkpt>
      <trkpt lat="47.34078" lon="-2.32233">
        <ele>2</ele>
        <time>2020-08-02T07:56:33.000Z</time>
      </trkpt>
      <trkpt lat="47.34091" lon="-2.32263">
        <ele>2</ele>
        <time>2020-08-02T07:56:37.000Z</time>
      </trkpt>
      <trkpt lat="47.34105" lon="-2.32313">
        <ele>2.4000000953674</ele>
        <time>2020-08-02T07:56:43.000Z</time>
      </trkpt>
      <trkpt lat="47.34107" lon="-2.32322">
        <ele>2.7999999523163</ele>
        <time>2020-08-02T07:56:44.000Z</time>
      </trkpt>
      <trkpt lat="47.3411" lon="-2.32331">
        <ele>3.2000000476837</ele>
        <time>2020-08-02T07:56:45.000Z</time>
      </trkpt>
      <trkpt lat="47.34112" lon="-2.32339">
        <ele>4</ele>
        <time>2020-08-02T07:56:46.000Z</time>
      </trkpt>
      <trkpt lat="47.34126" lon="-2.32386">
        <ele>4</ele>
        <time>2020-08-02T07:56:52.000Z</time>
      </trkpt>
      <trkpt lat="47.34137" lon="-2.32426">
        <ele>4.5999999046326</ele>
        <time>2020-08-02T07:56:57.000Z</time>
      </trkpt>
      <trkpt lat="47.34139" lon="-2.32435">
        <ele>5</ele>
        <time>2020-08-02T07:56:58.000Z</time>
      </trkpt>
      <trkpt lat="47.34142" lon="-2.32444">
        <ele>5.4000000953674</ele>
        <time>2020-08-02T07:56:59.000Z</time>
      </trkpt>
      <trkpt lat="47.34144" lon="-2.32452">
        <ele>5.8000001907349</ele>
        <time>2020-08-02T07:57:00.000Z</time>
      </trkpt>
      <trkpt lat="47.34146" lon="-2.3246">
        <ele>6.1999998092651</ele>
        <time>2020-08-02T07:57:01.000Z</time>
      </trkpt>
      <trkpt lat="47.34152" lon="-2.32488">
        <ele>6.1999998092651</ele>
        <time>2020-08-02T07:57:05.000Z</time>
      </trkpt>
      <trkpt lat="47.34157" lon="-2.32526">
        <ele>6.1999998092651</ele>
        <time>2020-08-02T07:57:12.000Z</time>
      </trkpt>
      <trkpt lat="47.34158" lon="-2.32542">
        <ele>6.1999998092651</ele>
        <time>2020-08-02T07:57:17.000Z</time>
      </trkpt>
      <trkpt lat="47.34159" lon="-2.32567">
        <ele>6.1999998092651</ele>
        <time>2020-08-02T07:57:24.000Z</time>
      </trkpt>
      <trkpt lat="47.34164" lon="-2.32577">
        <ele>6.1999998092651</ele>
        <time>2020-08-02T07:57:27.000Z</time>
      </trkpt>
      <trkpt lat="47.34168" lon="-2.32579">
        <ele>6.1999998092651</ele>
        <time>2020-08-02T07:57:28.000Z</time>
      </trkpt>
      <trkpt lat="47.34185" lon="-2.32576">
        <ele>6.1999998092651</ele>
        <time>2020-08-02T07:57:32.000Z</time>
      </trkpt>
      <trkpt lat="47.3419" lon="-2.32575">
        <ele>6.1999998092651</ele>
        <time>2020-08-02T07:57:33.000Z</time>
      </trkpt>
      <trkpt lat="47.34201" lon="-2.32573">
        <ele>6.1999998092651</ele>
        <time>2020-08-02T07:57:35.000Z</time>
      </trkpt>
      <trkpt lat="47.34212" lon="-2.3257">
        <ele>6.1999998092651</ele>
        <time>2020-08-02T07:57:37.000Z</time>
      </trkpt>
      <trkpt lat="47.34259" lon="-2.32558">
        <ele>6.1999998092651</ele>
        <time>2020-08-02T07:57:45.000Z</time>
      </trkpt>
      <trkpt lat="47.34293" lon="-2.3255">
        <ele>6.1999998092651</ele>
        <time>2020-08-02T07:57:51.000Z</time>
      </trkpt>
      <trkpt lat="47.34319" lon="-2.32542">
        <ele>6.1999998092651</ele>
        <time>2020-08-02T07:57:55.000Z</time>
      </trkpt>
      <trkpt lat="47.34333" lon="-2.32533">
        <ele>6.1999998092651</ele>
        <time>2020-08-02T07:57:57.000Z</time>
      </trkpt>
      <trkpt lat="47.34344" lon="-2.32521">
        <ele>6.1999998092651</ele>
        <time>2020-08-02T07:57:59.000Z</time>
      </trkpt>
      <trkpt lat="47.34355" lon="-2.32506">
        <ele>6.1999998092651</ele>
        <time>2020-08-02T07:58:01.000Z</time>
      </trkpt>
      <trkpt lat="47.3436" lon="-2.32498">
        <ele>6.1999998092651</ele>
        <time>2020-08-02T07:58:02.000Z</time>
      </trkpt>
      <trkpt lat="47.34369" lon="-2.32479">
        <ele>6.1999998092651</ele>
        <time>2020-08-02T07:58:05.000Z</time>
      </trkpt>
      <trkpt lat="47.34372" lon="-2.32474">
        <ele>5.8000001907349</ele>
        <time>2020-08-02T07:58:06.000Z</time>
      </trkpt>
      <trkpt lat="47.34373" lon="-2.32471">
        <ele>5.4000000953674</ele>
        <time>2020-08-02T07:58:07.000Z</time>
      </trkpt>
      <trkpt lat="47.34374" lon="-2.32469">
        <ele>4.8000001907349</ele>
        <time>2020-08-02T07:58:08.000Z</time>
      </trkpt>
      <trkpt lat="47.34375" lon="-2.32467">
        <ele>4.4000000953674</ele>
        <time>2020-08-02T07:58:09.000Z</time>
      </trkpt>
      <trkpt lat="47.34376" lon="-2.32465">
        <ele>4</ele>
        <time>2020-08-02T07:58:10.000Z</time>
      </trkpt>
      <trkpt lat="47.34377" lon="-2.32464">
        <ele>4</ele>
        <time>2020-08-02T07:58:12.000Z</time>
      </trkpt>
      <trkpt lat="47.34381" lon="-2.32457">
        <ele>4</ele>
        <time>2020-08-02T07:59:29.000Z</time>
      </trkpt>
      <trkpt lat="47.34387" lon="-2.32446">
        <ele>4</ele>
        <time>2020-08-02T07:59:35.000Z</time>
      </trkpt>
      <trkpt lat="47.34396" lon="-2.32424">
        <ele>4</ele>
        <time>2020-08-02T07:59:41.000Z</time>
      </trkpt>
      <trkpt lat="47.34414" lon="-2.32398">
        <ele>4</ele>
        <time>2020-08-02T07:59:46.000Z</time>
      </trkpt>
      <trkpt lat="47.34441" lon="-2.32369">
        <ele>4</ele>
        <time>2020-08-02T07:59:52.000Z</time>
      </trkpt>
      <trkpt lat="47.34462" lon="-2.32348">
        <ele>4</ele>
        <time>2020-08-02T07:59:57.000Z</time>
      </trkpt>
      <trkpt lat="47.3449" lon="-2.32319">
        <ele>4</ele>
        <time>2020-08-02T08:00:03.000Z</time>
      </trkpt>
      <trkpt lat="47.34538" lon="-2.32274">
        <ele>4</ele>
        <time>2020-08-02T08:00:12.000Z</time>
      </trkpt>
      <trkpt lat="47.3458" lon="-2.32237">
        <ele>4</ele>
        <time>2020-08-02T08:00:20.000Z</time>
      </trkpt>
      <trkpt lat="47.34619" lon="-2.32206">
        <ele>4</ele>
        <time>2020-08-02T08:00:27.000Z</time>
      </trkpt>
      <trkpt lat="47.34644" lon="-2.32183">
        <ele>3.5999999046326</ele>
        <time>2020-08-02T08:00:31.000Z</time>
      </trkpt>
      <trkpt lat="47.3465" lon="-2.32177">
        <ele>3</ele>
        <time>2020-08-02T08:00:32.000Z</time>
      </trkpt>
      <trkpt lat="47.34656" lon="-2.32172">
        <ele>2.2000000476837</ele>
        <time>2020-08-02T08:00:33.000Z</time>
      </trkpt>
      <trkpt lat="47.34663" lon="-2.32166">
        <ele>1.6000000238419</ele>
        <time>2020-08-02T08:00:34.000Z</time>
      </trkpt>
      <trkpt lat="47.34669" lon="-2.3216">
        <ele>0.80000001192093</ele>
        <time>2020-08-02T08:00:35.000Z</time>
      </trkpt>
      <trkpt lat="47.34675" lon="-2.32155">
        <ele>4</ele>
        <time>2020-08-02T08:00:36.000Z</time>
      </trkpt>
      <trkpt lat="47.3468" lon="-2.3215">
        <ele>-0.60000002384186</ele>
        <time>2020-08-02T08:00:37.000Z</time>
      </trkpt>
      <trkpt lat="47.34698" lon="-2.32135">
        <ele>-0.60000002384186</ele>
        <time>2020-08-02T08:00:40.000Z</time>
      </trkpt>
      <trkpt lat="47.34726" lon="-2.32111">
        <ele>-0.60000002384186</ele>
        <time>2020-08-02T08:00:45.000Z</time>
      </trkpt>
      <trkpt lat="47.34737" lon="-2.3211">
        <ele>-0.60000002384186</ele>
        <time>2020-08-02T08:00:47.000Z</time>
      </trkpt>
      <trkpt lat="47.34749" lon="-2.32124">
        <ele>-0.60000002384186</ele>
        <time>2020-08-02T08:00:50.000Z</time>
      </trkpt>
      <trkpt lat="47.34755" lon="-2.32135">
        <ele>-0.60000002384186</ele>
        <time>2020-08-02T08:00:52.000Z</time>
      </trkpt>
      <trkpt lat="47.34764" lon="-2.32157">
        <ele>-0.60000002384186</ele>
        <time>2020-08-02T08:00:56.000Z</time>
      </trkpt>
      <trkpt lat="47.34777" lon="-2.32184">
        <ele>-0.60000002384186</ele>
        <time>2020-08-02T08:01:01.000Z</time>
      </trkpt>
      <trkpt lat="47.34779" lon="-2.32191">
        <ele>-0.60000002384186</ele>
        <time>2020-08-02T08:01:02.000Z</time>
      </trkpt>
      <trkpt lat="47.34779" lon="-2.32222">
        <ele>-0.60000002384186</ele>
        <time>2020-08-02T08:01:06.000Z</time>
      </trkpt>
      <trkpt lat="47.34777" lon="-2.32229">
        <ele>-0.60000002384186</ele>
        <time>2020-08-02T08:01:07.000Z</time>
      </trkpt>
      <trkpt lat="47.34771" lon="-2.32245">
        <ele>-0.60000002384186</ele>
        <time>2020-08-02T08:01:09.000Z</time>
      </trkpt>
      <trkpt lat="47.34742" lon="-2.32304">
        <ele>-0.60000002384186</ele>
        <time>2020-08-02T08:01:16.000Z</time>
      </trkpt>
      <trkpt lat="47.3472" lon="-2.32355">
        <ele>-0.60000002384186</ele>
        <time>2020-08-02T08:01:23.000Z</time>
      </trkpt>
      <trkpt lat="47.34715" lon="-2.32369">
        <ele>-0.20000000298023</ele>
        <time>2020-08-02T08:01:25.000Z</time>
      </trkpt>
      <trkpt lat="47.34714" lon="-2.32375">
        <ele>0.20000000298023</ele>
        <time>2020-08-02T08:01:26.000Z</time>
      </trkpt>
      <trkpt lat="47.34712" lon="-2.32382">
        <ele>0.60000002384186</ele>
        <time>2020-08-02T08:01:27.000Z</time>
      </trkpt>
      <trkpt lat="47.34709" lon="-2.32388">
        <ele>1</ele>
        <time>2020-08-02T08:01:28.000Z</time>
      </trkpt>
      <trkpt lat="47.34708" lon="-2.32395">
        <ele>1.3999999761581</ele>
        <time>2020-08-02T08:01:29.000Z</time>
      </trkpt>
      <trkpt lat="47.34706" lon="-2.32402">
        <ele>1.3999999761581</ele>
        <time>2020-08-02T08:01:30.000Z</time>
      </trkpt>
      <trkpt lat="47.34693" lon="-2.32445">
        <ele>1.3999999761581</ele>
        <time>2020-08-02T08:01:36.000Z</time>
      </trkpt>
      <trkpt lat="47.34687" lon="-2.32467">
        <ele>1.3999999761581</ele>
        <time>2020-08-02T08:01:39.000Z</time>
      </trkpt>
      <trkpt lat="47.34681" lon="-2.32486">
        <ele>1.3999999761581</ele>
        <time>2020-08-02T08:01:41.000Z</time>
      </trkpt>
      <trkpt lat="47.34659" lon="-2.32544">
        <ele>1.3999999761581</ele>
        <time>2020-08-02T08:01:47.000Z</time>
      </trkpt>
      <trkpt lat="47.34655" lon="-2.32553">
        <ele>1</ele>
        <time>2020-08-02T08:01:48.000Z</time>
      </trkpt>
      <trkpt lat="47.34652" lon="-2.32563">
        <ele>0.60000002384186</ele>
        <time>2020-08-02T08:01:49.000Z</time>
      </trkpt>
      <trkpt lat="47.34649" lon="-2.32572">
        <ele>0.20000000298023</ele>
        <time>2020-08-02T08:01:50.000Z</time>
      </trkpt>
      <trkpt lat="47.34645" lon="-2.32581">
        <ele>-0.20000000298023</ele>
        <time>2020-08-02T08:01:51.000Z</time>
      </trkpt>
      <trkpt lat="47.34642" lon="-2.32589">
        <ele>-0.60000002384186</ele>
        <time>2020-08-02T08:01:52.000Z</time>
      </trkpt>
      <trkpt lat="47.34638" lon="-2.32597">
        <ele>-0.60000002384186</ele>
        <time>2020-08-02T08:01:53.000Z</time>
      </trkpt>
      <trkpt lat="47.34626" lon="-2.32619">
        <ele>-0.60000002384186</ele>
        <time>2020-08-02T08:01:56.000Z</time>
      </trkpt>
      <trkpt lat="47.34613" lon="-2.32639">
        <ele>-0.60000002384186</ele>
        <time>2020-08-02T08:01:59.000Z</time>
      </trkpt>
      <trkpt lat="47.34606" lon="-2.32648">
        <ele>-0.60000002384186</ele>
        <time>2020-08-02T08:02:01.000Z</time>
      </trkpt>
      <trkpt lat="47.34599" lon="-2.32654">
        <ele>-0.60000002384186</ele>
        <time>2020-08-02T08:02:03.000Z</time>
      </trkpt>
      <trkpt lat="47.34592" lon="-2.32661">
        <ele>-0.60000002384186</ele>
        <time>2020-08-02T08:02:07.000Z</time>
      </trkpt>
      <trkpt lat="47.34588" lon="-2.32665">
        <ele>-0.60000002384186</ele>
        <time>2020-08-02T08:02:10.000Z</time>
      </trkpt>
      <trkpt lat="47.34587" lon="-2.32669">
        <ele>-0.60000002384186</ele>
        <time>2020-08-02T08:02:12.000Z</time>
      </trkpt>
      <trkpt lat="47.34585" lon="-2.3267">
        <ele>-0.60000002384186</ele>
        <time>2020-08-02T08:02:13.000Z</time>
      </trkpt>
      <trkpt lat="47.34582" lon="-2.32668">
        <ele>-0.20000000298023</ele>
        <time>2020-08-02T08:02:16.000Z</time>
      </trkpt>
      <trkpt lat="47.34583" lon="-2.32667">
        <ele>0.20000000298023</ele>
        <time>2020-08-02T08:02:17.000Z</time>
      </trkpt>
      <trkpt lat="47.34584" lon="-2.32666">
        <ele>0.60000002384186</ele>
        <time>2020-08-02T08:02:18.000Z</time>
      </trkpt>
      <trkpt lat="47.34585" lon="-2.32665">
        <ele>1</ele>
        <time>2020-08-02T08:02:19.000Z</time>
      </trkpt>
      <trkpt lat="47.34586" lon="-2.32664">
        <ele>1.3999999761581</ele>
        <time>2020-08-02T08:02:20.000Z</time>
      </trkpt>
      <trkpt lat="47.34588" lon="-2.32661">
        <ele>1.3999999761581</ele>
        <time>2020-08-02T08:02:21.000Z</time>
      </trkpt>
      <trkpt lat="47.3459" lon="-2.32658">
        <ele>1.3999999761581</ele>
        <time>2020-08-02T08:02:22.000Z</time>
      </trkpt>
      <trkpt lat="47.34602" lon="-2.32642">
        <ele>1.3999999761581</ele>
        <time>2020-08-02T08:02:27.000Z</time>
      </trkpt>
      <trkpt lat="47.3461" lon="-2.32635">
        <ele>1.3999999761581</ele>
        <time>2020-08-02T08:02:29.000Z</time>
      </trkpt>
      <trkpt lat="47.34619" lon="-2.32632">
        <ele>1.3999999761581</ele>
        <time>2020-08-02T08:02:31.000Z</time>
      </trkpt>
      <trkpt lat="47.34629" lon="-2.32636">
        <ele>1</ele>
        <time>2020-08-02T08:02:33.000Z</time>
      </trkpt>
      <trkpt lat="47.34634" lon="-2.32639">
        <ele>0.60000002384186</ele>
        <time>2020-08-02T08:02:34.000Z</time>
      </trkpt>
      <trkpt lat="47.34639" lon="-2.32643">
        <ele>0.20000000298023</ele>
        <time>2020-08-02T08:02:35.000Z</time>
      </trkpt>
      <trkpt lat="47.34645" lon="-2.32645">
        <ele>-0.20000000298023</ele>
        <time>2020-08-02T08:02:36.000Z</time>
      </trkpt>
      <trkpt lat="47.34651" lon="-2.3265">
        <ele>-0.60000002384186</ele>
        <time>2020-08-02T08:02:37.000Z</time>
      </trkpt>
      <trkpt lat="47.34656" lon="-2.32655">
        <ele>-0.60000002384186</ele>
        <time>2020-08-02T08:02:38.000Z</time>
      </trkpt>
      <trkpt lat="47.34662" lon="-2.32661">
        <ele>-1</ele>
        <time>2020-08-02T08:02:39.000Z</time>
      </trkpt>
      <trkpt lat="47.34667" lon="-2.32667">
        <ele>-1.3999999761581</ele>
        <time>2020-08-02T08:02:40.000Z</time>
      </trkpt>
      <trkpt lat="47.34673" lon="-2.32674">
        <ele>-1.7999999523163</ele>
        <time>2020-08-02T08:02:41.000Z</time>
      </trkpt>
      <trkpt lat="47.34677" lon="-2.32681">
        <ele>-2.4000000953674</ele>
        <time>2020-08-02T08:02:42.000Z</time>
      </trkpt>
      <trkpt lat="47.34681" lon="-2.32688">
        <ele>-2.7999999523163</ele>
        <time>2020-08-02T08:02:43.000Z</time>
      </trkpt>
      <trkpt lat="47.34684" lon="-2.32696">
        <ele>-2.7999999523163</ele>
        <time>2020-08-02T08:02:44.000Z</time>
      </trkpt>
      <trkpt lat="47.34703" lon="-2.32727">
        <ele>-2.7999999523163</ele>
        <time>2020-08-02T08:02:49.000Z</time>
      </trkpt>
      <trkpt lat="47.34719" lon="-2.32748">
        <ele>-2.7999999523163</ele>
        <time>2020-08-02T08:02:53.000Z</time>
      </trkpt>
      <trkpt lat="47.34727" lon="-2.32747">
        <ele>-2.7999999523163</ele>
        <time>2020-08-02T08:02:55.000Z</time>
      </trkpt>
      <trkpt lat="47.34737" lon="-2.32737">
        <ele>-2.7999999523163</ele>
        <time>2020-08-02T08:02:58.000Z</time>
      </trkpt>
      <trkpt lat="47.34741" lon="-2.32733">
        <ele>-2.7999999523163</ele>
        <time>2020-08-02T08:02:59.000Z</time>
      </trkpt>
      <trkpt lat="47.34768" lon="-2.32707">
        <ele>-2.7999999523163</ele>
        <time>2020-08-02T08:03:05.000Z</time>
      </trkpt>
      <trkpt lat="47.34774" lon="-2.32703">
        <ele>-2.7999999523163</ele>
        <time>2020-08-02T08:03:06.000Z</time>
      </trkpt>
      <trkpt lat="47.34794" lon="-2.32688">
        <ele>-2.7999999523163</ele>
        <time>2020-08-02T08:03:10.000Z</time>
      </trkpt>
      <trkpt lat="47.34825" lon="-2.3267">
        <ele>-2.7999999523163</ele>
        <time>2020-08-02T08:03:16.000Z</time>
      </trkpt>
      <trkpt lat="47.3484" lon="-2.32664">
        <ele>-2.7999999523163</ele>
        <time>2020-08-02T08:03:19.000Z</time>
      </trkpt>
      <trkpt lat="47.34849" lon="-2.32657">
        <ele>-2.7999999523163</ele>
        <time>2020-08-02T08:03:21.000Z</time>
      </trkpt>
      <trkpt lat="47.34871" lon="-2.32646">
        <ele>-2.7999999523163</ele>
        <time>2020-08-02T08:03:26.000Z</time>
      </trkpt>
      <trkpt lat="47.34878" lon="-2.3264">
        <ele>-2.7999999523163</ele>
        <time>2020-08-02T08:03:28.000Z</time>
      </trkpt>
      <trkpt lat="47.34892" lon="-2.3263">
        <ele>-2.7999999523163</ele>
        <time>2020-08-02T08:03:31.000Z</time>
      </trkpt>
      <trkpt lat="47.34912" lon="-2.32611">
        <ele>-2.7999999523163</ele>
        <time>2020-08-02T08:03:35.000Z</time>
      </trkpt>
      <trkpt lat="47.34917" lon="-2.32607">
        <ele>-2.7999999523163</ele>
        <time>2020-08-02T08:03:36.000Z</time>
      </trkpt>
      <trkpt lat="47.34922" lon="-2.32604">
        <ele>-2.7999999523163</ele>
        <time>2020-08-02T08:03:37.000Z</time>
      </trkpt>
      <trkpt lat="47.3494" lon="-2.326">
        <ele>-2.7999999523163</ele>
        <time>2020-08-02T08:03:40.000Z</time>
      </trkpt>
      <trkpt lat="47.34946" lon="-2.32599">
        <ele>-2.7999999523163</ele>
        <time>2020-08-02T08:03:41.000Z</time>
      </trkpt>
      <trkpt lat="47.34951" lon="-2.326">
        <ele>-2.7999999523163</ele>
        <time>2020-08-02T08:03:42.000Z</time>
      </trkpt>
      <trkpt lat="47.34968" lon="-2.326">
        <ele>-2.7999999523163</ele>
        <time>2020-08-02T08:03:45.000Z</time>
      </trkpt>
      <trkpt lat="47.34989" lon="-2.32595">
        <ele>-2.7999999523163</ele>
        <time>2020-08-02T08:03:49.000Z</time>
      </trkpt>
      <trkpt lat="47.35001" lon="-2.32591">
        <ele>-2.7999999523163</ele>
        <time>2020-08-02T08:03:51.000Z</time>
      </trkpt>
      <trkpt lat="47.35017" lon="-2.32583">
        <ele>-2.7999999523163</ele>
        <time>2020-08-02T08:03:54.000Z</time>
      </trkpt>
      <trkpt lat="47.35031" lon="-2.32574">
        <ele>-2.7999999523163</ele>
        <time>2020-08-02T08:03:57.000Z</time>
      </trkpt>
      <trkpt lat="47.35045" lon="-2.32565">
        <ele>-2.7999999523163</ele>
        <time>2020-08-02T08:04:00.000Z</time>
      </trkpt>
      <trkpt lat="47.35058" lon="-2.32555">
        <ele>-2.7999999523163</ele>
        <time>2020-08-02T08:04:03.000Z</time>
      </trkpt>
      <trkpt lat="47.35061" lon="-2.32551">
        <ele>-2.7999999523163</ele>
        <time>2020-08-02T08:04:04.000Z</time>
      </trkpt>
      <trkpt lat="47.35083" lon="-2.3253">
        <ele>-2.7999999523163</ele>
        <time>2020-08-02T08:04:09.000Z</time>
      </trkpt>
      <trkpt lat="47.35087" lon="-2.32527">
        <ele>-2.7999999523163</ele>
        <time>2020-08-02T08:04:10.000Z</time>
      </trkpt>
      <trkpt lat="47.35108" lon="-2.32505">
        <ele>-2.7999999523163</ele>
        <time>2020-08-02T08:04:15.000Z</time>
      </trkpt>
      <trkpt lat="47.35139" lon="-2.3247">
        <ele>-2.7999999523163</ele>
        <time>2020-08-02T08:04:22.000Z</time>
      </trkpt>
      <trkpt lat="47.35159" lon="-2.32451">
        <ele>-2.7999999523163</ele>
        <time>2020-08-02T08:04:27.000Z</time>
      </trkpt>
      <trkpt lat="47.35165" lon="-2.32446">
        <ele>-2.7999999523163</ele>
        <time>2020-08-02T08:04:31.000Z</time>
      </trkpt>
      <trkpt lat="47.35166" lon="-2.32446">
        <ele>-2.7999999523163</ele>
        <time>2020-08-02T08:04:33.000Z</time>
      </trkpt>
      <trkpt lat="47.35183" lon="-2.32433">
        <ele>-2.7999999523163</ele>
        <time>2020-08-02T08:05:26.000Z</time>
      </trkpt>
      <trkpt lat="47.35187" lon="-2.32432">
        <ele>-2.7999999523163</ele>
        <time>2020-08-02T08:05:28.000Z</time>
      </trkpt>
      <trkpt lat="47.35196" lon="-2.32425">
        <ele>-2.7999999523163</ele>
        <time>2020-08-02T08:05:32.000Z</time>
      </trkpt>
      <trkpt lat="47.35215" lon="-2.32406">
        <ele>-2.7999999523163</ele>
        <time>2020-08-02T08:05:39.000Z</time>
      </trkpt>
      <trkpt lat="47.35231" lon="-2.32397">
        <ele>-2.7999999523163</ele>
        <time>2020-08-02T08:05:44.000Z</time>
      </trkpt>
      <trkpt lat="47.35258" lon="-2.32384">
        <ele>-2.7999999523163</ele>
        <time>2020-08-02T08:05:51.000Z</time>
      </trkpt>
      <trkpt lat="47.35278" lon="-2.32374">
        <ele>-2.7999999523163</ele>
        <time>2020-08-02T08:05:56.000Z</time>
      </trkpt>
      <trkpt lat="47.35304" lon="-2.3236">
        <ele>-2.7999999523163</ele>
        <time>2020-08-02T08:06:02.000Z</time>
      </trkpt>
      <trkpt lat="47.35326" lon="-2.32347">
        <ele>-2.7999999523163</ele>
        <time>2020-08-02T08:06:07.000Z</time>
      </trkpt>
      <trkpt lat="47.35333" lon="-2.32341">
        <ele>-2.7999999523163</ele>
        <time>2020-08-02T08:06:09.000Z</time>
      </trkpt>
      <trkpt lat="47.35358" lon="-2.32331">
        <ele>-2.7999999523163</ele>
        <time>2020-08-02T08:06:15.000Z</time>
      </trkpt>
      <trkpt lat="47.35382" lon="-2.3232">
        <ele>-2.7999999523163</ele>
        <time>2020-08-02T08:06:21.000Z</time>
      </trkpt>
      <trkpt lat="47.35404" lon="-2.32307">
        <ele>-2.7999999523163</ele>
        <time>2020-08-02T08:06:27.000Z</time>
      </trkpt>
      <trkpt lat="47.35431" lon="-2.32289">
        <ele>-2.7999999523163</ele>
        <time>2020-08-02T08:06:33.000Z</time>
      </trkpt>
      <trkpt lat="47.35451" lon="-2.32281">
        <ele>-2.7999999523163</ele>
        <time>2020-08-02T08:06:37.000Z</time>
      </trkpt>
      <trkpt lat="47.35477" lon="-2.32267">
        <ele>-2.7999999523163</ele>
        <time>2020-08-02T08:06:43.000Z</time>
      </trkpt>
      <trkpt lat="47.35495" lon="-2.32253">
        <ele>-2.7999999523163</ele>
        <time>2020-08-02T08:06:48.000Z</time>
      </trkpt>
      <trkpt lat="47.355" lon="-2.32242">
        <ele>-2.7999999523163</ele>
        <time>2020-08-02T08:06:50.000Z</time>
      </trkpt>
      <trkpt lat="47.35503" lon="-2.32228">
        <ele>-2.7999999523163</ele>
        <time>2020-08-02T08:06:53.000Z</time>
      </trkpt>
      <trkpt lat="47.35506" lon="-2.32193">
        <ele>-2.7999999523163</ele>
        <time>2020-08-02T08:06:59.000Z</time>
      </trkpt>
      <trkpt lat="47.35509" lon="-2.3215">
        <ele>-2.7999999523163</ele>
        <time>2020-08-02T08:07:06.000Z</time>
      </trkpt>
      <trkpt lat="47.35513" lon="-2.32108">
        <ele>-2.7999999523163</ele>
        <time>2020-08-02T08:07:13.000Z</time>
      </trkpt>
      <trkpt lat="47.35516" lon="-2.32071">
        <ele>-2.7999999523163</ele>
        <time>2020-08-02T08:07:18.000Z</time>
      </trkpt>
      <trkpt lat="47.35514" lon="-2.32055">
        <ele>-2.7999999523163</ele>
        <time>2020-08-02T08:07:20.000Z</time>
      </trkpt>
      <trkpt lat="47.35513" lon="-2.32041">
        <ele>-2.7999999523163</ele>
        <time>2020-08-02T08:07:22.000Z</time>
      </trkpt>
      <trkpt lat="47.35506" lon="-2.31986">
        <ele>-2.7999999523163</ele>
        <time>2020-08-02T08:07:29.000Z</time>
      </trkpt>
      <trkpt lat="47.35502" lon="-2.31961">
        <ele>-2.7999999523163</ele>
        <time>2020-08-02T08:07:34.000Z</time>
      </trkpt>
      <trkpt lat="47.355" lon="-2.31959">
        <ele>-2.7999999523163</ele>
        <time>2020-08-02T08:07:35.000Z</time>
      </trkpt>
      <trkpt lat="47.35498" lon="-2.31955">
        <ele>-2.7999999523163</ele>
        <time>2020-08-02T08:07:38.000Z</time>
      </trkpt>
      <trkpt lat="47.35497" lon="-2.31953">
        <ele>-2.7999999523163</ele>
        <time>2020-08-02T08:07:43.000Z</time>
      </trkpt>
      <trkpt lat="47.35497" lon="-2.31952">
        <ele>-2.7999999523163</ele>
        <time>2020-08-02T08:07:45.000Z</time>
      </trkpt>
      <trkpt lat="47.35507" lon="-2.31927">
        <ele>-2.7999999523163</ele>
        <time>2020-08-02T08:08:10.000Z</time>
      </trkpt>
      <trkpt lat="47.35508" lon="-2.31923">
        <ele>-2.7999999523163</ele>
        <time>2020-08-02T08:08:12.000Z</time>
      </trkpt>
      <trkpt lat="47.3551" lon="-2.31918">
        <ele>-2.7999999523163</ele>
        <time>2020-08-02T08:08:16.000Z</time>
      </trkpt>
      <trkpt lat="47.35511" lon="-2.31914">
        <ele>-2.7999999523163</ele>
        <time>2020-08-02T08:08:19.000Z</time>
      </trkpt>
      <trkpt lat="47.35512" lon="-2.31914">
        <ele>-2.7999999523163</ele>
        <time>2020-08-02T08:08:21.000Z</time>
      </trkpt>
      <trkpt lat="47.35513" lon="-2.31909">
        <ele>-2.7999999523163</ele>
        <time>2020-08-02T08:09:10.000Z</time>
      </trkpt>
      <trkpt lat="47.35513" lon="-2.31905">
        <ele>-2.7999999523163</ele>
        <time>2020-08-02T08:09:11.000Z</time>
      </trkpt>
      <trkpt lat="47.3552" lon="-2.31879">
        <ele>-2.7999999523163</ele>
        <time>2020-08-02T08:09:16.000Z</time>
      </trkpt>
      <trkpt lat="47.35525" lon="-2.31867">
        <ele>-3.2000000476837</ele>
        <time>2020-08-02T08:09:18.000Z</time>
      </trkpt>
      <trkpt lat="47.35528" lon="-2.31861">
        <ele>-3.5999999046326</ele>
        <time>2020-08-02T08:09:19.000Z</time>
      </trkpt>
      <trkpt lat="47.3553" lon="-2.31856">
        <ele>-4</ele>
        <time>2020-08-02T08:09:20.000Z</time>
      </trkpt>
      <trkpt lat="47.35533" lon="-2.3185">
        <ele>-4.4000000953674</ele>
        <time>2020-08-02T08:09:21.000Z</time>
      </trkpt>
      <trkpt lat="47.35535" lon="-2.31843">
        <ele>-4.8000001907349</ele>
        <time>2020-08-02T08:09:22.000Z</time>
      </trkpt>
      <trkpt lat="47.35541" lon="-2.31831">
        <ele>-4.8000001907349</ele>
        <time>2020-08-02T08:09:24.000Z</time>
      </trkpt>
      <trkpt lat="47.35545" lon="-2.31816">
        <ele>-4.8000001907349</ele>
        <time>2020-08-02T08:09:26.000Z</time>
      </trkpt>
      <trkpt lat="47.3555" lon="-2.31797">
        <ele>-4.8000001907349</ele>
        <time>2020-08-02T08:09:29.000Z</time>
      </trkpt>
      <trkpt lat="47.35568" lon="-2.31756">
        <ele>-4.8000001907349</ele>
        <time>2020-08-02T08:09:35.000Z</time>
      </trkpt>
      <trkpt lat="47.35586" lon="-2.31715">
        <ele>-4.8000001907349</ele>
        <time>2020-08-02T08:09:41.000Z</time>
      </trkpt>
      <trkpt lat="47.35599" lon="-2.3168">
        <ele>-4.8000001907349</ele>
        <time>2020-08-02T08:09:46.000Z</time>
      </trkpt>
      <trkpt lat="47.35602" lon="-2.31673">
        <ele>-4.8000001907349</ele>
        <time>2020-08-02T08:09:47.000Z</time>
      </trkpt>
      <trkpt lat="47.35621" lon="-2.31626">
        <ele>-4.8000001907349</ele>
        <time>2020-08-02T08:09:54.000Z</time>
      </trkpt>
      <trkpt lat="47.35623" lon="-2.31619">
        <ele>-4.8000001907349</ele>
        <time>2020-08-02T08:09:55.000Z</time>
      </trkpt>
      <trkpt lat="47.35632" lon="-2.31603">
        <ele>-4.8000001907349</ele>
        <time>2020-08-02T08:09:58.000Z</time>
      </trkpt>
      <trkpt lat="47.35652" lon="-2.31556">
        <ele>-4.8000001907349</ele>
        <time>2020-08-02T08:10:06.000Z</time>
      </trkpt>
      <trkpt lat="47.3567" lon="-2.31506">
        <ele>-4.8000001907349</ele>
        <time>2020-08-02T08:10:14.000Z</time>
      </trkpt>
      <trkpt lat="47.35673" lon="-2.31499">
        <ele>-4.8000001907349</ele>
        <time>2020-08-02T08:10:15.000Z</time>
      </trkpt>
      <trkpt lat="47.35686" lon="-2.31474">
        <ele>-4.8000001907349</ele>
        <time>2020-08-02T08:10:19.000Z</time>
      </trkpt>
      <trkpt lat="47.35693" lon="-2.31462">
        <ele>-4.8000001907349</ele>
        <time>2020-08-02T08:10:21.000Z</time>
      </trkpt>
      <trkpt lat="47.35704" lon="-2.31447">
        <ele>-4.8000001907349</ele>
        <time>2020-08-02T08:10:24.000Z</time>
      </trkpt>
      <trkpt lat="47.35713" lon="-2.31439">
        <ele>-4.8000001907349</ele>
        <time>2020-08-02T08:10:26.000Z</time>
      </trkpt>
      <trkpt lat="47.35727" lon="-2.3143">
        <ele>-4.8000001907349</ele>
        <time>2020-08-02T08:10:29.000Z</time>
      </trkpt>
      <trkpt lat="47.35732" lon="-2.31428">
        <ele>-4.8000001907349</ele>
        <time>2020-08-02T08:10:30.000Z</time>
      </trkpt>
      <trkpt lat="47.35767" lon="-2.31406">
        <ele>-4.8000001907349</ele>
        <time>2020-08-02T08:10:37.000Z</time>
      </trkpt>
      <trkpt lat="47.35817" lon="-2.3137">
        <ele>-4.8000001907349</ele>
        <time>2020-08-02T08:10:47.000Z</time>
      </trkpt>
      <trkpt lat="47.35859" lon="-2.31341">
        <ele>-4.8000001907349</ele>
        <time>2020-08-02T08:10:56.000Z</time>
      </trkpt>
      <trkpt lat="47.35888" lon="-2.31322">
        <ele>-4.8000001907349</ele>
        <time>2020-08-02T08:11:02.000Z</time>
      </trkpt>
      <trkpt lat="47.35904" lon="-2.31312">
        <ele>-4.8000001907349</ele>
        <time>2020-08-02T08:11:06.000Z</time>
      </trkpt>
      <trkpt lat="47.35909" lon="-2.31309">
        <ele>-4.8000001907349</ele>
        <time>2020-08-02T08:11:10.000Z</time>
      </trkpt>
      <trkpt lat="47.3591" lon="-2.31309">
        <ele>-4.8000001907349</ele>
        <time>2020-08-02T08:11:11.000Z</time>
      </trkpt>
      <trkpt lat="47.3591" lon="-2.31309">
        <ele>-4.8000001907349</ele>
        <time>2020-08-02T08:11:12.000Z</time>
      </trkpt>
      <trkpt lat="47.35918" lon="-2.3133">
        <ele>-4.4000000953674</ele>
        <time>2020-08-02T08:13:00.000Z</time>
      </trkpt>
      <trkpt lat="47.35922" lon="-2.31335">
        <ele>-4.4000000953674</ele>
        <time>2020-08-02T08:13:03.000Z</time>
      </trkpt>
      <trkpt lat="47.35925" lon="-2.31338">
        <ele>-4.4000000953674</ele>
        <time>2020-08-02T08:13:05.000Z</time>
      </trkpt>
      <trkpt lat="47.35935" lon="-2.3135">
        <ele>-4.4000000953674</ele>
        <time>2020-08-02T08:13:09.000Z</time>
      </trkpt>
      <trkpt lat="47.3595" lon="-2.31368">
        <ele>-4.4000000953674</ele>
        <time>2020-08-02T08:13:14.000Z</time>
      </trkpt>
      <trkpt lat="47.35959" lon="-2.31373">
        <ele>-4.4000000953674</ele>
        <time>2020-08-02T08:13:16.000Z</time>
      </trkpt>
      <trkpt lat="47.35971" lon="-2.31375">
        <ele>-4.4000000953674</ele>
        <time>2020-08-02T08:13:19.000Z</time>
      </trkpt>
      <trkpt lat="47.3598" lon="-2.31371">
        <ele>-4</ele>
        <time>2020-08-02T08:13:21.000Z</time>
      </trkpt>
      <trkpt lat="47.35985" lon="-2.31369">
        <ele>-3.5999999046326</ele>
        <time>2020-08-02T08:13:22.000Z</time>
      </trkpt>
      <trkpt lat="47.3599" lon="-2.31368">
        <ele>-3</ele>
        <time>2020-08-02T08:13:23.000Z</time>
      </trkpt>
      <trkpt lat="47.35994" lon="-2.31366">
        <ele>-2.5999999046326</ele>
        <time>2020-08-02T08:13:24.000Z</time>
      </trkpt>
      <trkpt lat="47.35999" lon="-2.31364">
        <ele>-2.2000000476837</ele>
        <time>2020-08-02T08:13:25.000Z</time>
      </trkpt>
      <trkpt lat="47.36032" lon="-2.31353">
        <ele>-2.2000000476837</ele>
        <time>2020-08-02T08:13:32.000Z</time>
      </trkpt>
      <trkpt lat="47.36041" lon="-2.31352">
        <ele>-2.2000000476837</ele>
        <time>2020-08-02T08:13:34.000Z</time>
      </trkpt>
      <trkpt lat="47.36058" lon="-2.31351">
        <ele>-2.2000000476837</ele>
        <time>2020-08-02T08:13:38.000Z</time>
      </trkpt>
      <trkpt lat="47.36083" lon="-2.31344">
        <ele>-2.2000000476837</ele>
        <time>2020-08-02T08:13:45.000Z</time>
      </trkpt>
      <trkpt lat="47.36093" lon="-2.31333">
        <ele>-2.2000000476837</ele>
        <time>2020-08-02T08:13:49.000Z</time>
      </trkpt>
      <trkpt lat="47.36094" lon="-2.31309">
        <ele>-2.2000000476837</ele>
        <time>2020-08-02T08:13:54.000Z</time>
      </trkpt>
      <trkpt lat="47.36094" lon="-2.31268">
        <ele>-2.2000000476837</ele>
        <time>2020-08-02T08:14:01.000Z</time>
      </trkpt>
      <trkpt lat="47.36092" lon="-2.31247">
        <ele>-2.2000000476837</ele>
        <time>2020-08-02T08:14:06.000Z</time>
      </trkpt>
      <trkpt lat="47.36089" lon="-2.31232">
        <ele>-2.2000000476837</ele>
        <time>2020-08-02T08:14:12.000Z</time>
      </trkpt>
      <trkpt lat="47.3609" lon="-2.31232">
        <ele>-2.2000000476837</ele>
        <time>2020-08-02T08:14:13.000Z</time>
      </trkpt>
      <trkpt lat="47.3609" lon="-2.31235">
        <ele>-4.1999998092651</ele>
        <time>2020-08-02T08:16:54.000Z</time>
      </trkpt>
      <trkpt lat="47.3609" lon="-2.31237">
        <ele>-4.1999998092651</ele>
        <time>2020-08-02T08:16:55.000Z</time>
      </trkpt>
      <trkpt lat="47.36091" lon="-2.31255">
        <ele>-4.1999998092651</ele>
        <time>2020-08-02T08:17:00.000Z</time>
      </trkpt>
      <trkpt lat="47.36092" lon="-2.31281">
        <ele>-4.1999998092651</ele>
        <time>2020-08-02T08:17:06.000Z</time>
      </trkpt>
      <trkpt lat="47.36092" lon="-2.31311">
        <ele>-4.1999998092651</ele>
        <time>2020-08-02T08:17:13.000Z</time>
      </trkpt>
      <trkpt lat="47.36094" lon="-2.31334">
        <ele>-4.1999998092651</ele>
        <time>2020-08-02T08:17:19.000Z</time>
      </trkpt>
      <trkpt lat="47.36101" lon="-2.3135">
        <ele>-4.1999998092651</ele>
        <time>2020-08-02T08:17:23.000Z</time>
      </trkpt>
      <trkpt lat="47.36112" lon="-2.31364">
        <ele>-4.1999998092651</ele>
        <time>2020-08-02T08:17:27.000Z</time>
      </trkpt>
      <trkpt lat="47.36119" lon="-2.31371">
        <ele>-4.1999998092651</ele>
        <time>2020-08-02T08:17:29.000Z</time>
      </trkpt>
      <trkpt lat="47.36131" lon="-2.31389">
        <ele>-4.1999998092651</ele>
        <time>2020-08-02T08:17:33.000Z</time>
      </trkpt>
      <trkpt lat="47.36147" lon="-2.31417">
        <ele>-4.1999998092651</ele>
        <time>2020-08-02T08:17:39.000Z</time>
      </trkpt>
      <trkpt lat="47.36168" lon="-2.31453">
        <ele>-4.1999998092651</ele>
        <time>2020-08-02T08:17:46.000Z</time>
      </trkpt>
      <trkpt lat="47.36172" lon="-2.31465">
        <ele>-4.1999998092651</ele>
        <time>2020-08-02T08:17:48.000Z</time>
      </trkpt>
      <trkpt lat="47.36178" lon="-2.31488">
        <ele>-4.1999998092651</ele>
        <time>2020-08-02T08:17:52.000Z</time>
      </trkpt>
      <trkpt lat="47.36186" lon="-2.3154">
        <ele>-4.1999998092651</ele>
        <time>2020-08-02T08:18:00.000Z</time>
      </trkpt>
      <trkpt lat="47.36194" lon="-2.31594">
        <ele>-4.1999998092651</ele>
        <time>2020-08-02T08:18:07.000Z</time>
      </trkpt>
      <trkpt lat="47.36203" lon="-2.31658">
        <ele>-4.1999998092651</ele>
        <time>2020-08-02T08:18:15.000Z</time>
      </trkpt>
      <trkpt lat="47.36205" lon="-2.31678">
        <ele>-3.7999999523163</ele>
        <time>2020-08-02T08:18:18.000Z</time>
      </trkpt>
      <trkpt lat="47.36206" lon="-2.31686">
        <ele>-3.4000000953674</ele>
        <time>2020-08-02T08:18:19.000Z</time>
      </trkpt>
      <trkpt lat="47.36207" lon="-2.31693">
        <ele>-3</ele>
        <time>2020-08-02T08:18:20.000Z</time>
      </trkpt>
      <trkpt lat="47.36208" lon="-2.31701">
        <ele>-2.5999999046326</ele>
        <time>2020-08-02T08:18:21.000Z</time>
      </trkpt>
      <trkpt lat="47.3621" lon="-2.31708">
        <ele>-2.2000000476837</ele>
        <time>2020-08-02T08:18:22.000Z</time>
      </trkpt>
      <trkpt lat="47.36215" lon="-2.31746">
        <ele>-2.2000000476837</ele>
        <time>2020-08-02T08:18:27.000Z</time>
      </trkpt>
      <trkpt lat="47.36219" lon="-2.31776">
        <ele>-2.2000000476837</ele>
        <time>2020-08-02T08:18:31.000Z</time>
      </trkpt>
      <trkpt lat="47.36221" lon="-2.3179">
        <ele>-2.2000000476837</ele>
        <time>2020-08-02T08:18:33.000Z</time>
      </trkpt>
      <trkpt lat="47.36228" lon="-2.31843">
        <ele>-2.2000000476837</ele>
        <time>2020-08-02T08:18:41.000Z</time>
      </trkpt>
      <trkpt lat="47.36236" lon="-2.31883">
        <ele>-2.2000000476837</ele>
        <time>2020-08-02T08:18:48.000Z</time>
      </trkpt>
      <trkpt lat="47.36246" lon="-2.31894">
        <ele>-2.2000000476837</ele>
        <time>2020-08-02T08:18:52.000Z</time>
      </trkpt>
      <trkpt lat="47.36264" lon="-2.31911">
        <ele>-2.2000000476837</ele>
        <time>2020-08-02T08:18:58.000Z</time>
      </trkpt>
      <trkpt lat="47.36288" lon="-2.31932">
        <ele>-2.2000000476837</ele>
        <time>2020-08-02T08:19:05.000Z</time>
      </trkpt>
      <trkpt lat="47.36303" lon="-2.31945">
        <ele>-2.2000000476837</ele>
        <time>2020-08-02T08:19:09.000Z</time>
      </trkpt>
      <trkpt lat="47.3631" lon="-2.31952">
        <ele>-2.2000000476837</ele>
        <time>2020-08-02T08:19:11.000Z</time>
      </trkpt>
      <trkpt lat="47.36313" lon="-2.31955">
        <ele>-2.2000000476837</ele>
        <time>2020-08-02T08:19:12.000Z</time>
      </trkpt>
      <trkpt lat="47.3633" lon="-2.31969">
        <ele>-2.2000000476837</ele>
        <time>2020-08-02T08:19:16.000Z</time>
      </trkpt>
      <trkpt lat="47.36339" lon="-2.31977">
        <ele>-1.7999999523163</ele>
        <time>2020-08-02T08:19:18.000Z</time>
      </trkpt>
      <trkpt lat="47.36343" lon="-2.3198">
        <ele>-1.3999999761581</ele>
        <time>2020-08-02T08:19:19.000Z</time>
      </trkpt>
      <trkpt lat="47.36347" lon="-2.31984">
        <ele>-0.80000001192093</ele>
        <time>2020-08-02T08:19:20.000Z</time>
      </trkpt>
      <trkpt lat="47.36352" lon="-2.31988">
        <ele>-0.40000000596046</ele>
        <time>2020-08-02T08:19:21.000Z</time>
      </trkpt>
      <trkpt lat="47.36356" lon="-2.31992">
        <ele>5.7</ele>
        <time>2020-08-02T08:19:22.000Z</time>
      </trkpt>
      <trkpt lat="47.36391" lon="-2.32031">
        <ele>6</ele>
        <time>2020-08-02T08:19:30.000Z</time>
      </trkpt>
      <trkpt lat="47.36412" lon="-2.32055">
        <ele>6</ele>
        <time>2020-08-02T08:19:35.000Z</time>
      </trkpt>
      <trkpt lat="47.36444" lon="-2.3209">
        <ele>6</ele>
        <time>2020-08-02T08:19:42.000Z</time>
      </trkpt>
      <trkpt lat="47.36477" lon="-2.32122">
        <ele>5.8</ele>
        <time>2020-08-02T08:19:49.000Z</time>
      </trkpt>
      <trkpt lat="47.36499" lon="-2.32148">
        <ele>5</ele>
        <time>2020-08-02T08:19:54.000Z</time>
      </trkpt>
      <trkpt lat="47.36514" lon="-2.32174">
        <ele>4.9</ele>
        <time>2020-08-02T08:19:59.000Z</time>
      </trkpt>
      <trkpt lat="47.36522" lon="-2.32186">
        <ele>4.4</ele>
        <time>2020-08-02T08:20:04.000Z</time>
      </trkpt>
      <trkpt lat="47.3653" lon="-2.32198">
        <ele>4.1</ele>
        <time>2020-08-02T08:20:12.000Z</time>
      </trkpt>
      <trkpt lat="47.36537" lon="-2.32209">
        <ele>4.3</ele>
        <time>2020-08-02T08:20:19.000Z</time>
      </trkpt>
      <trkpt lat="47.36538" lon="-2.3221">
        <ele>4.3</ele>
        <time>2020-08-02T08:20:21.000Z</time>
      </trkpt>
      <trkpt lat="47.36543" lon="-2.32213">
        <ele>-0.80000001192093</ele>
        <time>2020-08-02T08:20:34.000Z</time>
      </trkpt>
      <trkpt lat="47.36545" lon="-2.32216">
        <ele>-1.2000000476837</ele>
        <time>2020-08-02T08:20:35.000Z</time>
      </trkpt>
      <trkpt lat="47.36547" lon="-2.32218">
        <ele>-1.6000000238419</ele>
        <time>2020-08-02T08:20:36.000Z</time>
      </trkpt>
      <trkpt lat="47.3655" lon="-2.32221">
        <ele>-2</ele>
        <time>2020-08-02T08:20:37.000Z</time>
      </trkpt>
      <trkpt lat="47.36559" lon="-2.32231">
        <ele>-2</ele>
        <time>2020-08-02T08:20:40.000Z</time>
      </trkpt>
      <trkpt lat="47.36585" lon="-2.32253">
        <ele>-2</ele>
        <time>2020-08-02T08:20:47.000Z</time>
      </trkpt>
      <trkpt lat="47.36618" lon="-2.32274">
        <ele>-2</ele>
        <time>2020-08-02T08:20:53.000Z</time>
      </trkpt>
      <trkpt lat="47.36653" lon="-2.32296">
        <ele>-2</ele>
        <time>2020-08-02T08:21:00.000Z</time>
      </trkpt>
      <trkpt lat="47.36678" lon="-2.32312">
        <ele>-2</ele>
        <time>2020-08-02T08:21:05.000Z</time>
      </trkpt>
      <trkpt lat="47.36683" lon="-2.32314">
        <ele>-2</ele>
        <time>2020-08-02T08:21:06.000Z</time>
      </trkpt>
      <trkpt lat="47.36728" lon="-2.32332">
        <ele>-2</ele>
        <time>2020-08-02T08:21:14.000Z</time>
      </trkpt>
      <trkpt lat="47.36748" lon="-2.32344">
        <ele>-2</ele>
        <time>2020-08-02T08:21:18.000Z</time>
      </trkpt>
      <trkpt lat="47.36757" lon="-2.32351">
        <ele>-2</ele>
        <time>2020-08-02T08:21:20.000Z</time>
      </trkpt>
      <trkpt lat="47.36786" lon="-2.32369">
        <ele>-2</ele>
        <time>2020-08-02T08:21:26.000Z</time>
      </trkpt>
      <trkpt lat="47.36807" lon="-2.32381">
        <ele>-1.6000000238419</ele>
        <time>2020-08-02T08:21:30.000Z</time>
      </trkpt>
      <trkpt lat="47.36813" lon="-2.32384">
        <ele>-1.2000000476837</ele>
        <time>2020-08-02T08:21:31.000Z</time>
      </trkpt>
      <trkpt lat="47.36818" lon="-2.32387">
        <ele>-0.80000001192093</ele>
        <time>2020-08-02T08:21:32.000Z</time>
      </trkpt>
      <trkpt lat="47.36823" lon="-2.32389">
        <ele>-0.40000000596046</ele>
        <time>2020-08-02T08:21:33.000Z</time>
      </trkpt>
      <trkpt lat="47.36828" lon="-2.32392">
        <ele>6.1</ele>
        <time>2020-08-02T08:21:34.000Z</time>
      </trkpt>
      <trkpt lat="47.3686" lon="-2.32407">
        <ele>6.7</ele>
        <time>2020-08-02T08:21:40.000Z</time>
      </trkpt>
      <trkpt lat="47.36881" lon="-2.32418">
        <ele>6.3</ele>
        <time>2020-08-02T08:21:44.000Z</time>
      </trkpt>
      <trkpt lat="47.36897" lon="-2.32427">
        <ele>6.3</ele>
        <time>2020-08-02T08:21:47.000Z</time>
      </trkpt>
      <trkpt lat="47.36925" lon="-2.32437">
        <ele>6</ele>
        <time>2020-08-02T08:21:52.000Z</time>
      </trkpt>
      <trkpt lat="47.36931" lon="-2.32437">
        <ele>6</ele>
        <time>2020-08-02T08:21:53.000Z</time>
      </trkpt>
      <trkpt lat="47.36975" lon="-2.32439">
        <ele>5</ele>
        <time>2020-08-02T08:22:00.000Z</time>
      </trkpt>
      <trkpt lat="47.37006" lon="-2.32439">
        <ele>5</ele>
        <time>2020-08-02T08:22:05.000Z</time>
      </trkpt>
      <trkpt lat="47.37018" lon="-2.32439">
        <ele>5</ele>
        <time>2020-08-02T08:22:07.000Z</time>
      </trkpt>
      <trkpt lat="47.37064" lon="-2.3244">
        <ele>4.6</ele>
        <time>2020-08-02T08:22:14.000Z</time>
      </trkpt>
      <trkpt lat="47.37101" lon="-2.3244">
        <ele>4</ele>
        <time>2020-08-02T08:22:20.000Z</time>
      </trkpt>
      <trkpt lat="47.37117" lon="-2.3244">
        <ele>-0.40000000596046</ele>
        <time>2020-08-02T08:22:23.000Z</time>
      </trkpt>
      <trkpt lat="47.37121" lon="-2.32439">
        <ele>-0.80000001192093</ele>
        <time>2020-08-02T08:22:24.000Z</time>
      </trkpt>
      <trkpt lat="47.37125" lon="-2.32438">
        <ele>-1.2000000476837</ele>
        <time>2020-08-02T08:22:25.000Z</time>
      </trkpt>
      <trkpt lat="47.37129" lon="-2.32438">
        <ele>-1.6000000238419</ele>
        <time>2020-08-02T08:22:26.000Z</time>
      </trkpt>
      <trkpt lat="47.37132" lon="-2.32438">
        <ele>-2</ele>
        <time>2020-08-02T08:22:27.000Z</time>
      </trkpt>
      <trkpt lat="47.37136" lon="-2.32438">
        <ele>-2</ele>
        <time>2020-08-02T08:22:29.000Z</time>
      </trkpt>
      <trkpt lat="47.37142" lon="-2.32436">
        <ele>-2</ele>
        <time>2020-08-02T08:22:35.000Z</time>
      </trkpt>
      <trkpt lat="47.37145" lon="-2.32445">
        <ele>-2</ele>
        <time>2020-08-02T08:23:32.000Z</time>
      </trkpt>
      <trkpt lat="47.37145" lon="-2.32454">
        <ele>-2</ele>
        <time>2020-08-02T08:23:34.000Z</time>
      </trkpt>
      <trkpt lat="47.37146" lon="-2.32474">
        <ele>-2</ele>
        <time>2020-08-02T08:23:38.000Z</time>
      </trkpt>
      <trkpt lat="47.37147" lon="-2.3248">
        <ele>-2</ele>
        <time>2020-08-02T08:23:39.000Z</time>
      </trkpt>
      <trkpt lat="47.3715" lon="-2.325">
        <ele>-2</ele>
        <time>2020-08-02T08:23:42.000Z</time>
      </trkpt>
      <trkpt lat="47.37151" lon="-2.32521">
        <ele>-2</ele>
        <time>2020-08-02T08:23:45.000Z</time>
      </trkpt>
      <trkpt lat="47.37151" lon="-2.32528">
        <ele>-2</ele>
        <time>2020-08-02T08:23:46.000Z</time>
      </trkpt>
      <trkpt lat="47.37153" lon="-2.32567">
        <ele>-2</ele>
        <time>2020-08-02T08:23:51.000Z</time>
      </trkpt>
      <trkpt lat="47.37153" lon="-2.32609">
        <ele>-2</ele>
        <time>2020-08-02T08:23:56.000Z</time>
      </trkpt>
      <trkpt lat="47.37158" lon="-2.32666">
        <ele>-2</ele>
        <time>2020-08-02T08:24:03.000Z</time>
      </trkpt>
      <trkpt lat="47.37162" lon="-2.32716">
        <ele>-2</ele>
        <time>2020-08-02T08:24:10.000Z</time>
      </trkpt>
      <trkpt lat="47.37162" lon="-2.32736">
        <ele>-2</ele>
        <time>2020-08-02T08:24:15.000Z</time>
      </trkpt>
      <trkpt lat="47.37163" lon="-2.32742">
        <ele>-2</ele>
        <time>2020-08-02T08:24:20.000Z</time>
      </trkpt>
      <trkpt lat="47.37163" lon="-2.32743">
        <ele>-2</ele>
        <time>2020-08-02T08:24:21.000Z</time>
      </trkpt>
      <trkpt lat="47.37165" lon="-2.32745">
        <ele>-2</ele>
        <time>2020-08-02T08:24:31.000Z</time>
      </trkpt>
      <trkpt lat="47.37168" lon="-2.32746">
        <ele>-2</ele>
        <time>2020-08-02T08:24:33.000Z</time>
      </trkpt>
      <trkpt lat="47.37175" lon="-2.32744">
        <ele>-2</ele>
        <time>2020-08-02T08:24:36.000Z</time>
      </trkpt>
      <trkpt lat="47.37183" lon="-2.32742">
        <ele>-2</ele>
        <time>2020-08-02T08:24:38.000Z</time>
      </trkpt>
      <trkpt lat="47.37195" lon="-2.3274">
        <ele>-2</ele>
        <time>2020-08-02T08:24:41.000Z</time>
      </trkpt>
      <trkpt lat="47.37202" lon="-2.32745">
        <ele>-2</ele>
        <time>2020-08-02T08:24:43.000Z</time>
      </trkpt>
      <trkpt lat="47.37205" lon="-2.32767">
        <ele>-2</ele>
        <time>2020-08-02T08:24:46.000Z</time>
      </trkpt>
      <trkpt lat="47.37205" lon="-2.32775">
        <ele>-2</ele>
        <time>2020-08-02T08:24:47.000Z</time>
      </trkpt>
      <trkpt lat="47.37207" lon="-2.32832">
        <ele>-2</ele>
        <time>2020-08-02T08:24:54.000Z</time>
      </trkpt>
      <trkpt lat="47.3721" lon="-2.32884">
        <ele>-2</ele>
        <time>2020-08-02T08:25:01.000Z</time>
      </trkpt>
      <trkpt lat="47.37211" lon="-2.32926">
        <ele>-2</ele>
        <time>2020-08-02T08:25:07.000Z</time>
      </trkpt>
      <trkpt lat="47.37212" lon="-2.32983">
        <ele>-2</ele>
        <time>2020-08-02T08:25:15.000Z</time>
      </trkpt>
      <trkpt lat="47.37212" lon="-2.33025">
        <ele>-2</ele>
        <time>2020-08-02T08:25:21.000Z</time>
      </trkpt>
      <trkpt lat="47.37213" lon="-2.33032">
        <ele>-1.6000000238419</ele>
        <time>2020-08-02T08:25:22.000Z</time>
      </trkpt>
      <trkpt lat="47.37213" lon="-2.33039">
        <ele>-1.2000000476837</ele>
        <time>2020-08-02T08:25:23.000Z</time>
      </trkpt>
      <trkpt lat="47.37213" lon="-2.33046">
        <ele>-0.80000001192093</ele>
        <time>2020-08-02T08:25:24.000Z</time>
      </trkpt>
      <trkpt lat="47.37213" lon="-2.33054">
        <ele>-0.40000000596046</ele>
        <time>2020-08-02T08:25:25.000Z</time>
      </trkpt>
      <trkpt lat="47.37213" lon="-2.33061">
        <ele>6</ele>
        <time>2020-08-02T08:25:26.000Z</time>
      </trkpt>
      <trkpt lat="47.37212" lon="-2.33068">
        <ele>6</ele>
        <time>2020-08-02T08:25:27.000Z</time>
      </trkpt>
      <trkpt lat="47.37211" lon="-2.33075">
        <ele>6</ele>
        <time>2020-08-02T08:25:28.000Z</time>
      </trkpt>
      <trkpt lat="47.37205" lon="-2.33121">
        <ele>6.4</ele>
        <time>2020-08-02T08:25:33.000Z</time>
      </trkpt>
      <trkpt lat="47.37197" lon="-2.33187">
        <ele>7</ele>
        <time>2020-08-02T08:25:41.000Z</time>
      </trkpt>
      <trkpt lat="47.37197" lon="-2.33237">
        <ele>7.5</ele>
        <time>2020-08-02T08:25:48.000Z</time>
      </trkpt>
      <trkpt lat="47.372" lon="-2.33289">
        <ele>7.4</ele>
        <time>2020-08-02T08:25:55.000Z</time>
      </trkpt>
      <trkpt lat="47.37198" lon="-2.33329">
        <ele>0.40000000596046</ele>
        <time>2020-08-02T08:26:00.000Z</time>
      </trkpt>
      <trkpt lat="47.37197" lon="-2.33337">
        <ele>0.80000001192093</ele>
        <time>2020-08-02T08:26:01.000Z</time>
      </trkpt>
      <trkpt lat="47.37197" lon="-2.33345">
        <ele>1.2000000476837</ele>
        <time>2020-08-02T08:26:02.000Z</time>
      </trkpt>
      <trkpt lat="47.37196" lon="-2.33353">
        <ele>1.6000000238419</ele>
        <time>2020-08-02T08:26:03.000Z</time>
      </trkpt>
      <trkpt lat="47.37196" lon="-2.33361">
        <ele>2</ele>
        <time>2020-08-02T08:26:04.000Z</time>
      </trkpt>
      <trkpt lat="47.37192" lon="-2.334">
        <ele>2</ele>
        <time>2020-08-02T08:26:09.000Z</time>
      </trkpt>
      <trkpt lat="47.3719" lon="-2.33466">
        <ele>2</ele>
        <time>2020-08-02T08:26:17.000Z</time>
      </trkpt>
      <trkpt lat="47.37193" lon="-2.33515">
        <ele>2</ele>
        <time>2020-08-02T08:26:24.000Z</time>
      </trkpt>
      <trkpt lat="47.37198" lon="-2.33547">
        <ele>2.4000000953674</ele>
        <time>2020-08-02T08:26:28.000Z</time>
      </trkpt>
      <trkpt lat="47.37198" lon="-2.33555">
        <ele>2.7999999523163</ele>
        <time>2020-08-02T08:26:29.000Z</time>
      </trkpt>
      <trkpt lat="47.372" lon="-2.33563">
        <ele>3.2000000476837</ele>
        <time>2020-08-02T08:26:30.000Z</time>
      </trkpt>
      <trkpt lat="47.372" lon="-2.33571">
        <ele>3.5999999046326</ele>
        <time>2020-08-02T08:26:31.000Z</time>
      </trkpt>
      <trkpt lat="47.37202" lon="-2.33579">
        <ele>4</ele>
        <time>2020-08-02T08:26:32.000Z</time>
      </trkpt>
      <trkpt lat="47.37206" lon="-2.33617">
        <ele>4</ele>
        <time>2020-08-02T08:26:37.000Z</time>
      </trkpt>
      <trkpt lat="47.37213" lon="-2.33671">
        <ele>4</ele>
        <time>2020-08-02T08:26:44.000Z</time>
      </trkpt>
      <trkpt lat="47.37214" lon="-2.33687">
        <ele>4</ele>
        <time>2020-08-02T08:26:46.000Z</time>
      </trkpt>
      <trkpt lat="47.37214" lon="-2.33695">
        <ele>4.5999999046326</ele>
        <time>2020-08-02T08:26:47.000Z</time>
      </trkpt>
      <trkpt lat="47.37215" lon="-2.33703">
        <ele>5</ele>
        <time>2020-08-02T08:26:48.000Z</time>
      </trkpt>
      <trkpt lat="47.37215" lon="-2.33711">
        <ele>5.4000000953674</ele>
        <time>2020-08-02T08:26:49.000Z</time>
      </trkpt>
      <trkpt lat="47.37214" lon="-2.33718">
        <ele>6.1999998092651</ele>
        <time>2020-08-02T08:26:50.000Z</time>
      </trkpt>
      <trkpt lat="47.37213" lon="-2.33749">
        <ele>6.1999998092651</ele>
        <time>2020-08-02T08:26:55.000Z</time>
      </trkpt>
      <trkpt lat="47.37211" lon="-2.33796">
        <ele>6.1999998092651</ele>
        <time>2020-08-02T08:27:01.000Z</time>
      </trkpt>
      <trkpt lat="47.37211" lon="-2.33804">
        <ele>6.1999998092651</ele>
        <time>2020-08-02T08:27:02.000Z</time>
      </trkpt>
      <trkpt lat="47.37213" lon="-2.3384">
        <ele>6.1999998092651</ele>
        <time>2020-08-02T08:27:07.000Z</time>
      </trkpt>
      <trkpt lat="47.37216" lon="-2.33895">
        <ele>6.1999998092651</ele>
        <time>2020-08-02T08:27:14.000Z</time>
      </trkpt>
      <trkpt lat="47.3722" lon="-2.33949">
        <ele>6.1999998092651</ele>
        <time>2020-08-02T08:27:20.000Z</time>
      </trkpt>
      <trkpt lat="47.3723" lon="-2.34017">
        <ele>6.1999998092651</ele>
        <time>2020-08-02T08:27:27.000Z</time>
      </trkpt>
      <trkpt lat="47.37244" lon="-2.3408">
        <ele>5.8000001907349</ele>
        <time>2020-08-02T08:27:34.000Z</time>
      </trkpt>
      <trkpt lat="47.37247" lon="-2.34088">
        <ele>5.4000000953674</ele>
        <time>2020-08-02T08:27:35.000Z</time>
      </trkpt>
      <trkpt lat="47.37248" lon="-2.34097">
        <ele>5</ele>
        <time>2020-08-02T08:27:36.000Z</time>
      </trkpt>
      <trkpt lat="47.3725" lon="-2.34105">
        <ele>4.5999999046326</ele>
        <time>2020-08-02T08:27:37.000Z</time>
      </trkpt>
      <trkpt lat="47.37252" lon="-2.34114">
        <ele>4.1999998092651</ele>
        <time>2020-08-02T08:27:38.000Z</time>
      </trkpt>
      <trkpt lat="47.37261" lon="-2.34147">
        <ele>4.1999998092651</ele>
        <time>2020-08-02T08:27:42.000Z</time>
      </trkpt>
      <trkpt lat="47.37271" lon="-2.3419">
        <ele>4.1999998092651</ele>
        <time>2020-08-02T08:27:47.000Z</time>
      </trkpt>
      <trkpt lat="47.37272" lon="-2.34199">
        <ele>4.1999998092651</ele>
        <time>2020-08-02T08:27:48.000Z</time>
      </trkpt>
      <trkpt lat="47.37274" lon="-2.34217">
        <ele>4.1999998092651</ele>
        <time>2020-08-02T08:27:50.000Z</time>
      </trkpt>
      <trkpt lat="47.37273" lon="-2.34246">
        <ele>4.1999998092651</ele>
        <time>2020-08-02T08:27:53.000Z</time>
      </trkpt>
      <trkpt lat="47.37269" lon="-2.34314">
        <ele>4.1999998092651</ele>
        <time>2020-08-02T08:28:00.000Z</time>
      </trkpt>
      <trkpt lat="47.37267" lon="-2.34353">
        <ele>3.7999999523163</ele>
        <time>2020-08-02T08:28:04.000Z</time>
      </trkpt>
      <trkpt lat="47.37266" lon="-2.34363">
        <ele>2.7999999523163</ele>
        <time>2020-08-02T08:28:05.000Z</time>
      </trkpt>
      <trkpt lat="47.37266" lon="-2.34373">
        <ele>2.4000000953674</ele>
        <time>2020-08-02T08:28:06.000Z</time>
      </trkpt>
      <trkpt lat="47.37266" lon="-2.34382">
        <ele>2</ele>
        <time>2020-08-02T08:28:07.000Z</time>
      </trkpt>
      <trkpt lat="47.37269" lon="-2.34445">
        <ele>2</ele>
        <time>2020-08-02T08:28:14.000Z</time>
      </trkpt>
      <trkpt lat="47.37271" lon="-2.34497">
        <ele>2</ele>
        <time>2020-08-02T08:28:20.000Z</time>
      </trkpt>
      <trkpt lat="47.37272" lon="-2.34515">
        <ele>2</ele>
        <time>2020-08-02T08:28:22.000Z</time>
      </trkpt>
      <trkpt lat="47.3727" lon="-2.34575">
        <ele>2</ele>
        <time>2020-08-02T08:28:29.000Z</time>
      </trkpt>
      <trkpt lat="47.37269" lon="-2.34584">
        <ele>2</ele>
        <time>2020-08-02T08:28:30.000Z</time>
      </trkpt>
      <trkpt lat="47.37265" lon="-2.3462">
        <ele>2</ele>
        <time>2020-08-02T08:28:34.000Z</time>
      </trkpt>
      <trkpt lat="47.37262" lon="-2.34671">
        <ele>2</ele>
        <time>2020-08-02T08:28:40.000Z</time>
      </trkpt>
      <trkpt lat="47.37261" lon="-2.34681">
        <ele>2</ele>
        <time>2020-08-02T08:28:41.000Z</time>
      </trkpt>
      <trkpt lat="47.37253" lon="-2.34708">
        <ele>2</ele>
        <time>2020-08-02T08:28:44.000Z</time>
      </trkpt>
      <trkpt lat="47.37247" lon="-2.34725">
        <ele>2</ele>
        <time>2020-08-02T08:28:46.000Z</time>
      </trkpt>
      <trkpt lat="47.37235" lon="-2.34747">
        <ele>2</ele>
        <time>2020-08-02T08:28:49.000Z</time>
      </trkpt>
      <trkpt lat="47.3723" lon="-2.34753">
        <ele>2</ele>
        <time>2020-08-02T08:28:50.000Z</time>
      </trkpt>
      <trkpt lat="47.37204" lon="-2.34788">
        <ele>2</ele>
        <time>2020-08-02T08:28:56.000Z</time>
      </trkpt>
      <trkpt lat="47.37172" lon="-2.34832">
        <ele>2</ele>
        <time>2020-08-02T08:29:03.000Z</time>
      </trkpt>
      <trkpt lat="47.37147" lon="-2.34866">
        <ele>2</ele>
        <time>2020-08-02T08:29:09.000Z</time>
      </trkpt>
      <trkpt lat="47.3714" lon="-2.34881">
        <ele>2</ele>
        <time>2020-08-02T08:29:13.000Z</time>
      </trkpt>
      <trkpt lat="47.37139" lon="-2.34888">
        <ele>1.6000000238419</ele>
        <time>2020-08-02T08:29:15.000Z</time>
      </trkpt>
      <trkpt lat="47.3714" lon="-2.34891">
        <ele>1.2000000476837</ele>
        <time>2020-08-02T08:29:16.000Z</time>
      </trkpt>
      <trkpt lat="47.3714" lon="-2.34894">
        <ele>0.80000001192093</ele>
        <time>2020-08-02T08:29:17.000Z</time>
      </trkpt>
      <trkpt lat="47.37142" lon="-2.34897">
        <ele>0.40000000596046</ele>
        <time>2020-08-02T08:29:18.000Z</time>
      </trkpt>
      <trkpt lat="47.37144" lon="-2.349">
        <ele>5.9</ele>
        <time>2020-08-02T08:29:19.000Z</time>
      </trkpt>
      <trkpt lat="47.37152" lon="-2.34908">
        <ele>5.7</ele>
        <time>2020-08-02T08:29:22.000Z</time>
      </trkpt>
      <trkpt lat="47.37155" lon="-2.34911">
        <ele>5.5</ele>
        <time>2020-08-02T08:29:23.000Z</time>
      </trkpt>
      <trkpt lat="47.37162" lon="-2.34919">
        <ele>5.1</ele>
        <time>2020-08-02T08:29:25.000Z</time>
      </trkpt>
      <trkpt lat="47.37174" lon="-2.34935">
        <ele>5</ele>
        <time>2020-08-02T08:29:28.000Z</time>
      </trkpt>
      <trkpt lat="47.37178" lon="-2.34941">
        <ele>5</ele>
        <time>2020-08-02T08:29:29.000Z</time>
      </trkpt>
      <trkpt lat="47.37194" lon="-2.34974">
        <ele>4.9</ele>
        <time>2020-08-02T08:29:34.000Z</time>
      </trkpt>
      <trkpt lat="47.37196" lon="-2.34982">
        <ele>4.6</ele>
        <time>2020-08-02T08:29:35.000Z</time>
      </trkpt>
      <trkpt lat="47.37202" lon="-2.35015">
        <ele>4.1</ele>
        <time>2020-08-02T08:29:39.000Z</time>
      </trkpt>
      <trkpt lat="47.3721" lon="-2.35066">
        <ele>5</ele>
        <time>2020-08-02T08:29:46.000Z</time>
      </trkpt>
      <trkpt lat="47.37218" lon="-2.35113">
        <ele>5.2</ele>
        <time>2020-08-02T08:29:53.000Z</time>
      </trkpt>
      <trkpt lat="47.37224" lon="-2.35146">
        <ele>5</ele>
        <time>2020-08-02T08:29:59.000Z</time>
      </trkpt>
      <trkpt lat="47.37227" lon="-2.35153">
        <ele>5</ele>
        <time>2020-08-02T08:30:03.000Z</time>
      </trkpt>
      <trkpt lat="47.37227" lon="-2.35155">
        <ele>5</ele>
        <time>2020-08-02T08:30:08.000Z</time>
      </trkpt>
      <trkpt lat="47.37228" lon="-2.35165">
        <ele>5</ele>
        <time>2020-08-02T08:30:11.000Z</time>
      </trkpt>
      <trkpt lat="47.37232" lon="-2.35185">
        <ele>5.2</ele>
        <time>2020-08-02T08:30:15.000Z</time>
      </trkpt>
      <trkpt lat="47.37242" lon="-2.35228">
        <ele>5.9</ele>
        <time>2020-08-02T08:30:21.000Z</time>
      </trkpt>
      <trkpt lat="47.37256" lon="-2.35274">
        <ele>5</ele>
        <time>2020-08-02T08:30:28.000Z</time>
      </trkpt>
      <trkpt lat="47.3726" lon="-2.35294">
        <ele>5.4</ele>
        <time>2020-08-02T08:30:31.000Z</time>
      </trkpt>
      <trkpt lat="47.3726" lon="-2.35307">
        <ele>5.7</ele>
        <time>2020-08-02T08:30:33.000Z</time>
      </trkpt>
      <trkpt lat="47.37247" lon="-2.35329">
        <ele>6</ele>
        <time>2020-08-02T08:30:37.000Z</time>
      </trkpt>
      <trkpt lat="47.37216" lon="-2.35374">
        <ele>6.1</ele>
        <time>2020-08-02T08:30:45.000Z</time>
      </trkpt>
      <trkpt lat="47.37185" lon="-2.35425">
        <ele>6.4</ele>
        <time>2020-08-02T08:30:54.000Z</time>
      </trkpt>
      <trkpt lat="47.37184" lon="-2.35429">
        <ele>6.4</ele>
        <time>2020-08-02T08:30:55.000Z</time>
      </trkpt>
      <trkpt lat="47.37186" lon="-2.35436">
        <ele>6.3</ele>
        <time>2020-08-02T08:30:57.000Z</time>
      </trkpt>
      <trkpt lat="47.37195" lon="-2.35453">
        <ele>6.3</ele>
        <time>2020-08-02T08:31:02.000Z</time>
      </trkpt>
      <trkpt lat="47.37197" lon="-2.35457">
        <ele>6.4</ele>
        <time>2020-08-02T08:31:03.000Z</time>
      </trkpt>
      <trkpt lat="47.37215" lon="-2.35486">
        <ele>6.6</ele>
        <time>2020-08-02T08:31:10.000Z</time>
      </trkpt>
      <trkpt lat="47.37238" lon="-2.35525">
        <ele>6.4</ele>
        <time>2020-08-02T08:31:16.000Z</time>
      </trkpt>
      <trkpt lat="47.37265" lon="-2.35572">
        <ele>6</ele>
        <time>2020-08-02T08:31:23.000Z</time>
      </trkpt>
      <trkpt lat="47.37281" lon="-2.35597">
        <ele>5.4</ele>
        <time>2020-08-02T08:31:27.000Z</time>
      </trkpt>
      <trkpt lat="47.37291" lon="-2.35606">
        <ele>5.1</ele>
        <time>2020-08-02T08:31:29.000Z</time>
      </trkpt>
      <trkpt lat="47.3731" lon="-2.35613">
        <ele>5</ele>
        <time>2020-08-02T08:31:32.000Z</time>
      </trkpt>
      <trkpt lat="47.37315" lon="-2.35614">
        <ele>5</ele>
        <time>2020-08-02T08:31:33.000Z</time>
      </trkpt>
      <trkpt lat="47.37355" lon="-2.35626">
        <ele>5</ele>
        <time>2020-08-02T08:31:40.000Z</time>
      </trkpt>
      <trkpt lat="47.37392" lon="-2.35639">
        <ele>4.1</ele>
        <time>2020-08-02T08:31:48.000Z</time>
      </trkpt>
      <trkpt lat="47.37413" lon="-2.35651">
        <ele>4.6</ele>
        <time>2020-08-02T08:31:53.000Z</time>
      </trkpt>
      <trkpt lat="47.37417" lon="-2.3566">
        <ele>4.2</ele>
        <time>2020-08-02T08:31:55.000Z</time>
      </trkpt>
      <trkpt lat="47.37419" lon="-2.35667">
        <ele>4</ele>
        <time>2020-08-02T08:31:56.000Z</time>
      </trkpt>
      <trkpt lat="47.3742" lon="-2.35682">
        <ele>-0.80000001192093</ele>
        <time>2020-08-02T08:31:58.000Z</time>
      </trkpt>
      <trkpt lat="47.3742" lon="-2.3569">
        <ele>-1.2000000476837</ele>
        <time>2020-08-02T08:31:59.000Z</time>
      </trkpt>
      <trkpt lat="47.3742" lon="-2.35698">
        <ele>-1.6000000238419</ele>
        <time>2020-08-02T08:32:00.000Z</time>
      </trkpt>
      <trkpt lat="47.3742" lon="-2.35707">
        <ele>-2.2000000476837</ele>
        <time>2020-08-02T08:32:01.000Z</time>
      </trkpt>
      <trkpt lat="47.37419" lon="-2.35734">
        <ele>-2.2000000476837</ele>
        <time>2020-08-02T08:32:04.000Z</time>
      </trkpt>
      <trkpt lat="47.3742" lon="-2.35742">
        <ele>-2.2000000476837</ele>
        <time>2020-08-02T08:32:05.000Z</time>
      </trkpt>
      <trkpt lat="47.3742" lon="-2.35779">
        <ele>-2.2000000476837</ele>
        <time>2020-08-02T08:32:10.000Z</time>
      </trkpt>
      <trkpt lat="47.37419" lon="-2.35787">
        <ele>-2.2000000476837</ele>
        <time>2020-08-02T08:32:11.000Z</time>
      </trkpt>
      <trkpt lat="47.37415" lon="-2.35799">
        <ele>-2.2000000476837</ele>
        <time>2020-08-02T08:32:13.000Z</time>
      </trkpt>
      <trkpt lat="47.37398" lon="-2.35814">
        <ele>-2.2000000476837</ele>
        <time>2020-08-02T08:32:17.000Z</time>
      </trkpt>
      <trkpt lat="47.37367" lon="-2.35834">
        <ele>-2.2000000476837</ele>
        <time>2020-08-02T08:32:23.000Z</time>
      </trkpt>
      <trkpt lat="47.37337" lon="-2.35857">
        <ele>-2.2000000476837</ele>
        <time>2020-08-02T08:32:29.000Z</time>
      </trkpt>
      <trkpt lat="47.37309" lon="-2.3588">
        <ele>-2.2000000476837</ele>
        <time>2020-08-02T08:32:35.000Z</time>
      </trkpt>
      <trkpt lat="47.37291" lon="-2.35913">
        <ele>-2.2000000476837</ele>
        <time>2020-08-02T08:32:40.000Z</time>
      </trkpt>
      <trkpt lat="47.37288" lon="-2.35921">
        <ele>-2.2000000476837</ele>
        <time>2020-08-02T08:32:41.000Z</time>
      </trkpt>
      <trkpt lat="47.37274" lon="-2.35952">
        <ele>-2.2000000476837</ele>
        <time>2020-08-02T08:32:45.000Z</time>
      </trkpt>
      <trkpt lat="47.37248" lon="-2.36005">
        <ele>-2.2000000476837</ele>
        <time>2020-08-02T08:32:52.000Z</time>
      </trkpt>
      <trkpt lat="47.3723" lon="-2.36044">
        <ele>-2.2000000476837</ele>
        <time>2020-08-02T08:32:58.000Z</time>
      </trkpt>
      <trkpt lat="47.37229" lon="-2.36051">
        <ele>-2.2000000476837</ele>
        <time>2020-08-02T08:33:00.000Z</time>
      </trkpt>
      <trkpt lat="47.3723" lon="-2.36057">
        <ele>-2.2000000476837</ele>
        <time>2020-08-02T08:33:02.000Z</time>
      </trkpt>
      <trkpt lat="47.37231" lon="-2.36063">
        <ele>-2.2000000476837</ele>
        <time>2020-08-02T08:33:04.000Z</time>
      </trkpt>
      <trkpt lat="47.37231" lon="-2.36076">
        <ele>-2.2000000476837</ele>
        <time>2020-08-02T08:33:08.000Z</time>
      </trkpt>
      <trkpt lat="47.37229" lon="-2.36085">
        <ele>-2.2000000476837</ele>
        <time>2020-08-02T08:33:13.000Z</time>
      </trkpt>
      <trkpt lat="47.37229" lon="-2.36086">
        <ele>-2.2000000476837</ele>
        <time>2020-08-02T08:33:15.000Z</time>
      </trkpt>
      <trkpt lat="47.37272" lon="-2.36126">
        <ele>-2.2000000476837</ele>
        <time>2020-08-02T08:44:25.000Z</time>
      </trkpt>
      <trkpt lat="47.37274" lon="-2.36127">
        <ele>-2.2000000476837</ele>
        <time>2020-08-02T08:44:26.000Z</time>
      </trkpt>
      <trkpt lat="47.37283" lon="-2.36131">
        <ele>-2.2000000476837</ele>
        <time>2020-08-02T08:44:31.000Z</time>
      </trkpt>
      <trkpt lat="47.37284" lon="-2.36131">
        <ele>-2.2000000476837</ele>
        <time>2020-08-02T08:44:32.000Z</time>
      </trkpt>
      <trkpt lat="47.37293" lon="-2.36124">
        <ele>-2.2000000476837</ele>
        <time>2020-08-02T08:44:36.000Z</time>
      </trkpt>
      <trkpt lat="47.37302" lon="-2.36119">
        <ele>-2.2000000476837</ele>
        <time>2020-08-02T08:44:39.000Z</time>
      </trkpt>
      <trkpt lat="47.37308" lon="-2.36118">
        <ele>-2.2000000476837</ele>
        <time>2020-08-02T08:44:41.000Z</time>
      </trkpt>
      <trkpt lat="47.37325" lon="-2.36116">
        <ele>-2.2000000476837</ele>
        <time>2020-08-02T08:44:47.000Z</time>
      </trkpt>
      <trkpt lat="47.37348" lon="-2.36125">
        <ele>-2.2000000476837</ele>
        <time>2020-08-02T08:44:53.000Z</time>
      </trkpt>
      <trkpt lat="47.37356" lon="-2.36122">
        <ele>-2.2000000476837</ele>
        <time>2020-08-02T08:44:55.000Z</time>
      </trkpt>
      <trkpt lat="47.37364" lon="-2.36115">
        <ele>-2.2000000476837</ele>
        <time>2020-08-02T08:44:57.000Z</time>
      </trkpt>
      <trkpt lat="47.37377" lon="-2.36108">
        <ele>-2.2000000476837</ele>
        <time>2020-08-02T08:45:00.000Z</time>
      </trkpt>
      <trkpt lat="47.37387" lon="-2.36112">
        <ele>-2.2000000476837</ele>
        <time>2020-08-02T08:45:02.000Z</time>
      </trkpt>
      <trkpt lat="47.37392" lon="-2.36118">
        <ele>-1.6000000238419</ele>
        <time>2020-08-02T08:45:03.000Z</time>
      </trkpt>
      <trkpt lat="47.37396" lon="-2.36123">
        <ele>-1.2000000476837</ele>
        <time>2020-08-02T08:45:04.000Z</time>
      </trkpt>
      <trkpt lat="47.37401" lon="-2.36128">
        <ele>-0.80000001192093</ele>
        <time>2020-08-02T08:45:05.000Z</time>
      </trkpt>
      <trkpt lat="47.37404" lon="-2.36132">
        <ele>-0.40000000596046</ele>
        <time>2020-08-02T08:45:06.000Z</time>
      </trkpt>
      <trkpt lat="47.37407" lon="-2.36137">
        <ele>0.20000000298023</ele>
        <time>2020-08-02T08:45:07.000Z</time>
      </trkpt>
      <trkpt lat="47.37411" lon="-2.3614">
        <ele>0.20000000298023</ele>
        <time>2020-08-02T08:45:08.000Z</time>
      </trkpt>
      <trkpt lat="47.37419" lon="-2.36142">
        <ele>0.20000000298023</ele>
        <time>2020-08-02T08:45:10.000Z</time>
      </trkpt>
      <trkpt lat="47.37423" lon="-2.3614">
        <ele>0.20000000298023</ele>
        <time>2020-08-02T08:45:11.000Z</time>
      </trkpt>
      <trkpt lat="47.37435" lon="-2.3613">
        <ele>0.20000000298023</ele>
        <time>2020-08-02T08:45:14.000Z</time>
      </trkpt>
      <trkpt lat="47.37443" lon="-2.36122">
        <ele>0.20000000298023</ele>
        <time>2020-08-02T08:45:16.000Z</time>
      </trkpt>
      <trkpt lat="47.37448" lon="-2.3612">
        <ele>0.20000000298023</ele>
        <time>2020-08-02T08:45:17.000Z</time>
      </trkpt>
      <trkpt lat="47.37468" lon="-2.36106">
        <ele>0.60000002384186</ele>
        <time>2020-08-02T08:45:22.000Z</time>
      </trkpt>
      <trkpt lat="47.37473" lon="-2.36103">
        <ele>1</ele>
        <time>2020-08-02T08:45:23.000Z</time>
      </trkpt>
      <trkpt lat="47.37477" lon="-2.36101">
        <ele>1.3999999761581</ele>
        <time>2020-08-02T08:45:24.000Z</time>
      </trkpt>
      <trkpt lat="47.37481" lon="-2.36098">
        <ele>1.7999999523163</ele>
        <time>2020-08-02T08:45:25.000Z</time>
      </trkpt>
      <trkpt lat="47.37486" lon="-2.36096">
        <ele>2.2000000476837</ele>
        <time>2020-08-02T08:45:26.000Z</time>
      </trkpt>
      <trkpt lat="47.37503" lon="-2.36087">
        <ele>2.5999999046326</ele>
        <time>2020-08-02T08:45:30.000Z</time>
      </trkpt>
      <trkpt lat="47.37507" lon="-2.36084">
        <ele>3</ele>
        <time>2020-08-02T08:45:31.000Z</time>
      </trkpt>
      <trkpt lat="47.37512" lon="-2.36082">
        <ele>3.4000000953674</ele>
        <time>2020-08-02T08:45:32.000Z</time>
      </trkpt>
      <trkpt lat="47.37517" lon="-2.36079">
        <ele>4.1999998092651</ele>
        <time>2020-08-02T08:45:33.000Z</time>
      </trkpt>
      <trkpt lat="47.37532" lon="-2.36073">
        <ele>4.1999998092651</ele>
        <time>2020-08-02T08:45:36.000Z</time>
      </trkpt>
      <trkpt lat="47.37562" lon="-2.36063">
        <ele>4.1999998092651</ele>
        <time>2020-08-02T08:45:42.000Z</time>
      </trkpt>
      <trkpt lat="47.376" lon="-2.3605">
        <ele>4.1999998092651</ele>
        <time>2020-08-02T08:45:50.000Z</time>
      </trkpt>
      <trkpt lat="47.3763" lon="-2.36046">
        <ele>4.1999998092651</ele>
        <time>2020-08-02T08:45:56.000Z</time>
      </trkpt>
      <trkpt lat="47.37635" lon="-2.36043">
        <ele>4.1999998092651</ele>
        <time>2020-08-02T08:45:57.000Z</time>
      </trkpt>
      <trkpt lat="47.37639" lon="-2.36034">
        <ele>4.1999998092651</ele>
        <time>2020-08-02T08:45:59.000Z</time>
      </trkpt>
      <trkpt lat="47.37642" lon="-2.36023">
        <ele>4.1999998092651</ele>
        <time>2020-08-02T08:46:01.000Z</time>
      </trkpt>
      <trkpt lat="47.37645" lon="-2.36006">
        <ele>4.1999998092651</ele>
        <time>2020-08-02T08:46:04.000Z</time>
      </trkpt>
      <trkpt lat="47.37648" lon="-2.36005">
        <ele>4.1999998092651</ele>
        <time>2020-08-02T08:46:05.000Z</time>
      </trkpt>
      <trkpt lat="47.37654" lon="-2.36006">
        <ele>4.1999998092651</ele>
        <time>2020-08-02T08:46:07.000Z</time>
      </trkpt>
      <trkpt lat="47.37659" lon="-2.36009">
        <ele>4.1999998092651</ele>
        <time>2020-08-02T08:46:09.000Z</time>
      </trkpt>
      <trkpt lat="47.37677" lon="-2.36012">
        <ele>4.1999998092651</ele>
        <time>2020-08-02T08:46:14.000Z</time>
      </trkpt>
      <trkpt lat="47.37692" lon="-2.36017">
        <ele>4.1999998092651</ele>
        <time>2020-08-02T08:46:18.000Z</time>
      </trkpt>
      <trkpt lat="47.37699" lon="-2.3602">
        <ele>4.1999998092651</ele>
        <time>2020-08-02T08:46:20.000Z</time>
      </trkpt>
      <trkpt lat="47.37721" lon="-2.36033">
        <ele>4.1999998092651</ele>
        <time>2020-08-02T08:46:25.000Z</time>
      </trkpt>
      <trkpt lat="47.37728" lon="-2.36039">
        <ele>4.1999998092651</ele>
        <time>2020-08-02T08:46:27.000Z</time>
      </trkpt>
      <trkpt lat="47.3775" lon="-2.36054">
        <ele>4.1999998092651</ele>
        <time>2020-08-02T08:46:32.000Z</time>
      </trkpt>
      <trkpt lat="47.37754" lon="-2.36056">
        <ele>4.1999998092651</ele>
        <time>2020-08-02T08:46:33.000Z</time>
      </trkpt>
      <trkpt lat="47.37791" lon="-2.36078">
        <ele>4.1999998092651</ele>
        <time>2020-08-02T08:46:41.000Z</time>
      </trkpt>
      <trkpt lat="47.37824" lon="-2.36094">
        <ele>4.1999998092651</ele>
        <time>2020-08-02T08:46:48.000Z</time>
      </trkpt>
      <trkpt lat="47.37837" lon="-2.36101">
        <ele>4.5999999046326</ele>
        <time>2020-08-02T08:46:51.000Z</time>
      </trkpt>
      <trkpt lat="47.37842" lon="-2.36103">
        <ele>5</ele>
        <time>2020-08-02T08:46:52.000Z</time>
      </trkpt>
      <trkpt lat="47.37847" lon="-2.36106">
        <ele>5.4000000953674</ele>
        <time>2020-08-02T08:46:53.000Z</time>
      </trkpt>
      <trkpt lat="47.37852" lon="-2.36109">
        <ele>5.8000001907349</ele>
        <time>2020-08-02T08:46:54.000Z</time>
      </trkpt>
      <trkpt lat="47.37857" lon="-2.36111">
        <ele>6.1999998092651</ele>
        <time>2020-08-02T08:46:55.000Z</time>
      </trkpt>
      <trkpt lat="47.37868" lon="-2.36117">
        <ele>6.1999998092651</ele>
        <time>2020-08-02T08:46:57.000Z</time>
      </trkpt>
      <trkpt lat="47.37887" lon="-2.36128">
        <ele>6.1999998092651</ele>
        <time>2020-08-02T08:47:02.000Z</time>
      </trkpt>
      <trkpt lat="47.37906" lon="-2.36122">
        <ele>6.1999998092651</ele>
        <time>2020-08-02T08:47:06.000Z</time>
      </trkpt>
      <trkpt lat="47.37941" lon="-2.36104">
        <ele>6.1999998092651</ele>
        <time>2020-08-02T08:47:12.000Z</time>
      </trkpt>
      <trkpt lat="47.3799" lon="-2.3608">
        <ele>6.1999998092651</ele>
        <time>2020-08-02T08:47:20.000Z</time>
      </trkpt>
      <trkpt lat="47.38002" lon="-2.36074">
        <ele>5.8000001907349</ele>
        <time>2020-08-02T08:47:22.000Z</time>
      </trkpt>
      <trkpt lat="47.38009" lon="-2.36073">
        <ele>5.4000000953674</ele>
        <time>2020-08-02T08:47:23.000Z</time>
      </trkpt>
      <trkpt lat="47.38016" lon="-2.36071">
        <ele>5</ele>
        <time>2020-08-02T08:47:24.000Z</time>
      </trkpt>
      <trkpt lat="47.38022" lon="-2.36069">
        <ele>4.1999998092651</ele>
        <time>2020-08-02T08:47:25.000Z</time>
      </trkpt>
      <trkpt lat="47.38029" lon="-2.36067">
        <ele>4.1999998092651</ele>
        <time>2020-08-02T08:47:26.000Z</time>
      </trkpt>
      <trkpt lat="47.38072" lon="-2.36052">
        <ele>4.1999998092651</ele>
        <time>2020-08-02T08:47:33.000Z</time>
      </trkpt>
      <trkpt lat="47.3812" lon="-2.36037">
        <ele>4.1999998092651</ele>
        <time>2020-08-02T08:47:41.000Z</time>
      </trkpt>
      <trkpt lat="47.38142" lon="-2.36023">
        <ele>4.1999998092651</ele>
        <time>2020-08-02T08:47:45.000Z</time>
      </trkpt>
      <trkpt lat="47.38153" lon="-2.36015">
        <ele>4.1999998092651</ele>
        <time>2020-08-02T08:47:47.000Z</time>
      </trkpt>
      <trkpt lat="47.38201" lon="-2.35981">
        <ele>3.7999999523163</ele>
        <time>2020-08-02T08:47:56.000Z</time>
      </trkpt>
      <trkpt lat="47.38207" lon="-2.35977">
        <ele>3.4000000953674</ele>
        <time>2020-08-02T08:47:57.000Z</time>
      </trkpt>
      <trkpt lat="47.38213" lon="-2.35974">
        <ele>3</ele>
        <time>2020-08-02T08:47:58.000Z</time>
      </trkpt>
      <trkpt lat="47.38218" lon="-2.35971">
        <ele>2.5999999046326</ele>
        <time>2020-08-02T08:47:59.000Z</time>
      </trkpt>
      <trkpt lat="47.38224" lon="-2.35967">
        <ele>2.2000000476837</ele>
        <time>2020-08-02T08:48:00.000Z</time>
      </trkpt>
      <trkpt lat="47.38246" lon="-2.35952">
        <ele>2.2000000476837</ele>
        <time>2020-08-02T08:48:04.000Z</time>
      </trkpt>
      <trkpt lat="47.38276" lon="-2.35932">
        <ele>2.2000000476837</ele>
        <time>2020-08-02T08:48:10.000Z</time>
      </trkpt>
      <trkpt lat="47.38288" lon="-2.35929">
        <ele>1.7999999523163</ele>
        <time>2020-08-02T08:48:13.000Z</time>
      </trkpt>
      <trkpt lat="47.38291" lon="-2.35932">
        <ele>1</ele>
        <time>2020-08-02T08:48:14.000Z</time>
      </trkpt>
      <trkpt lat="47.38294" lon="-2.35936">
        <ele>0.60000002384186</ele>
        <time>2020-08-02T08:48:15.000Z</time>
      </trkpt>
      <trkpt lat="47.38295" lon="-2.35941">
        <ele>0.20000000298023</ele>
        <time>2020-08-02T08:48:16.000Z</time>
      </trkpt>
      <trkpt lat="47.38297" lon="-2.35948">
        <ele>0.20000000298023</ele>
        <time>2020-08-02T08:48:17.000Z</time>
      </trkpt>
      <trkpt lat="47.38298" lon="-2.35954">
        <ele>0.20000000298023</ele>
        <time>2020-08-02T08:48:18.000Z</time>
      </trkpt>
      <trkpt lat="47.38306" lon="-2.35991">
        <ele>0.20000000298023</ele>
        <time>2020-08-02T08:48:24.000Z</time>
      </trkpt>
      <trkpt lat="47.3831" lon="-2.36009">
        <ele>0.20000000298023</ele>
        <time>2020-08-02T08:48:27.000Z</time>
      </trkpt>
      <trkpt lat="47.38313" lon="-2.3603">
        <ele>0.20000000298023</ele>
        <time>2020-08-02T08:48:30.000Z</time>
      </trkpt>
      <trkpt lat="47.38316" lon="-2.36044">
        <ele>0.20000000298023</ele>
        <time>2020-08-02T08:48:32.000Z</time>
      </trkpt>
      <trkpt lat="47.38323" lon="-2.36064">
        <ele>0.20000000298023</ele>
        <time>2020-08-02T08:48:35.000Z</time>
      </trkpt>
      <trkpt lat="47.38344" lon="-2.36114">
        <ele>0.20000000298023</ele>
        <time>2020-08-02T08:48:43.000Z</time>
      </trkpt>
      <trkpt lat="47.38354" lon="-2.36134">
        <ele>0.20000000298023</ele>
        <time>2020-08-02T08:48:47.000Z</time>
      </trkpt>
      <trkpt lat="47.38357" lon="-2.36145">
        <ele>0.20000000298023</ele>
        <time>2020-08-02T08:48:49.000Z</time>
      </trkpt>
      <trkpt lat="47.38368" lon="-2.36171">
        <ele>0.20000000298023</ele>
        <time>2020-08-02T08:48:54.000Z</time>
      </trkpt>
      <trkpt lat="47.38384" lon="-2.36181">
        <ele>0.20000000298023</ele>
        <time>2020-08-02T08:48:58.000Z</time>
      </trkpt>
      <trkpt lat="47.38397" lon="-2.36187">
        <ele>0.20000000298023</ele>
        <time>2020-08-02T08:49:01.000Z</time>
      </trkpt>
      <trkpt lat="47.38405" lon="-2.3619">
        <ele>0.20000000298023</ele>
        <time>2020-08-02T08:49:03.000Z</time>
      </trkpt>
      <trkpt lat="47.38412" lon="-2.36195">
        <ele>0.20000000298023</ele>
        <time>2020-08-02T08:49:07.000Z</time>
      </trkpt>
      <trkpt lat="47.3842" lon="-2.36198">
        <ele>0.20000000298023</ele>
        <time>2020-08-02T08:49:14.000Z</time>
      </trkpt>
      <trkpt lat="47.38422" lon="-2.36199">
        <ele>0.20000000298023</ele>
        <time>2020-08-02T08:49:15.000Z</time>
      </trkpt>
      <trkpt lat="47.38424" lon="-2.36205">
        <ele>0.20000000298023</ele>
        <time>2020-08-02T08:49:18.000Z</time>
      </trkpt>
      <trkpt lat="47.38421" lon="-2.36222">
        <ele>0.20000000298023</ele>
        <time>2020-08-02T08:49:25.000Z</time>
      </trkpt>
      <trkpt lat="47.38421" lon="-2.36225">
        <ele>0.20000000298023</ele>
        <time>2020-08-02T08:49:26.000Z</time>
      </trkpt>
      <trkpt lat="47.38426" lon="-2.36234">
        <ele>0.20000000298023</ele>
        <time>2020-08-02T08:49:29.000Z</time>
      </trkpt>
      <trkpt lat="47.3844" lon="-2.36247">
        <ele>0.20000000298023</ele>
        <time>2020-08-02T08:49:35.000Z</time>
      </trkpt>
      <trkpt lat="47.38455" lon="-2.36252">
        <ele>0.20000000298023</ele>
        <time>2020-08-02T08:49:39.000Z</time>
      </trkpt>
      <trkpt lat="47.38458" lon="-2.3625">
        <ele>0.20000000298023</ele>
        <time>2020-08-02T08:49:40.000Z</time>
      </trkpt>
      <trkpt lat="47.38465" lon="-2.36243">
        <ele>0.20000000298023</ele>
        <time>2020-08-02T08:49:42.000Z</time>
      </trkpt>
      <trkpt lat="47.38486" lon="-2.3624">
        <ele>0.20000000298023</ele>
        <time>2020-08-02T08:49:46.000Z</time>
      </trkpt>
      <trkpt lat="47.38502" lon="-2.36245">
        <ele>0.20000000298023</ele>
        <time>2020-08-02T08:49:49.000Z</time>
      </trkpt>
      <trkpt lat="47.38517" lon="-2.36251">
        <ele>0.20000000298023</ele>
        <time>2020-08-02T08:49:52.000Z</time>
      </trkpt>
      <trkpt lat="47.38542" lon="-2.36256">
        <ele>0.20000000298023</ele>
        <time>2020-08-02T08:49:57.000Z</time>
      </trkpt>
      <trkpt lat="47.38569" lon="-2.36255">
        <ele>0.20000000298023</ele>
        <time>2020-08-02T08:50:03.000Z</time>
      </trkpt>
      <trkpt lat="47.386" lon="-2.36261">
        <ele>0.20000000298023</ele>
        <time>2020-08-02T08:50:09.000Z</time>
      </trkpt>
      <trkpt lat="47.38614" lon="-2.36267">
        <ele>0.20000000298023</ele>
        <time>2020-08-02T08:50:12.000Z</time>
      </trkpt>
      <trkpt lat="47.38622" lon="-2.3628">
        <ele>0.20000000298023</ele>
        <time>2020-08-02T08:50:14.000Z</time>
      </trkpt>
      <trkpt lat="47.38625" lon="-2.36309">
        <ele>0.20000000298023</ele>
        <time>2020-08-02T08:50:18.000Z</time>
      </trkpt>
      <trkpt lat="47.38624" lon="-2.36323">
        <ele>0.20000000298023</ele>
        <time>2020-08-02T08:50:20.000Z</time>
      </trkpt>
      <trkpt lat="47.38616" lon="-2.3635">
        <ele>0.20000000298023</ele>
        <time>2020-08-02T08:50:24.000Z</time>
      </trkpt>
      <trkpt lat="47.38597" lon="-2.36401">
        <ele>0.20000000298023</ele>
        <time>2020-08-02T08:50:32.000Z</time>
      </trkpt>
      <trkpt lat="47.38594" lon="-2.36408">
        <ele>0.20000000298023</ele>
        <time>2020-08-02T08:50:33.000Z</time>
      </trkpt>
      <trkpt lat="47.38584" lon="-2.36426">
        <ele>0.20000000298023</ele>
        <time>2020-08-02T08:50:36.000Z</time>
      </trkpt>
      <trkpt lat="47.38562" lon="-2.3647">
        <ele>0.20000000298023</ele>
        <time>2020-08-02T08:50:43.000Z</time>
      </trkpt>
      <trkpt lat="47.38555" lon="-2.36483">
        <ele>0.20000000298023</ele>
        <time>2020-08-02T08:50:45.000Z</time>
      </trkpt>
      <trkpt lat="47.38545" lon="-2.36503">
        <ele>0.20000000298023</ele>
        <time>2020-08-02T08:50:48.000Z</time>
      </trkpt>
      <trkpt lat="47.38537" lon="-2.36515">
        <ele>0.20000000298023</ele>
        <time>2020-08-02T08:50:50.000Z</time>
      </trkpt>
      <trkpt lat="47.38528" lon="-2.36525">
        <ele>0.20000000298023</ele>
        <time>2020-08-02T08:50:52.000Z</time>
      </trkpt>
      <trkpt lat="47.38507" lon="-2.36548">
        <ele>0.20000000298023</ele>
        <time>2020-08-02T08:50:57.000Z</time>
      </trkpt>
      <trkpt lat="47.38502" lon="-2.36552">
        <ele>0.20000000298023</ele>
        <time>2020-08-02T08:50:58.000Z</time>
      </trkpt>
      <trkpt lat="47.38494" lon="-2.36557">
        <ele>0.20000000298023</ele>
        <time>2020-08-02T08:51:00.000Z</time>
      </trkpt>
      <trkpt lat="47.3848" lon="-2.36565">
        <ele>0.20000000298023</ele>
        <time>2020-08-02T08:51:03.000Z</time>
      </trkpt>
      <trkpt lat="47.38448" lon="-2.36583">
        <ele>0.20000000298023</ele>
        <time>2020-08-02T08:51:10.000Z</time>
      </trkpt>
      <trkpt lat="47.38435" lon="-2.36594">
        <ele>0.20000000298023</ele>
        <time>2020-08-02T08:51:13.000Z</time>
      </trkpt>
      <trkpt lat="47.38429" lon="-2.36603">
        <ele>0.20000000298023</ele>
        <time>2020-08-02T08:51:15.000Z</time>
      </trkpt>
      <trkpt lat="47.38412" lon="-2.36637">
        <ele>0.20000000298023</ele>
        <time>2020-08-02T08:51:21.000Z</time>
      </trkpt>
      <trkpt lat="47.38402" lon="-2.36668">
        <ele>0.20000000298023</ele>
        <time>2020-08-02T08:51:26.000Z</time>
      </trkpt>
      <trkpt lat="47.38391" lon="-2.36696">
        <ele>0.20000000298023</ele>
        <time>2020-08-02T08:51:31.000Z</time>
      </trkpt>
      <trkpt lat="47.38382" lon="-2.36727">
        <ele>0.20000000298023</ele>
        <time>2020-08-02T08:51:37.000Z</time>
      </trkpt>
      <trkpt lat="47.38379" lon="-2.36734">
        <ele>0.20000000298023</ele>
        <time>2020-08-02T08:51:38.000Z</time>
      </trkpt>
      <trkpt lat="47.38373" lon="-2.36753">
        <ele>0.20000000298023</ele>
        <time>2020-08-02T08:51:41.000Z</time>
      </trkpt>
      <trkpt lat="47.38367" lon="-2.36765">
        <ele>0.20000000298023</ele>
        <time>2020-08-02T08:51:43.000Z</time>
      </trkpt>
      <trkpt lat="47.38355" lon="-2.36776">
        <ele>0.20000000298023</ele>
        <time>2020-08-02T08:51:46.000Z</time>
      </trkpt>
      <trkpt lat="47.38345" lon="-2.3678">
        <ele>0.20000000298023</ele>
        <time>2020-08-02T08:51:48.000Z</time>
      </trkpt>
      <trkpt lat="47.38327" lon="-2.36788">
        <ele>0.20000000298023</ele>
        <time>2020-08-02T08:51:51.000Z</time>
      </trkpt>
      <trkpt lat="47.383" lon="-2.36795">
        <ele>0.20000000298023</ele>
        <time>2020-08-02T08:51:56.000Z</time>
      </trkpt>
      <trkpt lat="47.38272" lon="-2.36805">
        <ele>0.20000000298023</ele>
        <time>2020-08-02T08:52:01.000Z</time>
      </trkpt>
      <trkpt lat="47.3825" lon="-2.36819">
        <ele>0.20000000298023</ele>
        <time>2020-08-02T08:52:06.000Z</time>
      </trkpt>
      <trkpt lat="47.38228" lon="-2.36831">
        <ele>0.20000000298023</ele>
        <time>2020-08-02T08:52:12.000Z</time>
      </trkpt>
      <trkpt lat="47.38201" lon="-2.3685">
        <ele>0.20000000298023</ele>
        <time>2020-08-02T08:52:19.000Z</time>
      </trkpt>
      <trkpt lat="47.38198" lon="-2.36852">
        <ele>0.60000002384186</ele>
        <time>2020-08-02T08:52:20.000Z</time>
      </trkpt>
      <trkpt lat="47.38194" lon="-2.36854">
        <ele>1</ele>
        <time>2020-08-02T08:52:21.000Z</time>
      </trkpt>
      <trkpt lat="47.3819" lon="-2.36856">
        <ele>1.7999999523163</ele>
        <time>2020-08-02T08:52:22.000Z</time>
      </trkpt>
      <trkpt lat="47.38186" lon="-2.36858">
        <ele>2.2000000476837</ele>
        <time>2020-08-02T08:52:23.000Z</time>
      </trkpt>
      <trkpt lat="47.38162" lon="-2.36871">
        <ele>2.2000000476837</ele>
        <time>2020-08-02T08:52:29.000Z</time>
      </trkpt>
      <trkpt lat="47.38158" lon="-2.36873">
        <ele>2.5999999046326</ele>
        <time>2020-08-02T08:52:30.000Z</time>
      </trkpt>
      <trkpt lat="47.38154" lon="-2.36875">
        <ele>3</ele>
        <time>2020-08-02T08:52:31.000Z</time>
      </trkpt>
      <trkpt lat="47.3815" lon="-2.36878">
        <ele>3.4000000953674</ele>
        <time>2020-08-02T08:52:32.000Z</time>
      </trkpt>
      <trkpt lat="47.38146" lon="-2.36881">
        <ele>3.7999999523163</ele>
        <time>2020-08-02T08:52:33.000Z</time>
      </trkpt>
      <trkpt lat="47.38142" lon="-2.36883">
        <ele>4.1999998092651</ele>
        <time>2020-08-02T08:52:34.000Z</time>
      </trkpt>
      <trkpt lat="47.38135" lon="-2.36888">
        <ele>4.1999998092651</ele>
        <time>2020-08-02T08:52:36.000Z</time>
      </trkpt>
      <trkpt lat="47.38126" lon="-2.36894">
        <ele>4.1999998092651</ele>
        <time>2020-08-02T08:52:40.000Z</time>
      </trkpt>
      <trkpt lat="47.38117" lon="-2.36901">
        <ele>4.1999998092651</ele>
        <time>2020-08-02T08:52:44.000Z</time>
      </trkpt>
      <trkpt lat="47.38116" lon="-2.36904">
        <ele>4.1999998092651</ele>
        <time>2020-08-02T08:52:45.000Z</time>
      </trkpt>
      <trkpt lat="47.38119" lon="-2.36917">
        <ele>4.1999998092651</ele>
        <time>2020-08-02T08:52:48.000Z</time>
      </trkpt>
      <trkpt lat="47.3812" lon="-2.36922">
        <ele>4.1999998092651</ele>
        <time>2020-08-02T08:52:49.000Z</time>
      </trkpt>
      <trkpt lat="47.38125" lon="-2.36936">
        <ele>4.5999999046326</ele>
        <time>2020-08-02T08:52:52.000Z</time>
      </trkpt>
      <trkpt lat="47.38126" lon="-2.36941">
        <ele>5</ele>
        <time>2020-08-02T08:52:53.000Z</time>
      </trkpt>
      <trkpt lat="47.38128" lon="-2.36946">
        <ele>5.5999999046326</ele>
        <time>2020-08-02T08:52:54.000Z</time>
      </trkpt>
      <trkpt lat="47.3813" lon="-2.36951">
        <ele>6</ele>
        <time>2020-08-02T08:52:55.000Z</time>
      </trkpt>
      <trkpt lat="47.38132" lon="-2.36955">
        <ele>6.4000000953674</ele>
        <time>2020-08-02T08:52:56.000Z</time>
      </trkpt>
      <trkpt lat="47.3814" lon="-2.36982">
        <ele>6.4000000953674</ele>
        <time>2020-08-02T08:53:02.000Z</time>
      </trkpt>
      <trkpt lat="47.38146" lon="-2.37005">
        <ele>6.4000000953674</ele>
        <time>2020-08-02T08:53:07.000Z</time>
      </trkpt>
      <trkpt lat="47.3815" lon="-2.37015">
        <ele>6.4000000953674</ele>
        <time>2020-08-02T08:53:12.000Z</time>
      </trkpt>
      <trkpt lat="47.38151" lon="-2.37023">
        <ele>6.4000000953674</ele>
        <time>2020-08-02T08:53:17.000Z</time>
      </trkpt>
      <trkpt lat="47.38156" lon="-2.37035">
        <ele>6.4000000953674</ele>
        <time>2020-08-02T08:53:24.000Z</time>
      </trkpt>
      <trkpt lat="47.38165" lon="-2.37048">
        <ele>6.4000000953674</ele>
        <time>2020-08-02T08:53:30.000Z</time>
      </trkpt>
      <trkpt lat="47.38181" lon="-2.37079">
        <ele>6.4000000953674</ele>
        <time>2020-08-02T08:53:36.000Z</time>
      </trkpt>
      <trkpt lat="47.38185" lon="-2.37087">
        <ele>6</ele>
        <time>2020-08-02T08:53:37.000Z</time>
      </trkpt>
      <trkpt lat="47.38189" lon="-2.37094">
        <ele>5.5999999046326</ele>
        <time>2020-08-02T08:53:38.000Z</time>
      </trkpt>
      <trkpt lat="47.38193" lon="-2.37101">
        <ele>5.1999998092651</ele>
        <time>2020-08-02T08:53:39.000Z</time>
      </trkpt>
      <trkpt lat="47.38197" lon="-2.37108">
        <ele>4.8000001907349</ele>
        <time>2020-08-02T08:53:40.000Z</time>
      </trkpt>
      <trkpt lat="47.38201" lon="-2.37116">
        <ele>4.4000000953674</ele>
        <time>2020-08-02T08:53:41.000Z</time>
      </trkpt>
      <trkpt lat="47.38225" lon="-2.37161">
        <ele>3.7999999523163</ele>
        <time>2020-08-02T08:53:46.000Z</time>
      </trkpt>
      <trkpt lat="47.38229" lon="-2.37169">
        <ele>3.4000000953674</ele>
        <time>2020-08-02T08:53:47.000Z</time>
      </trkpt>
      <trkpt lat="47.38233" lon="-2.37178">
        <ele>2.7999999523163</ele>
        <time>2020-08-02T08:53:48.000Z</time>
      </trkpt>
      <trkpt lat="47.38236" lon="-2.37186">
        <ele>2.4000000953674</ele>
        <time>2020-08-02T08:53:49.000Z</time>
      </trkpt>
      <trkpt lat="47.38238" lon="-2.37194">
        <ele>2</ele>
        <time>2020-08-02T08:53:50.000Z</time>
      </trkpt>
      <trkpt lat="47.38246" lon="-2.37206">
        <ele>2</ele>
        <time>2020-08-02T08:53:53.000Z</time>
      </trkpt>
      <trkpt lat="47.38261" lon="-2.37211">
        <ele>2</ele>
        <time>2020-08-02T08:53:59.000Z</time>
      </trkpt>
      <trkpt lat="47.38263" lon="-2.37213">
        <ele>2</ele>
        <time>2020-08-02T08:54:00.000Z</time>
      </trkpt>
      <trkpt lat="47.38269" lon="-2.37218">
        <ele>2</ele>
        <time>2020-08-02T08:54:04.000Z</time>
      </trkpt>
      <trkpt lat="47.38285" lon="-2.37222">
        <ele>2</ele>
        <time>2020-08-02T08:54:10.000Z</time>
      </trkpt>
      <trkpt lat="47.38303" lon="-2.37232">
        <ele>2</ele>
        <time>2020-08-02T08:54:16.000Z</time>
      </trkpt>
      <trkpt lat="47.38318" lon="-2.37252">
        <ele>2</ele>
        <time>2020-08-02T08:54:20.000Z</time>
      </trkpt>
      <trkpt lat="47.38327" lon="-2.37268">
        <ele>2</ele>
        <time>2020-08-02T08:54:24.000Z</time>
      </trkpt>
      <trkpt lat="47.38331" lon="-2.37272">
        <ele>2</ele>
        <time>2020-08-02T08:54:26.000Z</time>
      </trkpt>
      <trkpt lat="47.38334" lon="-2.37283">
        <ele>2</ele>
        <time>2020-08-02T08:54:29.000Z</time>
      </trkpt>
      <trkpt lat="47.38335" lon="-2.37294">
        <ele>2</ele>
        <time>2020-08-02T08:54:32.000Z</time>
      </trkpt>
      <trkpt lat="47.38335" lon="-2.373">
        <ele>2</ele>
        <time>2020-08-02T08:54:34.000Z</time>
      </trkpt>
      <trkpt lat="47.38337" lon="-2.37315">
        <ele>2</ele>
        <time>2020-08-02T08:54:39.000Z</time>
      </trkpt>
      <trkpt lat="47.38338" lon="-2.37322">
        <ele>2</ele>
        <time>2020-08-02T08:54:41.000Z</time>
      </trkpt>
      <trkpt lat="47.38337" lon="-2.3733">
        <ele>2</ele>
        <time>2020-08-02T08:54:43.000Z</time>
      </trkpt>
      <trkpt lat="47.38337" lon="-2.37339">
        <ele>2</ele>
        <time>2020-08-02T08:54:46.000Z</time>
      </trkpt>
      <trkpt lat="47.38337" lon="-2.37344">
        <ele>2</ele>
        <time>2020-08-02T08:54:48.000Z</time>
      </trkpt>
      <trkpt lat="47.38338" lon="-2.37348">
        <ele>2</ele>
        <time>2020-08-02T08:54:50.000Z</time>
      </trkpt>
      <trkpt lat="47.38341" lon="-2.37363">
        <ele>2</ele>
        <time>2020-08-02T08:54:53.000Z</time>
      </trkpt>
      <trkpt lat="47.38351" lon="-2.37404">
        <ele>2</ele>
        <time>2020-08-02T08:55:00.000Z</time>
      </trkpt>
      <trkpt lat="47.38356" lon="-2.37441">
        <ele>2</ele>
        <time>2020-08-02T08:55:06.000Z</time>
      </trkpt>
      <trkpt lat="47.38362" lon="-2.37468">
        <ele>2</ele>
        <time>2020-08-02T08:55:11.000Z</time>
      </trkpt>
      <trkpt lat="47.38364" lon="-2.375">
        <ele>2</ele>
        <time>2020-08-02T08:55:17.000Z</time>
      </trkpt>
      <trkpt lat="47.38367" lon="-2.3754">
        <ele>2</ele>
        <time>2020-08-02T08:55:23.000Z</time>
      </trkpt>
      <trkpt lat="47.38365" lon="-2.37559">
        <ele>2</ele>
        <time>2020-08-02T08:55:25.000Z</time>
      </trkpt>
      <trkpt lat="47.3836" lon="-2.37565">
        <ele>2.4000000953674</ele>
        <time>2020-08-02T08:55:26.000Z</time>
      </trkpt>
      <trkpt lat="47.38356" lon="-2.3757">
        <ele>2.7999999523163</ele>
        <time>2020-08-02T08:55:27.000Z</time>
      </trkpt>
      <trkpt lat="47.38351" lon="-2.37574">
        <ele>3.2000000476837</ele>
        <time>2020-08-02T08:55:28.000Z</time>
      </trkpt>
      <trkpt lat="47.38346" lon="-2.37577">
        <ele>3.5999999046326</ele>
        <time>2020-08-02T08:55:29.000Z</time>
      </trkpt>
      <trkpt lat="47.38341" lon="-2.3758">
        <ele>4</ele>
        <time>2020-08-02T08:55:30.000Z</time>
      </trkpt>
      <trkpt lat="47.38336" lon="-2.37585">
        <ele>4</ele>
        <time>2020-08-02T08:55:31.000Z</time>
      </trkpt>
      <trkpt lat="47.3833" lon="-2.37588">
        <ele>4</ele>
        <time>2020-08-02T08:55:32.000Z</time>
      </trkpt>
      <trkpt lat="47.38303" lon="-2.37603">
        <ele>4</ele>
        <time>2020-08-02T08:55:38.000Z</time>
      </trkpt>
      <trkpt lat="47.3828" lon="-2.37616">
        <ele>4</ele>
        <time>2020-08-02T08:55:43.000Z</time>
      </trkpt>
      <trkpt lat="47.38264" lon="-2.37623">
        <ele>4</ele>
        <time>2020-08-02T08:55:47.000Z</time>
      </trkpt>
      <trkpt lat="47.38261" lon="-2.37623">
        <ele>4</ele>
        <time>2020-08-02T08:55:48.000Z</time>
      </trkpt>
      <trkpt lat="47.38253" lon="-2.37626">
        <ele>4.4000000953674</ele>
        <time>2020-08-02T08:55:50.000Z</time>
      </trkpt>
      <trkpt lat="47.3825" lon="-2.37627">
        <ele>4.8000001907349</ele>
        <time>2020-08-02T08:55:51.000Z</time>
      </trkpt>
      <trkpt lat="47.38247" lon="-2.37628">
        <ele>5.1999998092651</ele>
        <time>2020-08-02T08:55:52.000Z</time>
      </trkpt>
      <trkpt lat="47.38244" lon="-2.3763">
        <ele>5.5999999046326</ele>
        <time>2020-08-02T08:55:53.000Z</time>
      </trkpt>
      <trkpt lat="47.38241" lon="-2.37632">
        <ele>6</ele>
        <time>2020-08-02T08:55:54.000Z</time>
      </trkpt>
      <trkpt lat="47.38229" lon="-2.3764">
        <ele>6</ele>
        <time>2020-08-02T08:55:58.000Z</time>
      </trkpt>
      <trkpt lat="47.38206" lon="-2.37659">
        <ele>6</ele>
        <time>2020-08-02T08:56:05.000Z</time>
      </trkpt>
      <trkpt lat="47.38202" lon="-2.37662">
        <ele>6</ele>
        <time>2020-08-02T08:56:06.000Z</time>
      </trkpt>
      <trkpt lat="47.3819" lon="-2.37672">
        <ele>6.4000000953674</ele>
        <time>2020-08-02T08:56:09.000Z</time>
      </trkpt>
      <trkpt lat="47.38186" lon="-2.37676">
        <ele>6.8000001907349</ele>
        <time>2020-08-02T08:56:10.000Z</time>
      </trkpt>
      <trkpt lat="47.38182" lon="-2.37679">
        <ele>7.1999998092651</ele>
        <time>2020-08-02T08:56:11.000Z</time>
      </trkpt>
      <trkpt lat="47.38178" lon="-2.37682">
        <ele>7.8000001907349</ele>
        <time>2020-08-02T08:56:12.000Z</time>
      </trkpt>
      <trkpt lat="47.38173" lon="-2.37685">
        <ele>8.1999998092651</ele>
        <time>2020-08-02T08:56:13.000Z</time>
      </trkpt>
      <trkpt lat="47.38152" lon="-2.377">
        <ele>8.1999998092651</ele>
        <time>2020-08-02T08:56:18.000Z</time>
      </trkpt>
      <trkpt lat="47.38116" lon="-2.37733">
        <ele>8.6000003814697</ele>
        <time>2020-08-02T08:56:26.000Z</time>
      </trkpt>
      <trkpt lat="47.38111" lon="-2.37737">
        <ele>9</ele>
        <time>2020-08-02T08:56:27.000Z</time>
      </trkpt>
      <trkpt lat="47.38107" lon="-2.3774">
        <ele>9.3999996185303</ele>
        <time>2020-08-02T08:56:28.000Z</time>
      </trkpt>
      <trkpt lat="47.38103" lon="-2.37744">
        <ele>10.199999809265</ele>
        <time>2020-08-02T08:56:29.000Z</time>
      </trkpt>
      <trkpt lat="47.3808" lon="-2.37764">
        <ele>10.199999809265</ele>
        <time>2020-08-02T08:56:35.000Z</time>
      </trkpt>
      <trkpt lat="47.38067" lon="-2.37775">
        <ele>10.199999809265</ele>
        <time>2020-08-02T08:56:39.000Z</time>
      </trkpt>
      <trkpt lat="47.38059" lon="-2.37782">
        <ele>10.60000038147</ele>
        <time>2020-08-02T08:56:42.000Z</time>
      </trkpt>
      <trkpt lat="47.38056" lon="-2.37784">
        <ele>11</ele>
        <time>2020-08-02T08:56:43.000Z</time>
      </trkpt>
      <trkpt lat="47.38055" lon="-2.37785">
        <ele>11.39999961853</ele>
        <time>2020-08-02T08:56:44.000Z</time>
      </trkpt>
      <trkpt lat="47.38053" lon="-2.37787">
        <ele>11.800000190735</ele>
        <time>2020-08-02T08:56:45.000Z</time>
      </trkpt>
      <trkpt lat="47.38052" lon="-2.37788">
        <ele>12.199999809265</ele>
        <time>2020-08-02T08:56:46.000Z</time>
      </trkpt>
      <trkpt lat="47.3805" lon="-2.37792">
        <ele>12.199999809265</ele>
        <time>2020-08-02T08:56:49.000Z</time>
      </trkpt>
      <trkpt lat="47.38057" lon="-2.37781">
        <ele>12.199999809265</ele>
        <time>2020-08-02T09:01:44.000Z</time>
      </trkpt>
      <trkpt lat="47.38072" lon="-2.3777">
        <ele>12.199999809265</ele>
        <time>2020-08-02T09:01:52.000Z</time>
      </trkpt>
      <trkpt lat="47.3809" lon="-2.37755">
        <ele>12.199999809265</ele>
        <time>2020-08-02T09:01:57.000Z</time>
      </trkpt>
      <trkpt lat="47.38107" lon="-2.37739">
        <ele>12.199999809265</ele>
        <time>2020-08-02T09:02:02.000Z</time>
      </trkpt>
      <trkpt lat="47.38111" lon="-2.37736">
        <ele>12.199999809265</ele>
        <time>2020-08-02T09:02:03.000Z</time>
      </trkpt>
      <trkpt lat="47.38134" lon="-2.37719">
        <ele>12.199999809265</ele>
        <time>2020-08-02T09:02:08.000Z</time>
      </trkpt>
      <trkpt lat="47.38152" lon="-2.37704">
        <ele>12.199999809265</ele>
        <time>2020-08-02T09:02:13.000Z</time>
      </trkpt>
      <trkpt lat="47.38157" lon="-2.37701">
        <ele>12.199999809265</ele>
        <time>2020-08-02T09:02:17.000Z</time>
      </trkpt>
      <trkpt lat="47.38157" lon="-2.37701">
        <ele>12.199999809265</ele>
        <time>2020-08-02T09:02:18.000Z</time>
      </trkpt>
      <trkpt lat="47.3815" lon="-2.37706">
        <ele>12.199999809265</ele>
        <time>2020-08-02T09:03:43.000Z</time>
      </trkpt>
      <trkpt lat="47.38145" lon="-2.37711">
        <ele>12.199999809265</ele>
        <time>2020-08-02T09:03:45.000Z</time>
      </trkpt>
      <trkpt lat="47.38126" lon="-2.37729">
        <ele>12.199999809265</ele>
        <time>2020-08-02T09:03:50.000Z</time>
      </trkpt>
      <trkpt lat="47.38098" lon="-2.37751">
        <ele>12.199999809265</ele>
        <time>2020-08-02T09:03:57.000Z</time>
      </trkpt>
      <trkpt lat="47.38076" lon="-2.37771">
        <ele>12.199999809265</ele>
        <time>2020-08-02T09:04:04.000Z</time>
      </trkpt>
      <trkpt lat="47.3807" lon="-2.37777">
        <ele>12.60000038147</ele>
        <time>2020-08-02T09:04:06.000Z</time>
      </trkpt>
      <trkpt lat="47.38067" lon="-2.3778">
        <ele>13</ele>
        <time>2020-08-02T09:04:07.000Z</time>
      </trkpt>
      <trkpt lat="47.38063" lon="-2.37784">
        <ele>13.39999961853</ele>
        <time>2020-08-02T09:04:08.000Z</time>
      </trkpt>
      <trkpt lat="47.38059" lon="-2.37787">
        <ele>13.800000190735</ele>
        <time>2020-08-02T09:04:09.000Z</time>
      </trkpt>
      <trkpt lat="47.38055" lon="-2.37789">
        <ele>14.199999809265</ele>
        <time>2020-08-02T09:04:10.000Z</time>
      </trkpt>
      <trkpt lat="47.38032" lon="-2.37808">
        <ele>14.199999809265</ele>
        <time>2020-08-02T09:04:15.000Z</time>
      </trkpt>
      <trkpt lat="47.38028" lon="-2.37811">
        <ele>14.199999809265</ele>
        <time>2020-08-02T09:04:16.000Z</time>
      </trkpt>
      <trkpt lat="47.37999" lon="-2.37832">
        <ele>14.199999809265</ele>
        <time>2020-08-02T09:04:22.000Z</time>
      </trkpt>
      <trkpt lat="47.37994" lon="-2.37835">
        <ele>14.800000190735</ele>
        <time>2020-08-02T09:04:23.000Z</time>
      </trkpt>
      <trkpt lat="47.3799" lon="-2.37839">
        <ele>15.199999809265</ele>
        <time>2020-08-02T09:04:24.000Z</time>
      </trkpt>
      <trkpt lat="47.37985" lon="-2.37841">
        <ele>15.60000038147</ele>
        <time>2020-08-02T09:04:25.000Z</time>
      </trkpt>
      <trkpt lat="47.3798" lon="-2.37845">
        <ele>16</ele>
        <time>2020-08-02T09:04:26.000Z</time>
      </trkpt>
      <trkpt lat="47.37975" lon="-2.37849">
        <ele>16.39999961853</ele>
        <time>2020-08-02T09:04:27.000Z</time>
      </trkpt>
      <trkpt lat="47.3797" lon="-2.37853">
        <ele>16.39999961853</ele>
        <time>2020-08-02T09:04:28.000Z</time>
      </trkpt>
      <trkpt lat="47.37934" lon="-2.37883">
        <ele>16.39999961853</ele>
        <time>2020-08-02T09:04:35.000Z</time>
      </trkpt>
      <trkpt lat="47.37903" lon="-2.37904">
        <ele>16.39999961853</ele>
        <time>2020-08-02T09:04:41.000Z</time>
      </trkpt>
      <trkpt lat="47.37869" lon="-2.37928">
        <ele>16.39999961853</ele>
        <time>2020-08-02T09:04:47.000Z</time>
      </trkpt>
      <trkpt lat="47.37832" lon="-2.37954">
        <ele>16.39999961853</ele>
        <time>2020-08-02T09:04:54.000Z</time>
      </trkpt>
      <trkpt lat="47.37797" lon="-2.37979">
        <ele>16.39999961853</ele>
        <time>2020-08-02T09:05:01.000Z</time>
      </trkpt>
      <trkpt lat="47.37766" lon="-2.37999">
        <ele>16.39999961853</ele>
        <time>2020-08-02T09:05:07.000Z</time>
      </trkpt>
      <trkpt lat="47.37762" lon="-2.38003">
        <ele>16.39999961853</ele>
        <time>2020-08-02T09:05:08.000Z</time>
      </trkpt>
      <trkpt lat="47.37722" lon="-2.38029">
        <ele>16.39999961853</ele>
        <time>2020-08-02T09:05:16.000Z</time>
      </trkpt>
      <trkpt lat="47.37713" lon="-2.38037">
        <ele>16.39999961853</ele>
        <time>2020-08-02T09:05:20.000Z</time>
      </trkpt>
      <trkpt lat="47.37711" lon="-2.3804">
        <ele>16</ele>
        <time>2020-08-02T09:05:24.000Z</time>
      </trkpt>
      <trkpt lat="47.37709" lon="-2.38042">
        <ele>14.39999961853</ele>
        <time>2020-08-02T09:05:38.000Z</time>
      </trkpt>
      <trkpt lat="47.37698" lon="-2.38056">
        <ele>14.39999961853</ele>
        <time>2020-08-02T09:05:43.000Z</time>
      </trkpt>
      <trkpt lat="47.3769" lon="-2.38066">
        <ele>14.39999961853</ele>
        <time>2020-08-02T09:05:45.000Z</time>
      </trkpt>
      <trkpt lat="47.37676" lon="-2.38081">
        <ele>14.39999961853</ele>
        <time>2020-08-02T09:05:48.000Z</time>
      </trkpt>
      <trkpt lat="47.37646" lon="-2.38105">
        <ele>14.39999961853</ele>
        <time>2020-08-02T09:05:53.000Z</time>
      </trkpt>
      <trkpt lat="47.37611" lon="-2.38128">
        <ele>14</ele>
        <time>2020-08-02T09:05:59.000Z</time>
      </trkpt>
      <trkpt lat="47.37605" lon="-2.38131">
        <ele>13.60000038147</ele>
        <time>2020-08-02T09:06:00.000Z</time>
      </trkpt>
      <trkpt lat="47.37599" lon="-2.38135">
        <ele>13.199999809265</ele>
        <time>2020-08-02T09:06:01.000Z</time>
      </trkpt>
      <trkpt lat="47.37594" lon="-2.38138">
        <ele>12.800000190735</ele>
        <time>2020-08-02T09:06:02.000Z</time>
      </trkpt>
      <trkpt lat="47.37588" lon="-2.38141">
        <ele>12.39999961853</ele>
        <time>2020-08-02T09:06:03.000Z</time>
      </trkpt>
      <trkpt lat="47.37572" lon="-2.38151">
        <ele>12.39999961853</ele>
        <time>2020-08-02T09:06:06.000Z</time>
      </trkpt>
      <trkpt lat="47.37544" lon="-2.38167">
        <ele>12.39999961853</ele>
        <time>2020-08-02T09:06:12.000Z</time>
      </trkpt>
      <trkpt lat="47.37506" lon="-2.38191">
        <ele>12.39999961853</ele>
        <time>2020-08-02T09:06:20.000Z</time>
      </trkpt>
      <trkpt lat="47.37469" lon="-2.38216">
        <ele>12.39999961853</ele>
        <time>2020-08-02T09:06:27.000Z</time>
      </trkpt>
      <trkpt lat="47.37432" lon="-2.38237">
        <ele>12.39999961853</ele>
        <time>2020-08-02T09:06:34.000Z</time>
      </trkpt>
      <trkpt lat="47.37401" lon="-2.38255">
        <ele>12.39999961853</ele>
        <time>2020-08-02T09:06:40.000Z</time>
      </trkpt>
      <trkpt lat="47.37366" lon="-2.38277">
        <ele>12.39999961853</ele>
        <time>2020-08-02T09:06:47.000Z</time>
      </trkpt>
      <trkpt lat="47.37339" lon="-2.38292">
        <ele>12.39999961853</ele>
        <time>2020-08-02T09:06:53.000Z</time>
      </trkpt>
      <trkpt lat="47.37311" lon="-2.38308">
        <ele>12.39999961853</ele>
        <time>2020-08-02T09:06:58.000Z</time>
      </trkpt>
      <trkpt lat="47.37275" lon="-2.38329">
        <ele>12.39999961853</ele>
        <time>2020-08-02T09:07:05.000Z</time>
      </trkpt>
      <trkpt lat="47.37234" lon="-2.38349">
        <ele>12.39999961853</ele>
        <time>2020-08-02T09:07:12.000Z</time>
      </trkpt>
      <trkpt lat="47.37194" lon="-2.38352">
        <ele>12.39999961853</ele>
        <time>2020-08-02T09:07:18.000Z</time>
      </trkpt>
      <trkpt lat="47.37155" lon="-2.3836">
        <ele>12.39999961853</ele>
        <time>2020-08-02T09:07:24.000Z</time>
      </trkpt>
      <trkpt lat="47.37149" lon="-2.38362">
        <ele>12.39999961853</ele>
        <time>2020-08-02T09:07:25.000Z</time>
      </trkpt>
      <trkpt lat="47.37124" lon="-2.38372">
        <ele>12</ele>
        <time>2020-08-02T09:07:29.000Z</time>
      </trkpt>
      <trkpt lat="47.37117" lon="-2.38376">
        <ele>11.60000038147</ele>
        <time>2020-08-02T09:07:30.000Z</time>
      </trkpt>
      <trkpt lat="47.3711" lon="-2.38379">
        <ele>11.199999809265</ele>
        <time>2020-08-02T09:07:31.000Z</time>
      </trkpt>
      <trkpt lat="47.37103" lon="-2.38383">
        <ele>10.800000190735</ele>
        <time>2020-08-02T09:07:32.000Z</time>
      </trkpt>
      <trkpt lat="47.37097" lon="-2.38388">
        <ele>10.39999961853</ele>
        <time>2020-08-02T09:07:33.000Z</time>
      </trkpt>
      <trkpt lat="47.37086" lon="-2.384">
        <ele>10.39999961853</ele>
        <time>2020-08-02T09:07:35.000Z</time>
      </trkpt>
      <trkpt lat="47.37073" lon="-2.38425">
        <ele>10.39999961853</ele>
        <time>2020-08-02T09:07:38.000Z</time>
      </trkpt>
      <trkpt lat="47.37069" lon="-2.38432">
        <ele>10.39999961853</ele>
        <time>2020-08-02T09:07:39.000Z</time>
      </trkpt>
      <trkpt lat="47.37067" lon="-2.38437">
        <ele>10</ele>
        <time>2020-08-02T09:07:40.000Z</time>
      </trkpt>
      <trkpt lat="47.37064" lon="-2.38441">
        <ele>9.3999996185303</ele>
        <time>2020-08-02T09:07:41.000Z</time>
      </trkpt>
      <trkpt lat="47.37063" lon="-2.38444">
        <ele>9</ele>
        <time>2020-08-02T09:07:42.000Z</time>
      </trkpt>
      <trkpt lat="47.37061" lon="-2.38447">
        <ele>8.6000003814697</ele>
        <time>2020-08-02T09:07:43.000Z</time>
      </trkpt>
      <trkpt lat="47.37059" lon="-2.3845">
        <ele>8.1999998092651</ele>
        <time>2020-08-02T09:07:44.000Z</time>
      </trkpt>
      <trkpt lat="47.37044" lon="-2.38453">
        <ele>8.1999998092651</ele>
        <time>2020-08-02T09:07:49.000Z</time>
      </trkpt>
      <trkpt lat="47.37034" lon="-2.38449">
        <ele>8.1999998092651</ele>
        <time>2020-08-02T09:07:51.000Z</time>
      </trkpt>
      <trkpt lat="47.3702" lon="-2.38439">
        <ele>8.1999998092651</ele>
        <time>2020-08-02T09:07:54.000Z</time>
      </trkpt>
      <trkpt lat="47.36988" lon="-2.38423">
        <ele>8.1999998092651</ele>
        <time>2020-08-02T09:08:00.000Z</time>
      </trkpt>
      <trkpt lat="47.36969" lon="-2.38418">
        <ele>8.1999998092651</ele>
        <time>2020-08-02T09:08:03.000Z</time>
      </trkpt>
      <trkpt lat="47.36956" lon="-2.38418">
        <ele>8.1999998092651</ele>
        <time>2020-08-02T09:08:05.000Z</time>
      </trkpt>
      <trkpt lat="47.3692" lon="-2.38417">
        <ele>8.1999998092651</ele>
        <time>2020-08-02T09:08:11.000Z</time>
      </trkpt>
      <trkpt lat="47.36909" lon="-2.38416">
        <ele>8.1999998092651</ele>
        <time>2020-08-02T09:08:13.000Z</time>
      </trkpt>
      <trkpt lat="47.36893" lon="-2.38411">
        <ele>8.1999998092651</ele>
        <time>2020-08-02T09:08:16.000Z</time>
      </trkpt>
      <trkpt lat="47.36881" lon="-2.38404">
        <ele>8.1999998092651</ele>
        <time>2020-08-02T09:08:18.000Z</time>
      </trkpt>
      <trkpt lat="47.36847" lon="-2.38376">
        <ele>8.1999998092651</ele>
        <time>2020-08-02T09:08:24.000Z</time>
      </trkpt>
      <trkpt lat="47.36807" lon="-2.38344">
        <ele>8.1999998092651</ele>
        <time>2020-08-02T09:08:31.000Z</time>
      </trkpt>
      <trkpt lat="47.36761" lon="-2.38308">
        <ele>8.1999998092651</ele>
        <time>2020-08-02T09:08:40.000Z</time>
      </trkpt>
      <trkpt lat="47.36738" lon="-2.38291">
        <ele>8.6000003814697</ele>
        <time>2020-08-02T09:08:45.000Z</time>
      </trkpt>
      <trkpt lat="47.36734" lon="-2.38287">
        <ele>9</ele>
        <time>2020-08-02T09:08:46.000Z</time>
      </trkpt>
      <trkpt lat="47.3673" lon="-2.38284">
        <ele>9.3999996185303</ele>
        <time>2020-08-02T09:08:47.000Z</time>
      </trkpt>
      <trkpt lat="47.36726" lon="-2.3828">
        <ele>9.8000001907349</ele>
        <time>2020-08-02T09:08:48.000Z</time>
      </trkpt>
      <trkpt lat="47.36722" lon="-2.38275">
        <ele>10.199999809265</ele>
        <time>2020-08-02T09:08:49.000Z</time>
      </trkpt>
      <trkpt lat="47.36708" lon="-2.38255">
        <ele>10.60000038147</ele>
        <time>2020-08-02T09:08:53.000Z</time>
      </trkpt>
      <trkpt lat="47.36704" lon="-2.38249">
        <ele>11</ele>
        <time>2020-08-02T09:08:54.000Z</time>
      </trkpt>
      <trkpt lat="47.36701" lon="-2.38243">
        <ele>11.39999961853</ele>
        <time>2020-08-02T09:08:55.000Z</time>
      </trkpt>
      <trkpt lat="47.36698" lon="-2.38237">
        <ele>12</ele>
        <time>2020-08-02T09:08:56.000Z</time>
      </trkpt>
      <trkpt lat="47.36694" lon="-2.38231">
        <ele>12.39999961853</ele>
        <time>2020-08-02T09:08:57.000Z</time>
      </trkpt>
      <trkpt lat="47.36683" lon="-2.38212">
        <ele>12.39999961853</ele>
        <time>2020-08-02T09:09:00.000Z</time>
      </trkpt>
      <trkpt lat="47.36657" lon="-2.3817">
        <ele>12.39999961853</ele>
        <time>2020-08-02T09:09:06.000Z</time>
      </trkpt>
      <trkpt lat="47.36626" lon="-2.38119">
        <ele>12.39999961853</ele>
        <time>2020-08-02T09:09:13.000Z</time>
      </trkpt>
      <trkpt lat="47.36607" lon="-2.3808">
        <ele>12.39999961853</ele>
        <time>2020-08-02T09:09:18.000Z</time>
      </trkpt>
      <trkpt lat="47.36605" lon="-2.38071">
        <ele>12.39999961853</ele>
        <time>2020-08-02T09:09:19.000Z</time>
      </trkpt>
      <trkpt lat="47.36604" lon="-2.38029">
        <ele>12</ele>
        <time>2020-08-02T09:09:23.000Z</time>
      </trkpt>
      <trkpt lat="47.36604" lon="-2.38018">
        <ele>11.39999961853</ele>
        <time>2020-08-02T09:09:24.000Z</time>
      </trkpt>
      <trkpt lat="47.36603" lon="-2.38006">
        <ele>11</ele>
        <time>2020-08-02T09:09:25.000Z</time>
      </trkpt>
      <trkpt lat="47.36601" lon="-2.37995">
        <ele>10.60000038147</ele>
        <time>2020-08-02T09:09:26.000Z</time>
      </trkpt>
      <trkpt lat="47.36598" lon="-2.37984">
        <ele>10.199999809265</ele>
        <time>2020-08-02T09:09:27.000Z</time>
      </trkpt>
      <trkpt lat="47.36587" lon="-2.37957">
        <ele>10.199999809265</ele>
        <time>2020-08-02T09:09:30.000Z</time>
      </trkpt>
      <trkpt lat="47.36583" lon="-2.37949">
        <ele>10.199999809265</ele>
        <time>2020-08-02T09:09:31.000Z</time>
      </trkpt>
      <trkpt lat="47.36568" lon="-2.37897">
        <ele>10.199999809265</ele>
        <time>2020-08-02T09:09:37.000Z</time>
      </trkpt>
      <trkpt lat="47.36552" lon="-2.37828">
        <ele>10.199999809265</ele>
        <time>2020-08-02T09:09:45.000Z</time>
      </trkpt>
      <trkpt lat="47.36539" lon="-2.37792">
        <ele>10.199999809265</ele>
        <time>2020-08-02T09:09:49.000Z</time>
      </trkpt>
      <trkpt lat="47.36531" lon="-2.37777">
        <ele>10.199999809265</ele>
        <time>2020-08-02T09:09:51.000Z</time>
      </trkpt>
      <trkpt lat="47.36526" lon="-2.3777">
        <ele>10.199999809265</ele>
        <time>2020-08-02T09:09:52.000Z</time>
      </trkpt>
      <trkpt lat="47.36504" lon="-2.37749">
        <ele>10.199999809265</ele>
        <time>2020-08-02T09:09:56.000Z</time>
      </trkpt>
      <trkpt lat="47.36489" lon="-2.3773">
        <ele>10.199999809265</ele>
        <time>2020-08-02T09:09:59.000Z</time>
      </trkpt>
      <trkpt lat="47.36481" lon="-2.37715">
        <ele>10.199999809265</ele>
        <time>2020-08-02T09:10:01.000Z</time>
      </trkpt>
      <trkpt lat="47.36456" lon="-2.37654">
        <ele>10.199999809265</ele>
        <time>2020-08-02T09:10:08.000Z</time>
      </trkpt>
      <trkpt lat="47.36442" lon="-2.37628">
        <ele>10.199999809265</ele>
        <time>2020-08-02T09:10:11.000Z</time>
      </trkpt>
      <trkpt lat="47.36428" lon="-2.37619">
        <ele>10.199999809265</ele>
        <time>2020-08-02T09:10:13.000Z</time>
      </trkpt>
      <trkpt lat="47.36399" lon="-2.37611">
        <ele>10.199999809265</ele>
        <time>2020-08-02T09:10:17.000Z</time>
      </trkpt>
      <trkpt lat="47.36352" lon="-2.37596">
        <ele>10.199999809265</ele>
        <time>2020-08-02T09:10:23.000Z</time>
      </trkpt>
      <trkpt lat="47.36332" lon="-2.37574">
        <ele>10.199999809265</ele>
        <time>2020-08-02T09:10:26.000Z</time>
      </trkpt>
      <trkpt lat="47.36326" lon="-2.37567">
        <ele>10.199999809265</ele>
        <time>2020-08-02T09:10:27.000Z</time>
      </trkpt>
      <trkpt lat="47.36308" lon="-2.37545">
        <ele>9.8000001907349</ele>
        <time>2020-08-02T09:10:30.000Z</time>
      </trkpt>
      <trkpt lat="47.36301" lon="-2.37539">
        <ele>9</ele>
        <time>2020-08-02T09:10:31.000Z</time>
      </trkpt>
      <trkpt lat="47.36295" lon="-2.37533">
        <ele>8.6000003814697</ele>
        <time>2020-08-02T09:10:32.000Z</time>
      </trkpt>
      <trkpt lat="47.36288" lon="-2.37527">
        <ele>8.1999998092651</ele>
        <time>2020-08-02T09:10:33.000Z</time>
      </trkpt>
      <trkpt lat="47.36244" lon="-2.37488">
        <ele>8.1999998092651</ele>
        <time>2020-08-02T09:10:40.000Z</time>
      </trkpt>
      <trkpt lat="47.36228" lon="-2.37475">
        <ele>8.1999998092651</ele>
        <time>2020-08-02T09:10:43.000Z</time>
      </trkpt>
      <trkpt lat="47.36209" lon="-2.37465">
        <ele>8.1999998092651</ele>
        <time>2020-08-02T09:10:46.000Z</time>
      </trkpt>
      <trkpt lat="47.36167" lon="-2.37449">
        <ele>8.1999998092651</ele>
        <time>2020-08-02T09:10:53.000Z</time>
      </trkpt>
      <trkpt lat="47.36128" lon="-2.37435">
        <ele>8.1999998092651</ele>
        <time>2020-08-02T09:11:00.000Z</time>
      </trkpt>
      <trkpt lat="47.36113" lon="-2.37428">
        <ele>8.1999998092651</ele>
        <time>2020-08-02T09:11:03.000Z</time>
      </trkpt>
      <trkpt lat="47.36106" lon="-2.3742">
        <ele>8.1999998092651</ele>
        <time>2020-08-02T09:11:05.000Z</time>
      </trkpt>
      <trkpt lat="47.36101" lon="-2.37412">
        <ele>8.1999998092651</ele>
        <time>2020-08-02T09:11:07.000Z</time>
      </trkpt>
      <trkpt lat="47.36094" lon="-2.37405">
        <ele>8.1999998092651</ele>
        <time>2020-08-02T09:11:09.000Z</time>
      </trkpt>
      <trkpt lat="47.36086" lon="-2.37401">
        <ele>8.1999998092651</ele>
        <time>2020-08-02T09:11:11.000Z</time>
      </trkpt>
      <trkpt lat="47.36057" lon="-2.37389">
        <ele>8.1999998092651</ele>
        <time>2020-08-02T09:11:19.000Z</time>
      </trkpt>
      <trkpt lat="47.36051" lon="-2.37395">
        <ele>8.1999998092651</ele>
        <time>2020-08-02T09:11:23.000Z</time>
      </trkpt>
      <trkpt lat="47.3605" lon="-2.37397">
        <ele>7</ele>
        <time>2020-08-02T09:11:26.000Z</time>
      </trkpt>
      <trkpt lat="47.36049" lon="-2.37397">
        <ele>6.5999999046326</ele>
        <time>2020-08-02T09:11:27.000Z</time>
      </trkpt>
      <trkpt lat="47.36048" lon="-2.37398">
        <ele>6.1999998092651</ele>
        <time>2020-08-02T09:11:28.000Z</time>
      </trkpt>
      <trkpt lat="47.36047" lon="-2.374">
        <ele>7.4000000953674</ele>
        <time>2020-08-02T09:11:29.000Z</time>
      </trkpt>
      <trkpt lat="47.36046" lon="-2.37401">
        <ele>7.5999999046326</ele>
        <time>2020-08-02T09:11:30.000Z</time>
      </trkpt>
      <trkpt lat="47.36044" lon="-2.37402">
        <ele>7.8000001907349</ele>
        <time>2020-08-02T09:11:31.000Z</time>
      </trkpt>
      <trkpt lat="47.36041" lon="-2.37403">
        <ele>8.1999998092651</ele>
        <time>2020-08-02T09:11:32.000Z</time>
      </trkpt>
      <trkpt lat="47.36038" lon="-2.37404">
        <ele>8.3999996185303</ele>
        <time>2020-08-02T09:11:33.000Z</time>
      </trkpt>
      <trkpt lat="47.36034" lon="-2.37405">
        <ele>8.8000001907349</ele>
        <time>2020-08-02T09:11:34.000Z</time>
      </trkpt>
      <trkpt lat="47.36025" lon="-2.37418">
        <ele>8.8000001907349</ele>
        <time>2020-08-02T09:11:38.000Z</time>
      </trkpt>
      <trkpt lat="47.36023" lon="-2.37423">
        <ele>8.8000001907349</ele>
        <time>2020-08-02T09:11:42.000Z</time>
      </trkpt>
      <trkpt lat="47.36019" lon="-2.37436">
        <ele>8.8000001907349</ele>
        <time>2020-08-02T09:11:55.000Z</time>
      </trkpt>
      <trkpt lat="47.36017" lon="-2.37434">
        <ele>8.8000001907349</ele>
        <time>2020-08-02T09:11:57.000Z</time>
      </trkpt>
      <trkpt lat="47.36013" lon="-2.37426">
        <ele>8.8000001907349</ele>
        <time>2020-08-02T09:12:00.000Z</time>
      </trkpt>
      <trkpt lat="47.36009" lon="-2.37415">
        <ele>8.8000001907349</ele>
        <time>2020-08-02T09:12:03.000Z</time>
      </trkpt>
      <trkpt lat="47.35995" lon="-2.37395">
        <ele>8.8000001907349</ele>
        <time>2020-08-02T09:12:08.000Z</time>
      </trkpt>
      <trkpt lat="47.35974" lon="-2.37381">
        <ele>8.8000001907349</ele>
        <time>2020-08-02T09:12:13.000Z</time>
      </trkpt>
      <trkpt lat="47.35969" lon="-2.37379">
        <ele>8.8000001907349</ele>
        <time>2020-08-02T09:12:14.000Z</time>
      </trkpt>
      <trkpt lat="47.35925" lon="-2.37363">
        <ele>8.8000001907349</ele>
        <time>2020-08-02T09:12:23.000Z</time>
      </trkpt>
      <trkpt lat="47.35889" lon="-2.3735">
        <ele>8.8000001907349</ele>
        <time>2020-08-02T09:12:30.000Z</time>
      </trkpt>
      <trkpt lat="47.35848" lon="-2.37334">
        <ele>8.8000001907349</ele>
        <time>2020-08-02T09:12:38.000Z</time>
      </trkpt>
      <trkpt lat="47.35837" lon="-2.37331">
        <ele>9.1999998092651</ele>
        <time>2020-08-02T09:12:40.000Z</time>
      </trkpt>
      <trkpt lat="47.35831" lon="-2.37329">
        <ele>9.6000003814697</ele>
        <time>2020-08-02T09:12:41.000Z</time>
      </trkpt>
      <trkpt lat="47.35826" lon="-2.37327">
        <ele>10</ele>
        <time>2020-08-02T09:12:42.000Z</time>
      </trkpt>
      <trkpt lat="47.35821" lon="-2.37325">
        <ele>10.39999961853</ele>
        <time>2020-08-02T09:12:43.000Z</time>
      </trkpt>
      <trkpt lat="47.35815" lon="-2.37323">
        <ele>10.800000190735</ele>
        <time>2020-08-02T09:12:44.000Z</time>
      </trkpt>
      <trkpt lat="47.35795" lon="-2.37316">
        <ele>10.800000190735</ele>
        <time>2020-08-02T09:12:48.000Z</time>
      </trkpt>
      <trkpt lat="47.35774" lon="-2.37308">
        <ele>11.199999809265</ele>
        <time>2020-08-02T09:12:52.000Z</time>
      </trkpt>
      <trkpt lat="47.35769" lon="-2.37306">
        <ele>11.60000038147</ele>
        <time>2020-08-02T09:12:53.000Z</time>
      </trkpt>
      <trkpt lat="47.35764" lon="-2.37304">
        <ele>12</ele>
        <time>2020-08-02T09:12:54.000Z</time>
      </trkpt>
      <trkpt lat="47.35759" lon="-2.37302">
        <ele>12.39999961853</ele>
        <time>2020-08-02T09:12:55.000Z</time>
      </trkpt>
      <trkpt lat="47.35754" lon="-2.373">
        <ele>12.800000190735</ele>
        <time>2020-08-02T09:12:56.000Z</time>
      </trkpt>
      <trkpt lat="47.35736" lon="-2.37289">
        <ele>12.800000190735</ele>
        <time>2020-08-02T09:13:00.000Z</time>
      </trkpt>
      <trkpt lat="47.35729" lon="-2.37281">
        <ele>12.800000190735</ele>
        <time>2020-08-02T09:13:02.000Z</time>
      </trkpt>
      <trkpt lat="47.35719" lon="-2.37267">
        <ele>13.199999809265</ele>
        <time>2020-08-02T09:13:05.000Z</time>
      </trkpt>
      <trkpt lat="47.35715" lon="-2.37262">
        <ele>13.60000038147</ele>
        <time>2020-08-02T09:13:06.000Z</time>
      </trkpt>
      <trkpt lat="47.35713" lon="-2.37256">
        <ele>14</ele>
        <time>2020-08-02T09:13:07.000Z</time>
      </trkpt>
      <trkpt lat="47.35711" lon="-2.3725">
        <ele>14.39999961853</ele>
        <time>2020-08-02T09:13:08.000Z</time>
      </trkpt>
      <trkpt lat="47.35708" lon="-2.37245">
        <ele>15</ele>
        <time>2020-08-02T09:13:09.000Z</time>
      </trkpt>
      <trkpt lat="47.35707" lon="-2.37239">
        <ele>15</ele>
        <time>2020-08-02T09:13:10.000Z</time>
      </trkpt>
      <trkpt lat="47.35701" lon="-2.37212">
        <ele>15</ele>
        <time>2020-08-02T09:13:14.000Z</time>
      </trkpt>
      <trkpt lat="47.35697" lon="-2.37185">
        <ele>15</ele>
        <time>2020-08-02T09:13:18.000Z</time>
      </trkpt>
      <trkpt lat="47.35694" lon="-2.37171">
        <ele>15</ele>
        <time>2020-08-02T09:13:20.000Z</time>
      </trkpt>
      <trkpt lat="47.35687" lon="-2.37116">
        <ele>15</ele>
        <time>2020-08-02T09:13:27.000Z</time>
      </trkpt>
      <trkpt lat="47.35686" lon="-2.37067">
        <ele>15</ele>
        <time>2020-08-02T09:13:33.000Z</time>
      </trkpt>
      <trkpt lat="47.35684" lon="-2.37036">
        <ele>15</ele>
        <time>2020-08-02T09:13:37.000Z</time>
      </trkpt>
      <trkpt lat="47.35682" lon="-2.37021">
        <ele>15</ele>
        <time>2020-08-02T09:13:39.000Z</time>
      </trkpt>
      <trkpt lat="47.35673" lon="-2.36975">
        <ele>15</ele>
        <time>2020-08-02T09:13:46.000Z</time>
      </trkpt>
      <trkpt lat="47.35671" lon="-2.36969">
        <ele>15</ele>
        <time>2020-08-02T09:13:47.000Z</time>
      </trkpt>
      <trkpt lat="47.35666" lon="-2.36945">
        <ele>15</ele>
        <time>2020-08-02T09:13:52.000Z</time>
      </trkpt>
      <trkpt lat="47.35665" lon="-2.36944">
        <ele>15.39999961853</ele>
        <time>2020-08-02T09:13:53.000Z</time>
      </trkpt>
      <trkpt lat="47.35663" lon="-2.36945">
        <ele>15.800000190735</ele>
        <time>2020-08-02T09:13:54.000Z</time>
      </trkpt>
      <trkpt lat="47.3566" lon="-2.36947">
        <ele>16.200000762939</ele>
        <time>2020-08-02T09:13:55.000Z</time>
      </trkpt>
      <trkpt lat="47.35657" lon="-2.36949">
        <ele>16.60000038147</ele>
        <time>2020-08-02T09:13:56.000Z</time>
      </trkpt>
      <trkpt lat="47.35653" lon="-2.36951">
        <ele>17</ele>
        <time>2020-08-02T09:13:57.000Z</time>
      </trkpt>
      <trkpt lat="47.35641" lon="-2.36956">
        <ele>17</ele>
        <time>2020-08-02T09:14:01.000Z</time>
      </trkpt>
      <trkpt lat="47.35617" lon="-2.36962">
        <ele>17</ele>
        <time>2020-08-02T09:14:08.000Z</time>
      </trkpt>
      <trkpt lat="47.35605" lon="-2.36959">
        <ele>17</ele>
        <time>2020-08-02T09:14:11.000Z</time>
      </trkpt>
      <trkpt lat="47.35602" lon="-2.36955">
        <ele>17</ele>
        <time>2020-08-02T09:14:12.000Z</time>
      </trkpt>
      <trkpt lat="47.35598" lon="-2.36941">
        <ele>17</ele>
        <time>2020-08-02T09:14:15.000Z</time>
      </trkpt>
      <trkpt lat="47.35589" lon="-2.36928">
        <ele>17</ele>
        <time>2020-08-02T09:14:19.000Z</time>
      </trkpt>
      <trkpt lat="47.35574" lon="-2.36931">
        <ele>17</ele>
        <time>2020-08-02T09:14:23.000Z</time>
      </trkpt>
      <trkpt lat="47.3557" lon="-2.36932">
        <ele>17</ele>
        <time>2020-08-02T09:14:24.000Z</time>
      </trkpt>
      <trkpt lat="47.3554" lon="-2.36935">
        <ele>17</ele>
        <time>2020-08-02T09:14:30.000Z</time>
      </trkpt>
      <trkpt lat="47.35505" lon="-2.36938">
        <ele>17</ele>
        <time>2020-08-02T09:14:36.000Z</time>
      </trkpt>
      <trkpt lat="47.3547" lon="-2.36936">
        <ele>17.39999961853</ele>
        <time>2020-08-02T09:14:42.000Z</time>
      </trkpt>
      <trkpt lat="47.35464" lon="-2.36935">
        <ele>17.799999237061</ele>
        <time>2020-08-02T09:14:43.000Z</time>
      </trkpt>
      <trkpt lat="47.35458" lon="-2.36936">
        <ele>18.200000762939</ele>
        <time>2020-08-02T09:14:44.000Z</time>
      </trkpt>
      <trkpt lat="47.35453" lon="-2.36937">
        <ele>18.60000038147</ele>
        <time>2020-08-02T09:14:45.000Z</time>
      </trkpt>
      <trkpt lat="47.35447" lon="-2.36938">
        <ele>19</ele>
        <time>2020-08-02T09:14:46.000Z</time>
      </trkpt>
      <trkpt lat="47.35437" lon="-2.36943">
        <ele>19</ele>
        <time>2020-08-02T09:14:48.000Z</time>
      </trkpt>
      <trkpt lat="47.35417" lon="-2.36957">
        <ele>19</ele>
        <time>2020-08-02T09:14:52.000Z</time>
      </trkpt>
      <trkpt lat="47.35412" lon="-2.36961">
        <ele>19</ele>
        <time>2020-08-02T09:14:53.000Z</time>
      </trkpt>
      <trkpt lat="47.35408" lon="-2.36966">
        <ele>19</ele>
        <time>2020-08-02T09:14:54.000Z</time>
      </trkpt>
      <trkpt lat="47.3539" lon="-2.3699">
        <ele>19</ele>
        <time>2020-08-02T09:14:59.000Z</time>
      </trkpt>
      <trkpt lat="47.35366" lon="-2.37019">
        <ele>19</ele>
        <time>2020-08-02T09:15:06.000Z</time>
      </trkpt>
      <trkpt lat="47.3534" lon="-2.37055">
        <ele>19</ele>
        <time>2020-08-02T09:15:13.000Z</time>
      </trkpt>
      <trkpt lat="47.35315" lon="-2.37102">
        <ele>19</ele>
        <time>2020-08-02T09:15:21.000Z</time>
      </trkpt>
      <trkpt lat="47.35299" lon="-2.37138">
        <ele>19</ele>
        <time>2020-08-02T09:15:27.000Z</time>
      </trkpt>
      <trkpt lat="47.35294" lon="-2.37151">
        <ele>19</ele>
        <time>2020-08-02T09:15:29.000Z</time>
      </trkpt>
      <trkpt lat="47.35283" lon="-2.37196">
        <ele>19</ele>
        <time>2020-08-02T09:15:36.000Z</time>
      </trkpt>
      <trkpt lat="47.35282" lon="-2.37224">
        <ele>19</ele>
        <time>2020-08-02T09:15:41.000Z</time>
      </trkpt>
      <trkpt lat="47.3528" lon="-2.37248">
        <ele>19</ele>
        <time>2020-08-02T09:15:47.000Z</time>
      </trkpt>
      <trkpt lat="47.35281" lon="-2.37279">
        <ele>19.39999961853</ele>
        <time>2020-08-02T09:15:53.000Z</time>
      </trkpt>
      <trkpt lat="47.35281" lon="-2.37285">
        <ele>19.799999237061</ele>
        <time>2020-08-02T09:15:54.000Z</time>
      </trkpt>
      <trkpt lat="47.35282" lon="-2.37291">
        <ele>20.39999961853</ele>
        <time>2020-08-02T09:15:55.000Z</time>
      </trkpt>
      <trkpt lat="47.35282" lon="-2.37297">
        <ele>20.799999237061</ele>
        <time>2020-08-02T09:15:56.000Z</time>
      </trkpt>
      <trkpt lat="47.35282" lon="-2.37303">
        <ele>21.200000762939</ele>
        <time>2020-08-02T09:15:57.000Z</time>
      </trkpt>
      <trkpt lat="47.35283" lon="-2.37326">
        <ele>21.200000762939</ele>
        <time>2020-08-02T09:16:01.000Z</time>
      </trkpt>
      <trkpt lat="47.35284" lon="-2.37372">
        <ele>21.200000762939</ele>
        <time>2020-08-02T09:16:07.000Z</time>
      </trkpt>
      <trkpt lat="47.35286" lon="-2.37421">
        <ele>21.200000762939</ele>
        <time>2020-08-02T09:16:13.000Z</time>
      </trkpt>
      <trkpt lat="47.35288" lon="-2.37428">
        <ele>21.200000762939</ele>
        <time>2020-08-02T09:16:14.000Z</time>
      </trkpt>
      <trkpt lat="47.3529" lon="-2.37459">
        <ele>21.200000762939</ele>
        <time>2020-08-02T09:16:18.000Z</time>
      </trkpt>
      <trkpt lat="47.35291" lon="-2.37468">
        <ele>21.200000762939</ele>
        <time>2020-08-02T09:16:19.000Z</time>
      </trkpt>
      <trkpt lat="47.35295" lon="-2.37495">
        <ele>20.799999237061</ele>
        <time>2020-08-02T09:16:22.000Z</time>
      </trkpt>
      <trkpt lat="47.35297" lon="-2.37504">
        <ele>20.39999961853</ele>
        <time>2020-08-02T09:16:23.000Z</time>
      </trkpt>
      <trkpt lat="47.35298" lon="-2.37512">
        <ele>20</ele>
        <time>2020-08-02T09:16:24.000Z</time>
      </trkpt>
      <trkpt lat="47.353" lon="-2.37521">
        <ele>19.60000038147</ele>
        <time>2020-08-02T09:16:25.000Z</time>
      </trkpt>
      <trkpt lat="47.35302" lon="-2.37529">
        <ele>19.200000762939</ele>
        <time>2020-08-02T09:16:26.000Z</time>
      </trkpt>
      <trkpt lat="47.35313" lon="-2.37582">
        <ele>19.200000762939</ele>
        <time>2020-08-02T09:16:32.000Z</time>
      </trkpt>
      <trkpt lat="47.35328" lon="-2.37635">
        <ele>19.200000762939</ele>
        <time>2020-08-02T09:16:38.000Z</time>
      </trkpt>
      <trkpt lat="47.35341" lon="-2.37683">
        <ele>19.200000762939</ele>
        <time>2020-08-02T09:16:44.000Z</time>
      </trkpt>
      <trkpt lat="47.35355" lon="-2.37747">
        <ele>18.60000038147</ele>
        <time>2020-08-02T09:16:51.000Z</time>
      </trkpt>
      <trkpt lat="47.35358" lon="-2.37755">
        <ele>18.200000762939</ele>
        <time>2020-08-02T09:16:52.000Z</time>
      </trkpt>
      <trkpt lat="47.3536" lon="-2.37762">
        <ele>17.799999237061</ele>
        <time>2020-08-02T09:16:53.000Z</time>
      </trkpt>
      <trkpt lat="47.35362" lon="-2.37769">
        <ele>17.200000762939</ele>
        <time>2020-08-02T09:16:54.000Z</time>
      </trkpt>
      <trkpt lat="47.35363" lon="-2.37776">
        <ele>16.799999237061</ele>
        <time>2020-08-02T09:16:55.000Z</time>
      </trkpt>
      <trkpt lat="47.35363" lon="-2.37783">
        <ele>16.799999237061</ele>
        <time>2020-08-02T09:16:56.000Z</time>
      </trkpt>
      <trkpt lat="47.35359" lon="-2.37787">
        <ele>16.799999237061</ele>
        <time>2020-08-02T09:16:57.000Z</time>
      </trkpt>
      <trkpt lat="47.35342" lon="-2.37794">
        <ele>16.799999237061</ele>
        <time>2020-08-02T09:17:00.000Z</time>
      </trkpt>
      <trkpt lat="47.35335" lon="-2.37796">
        <ele>16.799999237061</ele>
        <time>2020-08-02T09:17:01.000Z</time>
      </trkpt>
      <trkpt lat="47.35302" lon="-2.37807">
        <ele>16.799999237061</ele>
        <time>2020-08-02T09:17:06.000Z</time>
      </trkpt>
      <trkpt lat="47.35258" lon="-2.37831">
        <ele>16.799999237061</ele>
        <time>2020-08-02T09:17:13.000Z</time>
      </trkpt>
      <trkpt lat="47.35252" lon="-2.37838">
        <ele>16.799999237061</ele>
        <time>2020-08-02T09:17:14.000Z</time>
      </trkpt>
      <trkpt lat="47.35228" lon="-2.3786">
        <ele>16.799999237061</ele>
        <time>2020-08-02T09:17:18.000Z</time>
      </trkpt>
      <trkpt lat="47.35187" lon="-2.3789">
        <ele>16.799999237061</ele>
        <time>2020-08-02T09:17:24.000Z</time>
      </trkpt>
      <trkpt lat="47.35139" lon="-2.37925">
        <ele>16.799999237061</ele>
        <time>2020-08-02T09:17:31.000Z</time>
      </trkpt>
      <trkpt lat="47.35086" lon="-2.37967">
        <ele>16.799999237061</ele>
        <time>2020-08-02T09:17:39.000Z</time>
      </trkpt>
      <trkpt lat="47.35054" lon="-2.37993">
        <ele>16.39999961853</ele>
        <time>2020-08-02T09:17:44.000Z</time>
      </trkpt>
      <trkpt lat="47.35048" lon="-2.37998">
        <ele>16</ele>
        <time>2020-08-02T09:17:45.000Z</time>
      </trkpt>
      <trkpt lat="47.35041" lon="-2.38003">
        <ele>15.60000038147</ele>
        <time>2020-08-02T09:17:46.000Z</time>
      </trkpt>
      <trkpt lat="47.35035" lon="-2.38009">
        <ele>15.199999809265</ele>
        <time>2020-08-02T09:17:47.000Z</time>
      </trkpt>
      <trkpt lat="47.35029" lon="-2.38014">
        <ele>14.800000190735</ele>
        <time>2020-08-02T09:17:48.000Z</time>
      </trkpt>
      <trkpt lat="47.35011" lon="-2.38028">
        <ele>14.800000190735</ele>
        <time>2020-08-02T09:17:51.000Z</time>
      </trkpt>
      <trkpt lat="47.34979" lon="-2.38056">
        <ele>14.800000190735</ele>
        <time>2020-08-02T09:17:57.000Z</time>
      </trkpt>
      <trkpt lat="47.34975" lon="-2.38058">
        <ele>14.800000190735</ele>
        <time>2020-08-02T09:17:58.000Z</time>
      </trkpt>
      <trkpt lat="47.34966" lon="-2.38055">
        <ele>14.800000190735</ele>
        <time>2020-08-02T09:18:00.000Z</time>
      </trkpt>
      <trkpt lat="47.34956" lon="-2.38037">
        <ele>14.800000190735</ele>
        <time>2020-08-02T09:18:03.000Z</time>
      </trkpt>
      <trkpt lat="47.34953" lon="-2.38031">
        <ele>14.800000190735</ele>
        <time>2020-08-02T09:18:04.000Z</time>
      </trkpt>
      <trkpt lat="47.34929" lon="-2.37994">
        <ele>14.800000190735</ele>
        <time>2020-08-02T09:18:10.000Z</time>
      </trkpt>
      <trkpt lat="47.34901" lon="-2.37973">
        <ele>14.800000190735</ele>
        <time>2020-08-02T09:18:15.000Z</time>
      </trkpt>
      <trkpt lat="47.34858" lon="-2.37939">
        <ele>14.800000190735</ele>
        <time>2020-08-02T09:18:23.000Z</time>
      </trkpt>
      <trkpt lat="47.34814" lon="-2.37905">
        <ele>14.800000190735</ele>
        <time>2020-08-02T09:18:31.000Z</time>
      </trkpt>
      <trkpt lat="47.34775" lon="-2.37874">
        <ele>14.800000190735</ele>
        <time>2020-08-02T09:18:39.000Z</time>
      </trkpt>
      <trkpt lat="47.34756" lon="-2.37867">
        <ele>14.800000190735</ele>
        <time>2020-08-02T09:18:44.000Z</time>
      </trkpt>
      <trkpt lat="47.34749" lon="-2.37884">
        <ele>14.800000190735</ele>
        <time>2020-08-02T09:18:47.000Z</time>
      </trkpt>
      <trkpt lat="47.34747" lon="-2.3789">
        <ele>14.800000190735</ele>
        <time>2020-08-02T09:18:48.000Z</time>
      </trkpt>
      <trkpt lat="47.34745" lon="-2.37896">
        <ele>15.199999809265</ele>
        <time>2020-08-02T09:18:49.000Z</time>
      </trkpt>
      <trkpt lat="47.34742" lon="-2.37903">
        <ele>15.60000038147</ele>
        <time>2020-08-02T09:18:50.000Z</time>
      </trkpt>
      <trkpt lat="47.34739" lon="-2.3791">
        <ele>16</ele>
        <time>2020-08-02T09:18:51.000Z</time>
      </trkpt>
      <trkpt lat="47.34735" lon="-2.37916">
        <ele>16.39999961853</ele>
        <time>2020-08-02T09:18:52.000Z</time>
      </trkpt>
      <trkpt lat="47.34731" lon="-2.37922">
        <ele>16.799999237061</ele>
        <time>2020-08-02T09:18:53.000Z</time>
      </trkpt>
      <trkpt lat="47.34722" lon="-2.37934">
        <ele>16.799999237061</ele>
        <time>2020-08-02T09:18:55.000Z</time>
      </trkpt>
      <trkpt lat="47.34709" lon="-2.3795">
        <ele>16.799999237061</ele>
        <time>2020-08-02T09:18:58.000Z</time>
      </trkpt>
      <trkpt lat="47.3466" lon="-2.37998">
        <ele>16.799999237061</ele>
        <time>2020-08-02T09:19:08.000Z</time>
      </trkpt>
      <trkpt lat="47.3462" lon="-2.38033">
        <ele>16.799999237061</ele>
        <time>2020-08-02T09:19:16.000Z</time>
      </trkpt>
      <trkpt lat="47.34611" lon="-2.38042">
        <ele>16.799999237061</ele>
        <time>2020-08-02T09:19:18.000Z</time>
      </trkpt>
      <trkpt lat="47.34608" lon="-2.38052">
        <ele>16.799999237061</ele>
        <time>2020-08-02T09:19:20.000Z</time>
      </trkpt>
      <trkpt lat="47.34611" lon="-2.38068">
        <ele>16.799999237061</ele>
        <time>2020-08-02T09:19:23.000Z</time>
      </trkpt>
      <trkpt lat="47.34614" lon="-2.38073">
        <ele>16.799999237061</ele>
        <time>2020-08-02T09:19:24.000Z</time>
      </trkpt>
      <trkpt lat="47.34628" lon="-2.38099">
        <ele>16.799999237061</ele>
        <time>2020-08-02T09:19:30.000Z</time>
      </trkpt>
      <trkpt lat="47.34645" lon="-2.3813">
        <ele>16.799999237061</ele>
        <time>2020-08-02T09:19:37.000Z</time>
      </trkpt>
      <trkpt lat="47.34647" lon="-2.38137">
        <ele>16.799999237061</ele>
        <time>2020-08-02T09:19:38.000Z</time>
      </trkpt>
      <trkpt lat="47.3465" lon="-2.38158">
        <ele>16.799999237061</ele>
        <time>2020-08-02T09:19:41.000Z</time>
      </trkpt>
      <trkpt lat="47.34651" lon="-2.38175">
        <ele>16.799999237061</ele>
        <time>2020-08-02T09:19:43.000Z</time>
      </trkpt>
      <trkpt lat="47.34651" lon="-2.38222">
        <ele>16.799999237061</ele>
        <time>2020-08-02T09:19:48.000Z</time>
      </trkpt>
      <trkpt lat="47.34652" lon="-2.38239">
        <ele>16.799999237061</ele>
        <time>2020-08-02T09:19:50.000Z</time>
      </trkpt>
      <trkpt lat="47.34652" lon="-2.38284">
        <ele>16.799999237061</ele>
        <time>2020-08-02T09:19:55.000Z</time>
      </trkpt>
      <trkpt lat="47.34653" lon="-2.38293">
        <ele>16.799999237061</ele>
        <time>2020-08-02T09:19:56.000Z</time>
      </trkpt>
      <trkpt lat="47.34656" lon="-2.38363">
        <ele>16.799999237061</ele>
        <time>2020-08-02T09:20:04.000Z</time>
      </trkpt>
      <trkpt lat="47.34661" lon="-2.38401">
        <ele>16.799999237061</ele>
        <time>2020-08-02T09:20:08.000Z</time>
      </trkpt>
      <trkpt lat="47.34665" lon="-2.3842">
        <ele>16.799999237061</ele>
        <time>2020-08-02T09:20:10.000Z</time>
      </trkpt>
      <trkpt lat="47.34669" lon="-2.38434">
        <ele>16.799999237061</ele>
        <time>2020-08-02T09:20:12.000Z</time>
      </trkpt>
      <trkpt lat="47.34673" lon="-2.38447">
        <ele>16.799999237061</ele>
        <time>2020-08-02T09:20:14.000Z</time>
      </trkpt>
      <trkpt lat="47.34675" lon="-2.38454">
        <ele>16.799999237061</ele>
        <time>2020-08-02T09:20:15.000Z</time>
      </trkpt>
      <trkpt lat="47.34678" lon="-2.38468">
        <ele>16.799999237061</ele>
        <time>2020-08-02T09:20:17.000Z</time>
      </trkpt>
      <trkpt lat="47.34682" lon="-2.38497">
        <ele>16.799999237061</ele>
        <time>2020-08-02T09:20:21.000Z</time>
      </trkpt>
      <trkpt lat="47.34689" lon="-2.38542">
        <ele>16.39999961853</ele>
        <time>2020-08-02T09:20:28.000Z</time>
      </trkpt>
      <trkpt lat="47.3469" lon="-2.38547">
        <ele>16</ele>
        <time>2020-08-02T09:20:29.000Z</time>
      </trkpt>
      <trkpt lat="47.3469" lon="-2.38552">
        <ele>15.60000038147</ele>
        <time>2020-08-02T09:20:30.000Z</time>
      </trkpt>
      <trkpt lat="47.3469" lon="-2.38558">
        <ele>15.199999809265</ele>
        <time>2020-08-02T09:20:31.000Z</time>
      </trkpt>
      <trkpt lat="47.3469" lon="-2.38564">
        <ele>14.800000190735</ele>
        <time>2020-08-02T09:20:32.000Z</time>
      </trkpt>
      <trkpt lat="47.34691" lon="-2.38578">
        <ele>14.800000190735</ele>
        <time>2020-08-02T09:20:34.000Z</time>
      </trkpt>
      <trkpt lat="47.34692" lon="-2.38612">
        <ele>14.800000190735</ele>
        <time>2020-08-02T09:20:39.000Z</time>
      </trkpt>
      <trkpt lat="47.34693" lon="-2.38619">
        <ele>14.800000190735</ele>
        <time>2020-08-02T09:20:40.000Z</time>
      </trkpt>
      <trkpt lat="47.34697" lon="-2.38674">
        <ele>14.800000190735</ele>
        <time>2020-08-02T09:20:47.000Z</time>
      </trkpt>
      <trkpt lat="47.34701" lon="-2.38723">
        <ele>14.800000190735</ele>
        <time>2020-08-02T09:20:53.000Z</time>
      </trkpt>
      <trkpt lat="47.34702" lon="-2.38756">
        <ele>14.800000190735</ele>
        <time>2020-08-02T09:20:58.000Z</time>
      </trkpt>
      <trkpt lat="47.34704" lon="-2.38792">
        <ele>14.800000190735</ele>
        <time>2020-08-02T09:21:04.000Z</time>
      </trkpt>
      <trkpt lat="47.34706" lon="-2.38831">
        <ele>14.800000190735</ele>
        <time>2020-08-02T09:21:10.000Z</time>
      </trkpt>
      <trkpt lat="47.34707" lon="-2.38884">
        <ele>14.800000190735</ele>
        <time>2020-08-02T09:21:17.000Z</time>
      </trkpt>
      <trkpt lat="47.34707" lon="-2.38908">
        <ele>14.800000190735</ele>
        <time>2020-08-02T09:21:20.000Z</time>
      </trkpt>
      <trkpt lat="47.34707" lon="-2.38928">
        <ele>14.800000190735</ele>
        <time>2020-08-02T09:21:23.000Z</time>
      </trkpt>
      <trkpt lat="47.34706" lon="-2.38958">
        <ele>14.800000190735</ele>
        <time>2020-08-02T09:21:28.000Z</time>
      </trkpt>
      <trkpt lat="47.34706" lon="-2.38989">
        <ele>14.800000190735</ele>
        <time>2020-08-02T09:21:33.000Z</time>
      </trkpt>
      <trkpt lat="47.34701" lon="-2.39042">
        <ele>14.800000190735</ele>
        <time>2020-08-02T09:21:40.000Z</time>
      </trkpt>
      <trkpt lat="47.34693" lon="-2.39096">
        <ele>14.800000190735</ele>
        <time>2020-08-02T09:21:47.000Z</time>
      </trkpt>
      <trkpt lat="47.3469" lon="-2.39155">
        <ele>14.800000190735</ele>
        <time>2020-08-02T09:21:54.000Z</time>
      </trkpt>
      <trkpt lat="47.34691" lon="-2.39179">
        <ele>14.800000190735</ele>
        <time>2020-08-02T09:21:57.000Z</time>
      </trkpt>
      <trkpt lat="47.34694" lon="-2.39193">
        <ele>14.800000190735</ele>
        <time>2020-08-02T09:21:59.000Z</time>
      </trkpt>
      <trkpt lat="47.34698" lon="-2.39205">
        <ele>14.800000190735</ele>
        <time>2020-08-02T09:22:01.000Z</time>
      </trkpt>
      <trkpt lat="47.34704" lon="-2.39226">
        <ele>14.800000190735</ele>
        <time>2020-08-02T09:22:05.000Z</time>
      </trkpt>
      <trkpt lat="47.34699" lon="-2.39241">
        <ele>14.800000190735</ele>
        <time>2020-08-02T09:22:08.000Z</time>
      </trkpt>
      <trkpt lat="47.34687" lon="-2.39261">
        <ele>14.800000190735</ele>
        <time>2020-08-02T09:22:12.000Z</time>
      </trkpt>
      <trkpt lat="47.34685" lon="-2.39266">
        <ele>14.800000190735</ele>
        <time>2020-08-02T09:22:13.000Z</time>
      </trkpt>
      <trkpt lat="47.34672" lon="-2.39288">
        <ele>14.800000190735</ele>
        <time>2020-08-02T09:22:19.000Z</time>
      </trkpt>
      <trkpt lat="47.34665" lon="-2.39298">
        <ele>15.199999809265</ele>
        <time>2020-08-02T09:22:23.000Z</time>
      </trkpt>
      <trkpt lat="47.34664" lon="-2.393">
        <ele>15.60000038147</ele>
        <time>2020-08-02T09:22:24.000Z</time>
      </trkpt>
      <trkpt lat="47.34663" lon="-2.39302">
        <ele>16.200000762939</ele>
        <time>2020-08-02T09:22:25.000Z</time>
      </trkpt>
      <trkpt lat="47.34663" lon="-2.39304">
        <ele>16.60000038147</ele>
        <time>2020-08-02T09:22:26.000Z</time>
      </trkpt>
      <trkpt lat="47.34663" lon="-2.39306">
        <ele>17</ele>
        <time>2020-08-02T09:22:27.000Z</time>
      </trkpt>
      <trkpt lat="47.34663" lon="-2.39315">
        <ele>17</ele>
        <time>2020-08-02T09:22:32.000Z</time>
      </trkpt>
      <trkpt lat="47.3466" lon="-2.39319">
        <ele>17</ele>
        <time>2020-08-02T09:22:37.000Z</time>
      </trkpt>
      <trkpt lat="47.34663" lon="-2.39313">
        <ele>17</ele>
        <time>2020-08-02T09:23:13.000Z</time>
      </trkpt>
      <trkpt lat="47.3466" lon="-2.39307">
        <ele>17</ele>
        <time>2020-08-02T09:23:16.000Z</time>
      </trkpt>
      <trkpt lat="47.34657" lon="-2.39305">
        <ele>17</ele>
        <time>2020-08-02T09:23:17.000Z</time>
      </trkpt>
      <trkpt lat="47.34646" lon="-2.39292">
        <ele>17</ele>
        <time>2020-08-02T09:23:21.000Z</time>
      </trkpt>
      <trkpt lat="47.34619" lon="-2.39268">
        <ele>17</ele>
        <time>2020-08-02T09:23:27.000Z</time>
      </trkpt>
      <trkpt lat="47.34581" lon="-2.39242">
        <ele>17</ele>
        <time>2020-08-02T09:23:34.000Z</time>
      </trkpt>
      <trkpt lat="47.34549" lon="-2.39228">
        <ele>17</ele>
        <time>2020-08-02T09:23:40.000Z</time>
      </trkpt>
      <trkpt lat="47.34513" lon="-2.39228">
        <ele>17</ele>
        <time>2020-08-02T09:23:47.000Z</time>
      </trkpt>
      <trkpt lat="47.34488" lon="-2.39234">
        <ele>17.39999961853</ele>
        <time>2020-08-02T09:23:52.000Z</time>
      </trkpt>
      <trkpt lat="47.34483" lon="-2.39235">
        <ele>17.799999237061</ele>
        <time>2020-08-02T09:23:53.000Z</time>
      </trkpt>
      <trkpt lat="47.34479" lon="-2.39237">
        <ele>18.39999961853</ele>
        <time>2020-08-02T09:23:54.000Z</time>
      </trkpt>
      <trkpt lat="47.34473" lon="-2.39238">
        <ele>18.799999237061</ele>
        <time>2020-08-02T09:23:55.000Z</time>
      </trkpt>
      <trkpt lat="47.34468" lon="-2.3924">
        <ele>19.200000762939</ele>
        <time>2020-08-02T09:23:56.000Z</time>
      </trkpt>
      <trkpt lat="47.34447" lon="-2.39246">
        <ele>19.60000038147</ele>
        <time>2020-08-02T09:24:00.000Z</time>
      </trkpt>
      <trkpt lat="47.34442" lon="-2.39248">
        <ele>20</ele>
        <time>2020-08-02T09:24:01.000Z</time>
      </trkpt>
      <trkpt lat="47.34437" lon="-2.3925">
        <ele>20.39999961853</ele>
        <time>2020-08-02T09:24:02.000Z</time>
      </trkpt>
      <trkpt lat="47.34432" lon="-2.39252">
        <ele>21</ele>
        <time>2020-08-02T09:24:03.000Z</time>
      </trkpt>
      <trkpt lat="47.34427" lon="-2.39253">
        <ele>21.39999961853</ele>
        <time>2020-08-02T09:24:04.000Z</time>
      </trkpt>
      <trkpt lat="47.34407" lon="-2.39258">
        <ele>21.799999237061</ele>
        <time>2020-08-02T09:24:08.000Z</time>
      </trkpt>
      <trkpt lat="47.34402" lon="-2.3926">
        <ele>22.200000762939</ele>
        <time>2020-08-02T09:24:09.000Z</time>
      </trkpt>
      <trkpt lat="47.34397" lon="-2.39262">
        <ele>22.60000038147</ele>
        <time>2020-08-02T09:24:10.000Z</time>
      </trkpt>
      <trkpt lat="47.34392" lon="-2.39265">
        <ele>23</ele>
        <time>2020-08-02T09:24:11.000Z</time>
      </trkpt>
      <trkpt lat="47.34388" lon="-2.39267">
        <ele>23.39999961853</ele>
        <time>2020-08-02T09:24:12.000Z</time>
      </trkpt>
      <trkpt lat="47.34384" lon="-2.39268">
        <ele>23.39999961853</ele>
        <time>2020-08-02T09:24:13.000Z</time>
      </trkpt>
      <trkpt lat="47.34367" lon="-2.39276">
        <ele>23.799999237061</ele>
        <time>2020-08-02T09:24:17.000Z</time>
      </trkpt>
      <trkpt lat="47.34362" lon="-2.39278">
        <ele>24.200000762939</ele>
        <time>2020-08-02T09:24:18.000Z</time>
      </trkpt>
      <trkpt lat="47.34357" lon="-2.3928">
        <ele>24.60000038147</ele>
        <time>2020-08-02T09:24:19.000Z</time>
      </trkpt>
      <trkpt lat="47.34353" lon="-2.39282">
        <ele>25.200000762939</ele>
        <time>2020-08-02T09:24:20.000Z</time>
      </trkpt>
      <trkpt lat="47.34348" lon="-2.39285">
        <ele>25.60000038147</ele>
        <time>2020-08-02T09:24:21.000Z</time>
      </trkpt>
      <trkpt lat="47.34329" lon="-2.39295">
        <ele>26</ele>
        <time>2020-08-02T09:24:25.000Z</time>
      </trkpt>
      <trkpt lat="47.34324" lon="-2.39298">
        <ele>26.39999961853</ele>
        <time>2020-08-02T09:24:26.000Z</time>
      </trkpt>
      <trkpt lat="47.34319" lon="-2.39301">
        <ele>26.799999237061</ele>
        <time>2020-08-02T09:24:27.000Z</time>
      </trkpt>
      <trkpt lat="47.34314" lon="-2.39304">
        <ele>27.200000762939</ele>
        <time>2020-08-02T09:24:28.000Z</time>
      </trkpt>
      <trkpt lat="47.34309" lon="-2.39307">
        <ele>27.60000038147</ele>
        <time>2020-08-02T09:24:29.000Z</time>
      </trkpt>
      <trkpt lat="47.34283" lon="-2.39319">
        <ele>27.60000038147</ele>
        <time>2020-08-02T09:24:34.000Z</time>
      </trkpt>
      <trkpt lat="47.34279" lon="-2.39321">
        <ele>27.60000038147</ele>
        <time>2020-08-02T09:24:35.000Z</time>
      </trkpt>
      <trkpt lat="47.34262" lon="-2.39332">
        <ele>27.60000038147</ele>
        <time>2020-08-02T09:24:39.000Z</time>
      </trkpt>
      <trkpt lat="47.34237" lon="-2.39349">
        <ele>28</ele>
        <time>2020-08-02T09:24:45.000Z</time>
      </trkpt>
      <trkpt lat="47.34233" lon="-2.39351">
        <ele>28.39999961853</ele>
        <time>2020-08-02T09:24:46.000Z</time>
      </trkpt>
      <trkpt lat="47.34229" lon="-2.39354">
        <ele>28.799999237061</ele>
        <time>2020-08-02T09:24:47.000Z</time>
      </trkpt>
      <trkpt lat="47.34225" lon="-2.39357">
        <ele>29.200000762939</ele>
        <time>2020-08-02T09:24:48.000Z</time>
      </trkpt>
      <trkpt lat="47.34221" lon="-2.3936">
        <ele>29.60000038147</ele>
        <time>2020-08-02T09:24:49.000Z</time>
      </trkpt>
      <trkpt lat="47.34214" lon="-2.39364">
        <ele>29.60000038147</ele>
        <time>2020-08-02T09:24:51.000Z</time>
      </trkpt>
      <trkpt lat="47.34198" lon="-2.39373">
        <ele>29.60000038147</ele>
        <time>2020-08-02T09:24:55.000Z</time>
      </trkpt>
      <trkpt lat="47.34186" lon="-2.3938">
        <ele>29.60000038147</ele>
        <time>2020-08-02T09:24:58.000Z</time>
      </trkpt>
      <trkpt lat="47.34153" lon="-2.39401">
        <ele>29.60000038147</ele>
        <time>2020-08-02T09:25:06.000Z</time>
      </trkpt>
      <trkpt lat="47.34144" lon="-2.39407">
        <ele>29.60000038147</ele>
        <time>2020-08-02T09:25:08.000Z</time>
      </trkpt>
      <trkpt lat="47.34117" lon="-2.39424">
        <ele>29.60000038147</ele>
        <time>2020-08-02T09:25:13.000Z</time>
      </trkpt>
      <trkpt lat="47.34107" lon="-2.39428">
        <ele>29.60000038147</ele>
        <time>2020-08-02T09:25:15.000Z</time>
      </trkpt>
      <trkpt lat="47.34099" lon="-2.39427">
        <ele>29.60000038147</ele>
        <time>2020-08-02T09:25:17.000Z</time>
      </trkpt>
      <trkpt lat="47.34092" lon="-2.39412">
        <ele>29.60000038147</ele>
        <time>2020-08-02T09:25:20.000Z</time>
      </trkpt>
      <trkpt lat="47.34091" lon="-2.39406">
        <ele>29.60000038147</ele>
        <time>2020-08-02T09:25:21.000Z</time>
      </trkpt>
      <trkpt lat="47.34087" lon="-2.39385">
        <ele>29.60000038147</ele>
        <time>2020-08-02T09:25:24.000Z</time>
      </trkpt>
      <trkpt lat="47.34085" lon="-2.39377">
        <ele>29.60000038147</ele>
        <time>2020-08-02T09:25:25.000Z</time>
      </trkpt>
      <trkpt lat="47.34075" lon="-2.39318">
        <ele>29.60000038147</ele>
        <time>2020-08-02T09:25:32.000Z</time>
      </trkpt>
      <trkpt lat="47.34073" lon="-2.3931">
        <ele>29.60000038147</ele>
        <time>2020-08-02T09:25:33.000Z</time>
      </trkpt>
      <trkpt lat="47.34067" lon="-2.39277">
        <ele>29.60000038147</ele>
        <time>2020-08-02T09:25:37.000Z</time>
      </trkpt>
      <trkpt lat="47.34059" lon="-2.39259">
        <ele>29.60000038147</ele>
        <time>2020-08-02T09:25:40.000Z</time>
      </trkpt>
      <trkpt lat="47.34045" lon="-2.39255">
        <ele>29.60000038147</ele>
        <time>2020-08-02T09:25:43.000Z</time>
      </trkpt>
      <trkpt lat="47.34039" lon="-2.39255">
        <ele>29.60000038147</ele>
        <time>2020-08-02T09:25:44.000Z</time>
      </trkpt>
      <trkpt lat="47.34009" lon="-2.39257">
        <ele>29.60000038147</ele>
        <time>2020-08-02T09:25:49.000Z</time>
      </trkpt>
      <trkpt lat="47.33974" lon="-2.39261">
        <ele>29.60000038147</ele>
        <time>2020-08-02T09:25:55.000Z</time>
      </trkpt>
      <trkpt lat="47.33932" lon="-2.39271">
        <ele>29.60000038147</ele>
        <time>2020-08-02T09:26:03.000Z</time>
      </trkpt>
      <trkpt lat="47.33911" lon="-2.39274">
        <ele>30</ele>
        <time>2020-08-02T09:26:07.000Z</time>
      </trkpt>
      <trkpt lat="47.33906" lon="-2.39275">
        <ele>30.39999961853</ele>
        <time>2020-08-02T09:26:08.000Z</time>
      </trkpt>
      <trkpt lat="47.33901" lon="-2.39276">
        <ele>30.799999237061</ele>
        <time>2020-08-02T09:26:09.000Z</time>
      </trkpt>
      <trkpt lat="47.33895" lon="-2.39277">
        <ele>31.200000762939</ele>
        <time>2020-08-02T09:26:10.000Z</time>
      </trkpt>
      <trkpt lat="47.3389" lon="-2.39278">
        <ele>31.60000038147</ele>
        <time>2020-08-02T09:26:11.000Z</time>
      </trkpt>
      <trkpt lat="47.33861" lon="-2.39284">
        <ele>31.60000038147</ele>
        <time>2020-08-02T09:26:16.000Z</time>
      </trkpt>
      <trkpt lat="47.33855" lon="-2.39285">
        <ele>31.60000038147</ele>
        <time>2020-08-02T09:26:17.000Z</time>
      </trkpt>
      <trkpt lat="47.33833" lon="-2.39288">
        <ele>31.60000038147</ele>
        <time>2020-08-02T09:26:21.000Z</time>
      </trkpt>
      <trkpt lat="47.33828" lon="-2.39288">
        <ele>31.60000038147</ele>
        <time>2020-08-02T09:26:22.000Z</time>
      </trkpt>
      <trkpt lat="47.33793" lon="-2.39294">
        <ele>31.60000038147</ele>
        <time>2020-08-02T09:26:29.000Z</time>
      </trkpt>
      <trkpt lat="47.33774" lon="-2.39298">
        <ele>32.400001525879</ele>
        <time>2020-08-02T09:26:33.000Z</time>
      </trkpt>
      <trkpt lat="47.3377" lon="-2.39299">
        <ele>33</ele>
        <time>2020-08-02T09:26:34.000Z</time>
      </trkpt>
      <trkpt lat="47.33765" lon="-2.39299">
        <ele>33.400001525879</ele>
        <time>2020-08-02T09:26:35.000Z</time>
      </trkpt>
      <trkpt lat="47.3376" lon="-2.393">
        <ele>33.799999237061</ele>
        <time>2020-08-02T09:26:36.000Z</time>
      </trkpt>
      <trkpt lat="47.33734" lon="-2.39302">
        <ele>33.799999237061</ele>
        <time>2020-08-02T09:26:42.000Z</time>
      </trkpt>
      <trkpt lat="47.3372" lon="-2.39305">
        <ele>33.799999237061</ele>
        <time>2020-08-02T09:26:45.000Z</time>
      </trkpt>
      <trkpt lat="47.33716" lon="-2.39309">
        <ele>33.799999237061</ele>
        <time>2020-08-02T09:26:46.000Z</time>
      </trkpt>
      <trkpt lat="47.33712" lon="-2.39329">
        <ele>33.799999237061</ele>
        <time>2020-08-02T09:26:49.000Z</time>
      </trkpt>
      <trkpt lat="47.33711" lon="-2.39344">
        <ele>33.799999237061</ele>
        <time>2020-08-02T09:26:51.000Z</time>
      </trkpt>
      <trkpt lat="47.3371" lon="-2.39358">
        <ele>34.200000762939</ele>
        <time>2020-08-02T09:26:53.000Z</time>
      </trkpt>
      <trkpt lat="47.33709" lon="-2.39364">
        <ele>34.599998474121</ele>
        <time>2020-08-02T09:26:54.000Z</time>
      </trkpt>
      <trkpt lat="47.33709" lon="-2.39371">
        <ele>35</ele>
        <time>2020-08-02T09:26:55.000Z</time>
      </trkpt>
      <trkpt lat="47.33708" lon="-2.39377">
        <ele>35.400001525879</ele>
        <time>2020-08-02T09:26:56.000Z</time>
      </trkpt>
      <trkpt lat="47.33708" lon="-2.39384">
        <ele>35.799999237061</ele>
        <time>2020-08-02T09:26:57.000Z</time>
      </trkpt>
      <trkpt lat="47.33706" lon="-2.39409">
        <ele>35.799999237061</ele>
        <time>2020-08-02T09:27:01.000Z</time>
      </trkpt>
      <trkpt lat="47.33705" lon="-2.39422">
        <ele>35.799999237061</ele>
        <time>2020-08-02T09:27:03.000Z</time>
      </trkpt>
      <trkpt lat="47.33704" lon="-2.39428">
        <ele>35.799999237061</ele>
        <time>2020-08-02T09:27:04.000Z</time>
      </trkpt>
      <trkpt lat="47.33698" lon="-2.3946">
        <ele>35.799999237061</ele>
        <time>2020-08-02T09:27:09.000Z</time>
      </trkpt>
      <trkpt lat="47.33685" lon="-2.39501">
        <ele>35.799999237061</ele>
        <time>2020-08-02T09:27:15.000Z</time>
      </trkpt>
      <trkpt lat="47.33682" lon="-2.39508">
        <ele>35.799999237061</ele>
        <time>2020-08-02T09:27:16.000Z</time>
      </trkpt>
      <trkpt lat="47.33673" lon="-2.39536">
        <ele>35.799999237061</ele>
        <time>2020-08-02T09:27:20.000Z</time>
      </trkpt>
      <trkpt lat="47.33655" lon="-2.39591">
        <ele>35.799999237061</ele>
        <time>2020-08-02T09:27:27.000Z</time>
      </trkpt>
      <trkpt lat="47.33634" lon="-2.39649">
        <ele>35.799999237061</ele>
        <time>2020-08-02T09:27:34.000Z</time>
      </trkpt>
      <trkpt lat="47.3363" lon="-2.39657">
        <ele>35.799999237061</ele>
        <time>2020-08-02T09:27:35.000Z</time>
      </trkpt>
      <trkpt lat="47.33616" lon="-2.39678">
        <ele>35.400001525879</ele>
        <time>2020-08-02T09:27:38.000Z</time>
      </trkpt>
      <trkpt lat="47.33612" lon="-2.39685">
        <ele>35</ele>
        <time>2020-08-02T09:27:39.000Z</time>
      </trkpt>
      <trkpt lat="47.33608" lon="-2.39692">
        <ele>34.599998474121</ele>
        <time>2020-08-02T09:27:40.000Z</time>
      </trkpt>
      <trkpt lat="47.33604" lon="-2.39699">
        <ele>34.200000762939</ele>
        <time>2020-08-02T09:27:41.000Z</time>
      </trkpt>
      <trkpt lat="47.33601" lon="-2.39705">
        <ele>33.799999237061</ele>
        <time>2020-08-02T09:27:42.000Z</time>
      </trkpt>
      <trkpt lat="47.33581" lon="-2.39738">
        <ele>33.799999237061</ele>
        <time>2020-08-02T09:27:47.000Z</time>
      </trkpt>
      <trkpt lat="47.33557" lon="-2.39763">
        <ele>33.799999237061</ele>
        <time>2020-08-02T09:27:52.000Z</time>
      </trkpt>
      <trkpt lat="47.33528" lon="-2.39796">
        <ele>33.799999237061</ele>
        <time>2020-08-02T09:27:58.000Z</time>
      </trkpt>
      <trkpt lat="47.33495" lon="-2.39842">
        <ele>33.799999237061</ele>
        <time>2020-08-02T09:28:05.000Z</time>
      </trkpt>
      <trkpt lat="47.33477" lon="-2.39867">
        <ele>34.200000762939</ele>
        <time>2020-08-02T09:28:09.000Z</time>
      </trkpt>
      <trkpt lat="47.33473" lon="-2.39874">
        <ele>34.799999237061</ele>
        <time>2020-08-02T09:28:10.000Z</time>
      </trkpt>
      <trkpt lat="47.33468" lon="-2.3988">
        <ele>35.599998474121</ele>
        <time>2020-08-02T09:28:11.000Z</time>
      </trkpt>
      <trkpt lat="47.33464" lon="-2.39887">
        <ele>36</ele>
        <time>2020-08-02T09:28:12.000Z</time>
      </trkpt>
      <trkpt lat="47.33459" lon="-2.39893">
        <ele>36</ele>
        <time>2020-08-02T09:28:13.000Z</time>
      </trkpt>
      <trkpt lat="47.3343" lon="-2.39934">
        <ele>36.400001525879</ele>
        <time>2020-08-02T09:28:20.000Z</time>
      </trkpt>
      <trkpt lat="47.33426" lon="-2.3994">
        <ele>37</ele>
        <time>2020-08-02T09:28:21.000Z</time>
      </trkpt>
      <trkpt lat="47.33422" lon="-2.39947">
        <ele>37.400001525879</ele>
        <time>2020-08-02T09:28:22.000Z</time>
      </trkpt>
      <trkpt lat="47.33418" lon="-2.39953">
        <ele>37.799999237061</ele>
        <time>2020-08-02T09:28:23.000Z</time>
      </trkpt>
      <trkpt lat="47.33414" lon="-2.3996">
        <ele>38.400001525879</ele>
        <time>2020-08-02T09:28:24.000Z</time>
      </trkpt>
      <trkpt lat="47.33402" lon="-2.39978">
        <ele>38.400001525879</ele>
        <time>2020-08-02T09:28:27.000Z</time>
      </trkpt>
      <trkpt lat="47.33378" lon="-2.40014">
        <ele>38.400001525879</ele>
        <time>2020-08-02T09:28:33.000Z</time>
      </trkpt>
      <trkpt lat="47.33367" lon="-2.40031">
        <ele>38.799999237061</ele>
        <time>2020-08-02T09:28:36.000Z</time>
      </trkpt>
      <trkpt lat="47.33364" lon="-2.40038">
        <ele>39.200000762939</ele>
        <time>2020-08-02T09:28:37.000Z</time>
      </trkpt>
      <trkpt lat="47.33361" lon="-2.40046">
        <ele>39.599998474121</ele>
        <time>2020-08-02T09:28:38.000Z</time>
      </trkpt>
      <trkpt lat="47.33359" lon="-2.40053">
        <ele>40</ele>
        <time>2020-08-02T09:28:39.000Z</time>
      </trkpt>
      <trkpt lat="47.33358" lon="-2.40061">
        <ele>40.599998474121</ele>
        <time>2020-08-02T09:28:40.000Z</time>
      </trkpt>
      <trkpt lat="47.33358" lon="-2.40069">
        <ele>40.599998474121</ele>
        <time>2020-08-02T09:28:41.000Z</time>
      </trkpt>
      <trkpt lat="47.33354" lon="-2.40113">
        <ele>41</ele>
        <time>2020-08-02T09:28:46.000Z</time>
      </trkpt>
      <trkpt lat="47.33354" lon="-2.40123">
        <ele>41.400001525879</ele>
        <time>2020-08-02T09:28:47.000Z</time>
      </trkpt>
      <trkpt lat="47.33354" lon="-2.40132">
        <ele>41.799999237061</ele>
        <time>2020-08-02T09:28:48.000Z</time>
      </trkpt>
      <trkpt lat="47.33354" lon="-2.40141">
        <ele>42.200000762939</ele>
        <time>2020-08-02T09:28:49.000Z</time>
      </trkpt>
      <trkpt lat="47.33353" lon="-2.4015">
        <ele>42.599998474121</ele>
        <time>2020-08-02T09:28:50.000Z</time>
      </trkpt>
      <trkpt lat="47.3335" lon="-2.40185">
        <ele>42.599998474121</ele>
        <time>2020-08-02T09:28:54.000Z</time>
      </trkpt>
      <trkpt lat="47.33344" lon="-2.40251">
        <ele>42.599998474121</ele>
        <time>2020-08-02T09:29:01.000Z</time>
      </trkpt>
      <trkpt lat="47.33339" lon="-2.40293">
        <ele>42.599998474121</ele>
        <time>2020-08-02T09:29:06.000Z</time>
      </trkpt>
      <trkpt lat="47.33336" lon="-2.4031">
        <ele>42.599998474121</ele>
        <time>2020-08-02T09:29:08.000Z</time>
      </trkpt>
      <trkpt lat="47.33333" lon="-2.40319">
        <ele>42.200000762939</ele>
        <time>2020-08-02T09:29:09.000Z</time>
      </trkpt>
      <trkpt lat="47.3333" lon="-2.40327">
        <ele>41.799999237061</ele>
        <time>2020-08-02T09:29:10.000Z</time>
      </trkpt>
      <trkpt lat="47.33327" lon="-2.40335">
        <ele>41.400001525879</ele>
        <time>2020-08-02T09:29:11.000Z</time>
      </trkpt>
      <trkpt lat="47.33324" lon="-2.40344">
        <ele>41</ele>
        <time>2020-08-02T09:29:12.000Z</time>
      </trkpt>
      <trkpt lat="47.33321" lon="-2.40353">
        <ele>40.599998474121</ele>
        <time>2020-08-02T09:29:13.000Z</time>
      </trkpt>
      <trkpt lat="47.33319" lon="-2.40364">
        <ele>40.599998474121</ele>
        <time>2020-08-02T09:29:14.000Z</time>
      </trkpt>
      <trkpt lat="47.33318" lon="-2.40376">
        <ele>40</ele>
        <time>2020-08-02T09:29:15.000Z</time>
      </trkpt>
      <trkpt lat="47.33318" lon="-2.40387">
        <ele>39.599998474121</ele>
        <time>2020-08-02T09:29:16.000Z</time>
      </trkpt>
      <trkpt lat="47.33318" lon="-2.40399">
        <ele>39.200000762939</ele>
        <time>2020-08-02T09:29:17.000Z</time>
      </trkpt>
      <trkpt lat="47.33318" lon="-2.40411">
        <ele>38.799999237061</ele>
        <time>2020-08-02T09:29:18.000Z</time>
      </trkpt>
      <trkpt lat="47.33317" lon="-2.40423">
        <ele>38.200000762939</ele>
        <time>2020-08-02T09:29:19.000Z</time>
      </trkpt>
      <trkpt lat="47.33315" lon="-2.40435">
        <ele>38.200000762939</ele>
        <time>2020-08-02T09:29:20.000Z</time>
      </trkpt>
      <trkpt lat="47.33314" lon="-2.40447">
        <ele>37.799999237061</ele>
        <time>2020-08-02T09:29:21.000Z</time>
      </trkpt>
      <trkpt lat="47.33312" lon="-2.40459">
        <ele>37.400001525879</ele>
        <time>2020-08-02T09:29:22.000Z</time>
      </trkpt>
      <trkpt lat="47.3331" lon="-2.40472">
        <ele>37</ele>
        <time>2020-08-02T09:29:23.000Z</time>
      </trkpt>
      <trkpt lat="47.33309" lon="-2.40483">
        <ele>36.599998474121</ele>
        <time>2020-08-02T09:29:24.000Z</time>
      </trkpt>
      <trkpt lat="47.33307" lon="-2.40495">
        <ele>36.200000762939</ele>
        <time>2020-08-02T09:29:25.000Z</time>
      </trkpt>
      <trkpt lat="47.33304" lon="-2.40505">
        <ele>36.200000762939</ele>
        <time>2020-08-02T09:29:26.000Z</time>
      </trkpt>
      <trkpt lat="47.33285" lon="-2.40542">
        <ele>36.200000762939</ele>
        <time>2020-08-02T09:29:30.000Z</time>
      </trkpt>
      <trkpt lat="47.33269" lon="-2.40591">
        <ele>36.200000762939</ele>
        <time>2020-08-02T09:29:35.000Z</time>
      </trkpt>
      <trkpt lat="47.33259" lon="-2.40628">
        <ele>36.200000762939</ele>
        <time>2020-08-02T09:29:39.000Z</time>
      </trkpt>
      <trkpt lat="47.33253" lon="-2.40646">
        <ele>36.200000762939</ele>
        <time>2020-08-02T09:29:41.000Z</time>
      </trkpt>
      <trkpt lat="47.33237" lon="-2.40714">
        <ele>36.200000762939</ele>
        <time>2020-08-02T09:29:48.000Z</time>
      </trkpt>
      <trkpt lat="47.33229" lon="-2.40779">
        <ele>36.599998474121</ele>
        <time>2020-08-02T09:29:55.000Z</time>
      </trkpt>
      <trkpt lat="47.33226" lon="-2.40788">
        <ele>37</ele>
        <time>2020-08-02T09:29:56.000Z</time>
      </trkpt>
      <trkpt lat="47.33223" lon="-2.40795">
        <ele>37.400001525879</ele>
        <time>2020-08-02T09:29:57.000Z</time>
      </trkpt>
      <trkpt lat="47.33219" lon="-2.40803">
        <ele>37.799999237061</ele>
        <time>2020-08-02T09:29:58.000Z</time>
      </trkpt>
      <trkpt lat="47.33215" lon="-2.4081">
        <ele>38.200000762939</ele>
        <time>2020-08-02T09:29:59.000Z</time>
      </trkpt>
      <trkpt lat="47.33211" lon="-2.40816">
        <ele>38.200000762939</ele>
        <time>2020-08-02T09:30:00.000Z</time>
      </trkpt>
      <trkpt lat="47.33183" lon="-2.40859">
        <ele>38.200000762939</ele>
        <time>2020-08-02T09:30:07.000Z</time>
      </trkpt>
      <trkpt lat="47.33172" lon="-2.40876">
        <ele>38.599998474121</ele>
        <time>2020-08-02T09:30:10.000Z</time>
      </trkpt>
      <trkpt lat="47.33168" lon="-2.40882">
        <ele>39</ele>
        <time>2020-08-02T09:30:11.000Z</time>
      </trkpt>
      <trkpt lat="47.33165" lon="-2.40889">
        <ele>39.400001525879</ele>
        <time>2020-08-02T09:30:12.000Z</time>
      </trkpt>
      <trkpt lat="47.33161" lon="-2.40895">
        <ele>40</ele>
        <time>2020-08-02T09:30:13.000Z</time>
      </trkpt>
      <trkpt lat="47.33158" lon="-2.40901">
        <ele>40.400001525879</ele>
        <time>2020-08-02T09:30:14.000Z</time>
      </trkpt>
      <trkpt lat="47.33128" lon="-2.40956">
        <ele>40.400001525879</ele>
        <time>2020-08-02T09:30:22.000Z</time>
      </trkpt>
      <trkpt lat="47.33112" lon="-2.40993">
        <ele>40.799999237061</ele>
        <time>2020-08-02T09:30:27.000Z</time>
      </trkpt>
      <trkpt lat="47.33109" lon="-2.41001">
        <ele>41.200000762939</ele>
        <time>2020-08-02T09:30:28.000Z</time>
      </trkpt>
      <trkpt lat="47.33106" lon="-2.41009">
        <ele>41.599998474121</ele>
        <time>2020-08-02T09:30:29.000Z</time>
      </trkpt>
      <trkpt lat="47.33103" lon="-2.41016">
        <ele>42</ele>
        <time>2020-08-02T09:30:30.000Z</time>
      </trkpt>
      <trkpt lat="47.33101" lon="-2.41025">
        <ele>42.400001525879</ele>
        <time>2020-08-02T09:30:31.000Z</time>
      </trkpt>
      <trkpt lat="47.33087" lon="-2.41065">
        <ele>42.400001525879</ele>
        <time>2020-08-02T09:30:36.000Z</time>
      </trkpt>
      <trkpt lat="47.33068" lon="-2.41122">
        <ele>42.400001525879</ele>
        <time>2020-08-02T09:30:43.000Z</time>
      </trkpt>
      <trkpt lat="47.33047" lon="-2.41163">
        <ele>42.400001525879</ele>
        <time>2020-08-02T09:30:49.000Z</time>
      </trkpt>
      <trkpt lat="47.3303" lon="-2.41196">
        <ele>42.400001525879</ele>
        <time>2020-08-02T09:30:55.000Z</time>
      </trkpt>
      <trkpt lat="47.33027" lon="-2.412">
        <ele>42.400001525879</ele>
        <time>2020-08-02T09:30:56.000Z</time>
      </trkpt>
      <trkpt lat="47.33008" lon="-2.41227">
        <ele>42.400001525879</ele>
        <time>2020-08-02T09:31:03.000Z</time>
      </trkpt>
      <trkpt lat="47.32999" lon="-2.41241">
        <ele>42.400001525879</ele>
        <time>2020-08-02T09:31:07.000Z</time>
      </trkpt>
      <trkpt lat="47.32996" lon="-2.41244">
        <ele>42.400001525879</ele>
        <time>2020-08-02T09:31:08.000Z</time>
      </trkpt>
      <trkpt lat="47.32977" lon="-2.41256">
        <ele>42.400001525879</ele>
        <time>2020-08-02T09:31:13.000Z</time>
      </trkpt>
      <trkpt lat="47.32968" lon="-2.41259">
        <ele>42.400001525879</ele>
        <time>2020-08-02T09:31:15.000Z</time>
      </trkpt>
      <trkpt lat="47.3296" lon="-2.41262">
        <ele>42.799999237061</ele>
        <time>2020-08-02T09:31:17.000Z</time>
      </trkpt>
      <trkpt lat="47.32956" lon="-2.41263">
        <ele>43.400001525879</ele>
        <time>2020-08-02T09:31:18.000Z</time>
      </trkpt>
      <trkpt lat="47.32952" lon="-2.41264">
        <ele>43.799999237061</ele>
        <time>2020-08-02T09:31:19.000Z</time>
      </trkpt>
      <trkpt lat="47.32948" lon="-2.41265">
        <ele>44.200000762939</ele>
        <time>2020-08-02T09:31:20.000Z</time>
      </trkpt>
      <trkpt lat="47.32944" lon="-2.41265">
        <ele>44.599998474121</ele>
        <time>2020-08-02T09:31:21.000Z</time>
      </trkpt>
      <trkpt lat="47.3294" lon="-2.41266">
        <ele>44.599998474121</ele>
        <time>2020-08-02T09:31:22.000Z</time>
      </trkpt>
      <trkpt lat="47.32936" lon="-2.41267">
        <ele>44.599998474121</ele>
        <time>2020-08-02T09:31:23.000Z</time>
      </trkpt>
      <trkpt lat="47.32924" lon="-2.41276">
        <ele>44.599998474121</ele>
        <time>2020-08-02T09:31:26.000Z</time>
      </trkpt>
      <trkpt lat="47.32903" lon="-2.41277">
        <ele>44.599998474121</ele>
        <time>2020-08-02T09:31:31.000Z</time>
      </trkpt>
      <trkpt lat="47.32866" lon="-2.41281">
        <ele>44.599998474121</ele>
        <time>2020-08-02T09:31:39.000Z</time>
      </trkpt>
      <trkpt lat="47.32835" lon="-2.41284">
        <ele>44.599998474121</ele>
        <time>2020-08-02T09:31:46.000Z</time>
      </trkpt>
      <trkpt lat="47.32816" lon="-2.41283">
        <ele>44.599998474121</ele>
        <time>2020-08-02T09:31:50.000Z</time>
      </trkpt>
      <trkpt lat="47.32812" lon="-2.41283">
        <ele>44.599998474121</ele>
        <time>2020-08-02T09:31:51.000Z</time>
      </trkpt>
      <trkpt lat="47.32773" lon="-2.41286">
        <ele>44.599998474121</ele>
        <time>2020-08-02T09:31:59.000Z</time>
      </trkpt>
      <trkpt lat="47.32754" lon="-2.41292">
        <ele>44.599998474121</ele>
        <time>2020-08-02T09:32:03.000Z</time>
      </trkpt>
      <trkpt lat="47.32746" lon="-2.41297">
        <ele>44.599998474121</ele>
        <time>2020-08-02T09:32:05.000Z</time>
      </trkpt>
      <trkpt lat="47.32743" lon="-2.41301">
        <ele>44.599998474121</ele>
        <time>2020-08-02T09:32:06.000Z</time>
      </trkpt>
      <trkpt lat="47.32736" lon="-2.41317">
        <ele>44.599998474121</ele>
        <time>2020-08-02T09:32:09.000Z</time>
      </trkpt>
      <trkpt lat="47.32733" lon="-2.41321">
        <ele>44.599998474121</ele>
        <time>2020-08-02T09:32:10.000Z</time>
      </trkpt>
      <trkpt lat="47.3272" lon="-2.41326">
        <ele>44.599998474121</ele>
        <time>2020-08-02T09:32:13.000Z</time>
      </trkpt>
      <trkpt lat="47.32715" lon="-2.41325">
        <ele>44.599998474121</ele>
        <time>2020-08-02T09:32:14.000Z</time>
      </trkpt>
      <trkpt lat="47.3271" lon="-2.41324">
        <ele>44.599998474121</ele>
        <time>2020-08-02T09:32:15.000Z</time>
      </trkpt>
      <trkpt lat="47.327" lon="-2.41323">
        <ele>44.599998474121</ele>
        <time>2020-08-02T09:32:17.000Z</time>
      </trkpt>
      <trkpt lat="47.32695" lon="-2.41325">
        <ele>44.599998474121</ele>
        <time>2020-08-02T09:32:18.000Z</time>
      </trkpt>
      <trkpt lat="47.32681" lon="-2.41335">
        <ele>45</ele>
        <time>2020-08-02T09:32:21.000Z</time>
      </trkpt>
      <trkpt lat="47.32677" lon="-2.41338">
        <ele>45.400001525879</ele>
        <time>2020-08-02T09:32:22.000Z</time>
      </trkpt>
      <trkpt lat="47.32672" lon="-2.4134">
        <ele>45.799999237061</ele>
        <time>2020-08-02T09:32:23.000Z</time>
      </trkpt>
      <trkpt lat="47.32667" lon="-2.41343">
        <ele>46.200000762939</ele>
        <time>2020-08-02T09:32:24.000Z</time>
      </trkpt>
      <trkpt lat="47.32662" lon="-2.41346">
        <ele>46.599998474121</ele>
        <time>2020-08-02T09:32:25.000Z</time>
      </trkpt>
      <trkpt lat="47.32627" lon="-2.41366">
        <ele>46.599998474121</ele>
        <time>2020-08-02T09:32:33.000Z</time>
      </trkpt>
      <trkpt lat="47.3261" lon="-2.41376">
        <ele>47</ele>
        <time>2020-08-02T09:32:37.000Z</time>
      </trkpt>
      <trkpt lat="47.32606" lon="-2.41378">
        <ele>47.400001525879</ele>
        <time>2020-08-02T09:32:38.000Z</time>
      </trkpt>
      <trkpt lat="47.32602" lon="-2.41381">
        <ele>47.799999237061</ele>
        <time>2020-08-02T09:32:39.000Z</time>
      </trkpt>
      <trkpt lat="47.32598" lon="-2.41383">
        <ele>48.200000762939</ele>
        <time>2020-08-02T09:32:40.000Z</time>
      </trkpt>
      <trkpt lat="47.32594" lon="-2.41385">
        <ele>48.799999237061</ele>
        <time>2020-08-02T09:32:41.000Z</time>
      </trkpt>
      <trkpt lat="47.32589" lon="-2.41388">
        <ele>48.799999237061</ele>
        <time>2020-08-02T09:32:42.000Z</time>
      </trkpt>
      <trkpt lat="47.3258" lon="-2.41404">
        <ele>48.799999237061</ele>
        <time>2020-08-02T09:32:45.000Z</time>
      </trkpt>
      <trkpt lat="47.32577" lon="-2.41429">
        <ele>48.799999237061</ele>
        <time>2020-08-02T09:32:49.000Z</time>
      </trkpt>
      <trkpt lat="47.32576" lon="-2.41435">
        <ele>48.799999237061</ele>
        <time>2020-08-02T09:32:50.000Z</time>
      </trkpt>
      <trkpt lat="47.32575" lon="-2.41452">
        <ele>49.200000762939</ele>
        <time>2020-08-02T09:32:53.000Z</time>
      </trkpt>
      <trkpt lat="47.32575" lon="-2.41456">
        <ele>49.599998474121</ele>
        <time>2020-08-02T09:32:54.000Z</time>
      </trkpt>
      <trkpt lat="47.32574" lon="-2.4146">
        <ele>50</ele>
        <time>2020-08-02T09:32:55.000Z</time>
      </trkpt>
      <trkpt lat="47.32574" lon="-2.41463">
        <ele>50.400001525879</ele>
        <time>2020-08-02T09:32:56.000Z</time>
      </trkpt>
      <trkpt lat="47.32573" lon="-2.41465">
        <ele>50.799999237061</ele>
        <time>2020-08-02T09:32:57.000Z</time>
      </trkpt>
      <trkpt lat="47.32572" lon="-2.41467">
        <ele>50.799999237061</ele>
        <time>2020-08-02T09:33:00.000Z</time>
      </trkpt>
      <trkpt lat="47.3257" lon="-2.41467">
        <ele>50.799999237061</ele>
        <time>2020-08-02T09:33:05.000Z</time>
      </trkpt>
      <trkpt lat="47.32567" lon="-2.41463">
        <ele>50.799999237061</ele>
        <time>2020-08-02T09:33:08.000Z</time>
      </trkpt>
      <trkpt lat="47.32561" lon="-2.41454">
        <ele>50.799999237061</ele>
        <time>2020-08-02T09:33:11.000Z</time>
      </trkpt>
      <trkpt lat="47.32557" lon="-2.41446">
        <ele>50.799999237061</ele>
        <time>2020-08-02T09:33:13.000Z</time>
      </trkpt>
      <trkpt lat="47.32543" lon="-2.41416">
        <ele>50.799999237061</ele>
        <time>2020-08-02T09:33:19.000Z</time>
      </trkpt>
      <trkpt lat="47.32522" lon="-2.41377">
        <ele>50.799999237061</ele>
        <time>2020-08-02T09:33:26.000Z</time>
      </trkpt>
      <trkpt lat="47.32498" lon="-2.41331">
        <ele>50.799999237061</ele>
        <time>2020-08-02T09:33:33.000Z</time>
      </trkpt>
      <trkpt lat="47.32466" lon="-2.41271">
        <ele>50.799999237061</ele>
        <time>2020-08-02T09:33:42.000Z</time>
      </trkpt>
      <trkpt lat="47.3246" lon="-2.41258">
        <ele>51.200000762939</ele>
        <time>2020-08-02T09:33:44.000Z</time>
      </trkpt>
      <trkpt lat="47.32457" lon="-2.41251">
        <ele>51.599998474121</ele>
        <time>2020-08-02T09:33:45.000Z</time>
      </trkpt>
      <trkpt lat="47.32454" lon="-2.41245">
        <ele>52</ele>
        <time>2020-08-02T09:33:46.000Z</time>
      </trkpt>
      <trkpt lat="47.3245" lon="-2.41239">
        <ele>52.400001525879</ele>
        <time>2020-08-02T09:33:47.000Z</time>
      </trkpt>
      <trkpt lat="47.32447" lon="-2.41233">
        <ele>52.799999237061</ele>
        <time>2020-08-02T09:33:48.000Z</time>
      </trkpt>
      <trkpt lat="47.32441" lon="-2.41222">
        <ele>52.799999237061</ele>
        <time>2020-08-02T09:33:50.000Z</time>
      </trkpt>
      <trkpt lat="47.32429" lon="-2.41195">
        <ele>52.799999237061</ele>
        <time>2020-08-02T09:33:55.000Z</time>
      </trkpt>
      <trkpt lat="47.32419" lon="-2.4118">
        <ele>52.799999237061</ele>
        <time>2020-08-02T09:33:59.000Z</time>
      </trkpt>
      <trkpt lat="47.32403" lon="-2.4115">
        <ele>52.799999237061</ele>
        <time>2020-08-02T09:34:04.000Z</time>
      </trkpt>
      <trkpt lat="47.32382" lon="-2.41105">
        <ele>52.799999237061</ele>
        <time>2020-08-02T09:34:11.000Z</time>
      </trkpt>
      <trkpt lat="47.32365" lon="-2.41076">
        <ele>52.799999237061</ele>
        <time>2020-08-02T09:34:17.000Z</time>
      </trkpt>
      <trkpt lat="47.32358" lon="-2.41063">
        <ele>52.799999237061</ele>
        <time>2020-08-02T09:34:20.000Z</time>
      </trkpt>
      <trkpt lat="47.32355" lon="-2.41058">
        <ele>52.799999237061</ele>
        <time>2020-08-02T09:34:21.000Z</time>
      </trkpt>
      <trkpt lat="47.3234" lon="-2.41029">
        <ele>52.799999237061</ele>
        <time>2020-08-02T09:34:26.000Z</time>
      </trkpt>
      <trkpt lat="47.32322" lon="-2.40993">
        <ele>52.799999237061</ele>
        <time>2020-08-02T09:34:32.000Z</time>
      </trkpt>
      <trkpt lat="47.32298" lon="-2.40949">
        <ele>52.799999237061</ele>
        <time>2020-08-02T09:34:38.000Z</time>
      </trkpt>
      <trkpt lat="47.32268" lon="-2.40894">
        <ele>52.400001525879</ele>
        <time>2020-08-02T09:34:45.000Z</time>
      </trkpt>
      <trkpt lat="47.32264" lon="-2.40886">
        <ele>52</ele>
        <time>2020-08-02T09:34:46.000Z</time>
      </trkpt>
      <trkpt lat="47.32259" lon="-2.40878">
        <ele>51.400001525879</ele>
        <time>2020-08-02T09:34:47.000Z</time>
      </trkpt>
      <trkpt lat="47.32255" lon="-2.4087">
        <ele>51</ele>
        <time>2020-08-02T09:34:48.000Z</time>
      </trkpt>
      <trkpt lat="47.3225" lon="-2.40863">
        <ele>50.599998474121</ele>
        <time>2020-08-02T09:34:49.000Z</time>
      </trkpt>
      <trkpt lat="47.3223" lon="-2.40828">
        <ele>50.599998474121</ele>
        <time>2020-08-02T09:34:54.000Z</time>
      </trkpt>
      <trkpt lat="47.32216" lon="-2.40803">
        <ele>50.599998474121</ele>
        <time>2020-08-02T09:35:00.000Z</time>
      </trkpt>
      <trkpt lat="47.322" lon="-2.4078">
        <ele>50.599998474121</ele>
        <time>2020-08-02T09:35:06.000Z</time>
      </trkpt>
      <trkpt lat="47.32197" lon="-2.40775">
        <ele>50.599998474121</ele>
        <time>2020-08-02T09:35:07.000Z</time>
      </trkpt>
      <trkpt lat="47.32186" lon="-2.40759">
        <ele>50.599998474121</ele>
        <time>2020-08-02T09:35:10.000Z</time>
      </trkpt>
      <trkpt lat="47.32182" lon="-2.40753">
        <ele>50.599998474121</ele>
        <time>2020-08-02T09:35:11.000Z</time>
      </trkpt>
      <trkpt lat="47.32149" lon="-2.40713">
        <ele>50.599998474121</ele>
        <time>2020-08-02T09:35:18.000Z</time>
      </trkpt>
      <trkpt lat="47.32104" lon="-2.40662">
        <ele>50.599998474121</ele>
        <time>2020-08-02T09:35:27.000Z</time>
      </trkpt>
      <trkpt lat="47.3207" lon="-2.4063">
        <ele>50.599998474121</ele>
        <time>2020-08-02T09:35:33.000Z</time>
      </trkpt>
      <trkpt lat="47.32058" lon="-2.4062">
        <ele>50.599998474121</ele>
        <time>2020-08-02T09:35:35.000Z</time>
      </trkpt>
      <trkpt lat="47.32028" lon="-2.40596">
        <ele>50.599998474121</ele>
        <time>2020-08-02T09:35:40.000Z</time>
      </trkpt>
      <trkpt lat="47.32001" lon="-2.40574">
        <ele>50.200000762939</ele>
        <time>2020-08-02T09:35:44.000Z</time>
      </trkpt>
      <trkpt lat="47.31994" lon="-2.40569">
        <ele>49.799999237061</ele>
        <time>2020-08-02T09:35:45.000Z</time>
      </trkpt>
      <trkpt lat="47.31988" lon="-2.40565">
        <ele>49.400001525879</ele>
        <time>2020-08-02T09:35:46.000Z</time>
      </trkpt>
      <trkpt lat="47.31981" lon="-2.40561">
        <ele>49</ele>
        <time>2020-08-02T09:35:47.000Z</time>
      </trkpt>
      <trkpt lat="47.31975" lon="-2.40556">
        <ele>48.599998474121</ele>
        <time>2020-08-02T09:35:48.000Z</time>
      </trkpt>
      <trkpt lat="47.31927" lon="-2.40522">
        <ele>48.599998474121</ele>
        <time>2020-08-02T09:35:55.000Z</time>
      </trkpt>
      <trkpt lat="47.31884" lon="-2.40489">
        <ele>48.599998474121</ele>
        <time>2020-08-02T09:36:01.000Z</time>
      </trkpt>
      <trkpt lat="47.31857" lon="-2.40468">
        <ele>48.200000762939</ele>
        <time>2020-08-02T09:36:05.000Z</time>
      </trkpt>
      <trkpt lat="47.31851" lon="-2.40463">
        <ele>47.799999237061</ele>
        <time>2020-08-02T09:36:06.000Z</time>
      </trkpt>
      <trkpt lat="47.31844" lon="-2.40458">
        <ele>47.400001525879</ele>
        <time>2020-08-02T09:36:07.000Z</time>
      </trkpt>
      <trkpt lat="47.31838" lon="-2.40452">
        <ele>47</ele>
        <time>2020-08-02T09:36:08.000Z</time>
      </trkpt>
      <trkpt lat="47.31831" lon="-2.40447">
        <ele>46.599998474121</ele>
        <time>2020-08-02T09:36:09.000Z</time>
      </trkpt>
      <trkpt lat="47.31788" lon="-2.40415">
        <ele>46.599998474121</ele>
        <time>2020-08-02T09:36:15.000Z</time>
      </trkpt>
      <trkpt lat="47.3174" lon="-2.40378">
        <ele>46.200000762939</ele>
        <time>2020-08-02T09:36:22.000Z</time>
      </trkpt>
      <trkpt lat="47.31733" lon="-2.40373">
        <ele>45.599998474121</ele>
        <time>2020-08-02T09:36:23.000Z</time>
      </trkpt>
      <trkpt lat="47.31726" lon="-2.40367">
        <ele>45.200000762939</ele>
        <time>2020-08-02T09:36:24.000Z</time>
      </trkpt>
      <trkpt lat="47.31719" lon="-2.40362">
        <ele>44.400001525879</ele>
        <time>2020-08-02T09:36:25.000Z</time>
      </trkpt>
      <trkpt lat="47.3169" lon="-2.40342">
        <ele>44.400001525879</ele>
        <time>2020-08-02T09:36:29.000Z</time>
      </trkpt>
      <trkpt lat="47.31676" lon="-2.40331">
        <ele>44.400001525879</ele>
        <time>2020-08-02T09:36:31.000Z</time>
      </trkpt>
      <trkpt lat="47.31664" lon="-2.40317">
        <ele>44.400001525879</ele>
        <time>2020-08-02T09:36:33.000Z</time>
      </trkpt>
      <trkpt lat="47.31644" lon="-2.40299">
        <ele>44</ele>
        <time>2020-08-02T09:36:36.000Z</time>
      </trkpt>
      <trkpt lat="47.31638" lon="-2.40294">
        <ele>43.599998474121</ele>
        <time>2020-08-02T09:36:37.000Z</time>
      </trkpt>
      <trkpt lat="47.31631" lon="-2.40289">
        <ele>43.200000762939</ele>
        <time>2020-08-02T09:36:38.000Z</time>
      </trkpt>
      <trkpt lat="47.31624" lon="-2.40284">
        <ele>42.799999237061</ele>
        <time>2020-08-02T09:36:39.000Z</time>
      </trkpt>
      <trkpt lat="47.31617" lon="-2.40279">
        <ele>42.400001525879</ele>
        <time>2020-08-02T09:36:40.000Z</time>
      </trkpt>
      <trkpt lat="47.31592" lon="-2.40262">
        <ele>41.799999237061</ele>
        <time>2020-08-02T09:36:44.000Z</time>
      </trkpt>
      <trkpt lat="47.31586" lon="-2.40257">
        <ele>41.400001525879</ele>
        <time>2020-08-02T09:36:45.000Z</time>
      </trkpt>
      <trkpt lat="47.3158" lon="-2.40253">
        <ele>41</ele>
        <time>2020-08-02T09:36:46.000Z</time>
      </trkpt>
      <trkpt lat="47.31575" lon="-2.40249">
        <ele>40.599998474121</ele>
        <time>2020-08-02T09:36:47.000Z</time>
      </trkpt>
      <trkpt lat="47.31569" lon="-2.40244">
        <ele>40.200000762939</ele>
        <time>2020-08-02T09:36:48.000Z</time>
      </trkpt>
      <trkpt lat="47.31543" lon="-2.40223">
        <ele>40.200000762939</ele>
        <time>2020-08-02T09:36:53.000Z</time>
      </trkpt>
      <trkpt lat="47.31506" lon="-2.40197">
        <ele>40.200000762939</ele>
        <time>2020-08-02T09:37:00.000Z</time>
      </trkpt>
      <trkpt lat="47.31496" lon="-2.40188">
        <ele>39.599998474121</ele>
        <time>2020-08-02T09:37:02.000Z</time>
      </trkpt>
      <trkpt lat="47.3149" lon="-2.40184">
        <ele>39.200000762939</ele>
        <time>2020-08-02T09:37:03.000Z</time>
      </trkpt>
      <trkpt lat="47.31484" lon="-2.4018">
        <ele>38.799999237061</ele>
        <time>2020-08-02T09:37:04.000Z</time>
      </trkpt>
      <trkpt lat="47.31479" lon="-2.40175">
        <ele>38.400001525879</ele>
        <time>2020-08-02T09:37:05.000Z</time>
      </trkpt>
      <trkpt lat="47.31472" lon="-2.40171">
        <ele>38</ele>
        <time>2020-08-02T09:37:06.000Z</time>
      </trkpt>
      <trkpt lat="47.31466" lon="-2.40166">
        <ele>38</ele>
        <time>2020-08-02T09:37:07.000Z</time>
      </trkpt>
      <trkpt lat="47.3143" lon="-2.40139">
        <ele>37.599998474121</ele>
        <time>2020-08-02T09:37:13.000Z</time>
      </trkpt>
      <trkpt lat="47.31424" lon="-2.40134">
        <ele>36.799999237061</ele>
        <time>2020-08-02T09:37:14.000Z</time>
      </trkpt>
      <trkpt lat="47.31419" lon="-2.40131">
        <ele>36.400001525879</ele>
        <time>2020-08-02T09:37:15.000Z</time>
      </trkpt>
      <trkpt lat="47.31414" lon="-2.40127">
        <ele>36</ele>
        <time>2020-08-02T09:37:16.000Z</time>
      </trkpt>
      <trkpt lat="47.31393" lon="-2.40112">
        <ele>36</ele>
        <time>2020-08-02T09:37:21.000Z</time>
      </trkpt>
      <trkpt lat="47.31353" lon="-2.40085">
        <ele>36</ele>
        <time>2020-08-02T09:37:28.000Z</time>
      </trkpt>
      <trkpt lat="47.31337" lon="-2.40081">
        <ele>36</ele>
        <time>2020-08-02T09:37:30.000Z</time>
      </trkpt>
      <trkpt lat="47.31311" lon="-2.40075">
        <ele>36</ele>
        <time>2020-08-02T09:37:34.000Z</time>
      </trkpt>
      <trkpt lat="47.31282" lon="-2.40072">
        <ele>35.599998474121</ele>
        <time>2020-08-02T09:37:39.000Z</time>
      </trkpt>
      <trkpt lat="47.31276" lon="-2.40071">
        <ele>34.599998474121</ele>
        <time>2020-08-02T09:37:40.000Z</time>
      </trkpt>
      <trkpt lat="47.31269" lon="-2.40068">
        <ele>34.200000762939</ele>
        <time>2020-08-02T09:37:41.000Z</time>
      </trkpt>
      <trkpt lat="47.31262" lon="-2.40065">
        <ele>33.799999237061</ele>
        <time>2020-08-02T09:37:42.000Z</time>
      </trkpt>
      <trkpt lat="47.31253" lon="-2.40058">
        <ele>33.799999237061</ele>
        <time>2020-08-02T09:37:44.000Z</time>
      </trkpt>
      <trkpt lat="47.31247" lon="-2.40051">
        <ele>33.799999237061</ele>
        <time>2020-08-02T09:37:47.000Z</time>
      </trkpt>
      <trkpt lat="47.31241" lon="-2.40048">
        <ele>33.799999237061</ele>
        <time>2020-08-02T09:37:49.000Z</time>
      </trkpt>
      <trkpt lat="47.31237" lon="-2.40043">
        <ele>33.799999237061</ele>
        <time>2020-08-02T09:37:51.000Z</time>
      </trkpt>
      <trkpt lat="47.3123" lon="-2.40018">
        <ele>33.799999237061</ele>
        <time>2020-08-02T09:37:56.000Z</time>
      </trkpt>
      <trkpt lat="47.31219" lon="-2.39979">
        <ele>33.799999237061</ele>
        <time>2020-08-02T09:38:04.000Z</time>
      </trkpt>
      <trkpt lat="47.31212" lon="-2.3996">
        <ele>34.200000762939</ele>
        <time>2020-08-02T09:38:08.000Z</time>
      </trkpt>
      <trkpt lat="47.31211" lon="-2.39955">
        <ele>34.599998474121</ele>
        <time>2020-08-02T09:38:09.000Z</time>
      </trkpt>
      <trkpt lat="47.31208" lon="-2.3995">
        <ele>35.200000762939</ele>
        <time>2020-08-02T09:38:10.000Z</time>
      </trkpt>
      <trkpt lat="47.31206" lon="-2.39946">
        <ele>35.599998474121</ele>
        <time>2020-08-02T09:38:11.000Z</time>
      </trkpt>
      <trkpt lat="47.31204" lon="-2.3994">
        <ele>36</ele>
        <time>2020-08-02T09:38:12.000Z</time>
      </trkpt>
      <trkpt lat="47.31196" lon="-2.39916">
        <ele>36</ele>
        <time>2020-08-02T09:38:17.000Z</time>
      </trkpt>
      <trkpt lat="47.31188" lon="-2.39891">
        <ele>36.400001525879</ele>
        <time>2020-08-02T09:38:22.000Z</time>
      </trkpt>
      <trkpt lat="47.31187" lon="-2.39887">
        <ele>36.799999237061</ele>
        <time>2020-08-02T09:38:23.000Z</time>
      </trkpt>
      <trkpt lat="47.31186" lon="-2.39882">
        <ele>37.400001525879</ele>
        <time>2020-08-02T09:38:24.000Z</time>
      </trkpt>
      <trkpt lat="47.31184" lon="-2.39877">
        <ele>37.799999237061</ele>
        <time>2020-08-02T09:38:25.000Z</time>
      </trkpt>
      <trkpt lat="47.31182" lon="-2.39868">
        <ele>38.200000762939</ele>
        <time>2020-08-02T09:38:26.000Z</time>
      </trkpt>
      <trkpt lat="47.31176" lon="-2.39846">
        <ele>38.200000762939</ele>
        <time>2020-08-02T09:38:29.000Z</time>
      </trkpt>
      <trkpt lat="47.31167" lon="-2.39829">
        <ele>38.200000762939</ele>
        <time>2020-08-02T09:38:32.000Z</time>
      </trkpt>
      <trkpt lat="47.31156" lon="-2.39802">
        <ele>38.200000762939</ele>
        <time>2020-08-02T09:38:37.000Z</time>
      </trkpt>
      <trkpt lat="47.31155" lon="-2.39797">
        <ele>38.200000762939</ele>
        <time>2020-08-02T09:38:38.000Z</time>
      </trkpt>
      <trkpt lat="47.31138" lon="-2.39751">
        <ele>38.200000762939</ele>
        <time>2020-08-02T09:38:47.000Z</time>
      </trkpt>
      <trkpt lat="47.31126" lon="-2.39716">
        <ele>38.799999237061</ele>
        <time>2020-08-02T09:38:54.000Z</time>
      </trkpt>
      <trkpt lat="47.31124" lon="-2.39711">
        <ele>39.200000762939</ele>
        <time>2020-08-02T09:38:55.000Z</time>
      </trkpt>
      <trkpt lat="47.31122" lon="-2.39706">
        <ele>39.599998474121</ele>
        <time>2020-08-02T09:38:56.000Z</time>
      </trkpt>
      <trkpt lat="47.3112" lon="-2.39701">
        <ele>40</ele>
        <time>2020-08-02T09:38:57.000Z</time>
      </trkpt>
      <trkpt lat="47.31119" lon="-2.39696">
        <ele>40.400001525879</ele>
        <time>2020-08-02T09:38:58.000Z</time>
      </trkpt>
      <trkpt lat="47.31106" lon="-2.39664">
        <ele>40.400001525879</ele>
        <time>2020-08-02T09:39:05.000Z</time>
      </trkpt>
      <trkpt lat="47.31093" lon="-2.39624">
        <ele>40.400001525879</ele>
        <time>2020-08-02T09:39:14.000Z</time>
      </trkpt>
      <trkpt lat="47.31086" lon="-2.39603">
        <ele>40.400001525879</ele>
        <time>2020-08-02T09:39:21.000Z</time>
      </trkpt>
      <trkpt lat="47.3108" lon="-2.39585">
        <ele>40.400001525879</ele>
        <time>2020-08-02T09:39:26.000Z</time>
      </trkpt>
      <trkpt lat="47.31067" lon="-2.39552">
        <ele>40.400001525879</ele>
        <time>2020-08-02T09:39:33.000Z</time>
      </trkpt>
      <trkpt lat="47.31063" lon="-2.39539">
        <ele>40.400001525879</ele>
        <time>2020-08-02T09:39:35.000Z</time>
      </trkpt>
      <trkpt lat="47.31058" lon="-2.39527">
        <ele>40.400001525879</ele>
        <time>2020-08-02T09:39:37.000Z</time>
      </trkpt>
      <trkpt lat="47.31056" lon="-2.3952">
        <ele>40.400001525879</ele>
        <time>2020-08-02T09:39:38.000Z</time>
      </trkpt>
      <trkpt lat="47.31046" lon="-2.3949">
        <ele>40.400001525879</ele>
        <time>2020-08-02T09:39:42.000Z</time>
      </trkpt>
      <trkpt lat="47.3103" lon="-2.39445">
        <ele>40.400001525879</ele>
        <time>2020-08-02T09:39:48.000Z</time>
      </trkpt>
      <trkpt lat="47.31022" lon="-2.39418">
        <ele>40.400001525879</ele>
        <time>2020-08-02T09:39:53.000Z</time>
      </trkpt>
      <trkpt lat="47.31006" lon="-2.39372">
        <ele>40.400001525879</ele>
        <time>2020-08-02T09:40:02.000Z</time>
      </trkpt>
      <trkpt lat="47.30992" lon="-2.39329">
        <ele>40.400001525879</ele>
        <time>2020-08-02T09:40:09.000Z</time>
      </trkpt>
      <trkpt lat="47.30972" lon="-2.39273">
        <ele>40.400001525879</ele>
        <time>2020-08-02T09:40:17.000Z</time>
      </trkpt>
      <trkpt lat="47.30951" lon="-2.39223">
        <ele>40.400001525879</ele>
        <time>2020-08-02T09:40:24.000Z</time>
      </trkpt>
      <trkpt lat="47.30925" lon="-2.39161">
        <ele>40.400001525879</ele>
        <time>2020-08-02T09:40:33.000Z</time>
      </trkpt>
      <trkpt lat="47.30904" lon="-2.39101">
        <ele>40.400001525879</ele>
        <time>2020-08-02T09:40:41.000Z</time>
      </trkpt>
      <trkpt lat="47.30897" lon="-2.39078">
        <ele>40.799999237061</ele>
        <time>2020-08-02T09:40:44.000Z</time>
      </trkpt>
      <trkpt lat="47.30896" lon="-2.3907">
        <ele>41.200000762939</ele>
        <time>2020-08-02T09:40:45.000Z</time>
      </trkpt>
      <trkpt lat="47.30896" lon="-2.39062">
        <ele>41.599998474121</ele>
        <time>2020-08-02T09:40:46.000Z</time>
      </trkpt>
      <trkpt lat="47.30896" lon="-2.39054">
        <ele>42</ele>
        <time>2020-08-02T09:40:47.000Z</time>
      </trkpt>
      <trkpt lat="47.30897" lon="-2.39046">
        <ele>42.400001525879</ele>
        <time>2020-08-02T09:40:48.000Z</time>
      </trkpt>
      <trkpt lat="47.30898" lon="-2.39038">
        <ele>42.400001525879</ele>
        <time>2020-08-02T09:40:49.000Z</time>
      </trkpt>
      <trkpt lat="47.30901" lon="-2.39005">
        <ele>42.400001525879</ele>
        <time>2020-08-02T09:40:53.000Z</time>
      </trkpt>
      <trkpt lat="47.30904" lon="-2.38981">
        <ele>42.400001525879</ele>
        <time>2020-08-02T09:40:56.000Z</time>
      </trkpt>
      <trkpt lat="47.30909" lon="-2.38966">
        <ele>42.400001525879</ele>
        <time>2020-08-02T09:40:58.000Z</time>
      </trkpt>
      <trkpt lat="47.30916" lon="-2.38951">
        <ele>42.400001525879</ele>
        <time>2020-08-02T09:41:00.000Z</time>
      </trkpt>
      <trkpt lat="47.30926" lon="-2.38928">
        <ele>42.400001525879</ele>
        <time>2020-08-02T09:41:03.000Z</time>
      </trkpt>
      <trkpt lat="47.30923" lon="-2.38901">
        <ele>42.400001525879</ele>
        <time>2020-08-02T09:41:06.000Z</time>
      </trkpt>
      <trkpt lat="47.3091" lon="-2.38885">
        <ele>42.400001525879</ele>
        <time>2020-08-02T09:41:09.000Z</time>
      </trkpt>
      <trkpt lat="47.30903" lon="-2.38883">
        <ele>42</ele>
        <time>2020-08-02T09:41:12.000Z</time>
      </trkpt>
      <trkpt lat="47.30902" lon="-2.38883">
        <ele>41.400001525879</ele>
        <time>2020-08-02T09:41:13.000Z</time>
      </trkpt>
      <trkpt lat="47.30901" lon="-2.38883">
        <ele>41</ele>
        <time>2020-08-02T09:41:14.000Z</time>
      </trkpt>
      <trkpt lat="47.30899" lon="-2.38884">
        <ele>40.599998474121</ele>
        <time>2020-08-02T09:41:15.000Z</time>
      </trkpt>
      <trkpt lat="47.30898" lon="-2.38885">
        <ele>40.200000762939</ele>
        <time>2020-08-02T09:41:16.000Z</time>
      </trkpt>
      <trkpt lat="47.30892" lon="-2.38887">
        <ele>40.200000762939</ele>
        <time>2020-08-02T09:41:18.000Z</time>
      </trkpt>
      <trkpt lat="47.30874" lon="-2.38888">
        <ele>40.200000762939</ele>
        <time>2020-08-02T09:41:22.000Z</time>
      </trkpt>
      <trkpt lat="47.3085" lon="-2.38894">
        <ele>40.200000762939</ele>
        <time>2020-08-02T09:41:26.000Z</time>
      </trkpt>
      <trkpt lat="47.30837" lon="-2.38903">
        <ele>40.200000762939</ele>
        <time>2020-08-02T09:41:28.000Z</time>
      </trkpt>
      <trkpt lat="47.3082" lon="-2.38915">
        <ele>39.799999237061</ele>
        <time>2020-08-02T09:41:30.000Z</time>
      </trkpt>
      <trkpt lat="47.30812" lon="-2.38921">
        <ele>39.200000762939</ele>
        <time>2020-08-02T09:41:31.000Z</time>
      </trkpt>
      <trkpt lat="47.30803" lon="-2.38927">
        <ele>38.799999237061</ele>
        <time>2020-08-02T09:41:32.000Z</time>
      </trkpt>
      <trkpt lat="47.30795" lon="-2.38933">
        <ele>38.400001525879</ele>
        <time>2020-08-02T09:41:33.000Z</time>
      </trkpt>
      <trkpt lat="47.30787" lon="-2.38939">
        <ele>37.799999237061</ele>
        <time>2020-08-02T09:41:34.000Z</time>
      </trkpt>
      <trkpt lat="47.30766" lon="-2.38957">
        <ele>37.799999237061</ele>
        <time>2020-08-02T09:41:37.000Z</time>
      </trkpt>
      <trkpt lat="47.30756" lon="-2.38969">
        <ele>37.799999237061</ele>
        <time>2020-08-02T09:41:39.000Z</time>
      </trkpt>
      <trkpt lat="47.30749" lon="-2.38982">
        <ele>37.799999237061</ele>
        <time>2020-08-02T09:41:41.000Z</time>
      </trkpt>
      <trkpt lat="47.30738" lon="-2.39">
        <ele>37.799999237061</ele>
        <time>2020-08-02T09:41:44.000Z</time>
      </trkpt>
      <trkpt lat="47.30732" lon="-2.39001">
        <ele>37.799999237061</ele>
        <time>2020-08-02T09:41:45.000Z</time>
      </trkpt>
      <trkpt lat="47.30719" lon="-2.38992">
        <ele>37.799999237061</ele>
        <time>2020-08-02T09:41:48.000Z</time>
      </trkpt>
      <trkpt lat="47.30707" lon="-2.38974">
        <ele>37.799999237061</ele>
        <time>2020-08-02T09:41:51.000Z</time>
      </trkpt>
      <trkpt lat="47.30698" lon="-2.38962">
        <ele>37.799999237061</ele>
        <time>2020-08-02T09:41:53.000Z</time>
      </trkpt>
      <trkpt lat="47.30694" lon="-2.38955">
        <ele>37.799999237061</ele>
        <time>2020-08-02T09:41:54.000Z</time>
      </trkpt>
      <trkpt lat="47.30692" lon="-2.38939">
        <ele>37.799999237061</ele>
        <time>2020-08-02T09:41:56.000Z</time>
      </trkpt>
      <trkpt lat="47.30693" lon="-2.38931">
        <ele>38.200000762939</ele>
        <time>2020-08-02T09:41:57.000Z</time>
      </trkpt>
      <trkpt lat="47.30692" lon="-2.38923">
        <ele>38.799999237061</ele>
        <time>2020-08-02T09:41:58.000Z</time>
      </trkpt>
      <trkpt lat="47.3069" lon="-2.38917">
        <ele>39.200000762939</ele>
        <time>2020-08-02T09:41:59.000Z</time>
      </trkpt>
      <trkpt lat="47.30686" lon="-2.38914">
        <ele>39.599998474121</ele>
        <time>2020-08-02T09:42:00.000Z</time>
      </trkpt>
      <trkpt lat="47.30682" lon="-2.38913">
        <ele>40</ele>
        <time>2020-08-02T09:42:01.000Z</time>
      </trkpt>
      <trkpt lat="47.30679" lon="-2.38913">
        <ele>40</ele>
        <time>2020-08-02T09:42:02.000Z</time>
      </trkpt>
      <trkpt lat="47.30666" lon="-2.38925">
        <ele>40</ele>
        <time>2020-08-02T09:42:05.000Z</time>
      </trkpt>
      <trkpt lat="47.30661" lon="-2.3893">
        <ele>40</ele>
        <time>2020-08-02T09:42:06.000Z</time>
      </trkpt>
      <trkpt lat="47.30625" lon="-2.38963">
        <ele>40</ele>
        <time>2020-08-02T09:42:12.000Z</time>
      </trkpt>
      <trkpt lat="47.30589" lon="-2.39005">
        <ele>40</ele>
        <time>2020-08-02T09:42:18.000Z</time>
      </trkpt>
      <trkpt lat="47.30554" lon="-2.39047">
        <ele>40</ele>
        <time>2020-08-02T09:42:24.000Z</time>
      </trkpt>
      <trkpt lat="47.3051" lon="-2.3909">
        <ele>40</ele>
        <time>2020-08-02T09:42:31.000Z</time>
      </trkpt>
      <trkpt lat="47.30466" lon="-2.39137">
        <ele>39.599998474121</ele>
        <time>2020-08-02T09:42:38.000Z</time>
      </trkpt>
      <trkpt lat="47.3046" lon="-2.39144">
        <ele>39.200000762939</ele>
        <time>2020-08-02T09:42:39.000Z</time>
      </trkpt>
      <trkpt lat="47.30453" lon="-2.39152">
        <ele>38.799999237061</ele>
        <time>2020-08-02T09:42:40.000Z</time>
      </trkpt>
      <trkpt lat="47.30446" lon="-2.39159">
        <ele>38.400001525879</ele>
        <time>2020-08-02T09:42:41.000Z</time>
      </trkpt>
      <trkpt lat="47.3044" lon="-2.39166">
        <ele>37.799999237061</ele>
        <time>2020-08-02T09:42:42.000Z</time>
      </trkpt>
      <trkpt lat="47.30432" lon="-2.39172">
        <ele>37.799999237061</ele>
        <time>2020-08-02T09:42:43.000Z</time>
      </trkpt>
      <trkpt lat="47.30424" lon="-2.39174">
        <ele>37.400001525879</ele>
        <time>2020-08-02T09:42:44.000Z</time>
      </trkpt>
      <trkpt lat="47.30415" lon="-2.39175">
        <ele>37</ele>
        <time>2020-08-02T09:42:45.000Z</time>
      </trkpt>
      <trkpt lat="47.30407" lon="-2.39174">
        <ele>36.599998474121</ele>
        <time>2020-08-02T09:42:46.000Z</time>
      </trkpt>
      <trkpt lat="47.30398" lon="-2.3917">
        <ele>36.200000762939</ele>
        <time>2020-08-02T09:42:47.000Z</time>
      </trkpt>
      <trkpt lat="47.30391" lon="-2.39166">
        <ele>35.799999237061</ele>
        <time>2020-08-02T09:42:48.000Z</time>
      </trkpt>
      <trkpt lat="47.30379" lon="-2.39151">
        <ele>35.799999237061</ele>
        <time>2020-08-02T09:42:50.000Z</time>
      </trkpt>
      <trkpt lat="47.30363" lon="-2.39114">
        <ele>35.400001525879</ele>
        <time>2020-08-02T09:42:54.000Z</time>
      </trkpt>
      <trkpt lat="47.30361" lon="-2.39105">
        <ele>35</ele>
        <time>2020-08-02T09:42:55.000Z</time>
      </trkpt>
      <trkpt lat="47.30359" lon="-2.39095">
        <ele>34.599998474121</ele>
        <time>2020-08-02T09:42:56.000Z</time>
      </trkpt>
      <trkpt lat="47.30357" lon="-2.39086">
        <ele>34.200000762939</ele>
        <time>2020-08-02T09:42:57.000Z</time>
      </trkpt>
      <trkpt lat="47.30355" lon="-2.39076">
        <ele>33.599998474121</ele>
        <time>2020-08-02T09:42:58.000Z</time>
      </trkpt>
      <trkpt lat="47.30354" lon="-2.39067">
        <ele>33.599998474121</ele>
        <time>2020-08-02T09:42:59.000Z</time>
      </trkpt>
      <trkpt lat="47.3034" lon="-2.39012">
        <ele>33.599998474121</ele>
        <time>2020-08-02T09:43:05.000Z</time>
      </trkpt>
      <trkpt lat="47.30327" lon="-2.38975">
        <ele>33.599998474121</ele>
        <time>2020-08-02T09:43:09.000Z</time>
      </trkpt>
      <trkpt lat="47.30318" lon="-2.38959">
        <ele>33.599998474121</ele>
        <time>2020-08-02T09:43:11.000Z</time>
      </trkpt>
      <trkpt lat="47.30286" lon="-2.38899">
        <ele>33.599998474121</ele>
        <time>2020-08-02T09:43:18.000Z</time>
      </trkpt>
      <trkpt lat="47.3028" lon="-2.3888">
        <ele>33.200000762939</ele>
        <time>2020-08-02T09:43:20.000Z</time>
      </trkpt>
      <trkpt lat="47.30277" lon="-2.3887">
        <ele>32.799999237061</ele>
        <time>2020-08-02T09:43:21.000Z</time>
      </trkpt>
      <trkpt lat="47.30273" lon="-2.38861">
        <ele>32.400001525879</ele>
        <time>2020-08-02T09:43:22.000Z</time>
      </trkpt>
      <trkpt lat="47.3027" lon="-2.38852">
        <ele>31.799999237061</ele>
        <time>2020-08-02T09:43:23.000Z</time>
      </trkpt>
      <trkpt lat="47.30267" lon="-2.38843">
        <ele>31.39999961853</ele>
        <time>2020-08-02T09:43:24.000Z</time>
      </trkpt>
      <trkpt lat="47.30259" lon="-2.38825">
        <ele>31.39999961853</ele>
        <time>2020-08-02T09:43:26.000Z</time>
      </trkpt>
      <trkpt lat="47.30255" lon="-2.38817">
        <ele>31.39999961853</ele>
        <time>2020-08-02T09:43:27.000Z</time>
      </trkpt>
      <trkpt lat="47.30239" lon="-2.38791">
        <ele>31.39999961853</ele>
        <time>2020-08-02T09:43:30.000Z</time>
      </trkpt>
      <trkpt lat="47.30232" lon="-2.38784">
        <ele>31.39999961853</ele>
        <time>2020-08-02T09:43:31.000Z</time>
      </trkpt>
      <trkpt lat="47.30226" lon="-2.38777">
        <ele>30.799999237061</ele>
        <time>2020-08-02T09:43:32.000Z</time>
      </trkpt>
      <trkpt lat="47.30218" lon="-2.38771">
        <ele>30.39999961853</ele>
        <time>2020-08-02T09:43:33.000Z</time>
      </trkpt>
      <trkpt lat="47.30211" lon="-2.38767">
        <ele>29.60000038147</ele>
        <time>2020-08-02T09:43:34.000Z</time>
      </trkpt>
      <trkpt lat="47.30205" lon="-2.38764">
        <ele>28.799999237061</ele>
        <time>2020-08-02T09:43:35.000Z</time>
      </trkpt>
      <trkpt lat="47.302" lon="-2.38763">
        <ele>28.200000762939</ele>
        <time>2020-08-02T09:43:36.000Z</time>
      </trkpt>
      <trkpt lat="47.30196" lon="-2.38764">
        <ele>27.200000762939</ele>
        <time>2020-08-02T09:43:37.000Z</time>
      </trkpt>
      <trkpt lat="47.30193" lon="-2.38767">
        <ele>26.39999961853</ele>
        <time>2020-08-02T09:43:38.000Z</time>
      </trkpt>
      <trkpt lat="47.30189" lon="-2.3877">
        <ele>25.60000038147</ele>
        <time>2020-08-02T09:43:39.000Z</time>
      </trkpt>
      <trkpt lat="47.30184" lon="-2.38776">
        <ele>24.799999237061</ele>
        <time>2020-08-02T09:43:40.000Z</time>
      </trkpt>
      <trkpt lat="47.30178" lon="-2.38782">
        <ele>24</ele>
        <time>2020-08-02T09:43:41.000Z</time>
      </trkpt>
      <trkpt lat="47.30173" lon="-2.38792">
        <ele>24</ele>
        <time>2020-08-02T09:43:42.000Z</time>
      </trkpt>
      <trkpt lat="47.30166" lon="-2.38806">
        <ele>23.39999961853</ele>
        <time>2020-08-02T09:43:43.000Z</time>
      </trkpt>
      <trkpt lat="47.30158" lon="-2.38821">
        <ele>23</ele>
        <time>2020-08-02T09:43:44.000Z</time>
      </trkpt>
      <trkpt lat="47.30151" lon="-2.38834">
        <ele>22.39999961853</ele>
        <time>2020-08-02T09:43:45.000Z</time>
      </trkpt>
      <trkpt lat="47.30144" lon="-2.38847">
        <ele>22</ele>
        <time>2020-08-02T09:43:46.000Z</time>
      </trkpt>
      <trkpt lat="47.30137" lon="-2.38859">
        <ele>21.39999961853</ele>
        <time>2020-08-02T09:43:47.000Z</time>
      </trkpt>
      <trkpt lat="47.30131" lon="-2.38871">
        <ele>20.799999237061</ele>
        <time>2020-08-02T09:43:48.000Z</time>
      </trkpt>
      <trkpt lat="47.30124" lon="-2.38883">
        <ele>20.39999961853</ele>
        <time>2020-08-02T09:43:49.000Z</time>
      </trkpt>
      <trkpt lat="47.30117" lon="-2.38893">
        <ele>19.39999961853</ele>
        <time>2020-08-02T09:43:50.000Z</time>
      </trkpt>
      <trkpt lat="47.3011" lon="-2.38901">
        <ele>18.799999237061</ele>
        <time>2020-08-02T09:43:51.000Z</time>
      </trkpt>
      <trkpt lat="47.30102" lon="-2.38909">
        <ele>18.39999961853</ele>
        <time>2020-08-02T09:43:52.000Z</time>
      </trkpt>
      <trkpt lat="47.30094" lon="-2.38916">
        <ele>17.799999237061</ele>
        <time>2020-08-02T09:43:53.000Z</time>
      </trkpt>
      <trkpt lat="47.30085" lon="-2.38923">
        <ele>17.39999961853</ele>
        <time>2020-08-02T09:43:54.000Z</time>
      </trkpt>
      <trkpt lat="47.30077" lon="-2.3893">
        <ele>16.799999237061</ele>
        <time>2020-08-02T09:43:55.000Z</time>
      </trkpt>
      <trkpt lat="47.30069" lon="-2.38937">
        <ele>16.39999961853</ele>
        <time>2020-08-02T09:43:56.000Z</time>
      </trkpt>
      <trkpt lat="47.30062" lon="-2.38943">
        <ele>16</ele>
        <time>2020-08-02T09:43:57.000Z</time>
      </trkpt>
      <trkpt lat="47.30055" lon="-2.38949">
        <ele>15.60000038147</ele>
        <time>2020-08-02T09:43:58.000Z</time>
      </trkpt>
      <trkpt lat="47.30049" lon="-2.38955">
        <ele>15.199999809265</ele>
        <time>2020-08-02T09:43:59.000Z</time>
      </trkpt>
      <trkpt lat="47.30043" lon="-2.38962">
        <ele>14.60000038147</ele>
        <time>2020-08-02T09:44:00.000Z</time>
      </trkpt>
      <trkpt lat="47.30039" lon="-2.38968">
        <ele>14</ele>
        <time>2020-08-02T09:44:01.000Z</time>
      </trkpt>
      <trkpt lat="47.30035" lon="-2.38973">
        <ele>13.60000038147</ele>
        <time>2020-08-02T09:44:02.000Z</time>
      </trkpt>
      <trkpt lat="47.30032" lon="-2.38981">
        <ele>13</ele>
        <time>2020-08-02T09:44:03.000Z</time>
      </trkpt>
      <trkpt lat="47.30031" lon="-2.38989">
        <ele>12.60000038147</ele>
        <time>2020-08-02T09:44:04.000Z</time>
      </trkpt>
      <trkpt lat="47.3003" lon="-2.38997">
        <ele>12.60000038147</ele>
        <time>2020-08-02T09:44:05.000Z</time>
      </trkpt>
      <trkpt lat="47.30023" lon="-2.39017">
        <ele>12.60000038147</ele>
        <time>2020-08-02T09:44:08.000Z</time>
      </trkpt>
      <trkpt lat="47.30012" lon="-2.39018">
        <ele>12.199999809265</ele>
        <time>2020-08-02T09:44:10.000Z</time>
      </trkpt>
      <trkpt lat="47.30007" lon="-2.39014">
        <ele>11.800000190735</ele>
        <time>2020-08-02T09:44:11.000Z</time>
      </trkpt>
      <trkpt lat="47.30003" lon="-2.39007">
        <ele>11.199999809265</ele>
        <time>2020-08-02T09:44:12.000Z</time>
      </trkpt>
      <trkpt lat="47.3" lon="-2.38999">
        <ele>10.800000190735</ele>
        <time>2020-08-02T09:44:13.000Z</time>
      </trkpt>
      <trkpt lat="47.3" lon="-2.38991">
        <ele>10.39999961853</ele>
        <time>2020-08-02T09:44:14.000Z</time>
      </trkpt>
      <trkpt lat="47.30004" lon="-2.38965">
        <ele>10.39999961853</ele>
        <time>2020-08-02T09:44:17.000Z</time>
      </trkpt>
      <trkpt lat="47.30004" lon="-2.38947">
        <ele>10.39999961853</ele>
        <time>2020-08-02T09:44:19.000Z</time>
      </trkpt>
      <trkpt lat="47.30005" lon="-2.3893">
        <ele>10.39999961853</ele>
        <time>2020-08-02T09:44:21.000Z</time>
      </trkpt>
      <trkpt lat="47.30004" lon="-2.3888">
        <ele>10.800000190735</ele>
        <time>2020-08-02T09:44:27.000Z</time>
      </trkpt>
      <trkpt lat="47.30005" lon="-2.38872">
        <ele>11.199999809265</ele>
        <time>2020-08-02T09:44:28.000Z</time>
      </trkpt>
      <trkpt lat="47.30005" lon="-2.38864">
        <ele>11.800000190735</ele>
        <time>2020-08-02T09:44:29.000Z</time>
      </trkpt>
      <trkpt lat="47.30006" lon="-2.38855">
        <ele>12.199999809265</ele>
        <time>2020-08-02T09:44:30.000Z</time>
      </trkpt>
      <trkpt lat="47.30006" lon="-2.38847">
        <ele>12.60000038147</ele>
        <time>2020-08-02T09:44:31.000Z</time>
      </trkpt>
      <trkpt lat="47.30009" lon="-2.38822">
        <ele>13</ele>
        <time>2020-08-02T09:44:34.000Z</time>
      </trkpt>
      <trkpt lat="47.30009" lon="-2.38814">
        <ele>13.39999961853</ele>
        <time>2020-08-02T09:44:35.000Z</time>
      </trkpt>
      <trkpt lat="47.3001" lon="-2.38805">
        <ele>14</ele>
        <time>2020-08-02T09:44:36.000Z</time>
      </trkpt>
      <trkpt lat="47.30011" lon="-2.38798">
        <ele>14.39999961853</ele>
        <time>2020-08-02T09:44:37.000Z</time>
      </trkpt>
      <trkpt lat="47.30012" lon="-2.3879">
        <ele>14.800000190735</ele>
        <time>2020-08-02T09:44:38.000Z</time>
      </trkpt>
      <trkpt lat="47.30015" lon="-2.38767">
        <ele>15.199999809265</ele>
        <time>2020-08-02T09:44:41.000Z</time>
      </trkpt>
      <trkpt lat="47.30016" lon="-2.38759">
        <ele>15.60000038147</ele>
        <time>2020-08-02T09:44:42.000Z</time>
      </trkpt>
      <trkpt lat="47.30017" lon="-2.38752">
        <ele>16</ele>
        <time>2020-08-02T09:44:43.000Z</time>
      </trkpt>
      <trkpt lat="47.30018" lon="-2.38745">
        <ele>16.39999961853</ele>
        <time>2020-08-02T09:44:44.000Z</time>
      </trkpt>
      <trkpt lat="47.30019" lon="-2.38738">
        <ele>17</ele>
        <time>2020-08-02T09:44:45.000Z</time>
      </trkpt>
      <trkpt lat="47.30024" lon="-2.38709">
        <ele>17.39999961853</ele>
        <time>2020-08-02T09:44:49.000Z</time>
      </trkpt>
      <trkpt lat="47.30024" lon="-2.38702">
        <ele>17.799999237061</ele>
        <time>2020-08-02T09:44:50.000Z</time>
      </trkpt>
      <trkpt lat="47.30025" lon="-2.38696">
        <ele>18.200000762939</ele>
        <time>2020-08-02T09:44:51.000Z</time>
      </trkpt>
      <trkpt lat="47.30026" lon="-2.38688">
        <ele>18.799999237061</ele>
        <time>2020-08-02T09:44:52.000Z</time>
      </trkpt>
      <trkpt lat="47.30027" lon="-2.38682">
        <ele>19.200000762939</ele>
        <time>2020-08-02T09:44:53.000Z</time>
      </trkpt>
      <trkpt lat="47.30027" lon="-2.38675">
        <ele>19.200000762939</ele>
        <time>2020-08-02T09:44:54.000Z</time>
      </trkpt>
      <trkpt lat="47.30027" lon="-2.38661">
        <ele>19.200000762939</ele>
        <time>2020-08-02T09:44:56.000Z</time>
      </trkpt>
      <trkpt lat="47.30026" lon="-2.38648">
        <ele>19.200000762939</ele>
        <time>2020-08-02T09:44:58.000Z</time>
      </trkpt>
      <trkpt lat="47.30025" lon="-2.38642">
        <ele>19.60000038147</ele>
        <time>2020-08-02T09:44:59.000Z</time>
      </trkpt>
      <trkpt lat="47.30025" lon="-2.38637">
        <ele>20</ele>
        <time>2020-08-02T09:45:00.000Z</time>
      </trkpt>
      <trkpt lat="47.30024" lon="-2.38631">
        <ele>20.60000038147</ele>
        <time>2020-08-02T09:45:01.000Z</time>
      </trkpt>
      <trkpt lat="47.30024" lon="-2.38626">
        <ele>21</ele>
        <time>2020-08-02T09:45:02.000Z</time>
      </trkpt>
      <trkpt lat="47.30024" lon="-2.3862">
        <ele>21.39999961853</ele>
        <time>2020-08-02T09:45:03.000Z</time>
      </trkpt>
      <trkpt lat="47.30025" lon="-2.38596">
        <ele>21.39999961853</ele>
        <time>2020-08-02T09:45:08.000Z</time>
      </trkpt>
      <trkpt lat="47.30024" lon="-2.38591">
        <ele>21.39999961853</ele>
        <time>2020-08-02T09:45:09.000Z</time>
      </trkpt>
      <trkpt lat="47.30022" lon="-2.38574">
        <ele>21.799999237061</ele>
        <time>2020-08-02T09:45:12.000Z</time>
      </trkpt>
      <trkpt lat="47.30021" lon="-2.38568">
        <ele>22.200000762939</ele>
        <time>2020-08-02T09:45:13.000Z</time>
      </trkpt>
      <trkpt lat="47.3002" lon="-2.38563">
        <ele>22.799999237061</ele>
        <time>2020-08-02T09:45:14.000Z</time>
      </trkpt>
      <trkpt lat="47.3002" lon="-2.38556">
        <ele>23.200000762939</ele>
        <time>2020-08-02T09:45:15.000Z</time>
      </trkpt>
      <trkpt lat="47.30019" lon="-2.38551">
        <ele>23.60000038147</ele>
        <time>2020-08-02T09:45:16.000Z</time>
      </trkpt>
      <trkpt lat="47.30017" lon="-2.38539">
        <ele>24</ele>
        <time>2020-08-02T09:45:18.000Z</time>
      </trkpt>
      <trkpt lat="47.30016" lon="-2.38532">
        <ele>24.39999961853</ele>
        <time>2020-08-02T09:45:19.000Z</time>
      </trkpt>
      <trkpt lat="47.30015" lon="-2.38526">
        <ele>24.799999237061</ele>
        <time>2020-08-02T09:45:20.000Z</time>
      </trkpt>
      <trkpt lat="47.30014" lon="-2.3852">
        <ele>25.200000762939</ele>
        <time>2020-08-02T09:45:21.000Z</time>
      </trkpt>
      <trkpt lat="47.30013" lon="-2.38514">
        <ele>25.60000038147</ele>
        <time>2020-08-02T09:45:22.000Z</time>
      </trkpt>
      <trkpt lat="47.30012" lon="-2.38503">
        <ele>25.60000038147</ele>
        <time>2020-08-02T09:45:24.000Z</time>
      </trkpt>
      <trkpt lat="47.30009" lon="-2.38485">
        <ele>26</ele>
        <time>2020-08-02T09:45:27.000Z</time>
      </trkpt>
      <trkpt lat="47.30008" lon="-2.38479">
        <ele>26.60000038147</ele>
        <time>2020-08-02T09:45:28.000Z</time>
      </trkpt>
      <trkpt lat="47.30007" lon="-2.38473">
        <ele>27.39999961853</ele>
        <time>2020-08-02T09:45:29.000Z</time>
      </trkpt>
      <trkpt lat="47.30007" lon="-2.38467">
        <ele>27.799999237061</ele>
        <time>2020-08-02T09:45:30.000Z</time>
      </trkpt>
      <trkpt lat="47.30005" lon="-2.38449">
        <ele>27.799999237061</ele>
        <time>2020-08-02T09:45:33.000Z</time>
      </trkpt>
      <trkpt lat="47.29998" lon="-2.384">
        <ele>27.799999237061</ele>
        <time>2020-08-02T09:45:40.000Z</time>
      </trkpt>
      <trkpt lat="47.29995" lon="-2.38348">
        <ele>27.799999237061</ele>
        <time>2020-08-02T09:45:47.000Z</time>
      </trkpt>
      <trkpt lat="47.29994" lon="-2.38284">
        <ele>27.799999237061</ele>
        <time>2020-08-02T09:45:55.000Z</time>
      </trkpt>
      <trkpt lat="47.29994" lon="-2.38232">
        <ele>27.799999237061</ele>
        <time>2020-08-02T09:46:01.000Z</time>
      </trkpt>
      <trkpt lat="47.29991" lon="-2.38205">
        <ele>27.799999237061</ele>
        <time>2020-08-02T09:46:04.000Z</time>
      </trkpt>
      <trkpt lat="47.29991" lon="-2.38195">
        <ele>27.799999237061</ele>
        <time>2020-08-02T09:46:05.000Z</time>
      </trkpt>
      <trkpt lat="47.29987" lon="-2.38112">
        <ele>27.799999237061</ele>
        <time>2020-08-02T09:46:13.000Z</time>
      </trkpt>
      <trkpt lat="47.29987" lon="-2.38076">
        <ele>27.39999961853</ele>
        <time>2020-08-02T09:46:16.000Z</time>
      </trkpt>
      <trkpt lat="47.29988" lon="-2.38063">
        <ele>27</ele>
        <time>2020-08-02T09:46:17.000Z</time>
      </trkpt>
      <trkpt lat="47.29988" lon="-2.38051">
        <ele>26.60000038147</ele>
        <time>2020-08-02T09:46:18.000Z</time>
      </trkpt>
      <trkpt lat="47.29988" lon="-2.38038">
        <ele>25.799999237061</ele>
        <time>2020-08-02T09:46:19.000Z</time>
      </trkpt>
      <trkpt lat="47.29988" lon="-2.38025">
        <ele>25.39999961853</ele>
        <time>2020-08-02T09:46:20.000Z</time>
      </trkpt>
      <trkpt lat="47.29988" lon="-2.38012">
        <ele>25</ele>
        <time>2020-08-02T09:46:21.000Z</time>
      </trkpt>
      <trkpt lat="47.29989" lon="-2.38">
        <ele>24.60000038147</ele>
        <time>2020-08-02T09:46:22.000Z</time>
      </trkpt>
      <trkpt lat="47.29989" lon="-2.37988">
        <ele>24.200000762939</ele>
        <time>2020-08-02T09:46:23.000Z</time>
      </trkpt>
      <trkpt lat="47.29989" lon="-2.37978">
        <ele>23.60000038147</ele>
        <time>2020-08-02T09:46:24.000Z</time>
      </trkpt>
      <trkpt lat="47.29989" lon="-2.37967">
        <ele>23.60000038147</ele>
        <time>2020-08-02T09:46:25.000Z</time>
      </trkpt>
      <trkpt lat="47.29988" lon="-2.37957">
        <ele>23.60000038147</ele>
        <time>2020-08-02T09:46:26.000Z</time>
      </trkpt>
      <trkpt lat="47.29977" lon="-2.3793">
        <ele>23.60000038147</ele>
        <time>2020-08-02T09:46:29.000Z</time>
      </trkpt>
      <trkpt lat="47.29972" lon="-2.37922">
        <ele>23.60000038147</ele>
        <time>2020-08-02T09:46:30.000Z</time>
      </trkpt>
      <trkpt lat="47.29961" lon="-2.37909">
        <ele>23.60000038147</ele>
        <time>2020-08-02T09:46:32.000Z</time>
      </trkpt>
      <trkpt lat="47.2995" lon="-2.37896">
        <ele>23.60000038147</ele>
        <time>2020-08-02T09:46:34.000Z</time>
      </trkpt>
      <trkpt lat="47.29913" lon="-2.37856">
        <ele>23.60000038147</ele>
        <time>2020-08-02T09:46:41.000Z</time>
      </trkpt>
      <trkpt lat="47.29892" lon="-2.37832">
        <ele>24.200000762939</ele>
        <time>2020-08-02T09:46:46.000Z</time>
      </trkpt>
      <trkpt lat="47.29889" lon="-2.37829">
        <ele>24.60000038147</ele>
        <time>2020-08-02T09:46:47.000Z</time>
      </trkpt>
      <trkpt lat="47.29886" lon="-2.37826">
        <ele>25</ele>
        <time>2020-08-02T09:46:48.000Z</time>
      </trkpt>
      <trkpt lat="47.29883" lon="-2.37823">
        <ele>25.60000038147</ele>
        <time>2020-08-02T09:46:49.000Z</time>
      </trkpt>
      <trkpt lat="47.2988" lon="-2.37819">
        <ele>26</ele>
        <time>2020-08-02T09:46:50.000Z</time>
      </trkpt>
      <trkpt lat="47.29878" lon="-2.37816">
        <ele>26.60000038147</ele>
        <time>2020-08-02T09:46:51.000Z</time>
      </trkpt>
      <trkpt lat="47.29876" lon="-2.37814">
        <ele>27</ele>
        <time>2020-08-02T09:46:52.000Z</time>
      </trkpt>
      <trkpt lat="47.29873" lon="-2.37812">
        <ele>27.60000038147</ele>
        <time>2020-08-02T09:46:53.000Z</time>
      </trkpt>
      <trkpt lat="47.29872" lon="-2.37811">
        <ele>28</ele>
        <time>2020-08-02T09:46:54.000Z</time>
      </trkpt>
      <trkpt lat="47.2987" lon="-2.3781">
        <ele>28</ele>
        <time>2020-08-02T09:46:56.000Z</time>
      </trkpt>
      <trkpt lat="47.29868" lon="-2.37817">
        <ele>30</ele>
        <time>2020-08-02T09:47:31.000Z</time>
      </trkpt>
      <trkpt lat="47.29865" lon="-2.37824">
        <ele>30</ele>
        <time>2020-08-02T09:47:34.000Z</time>
      </trkpt>
      <trkpt lat="47.29864" lon="-2.37828">
        <ele>30</ele>
        <time>2020-08-02T09:47:35.000Z</time>
      </trkpt>
      <trkpt lat="47.29858" lon="-2.37845">
        <ele>30</ele>
        <time>2020-08-02T09:47:39.000Z</time>
      </trkpt>
      <trkpt lat="47.29853" lon="-2.37855">
        <ele>30</ele>
        <time>2020-08-02T09:47:41.000Z</time>
      </trkpt>
      <trkpt lat="47.2984" lon="-2.37874">
        <ele>30</ele>
        <time>2020-08-02T09:47:45.000Z</time>
      </trkpt>
      <trkpt lat="47.29832" lon="-2.37881">
        <ele>30</ele>
        <time>2020-08-02T09:47:47.000Z</time>
      </trkpt>
      <trkpt lat="47.29824" lon="-2.37887">
        <ele>30</ele>
        <time>2020-08-02T09:47:49.000Z</time>
      </trkpt>
      <trkpt lat="47.29819" lon="-2.3789">
        <ele>30</ele>
        <time>2020-08-02T09:47:50.000Z</time>
      </trkpt>
      <trkpt lat="47.29789" lon="-2.37908">
        <ele>30.39999961853</ele>
        <time>2020-08-02T09:47:57.000Z</time>
      </trkpt>
      <trkpt lat="47.29784" lon="-2.37912">
        <ele>31.200000762939</ele>
        <time>2020-08-02T09:47:58.000Z</time>
      </trkpt>
      <trkpt lat="47.29779" lon="-2.37915">
        <ele>31.60000038147</ele>
        <time>2020-08-02T09:47:59.000Z</time>
      </trkpt>
      <trkpt lat="47.29773" lon="-2.37919">
        <ele>32.200000762939</ele>
        <time>2020-08-02T09:48:00.000Z</time>
      </trkpt>
      <trkpt lat="47.29764" lon="-2.37928">
        <ele>32.200000762939</ele>
        <time>2020-08-02T09:48:02.000Z</time>
      </trkpt>
      <trkpt lat="47.29756" lon="-2.37938">
        <ele>32.200000762939</ele>
        <time>2020-08-02T09:48:04.000Z</time>
      </trkpt>
      <trkpt lat="47.29749" lon="-2.37949">
        <ele>31.60000038147</ele>
        <time>2020-08-02T09:48:06.000Z</time>
      </trkpt>
      <trkpt lat="47.29745" lon="-2.37956">
        <ele>31.200000762939</ele>
        <time>2020-08-02T09:48:07.000Z</time>
      </trkpt>
      <trkpt lat="47.29742" lon="-2.37962">
        <ele>30.799999237061</ele>
        <time>2020-08-02T09:48:08.000Z</time>
      </trkpt>
      <trkpt lat="47.29739" lon="-2.37969">
        <ele>30.39999961853</ele>
        <time>2020-08-02T09:48:09.000Z</time>
      </trkpt>
      <trkpt lat="47.29737" lon="-2.37976">
        <ele>30</ele>
        <time>2020-08-02T09:48:10.000Z</time>
      </trkpt>
      <trkpt lat="47.29734" lon="-2.37983">
        <ele>29.39999961853</ele>
        <time>2020-08-02T09:48:11.000Z</time>
      </trkpt>
      <trkpt lat="47.29732" lon="-2.37991">
        <ele>29</ele>
        <time>2020-08-02T09:48:12.000Z</time>
      </trkpt>
      <trkpt lat="47.29731" lon="-2.38">
        <ele>28.60000038147</ele>
        <time>2020-08-02T09:48:13.000Z</time>
      </trkpt>
      <trkpt lat="47.29731" lon="-2.38007">
        <ele>28.200000762939</ele>
        <time>2020-08-02T09:48:14.000Z</time>
      </trkpt>
      <trkpt lat="47.29732" lon="-2.38015">
        <ele>27.39999961853</ele>
        <time>2020-08-02T09:48:15.000Z</time>
      </trkpt>
      <trkpt lat="47.29733" lon="-2.38021">
        <ele>26.799999237061</ele>
        <time>2020-08-02T09:48:16.000Z</time>
      </trkpt>
      <trkpt lat="47.29734" lon="-2.38027">
        <ele>26</ele>
        <time>2020-08-02T09:48:17.000Z</time>
      </trkpt>
      <trkpt lat="47.29733" lon="-2.38031">
        <ele>25.39999961853</ele>
        <time>2020-08-02T09:48:18.000Z</time>
      </trkpt>
      <trkpt lat="47.29731" lon="-2.38036">
        <ele>24.60000038147</ele>
        <time>2020-08-02T09:48:19.000Z</time>
      </trkpt>
      <trkpt lat="47.29727" lon="-2.3804">
        <ele>23.799999237061</ele>
        <time>2020-08-02T09:48:20.000Z</time>
      </trkpt>
      <trkpt lat="47.29722" lon="-2.38044">
        <ele>23</ele>
        <time>2020-08-02T09:48:21.000Z</time>
      </trkpt>
      <trkpt lat="47.29716" lon="-2.38048">
        <ele>21.39999961853</ele>
        <time>2020-08-02T09:48:22.000Z</time>
      </trkpt>
      <trkpt lat="47.29709" lon="-2.38054">
        <ele>20.60000038147</ele>
        <time>2020-08-02T09:48:23.000Z</time>
      </trkpt>
      <trkpt lat="47.29703" lon="-2.3806">
        <ele>20</ele>
        <time>2020-08-02T09:48:24.000Z</time>
      </trkpt>
      <trkpt lat="47.29695" lon="-2.38067">
        <ele>19.39999961853</ele>
        <time>2020-08-02T09:48:25.000Z</time>
      </trkpt>
      <trkpt lat="47.29688" lon="-2.38073">
        <ele>18.60000038147</ele>
        <time>2020-08-02T09:48:26.000Z</time>
      </trkpt>
      <trkpt lat="47.29679" lon="-2.3808">
        <ele>18</ele>
        <time>2020-08-02T09:48:27.000Z</time>
      </trkpt>
      <trkpt lat="47.2967" lon="-2.38085">
        <ele>17.200000762939</ele>
        <time>2020-08-02T09:48:28.000Z</time>
      </trkpt>
      <trkpt lat="47.29661" lon="-2.3809">
        <ele>16.60000038147</ele>
        <time>2020-08-02T09:48:29.000Z</time>
      </trkpt>
      <trkpt lat="47.29651" lon="-2.38095">
        <ele>16</ele>
        <time>2020-08-02T09:48:30.000Z</time>
      </trkpt>
      <trkpt lat="47.29641" lon="-2.381">
        <ele>15.39999961853</ele>
        <time>2020-08-02T09:48:31.000Z</time>
      </trkpt>
      <trkpt lat="47.29632" lon="-2.38105">
        <ele>14.60000038147</ele>
        <time>2020-08-02T09:48:32.000Z</time>
      </trkpt>
      <trkpt lat="47.29623" lon="-2.3811">
        <ele>14</ele>
        <time>2020-08-02T09:48:33.000Z</time>
      </trkpt>
      <trkpt lat="47.29614" lon="-2.38113">
        <ele>13.39999961853</ele>
        <time>2020-08-02T09:48:34.000Z</time>
      </trkpt>
      <trkpt lat="47.29604" lon="-2.38116">
        <ele>13</ele>
        <time>2020-08-02T09:48:35.000Z</time>
      </trkpt>
      <trkpt lat="47.29595" lon="-2.38118">
        <ele>12.39999961853</ele>
        <time>2020-08-02T09:48:36.000Z</time>
      </trkpt>
      <trkpt lat="47.29586" lon="-2.3812">
        <ele>12</ele>
        <time>2020-08-02T09:48:37.000Z</time>
      </trkpt>
      <trkpt lat="47.29576" lon="-2.38122">
        <ele>11.60000038147</ele>
        <time>2020-08-02T09:48:38.000Z</time>
      </trkpt>
      <trkpt lat="47.29567" lon="-2.38124">
        <ele>11</ele>
        <time>2020-08-02T09:48:39.000Z</time>
      </trkpt>
      <trkpt lat="47.29558" lon="-2.38125">
        <ele>10.39999961853</ele>
        <time>2020-08-02T09:48:40.000Z</time>
      </trkpt>
      <trkpt lat="47.29549" lon="-2.38126">
        <ele>9.8000001907349</ele>
        <time>2020-08-02T09:48:41.000Z</time>
      </trkpt>
      <trkpt lat="47.2954" lon="-2.38126">
        <ele>9.3999996185303</ele>
        <time>2020-08-02T09:48:42.000Z</time>
      </trkpt>
      <trkpt lat="47.2953" lon="-2.38126">
        <ele>8.8000001907349</ele>
        <time>2020-08-02T09:48:43.000Z</time>
      </trkpt>
      <trkpt lat="47.29513" lon="-2.38124">
        <ele>8.3999996185303</ele>
        <time>2020-08-02T09:48:45.000Z</time>
      </trkpt>
      <trkpt lat="47.29504" lon="-2.38123">
        <ele>7.8000001907349</ele>
        <time>2020-08-02T09:48:46.000Z</time>
      </trkpt>
      <trkpt lat="47.29496" lon="-2.38123">
        <ele>7</ele>
        <time>2020-08-02T09:48:47.000Z</time>
      </trkpt>
      <trkpt lat="47.29489" lon="-2.38125">
        <ele>6.5999999046326</ele>
        <time>2020-08-02T09:48:48.000Z</time>
      </trkpt>
      <trkpt lat="47.29481" lon="-2.38128">
        <ele>6.1999998092651</ele>
        <time>2020-08-02T09:48:49.000Z</time>
      </trkpt>
      <trkpt lat="47.29475" lon="-2.38133">
        <ele>5.8000001907349</ele>
        <time>2020-08-02T09:48:50.000Z</time>
      </trkpt>
      <trkpt lat="47.29469" lon="-2.38139">
        <ele>5.4000000953674</ele>
        <time>2020-08-02T09:48:51.000Z</time>
      </trkpt>
      <trkpt lat="47.29462" lon="-2.38143">
        <ele>5</ele>
        <time>2020-08-02T09:48:52.000Z</time>
      </trkpt>
      <trkpt lat="47.29457" lon="-2.38148">
        <ele>4.5999999046326</ele>
        <time>2020-08-02T09:48:53.000Z</time>
      </trkpt>
      <trkpt lat="47.29452" lon="-2.38151">
        <ele>4</ele>
        <time>2020-08-02T09:48:54.000Z</time>
      </trkpt>
      <trkpt lat="47.29447" lon="-2.38152">
        <ele>3.5999999046326</ele>
        <time>2020-08-02T09:48:55.000Z</time>
      </trkpt>
      <trkpt lat="47.29442" lon="-2.38149">
        <ele>3.2000000476837</ele>
        <time>2020-08-02T09:48:56.000Z</time>
      </trkpt>
      <trkpt lat="47.29437" lon="-2.38146">
        <ele>2.7999999523163</ele>
        <time>2020-08-02T09:48:57.000Z</time>
      </trkpt>
      <trkpt lat="47.29433" lon="-2.3814">
        <ele>2.4000000953674</ele>
        <time>2020-08-02T09:48:58.000Z</time>
      </trkpt>
      <trkpt lat="47.2943" lon="-2.38132">
        <ele>2.4000000953674</ele>
        <time>2020-08-02T09:48:59.000Z</time>
      </trkpt>
      <trkpt lat="47.29425" lon="-2.38114">
        <ele>2.4000000953674</ele>
        <time>2020-08-02T09:49:01.000Z</time>
      </trkpt>
      <trkpt lat="47.2942" lon="-2.38094">
        <ele>2.4000000953674</ele>
        <time>2020-08-02T09:49:03.000Z</time>
      </trkpt>
      <trkpt lat="47.29404" lon="-2.3804">
        <ele>2.4000000953674</ele>
        <time>2020-08-02T09:49:09.000Z</time>
      </trkpt>
      <trkpt lat="47.29399" lon="-2.38025">
        <ele>2.4000000953674</ele>
        <time>2020-08-02T09:49:11.000Z</time>
      </trkpt>
      <trkpt lat="47.29381" lon="-2.37971">
        <ele>2.4000000953674</ele>
        <time>2020-08-02T09:49:18.000Z</time>
      </trkpt>
      <trkpt lat="47.29359" lon="-2.3791">
        <ele>2.4000000953674</ele>
        <time>2020-08-02T09:49:25.000Z</time>
      </trkpt>
      <trkpt lat="47.29353" lon="-2.37894">
        <ele>2.7999999523163</ele>
        <time>2020-08-02T09:49:27.000Z</time>
      </trkpt>
      <trkpt lat="47.2935" lon="-2.37886">
        <ele>3.2000000476837</ele>
        <time>2020-08-02T09:49:28.000Z</time>
      </trkpt>
      <trkpt lat="47.29347" lon="-2.37878">
        <ele>3.5999999046326</ele>
        <time>2020-08-02T09:49:29.000Z</time>
      </trkpt>
      <trkpt lat="47.29345" lon="-2.3787">
        <ele>4</ele>
        <time>2020-08-02T09:49:30.000Z</time>
      </trkpt>
      <trkpt lat="47.29342" lon="-2.37861">
        <ele>4.4000000953674</ele>
        <time>2020-08-02T09:49:31.000Z</time>
      </trkpt>
      <trkpt lat="47.2934" lon="-2.37852">
        <ele>4.4000000953674</ele>
        <time>2020-08-02T09:49:32.000Z</time>
      </trkpt>
      <trkpt lat="47.29335" lon="-2.37825">
        <ele>4.4000000953674</ele>
        <time>2020-08-02T09:49:35.000Z</time>
      </trkpt>
      <trkpt lat="47.29333" lon="-2.37807">
        <ele>4.8000001907349</ele>
        <time>2020-08-02T09:49:37.000Z</time>
      </trkpt>
      <trkpt lat="47.29332" lon="-2.37798">
        <ele>5.1999998092651</ele>
        <time>2020-08-02T09:49:38.000Z</time>
      </trkpt>
      <trkpt lat="47.29332" lon="-2.37788">
        <ele>5.5999999046326</ele>
        <time>2020-08-02T09:49:39.000Z</time>
      </trkpt>
      <trkpt lat="47.29331" lon="-2.37779">
        <ele>6</ele>
        <time>2020-08-02T09:49:40.000Z</time>
      </trkpt>
      <trkpt lat="47.29331" lon="-2.3777">
        <ele>6.4000000953674</ele>
        <time>2020-08-02T09:49:41.000Z</time>
      </trkpt>
      <trkpt lat="47.29329" lon="-2.37736">
        <ele>7</ele>
        <time>2020-08-02T09:49:45.000Z</time>
      </trkpt>
      <trkpt lat="47.29329" lon="-2.37728">
        <ele>7.4000000953674</ele>
        <time>2020-08-02T09:49:46.000Z</time>
      </trkpt>
      <trkpt lat="47.29328" lon="-2.3772">
        <ele>7.8000001907349</ele>
        <time>2020-08-02T09:49:47.000Z</time>
      </trkpt>
      <trkpt lat="47.29328" lon="-2.37713">
        <ele>8.1999998092651</ele>
        <time>2020-08-02T09:49:48.000Z</time>
      </trkpt>
      <trkpt lat="47.29327" lon="-2.37705">
        <ele>8.6000003814697</ele>
        <time>2020-08-02T09:49:49.000Z</time>
      </trkpt>
      <trkpt lat="47.29327" lon="-2.37683">
        <ele>9</ele>
        <time>2020-08-02T09:49:52.000Z</time>
      </trkpt>
      <trkpt lat="47.29327" lon="-2.37677">
        <ele>9.3999996185303</ele>
        <time>2020-08-02T09:49:53.000Z</time>
      </trkpt>
      <trkpt lat="47.29328" lon="-2.3767">
        <ele>9.8000001907349</ele>
        <time>2020-08-02T09:49:54.000Z</time>
      </trkpt>
      <trkpt lat="47.29327" lon="-2.37664">
        <ele>10.199999809265</ele>
        <time>2020-08-02T09:49:55.000Z</time>
      </trkpt>
      <trkpt lat="47.29327" lon="-2.37657">
        <ele>10.60000038147</ele>
        <time>2020-08-02T09:49:56.000Z</time>
      </trkpt>
      <trkpt lat="47.29324" lon="-2.37645">
        <ele>10.60000038147</ele>
        <time>2020-08-02T09:49:58.000Z</time>
      </trkpt>
      <trkpt lat="47.29319" lon="-2.37626">
        <ele>11.60000038147</ele>
        <time>2020-08-02T09:50:01.000Z</time>
      </trkpt>
      <trkpt lat="47.29318" lon="-2.37621">
        <ele>12</ele>
        <time>2020-08-02T09:50:02.000Z</time>
      </trkpt>
      <trkpt lat="47.29315" lon="-2.37616">
        <ele>12.39999961853</ele>
        <time>2020-08-02T09:50:03.000Z</time>
      </trkpt>
      <trkpt lat="47.29313" lon="-2.37611">
        <ele>12.800000190735</ele>
        <time>2020-08-02T09:50:04.000Z</time>
      </trkpt>
      <trkpt lat="47.2931" lon="-2.37606">
        <ele>12.800000190735</ele>
        <time>2020-08-02T09:50:05.000Z</time>
      </trkpt>
      <trkpt lat="47.29288" lon="-2.37566">
        <ele>12.800000190735</ele>
        <time>2020-08-02T09:50:12.000Z</time>
      </trkpt>
      <trkpt lat="47.29261" lon="-2.37523">
        <ele>12.800000190735</ele>
        <time>2020-08-02T09:50:19.000Z</time>
      </trkpt>
      <trkpt lat="47.2924" lon="-2.37495">
        <ele>12.800000190735</ele>
        <time>2020-08-02T09:50:24.000Z</time>
      </trkpt>
      <trkpt lat="47.29215" lon="-2.37455">
        <ele>12.800000190735</ele>
        <time>2020-08-02T09:50:31.000Z</time>
      </trkpt>
      <trkpt lat="47.29208" lon="-2.37443">
        <ele>13.199999809265</ele>
        <time>2020-08-02T09:50:33.000Z</time>
      </trkpt>
      <trkpt lat="47.29204" lon="-2.37438">
        <ele>13.60000038147</ele>
        <time>2020-08-02T09:50:34.000Z</time>
      </trkpt>
      <trkpt lat="47.29201" lon="-2.37432">
        <ele>14</ele>
        <time>2020-08-02T09:50:35.000Z</time>
      </trkpt>
      <trkpt lat="47.29197" lon="-2.37427">
        <ele>14.39999961853</ele>
        <time>2020-08-02T09:50:36.000Z</time>
      </trkpt>
      <trkpt lat="47.29193" lon="-2.37421">
        <ele>14.800000190735</ele>
        <time>2020-08-02T09:50:37.000Z</time>
      </trkpt>
      <trkpt lat="47.2917" lon="-2.37381">
        <ele>14.800000190735</ele>
        <time>2020-08-02T09:50:44.000Z</time>
      </trkpt>
      <trkpt lat="47.29164" lon="-2.37369">
        <ele>15.199999809265</ele>
        <time>2020-08-02T09:50:46.000Z</time>
      </trkpt>
      <trkpt lat="47.29161" lon="-2.37363">
        <ele>15.60000038147</ele>
        <time>2020-08-02T09:50:47.000Z</time>
      </trkpt>
      <trkpt lat="47.29157" lon="-2.37356">
        <ele>16</ele>
        <time>2020-08-02T09:50:48.000Z</time>
      </trkpt>
      <trkpt lat="47.29154" lon="-2.37349">
        <ele>16.39999961853</ele>
        <time>2020-08-02T09:50:49.000Z</time>
      </trkpt>
      <trkpt lat="47.29151" lon="-2.37342">
        <ele>16.799999237061</ele>
        <time>2020-08-02T09:50:50.000Z</time>
      </trkpt>
      <trkpt lat="47.29148" lon="-2.37335">
        <ele>16.799999237061</ele>
        <time>2020-08-02T09:50:51.000Z</time>
      </trkpt>
      <trkpt lat="47.29143" lon="-2.37323">
        <ele>16.799999237061</ele>
        <time>2020-08-02T09:50:53.000Z</time>
      </trkpt>
      <trkpt lat="47.29131" lon="-2.37308">
        <ele>16.799999237061</ele>
        <time>2020-08-02T09:50:56.000Z</time>
      </trkpt>
      <trkpt lat="47.29102" lon="-2.37274">
        <ele>16.799999237061</ele>
        <time>2020-08-02T09:51:03.000Z</time>
      </trkpt>
      <trkpt lat="47.29054" lon="-2.37225">
        <ele>16.799999237061</ele>
        <time>2020-08-02T09:51:13.000Z</time>
      </trkpt>
      <trkpt lat="47.29049" lon="-2.37219">
        <ele>16.799999237061</ele>
        <time>2020-08-02T09:51:14.000Z</time>
      </trkpt>
      <trkpt lat="47.29012" lon="-2.37182">
        <ele>16.39999961853</ele>
        <time>2020-08-02T09:51:21.000Z</time>
      </trkpt>
      <trkpt lat="47.29008" lon="-2.37177">
        <ele>16</ele>
        <time>2020-08-02T09:51:22.000Z</time>
      </trkpt>
      <trkpt lat="47.29005" lon="-2.37174">
        <ele>15.60000038147</ele>
        <time>2020-08-02T09:51:23.000Z</time>
      </trkpt>
      <trkpt lat="47.29001" lon="-2.37173">
        <ele>15</ele>
        <time>2020-08-02T09:51:24.000Z</time>
      </trkpt>
      <trkpt lat="47.28997" lon="-2.37172">
        <ele>14.60000038147</ele>
        <time>2020-08-02T09:51:25.000Z</time>
      </trkpt>
      <trkpt lat="47.28993" lon="-2.37175">
        <ele>14.199999809265</ele>
        <time>2020-08-02T09:51:26.000Z</time>
      </trkpt>
      <trkpt lat="47.28988" lon="-2.37177">
        <ele>13.800000190735</ele>
        <time>2020-08-02T09:51:27.000Z</time>
      </trkpt>
      <trkpt lat="47.28983" lon="-2.37181">
        <ele>13.199999809265</ele>
        <time>2020-08-02T09:51:28.000Z</time>
      </trkpt>
      <trkpt lat="47.28978" lon="-2.37184">
        <ele>12.800000190735</ele>
        <time>2020-08-02T09:51:29.000Z</time>
      </trkpt>
      <trkpt lat="47.28972" lon="-2.37188">
        <ele>12.39999961853</ele>
        <time>2020-08-02T09:51:30.000Z</time>
      </trkpt>
      <trkpt lat="47.28948" lon="-2.37202">
        <ele>11.800000190735</ele>
        <time>2020-08-02T09:51:34.000Z</time>
      </trkpt>
      <trkpt lat="47.28943" lon="-2.37205">
        <ele>11.39999961853</ele>
        <time>2020-08-02T09:51:35.000Z</time>
      </trkpt>
      <trkpt lat="47.28937" lon="-2.37208">
        <ele>10.800000190735</ele>
        <time>2020-08-02T09:51:36.000Z</time>
      </trkpt>
      <trkpt lat="47.28931" lon="-2.3721">
        <ele>10.39999961853</ele>
        <time>2020-08-02T09:51:37.000Z</time>
      </trkpt>
      <trkpt lat="47.28926" lon="-2.37213">
        <ele>10</ele>
        <time>2020-08-02T09:51:38.000Z</time>
      </trkpt>
      <trkpt lat="47.28921" lon="-2.37215">
        <ele>9.3999996185303</ele>
        <time>2020-08-02T09:51:39.000Z</time>
      </trkpt>
      <trkpt lat="47.28915" lon="-2.37217">
        <ele>8.6000003814697</ele>
        <time>2020-08-02T09:51:40.000Z</time>
      </trkpt>
      <trkpt lat="47.28909" lon="-2.37219">
        <ele>8.1999998092651</ele>
        <time>2020-08-02T09:51:41.000Z</time>
      </trkpt>
      <trkpt lat="47.28904" lon="-2.37221">
        <ele>7.8000001907349</ele>
        <time>2020-08-02T09:51:42.000Z</time>
      </trkpt>
      <trkpt lat="47.28899" lon="-2.37224">
        <ele>7.8000001907349</ele>
        <time>2020-08-02T09:51:43.000Z</time>
      </trkpt>
      <trkpt lat="47.28895" lon="-2.37226">
        <ele>7.4000000953674</ele>
        <time>2020-08-02T09:51:44.000Z</time>
      </trkpt>
      <trkpt lat="47.2889" lon="-2.37227">
        <ele>7</ele>
        <time>2020-08-02T09:51:45.000Z</time>
      </trkpt>
      <trkpt lat="47.28887" lon="-2.37228">
        <ele>6.5999999046326</ele>
        <time>2020-08-02T09:51:46.000Z</time>
      </trkpt>
      <trkpt lat="47.28883" lon="-2.3723">
        <ele>6.1999998092651</ele>
        <time>2020-08-02T09:51:47.000Z</time>
      </trkpt>
      <trkpt lat="47.28879" lon="-2.37233">
        <ele>5.8000001907349</ele>
        <time>2020-08-02T09:51:48.000Z</time>
      </trkpt>
      <trkpt lat="47.28868" lon="-2.37239">
        <ele>5.8000001907349</ele>
        <time>2020-08-02T09:51:52.000Z</time>
      </trkpt>
      <trkpt lat="47.2886" lon="-2.37242">
        <ele>5.8000001907349</ele>
        <time>2020-08-02T09:51:58.000Z</time>
      </trkpt>
      <trkpt lat="47.28855" lon="-2.37246">
        <ele>5.8000001907349</ele>
        <time>2020-08-02T09:52:03.000Z</time>
      </trkpt>
      <trkpt lat="47.28854" lon="-2.37246">
        <ele>5.8000001907349</ele>
        <time>2020-08-02T09:52:04.000Z</time>
      </trkpt>
      <trkpt lat="47.28852" lon="-2.37244">
        <ele>5.8000001907349</ele>
        <time>2020-08-02T09:52:07.000Z</time>
      </trkpt>
      <trkpt lat="47.28849" lon="-2.37241">
        <ele>5.8000001907349</ele>
        <time>2020-08-02T09:52:58.000Z</time>
      </trkpt>
      <trkpt lat="47.28846" lon="-2.37238">
        <ele>5.8000001907349</ele>
        <time>2020-08-02T09:52:59.000Z</time>
      </trkpt>
      <trkpt lat="47.28841" lon="-2.37219">
        <ele>5.8000001907349</ele>
        <time>2020-08-02T09:53:03.000Z</time>
      </trkpt>
      <trkpt lat="47.28838" lon="-2.37202">
        <ele>5.8000001907349</ele>
        <time>2020-08-02T09:53:06.000Z</time>
      </trkpt>
      <trkpt lat="47.28833" lon="-2.37182">
        <ele>5.8000001907349</ele>
        <time>2020-08-02T09:53:09.000Z</time>
      </trkpt>
      <trkpt lat="47.28826" lon="-2.37134">
        <ele>5.8000001907349</ele>
        <time>2020-08-02T09:53:18.000Z</time>
      </trkpt>
      <trkpt lat="47.28828" lon="-2.3712">
        <ele>5.8000001907349</ele>
        <time>2020-08-02T09:53:20.000Z</time>
      </trkpt>
      <trkpt lat="47.2883" lon="-2.37108">
        <ele>5.8000001907349</ele>
        <time>2020-08-02T09:53:22.000Z</time>
      </trkpt>
      <trkpt lat="47.2883" lon="-2.37101">
        <ele>5.8000001907349</ele>
        <time>2020-08-02T09:53:23.000Z</time>
      </trkpt>
      <trkpt lat="47.28828" lon="-2.37081">
        <ele>5.8000001907349</ele>
        <time>2020-08-02T09:53:26.000Z</time>
      </trkpt>
      <trkpt lat="47.28828" lon="-2.37075">
        <ele>5.8000001907349</ele>
        <time>2020-08-02T09:53:27.000Z</time>
      </trkpt>
      <trkpt lat="47.28826" lon="-2.37068">
        <ele>5.8000001907349</ele>
        <time>2020-08-02T09:53:28.000Z</time>
      </trkpt>
      <trkpt lat="47.28822" lon="-2.37054">
        <ele>5.8000001907349</ele>
        <time>2020-08-02T09:53:30.000Z</time>
      </trkpt>
      <trkpt lat="47.28819" lon="-2.37046">
        <ele>5.8000001907349</ele>
        <time>2020-08-02T09:53:31.000Z</time>
      </trkpt>
      <trkpt lat="47.28802" lon="-2.36995">
        <ele>5.8000001907349</ele>
        <time>2020-08-02T09:53:37.000Z</time>
      </trkpt>
      <trkpt lat="47.28788" lon="-2.3694">
        <ele>5.8000001907349</ele>
        <time>2020-08-02T09:53:44.000Z</time>
      </trkpt>
      <trkpt lat="47.28778" lon="-2.36912">
        <ele>5.8000001907349</ele>
        <time>2020-08-02T09:53:49.000Z</time>
      </trkpt>
      <trkpt lat="47.28765" lon="-2.36907">
        <ele>5.8000001907349</ele>
        <time>2020-08-02T09:53:53.000Z</time>
      </trkpt>
      <trkpt lat="47.2876" lon="-2.36908">
        <ele>6.1999998092651</ele>
        <time>2020-08-02T09:53:55.000Z</time>
      </trkpt>
      <trkpt lat="47.28758" lon="-2.36909">
        <ele>6.5999999046326</ele>
        <time>2020-08-02T09:53:56.000Z</time>
      </trkpt>
      <trkpt lat="47.28756" lon="-2.36909">
        <ele>7</ele>
        <time>2020-08-02T09:53:57.000Z</time>
      </trkpt>
      <trkpt lat="47.28753" lon="-2.36909">
        <ele>7.4000000953674</ele>
        <time>2020-08-02T09:53:58.000Z</time>
      </trkpt>
      <trkpt lat="47.2875" lon="-2.3691">
        <ele>7.8000001907349</ele>
        <time>2020-08-02T09:53:59.000Z</time>
      </trkpt>
      <trkpt lat="47.28747" lon="-2.36911">
        <ele>8.1999998092651</ele>
        <time>2020-08-02T09:54:00.000Z</time>
      </trkpt>
      <trkpt lat="47.28743" lon="-2.36912">
        <ele>8.6000003814697</ele>
        <time>2020-08-02T09:54:01.000Z</time>
      </trkpt>
      <trkpt lat="47.28739" lon="-2.36913">
        <ele>9.1999998092651</ele>
        <time>2020-08-02T09:54:02.000Z</time>
      </trkpt>
      <trkpt lat="47.28736" lon="-2.36913">
        <ele>9.6000003814697</ele>
        <time>2020-08-02T09:54:03.000Z</time>
      </trkpt>
      <trkpt lat="47.28731" lon="-2.36913">
        <ele>10</ele>
        <time>2020-08-02T09:54:04.000Z</time>
      </trkpt>
      <trkpt lat="47.28725" lon="-2.36912">
        <ele>10.39999961853</ele>
        <time>2020-08-02T09:54:06.000Z</time>
      </trkpt>
      <trkpt lat="47.28722" lon="-2.3691">
        <ele>10.800000190735</ele>
        <time>2020-08-02T09:54:07.000Z</time>
      </trkpt>
      <trkpt lat="47.2872" lon="-2.36907">
        <ele>11.39999961853</ele>
        <time>2020-08-02T09:54:08.000Z</time>
      </trkpt>
      <trkpt lat="47.28718" lon="-2.36905">
        <ele>12.199999809265</ele>
        <time>2020-08-02T09:54:09.000Z</time>
      </trkpt>
      <trkpt lat="47.28715" lon="-2.36899">
        <ele>12.800000190735</ele>
        <time>2020-08-02T09:54:11.000Z</time>
      </trkpt>
      <trkpt lat="47.28714" lon="-2.36894">
        <ele>13.199999809265</ele>
        <time>2020-08-02T09:54:12.000Z</time>
      </trkpt>
      <trkpt lat="47.28712" lon="-2.36891">
        <ele>13.60000038147</ele>
        <time>2020-08-02T09:54:13.000Z</time>
      </trkpt>
      <trkpt lat="47.2871" lon="-2.36888">
        <ele>14</ele>
        <time>2020-08-02T09:54:14.000Z</time>
      </trkpt>
      <trkpt lat="47.28708" lon="-2.36885">
        <ele>14.39999961853</ele>
        <time>2020-08-02T09:54:15.000Z</time>
      </trkpt>
      <trkpt lat="47.28695" lon="-2.36863">
        <ele>14.39999961853</ele>
        <time>2020-08-02T09:54:20.000Z</time>
      </trkpt>
      <trkpt lat="47.28678" lon="-2.36834">
        <ele>14.800000190735</ele>
        <time>2020-08-02T09:54:26.000Z</time>
      </trkpt>
      <trkpt lat="47.28675" lon="-2.36831">
        <ele>15.199999809265</ele>
        <time>2020-08-02T09:54:27.000Z</time>
      </trkpt>
      <trkpt lat="47.28673" lon="-2.36828">
        <ele>15.60000038147</ele>
        <time>2020-08-02T09:54:28.000Z</time>
      </trkpt>
      <trkpt lat="47.28671" lon="-2.36824">
        <ele>16</ele>
        <time>2020-08-02T09:54:29.000Z</time>
      </trkpt>
      <trkpt lat="47.28668" lon="-2.36819">
        <ele>16.39999961853</ele>
        <time>2020-08-02T09:54:30.000Z</time>
      </trkpt>
      <trkpt lat="47.28667" lon="-2.36817">
        <ele>16.39999961853</ele>
        <time>2020-08-02T09:54:31.000Z</time>
      </trkpt>
      <trkpt lat="47.2866" lon="-2.36812">
        <ele>16.39999961853</ele>
        <time>2020-08-02T09:54:34.000Z</time>
      </trkpt>
      <trkpt lat="47.28653" lon="-2.36813">
        <ele>16.39999961853</ele>
        <time>2020-08-02T09:54:36.000Z</time>
      </trkpt>
      <trkpt lat="47.28643" lon="-2.36825">
        <ele>16.39999961853</ele>
        <time>2020-08-02T09:54:39.000Z</time>
      </trkpt>
      <trkpt lat="47.2864" lon="-2.36829">
        <ele>16.39999961853</ele>
        <time>2020-08-02T09:54:40.000Z</time>
      </trkpt>
      <trkpt lat="47.2862" lon="-2.36846">
        <ele>16.39999961853</ele>
        <time>2020-08-02T09:54:44.000Z</time>
      </trkpt>
      <trkpt lat="47.28611" lon="-2.36847">
        <ele>16.39999961853</ele>
        <time>2020-08-02T09:54:45.000Z</time>
      </trkpt>
      <trkpt lat="47.28593" lon="-2.36838">
        <ele>16.39999961853</ele>
        <time>2020-08-02T09:54:48.000Z</time>
      </trkpt>
      <trkpt lat="47.28581" lon="-2.36819">
        <ele>16.39999961853</ele>
        <time>2020-08-02T09:54:51.000Z</time>
      </trkpt>
      <trkpt lat="47.28558" lon="-2.36777">
        <ele>16.39999961853</ele>
        <time>2020-08-02T09:54:58.000Z</time>
      </trkpt>
      <trkpt lat="47.28535" lon="-2.36732">
        <ele>16.39999961853</ele>
        <time>2020-08-02T09:55:06.000Z</time>
      </trkpt>
      <trkpt lat="47.28522" lon="-2.36705">
        <ele>16.799999237061</ele>
        <time>2020-08-02T09:55:12.000Z</time>
      </trkpt>
      <trkpt lat="47.28519" lon="-2.36702">
        <ele>17.200000762939</ele>
        <time>2020-08-02T09:55:13.000Z</time>
      </trkpt>
      <trkpt lat="47.28517" lon="-2.36699">
        <ele>17.799999237061</ele>
        <time>2020-08-02T09:55:14.000Z</time>
      </trkpt>
      <trkpt lat="47.28516" lon="-2.36697">
        <ele>18.200000762939</ele>
        <time>2020-08-02T09:55:15.000Z</time>
      </trkpt>
      <trkpt lat="47.28515" lon="-2.36694">
        <ele>18.60000038147</ele>
        <time>2020-08-02T09:55:16.000Z</time>
      </trkpt>
      <trkpt lat="47.28514" lon="-2.36692">
        <ele>18.60000038147</ele>
        <time>2020-08-02T09:55:17.000Z</time>
      </trkpt>
      <trkpt lat="47.28506" lon="-2.36685">
        <ele>18.60000038147</ele>
        <time>2020-08-02T09:55:23.000Z</time>
      </trkpt>
      <trkpt lat="47.28494" lon="-2.36669">
        <ele>18.60000038147</ele>
        <time>2020-08-02T09:55:29.000Z</time>
      </trkpt>
      <trkpt lat="47.28492" lon="-2.36664">
        <ele>19</ele>
        <time>2020-08-02T09:55:30.000Z</time>
      </trkpt>
      <trkpt lat="47.2849" lon="-2.36659">
        <ele>19.39999961853</ele>
        <time>2020-08-02T09:55:31.000Z</time>
      </trkpt>
      <trkpt lat="47.28489" lon="-2.36652">
        <ele>19.799999237061</ele>
        <time>2020-08-02T09:55:32.000Z</time>
      </trkpt>
      <trkpt lat="47.28487" lon="-2.36645">
        <ele>20.200000762939</ele>
        <time>2020-08-02T09:55:33.000Z</time>
      </trkpt>
      <trkpt lat="47.28484" lon="-2.36639">
        <ele>20.60000038147</ele>
        <time>2020-08-02T09:55:34.000Z</time>
      </trkpt>
      <trkpt lat="47.28468" lon="-2.36589">
        <ele>20.60000038147</ele>
        <time>2020-08-02T09:55:42.000Z</time>
      </trkpt>
      <trkpt lat="47.2847" lon="-2.36564">
        <ele>20.60000038147</ele>
        <time>2020-08-02T09:55:46.000Z</time>
      </trkpt>
      <trkpt lat="47.28474" lon="-2.36557">
        <ele>20.60000038147</ele>
        <time>2020-08-02T09:55:47.000Z</time>
      </trkpt>
      <trkpt lat="47.28488" lon="-2.36543">
        <ele>20.60000038147</ele>
        <time>2020-08-02T09:55:50.000Z</time>
      </trkpt>
      <trkpt lat="47.28492" lon="-2.36538">
        <ele>20.60000038147</ele>
        <time>2020-08-02T09:55:51.000Z</time>
      </trkpt>
      <trkpt lat="47.28497" lon="-2.36534">
        <ele>20.60000038147</ele>
        <time>2020-08-02T09:55:52.000Z</time>
      </trkpt>
      <trkpt lat="47.28506" lon="-2.36524">
        <ele>21</ele>
        <time>2020-08-02T09:55:54.000Z</time>
      </trkpt>
      <trkpt lat="47.2851" lon="-2.3652">
        <ele>21.39999961853</ele>
        <time>2020-08-02T09:55:55.000Z</time>
      </trkpt>
      <trkpt lat="47.28512" lon="-2.36515">
        <ele>21.799999237061</ele>
        <time>2020-08-02T09:55:56.000Z</time>
      </trkpt>
      <trkpt lat="47.28515" lon="-2.36511">
        <ele>22.200000762939</ele>
        <time>2020-08-02T09:55:57.000Z</time>
      </trkpt>
      <trkpt lat="47.28518" lon="-2.36507">
        <ele>22.60000038147</ele>
        <time>2020-08-02T09:55:58.000Z</time>
      </trkpt>
      <trkpt lat="47.28521" lon="-2.36503">
        <ele>22.60000038147</ele>
        <time>2020-08-02T09:55:59.000Z</time>
      </trkpt>
      <trkpt lat="47.28521" lon="-2.36498">
        <ele>22.60000038147</ele>
        <time>2020-08-02T09:56:00.000Z</time>
      </trkpt>
      <trkpt lat="47.28518" lon="-2.3649">
        <ele>22.60000038147</ele>
        <time>2020-08-02T09:56:02.000Z</time>
      </trkpt>
      <trkpt lat="47.28517" lon="-2.36482">
        <ele>23</ele>
        <time>2020-08-02T09:56:04.000Z</time>
      </trkpt>
      <trkpt lat="47.28517" lon="-2.36478">
        <ele>23.39999961853</ele>
        <time>2020-08-02T09:56:05.000Z</time>
      </trkpt>
      <trkpt lat="47.28516" lon="-2.36474">
        <ele>23.799999237061</ele>
        <time>2020-08-02T09:56:06.000Z</time>
      </trkpt>
      <trkpt lat="47.28515" lon="-2.3647">
        <ele>24.200000762939</ele>
        <time>2020-08-02T09:56:07.000Z</time>
      </trkpt>
      <trkpt lat="47.28513" lon="-2.36465">
        <ele>24.60000038147</ele>
        <time>2020-08-02T09:56:08.000Z</time>
      </trkpt>
      <trkpt lat="47.28507" lon="-2.36455">
        <ele>24.60000038147</ele>
        <time>2020-08-02T09:56:10.000Z</time>
      </trkpt>
      <trkpt lat="47.28503" lon="-2.36451">
        <ele>24.60000038147</ele>
        <time>2020-08-02T09:56:11.000Z</time>
      </trkpt>
      <trkpt lat="47.28496" lon="-2.36445">
        <ele>24.60000038147</ele>
        <time>2020-08-02T09:56:13.000Z</time>
      </trkpt>
      <trkpt lat="47.28485" lon="-2.36437">
        <ele>24.60000038147</ele>
        <time>2020-08-02T09:56:16.000Z</time>
      </trkpt>
      <trkpt lat="47.28482" lon="-2.36434">
        <ele>24.60000038147</ele>
        <time>2020-08-02T09:56:17.000Z</time>
      </trkpt>
      <trkpt lat="47.28472" lon="-2.36425">
        <ele>24.60000038147</ele>
        <time>2020-08-02T09:56:21.000Z</time>
      </trkpt>
      <trkpt lat="47.28457" lon="-2.36404">
        <ele>24.60000038147</ele>
        <time>2020-08-02T09:56:27.000Z</time>
      </trkpt>
      <trkpt lat="47.28449" lon="-2.36397">
        <ele>24.60000038147</ele>
        <time>2020-08-02T09:56:29.000Z</time>
      </trkpt>
      <trkpt lat="47.2843" lon="-2.36382">
        <ele>24.60000038147</ele>
        <time>2020-08-02T09:56:33.000Z</time>
      </trkpt>
      <trkpt lat="47.28406" lon="-2.36354">
        <ele>24.60000038147</ele>
        <time>2020-08-02T09:56:39.000Z</time>
      </trkpt>
      <trkpt lat="47.28371" lon="-2.36327">
        <ele>24.200000762939</ele>
        <time>2020-08-02T09:56:46.000Z</time>
      </trkpt>
      <trkpt lat="47.28367" lon="-2.36326">
        <ele>23.60000038147</ele>
        <time>2020-08-02T09:56:47.000Z</time>
      </trkpt>
      <trkpt lat="47.28362" lon="-2.36324">
        <ele>23.200000762939</ele>
        <time>2020-08-02T09:56:48.000Z</time>
      </trkpt>
      <trkpt lat="47.28356" lon="-2.36324">
        <ele>22.799999237061</ele>
        <time>2020-08-02T09:56:49.000Z</time>
      </trkpt>
      <trkpt lat="47.28351" lon="-2.36321">
        <ele>22.200000762939</ele>
        <time>2020-08-02T09:56:50.000Z</time>
      </trkpt>
      <trkpt lat="47.28344" lon="-2.36314">
        <ele>22.200000762939</ele>
        <time>2020-08-02T09:56:52.000Z</time>
      </trkpt>
      <trkpt lat="47.28334" lon="-2.36301">
        <ele>21.799999237061</ele>
        <time>2020-08-02T09:56:54.000Z</time>
      </trkpt>
      <trkpt lat="47.2833" lon="-2.36296">
        <ele>21.39999961853</ele>
        <time>2020-08-02T09:56:55.000Z</time>
      </trkpt>
      <trkpt lat="47.28324" lon="-2.36285">
        <ele>21</ele>
        <time>2020-08-02T09:56:56.000Z</time>
      </trkpt>
      <trkpt lat="47.2832" lon="-2.36278">
        <ele>20.60000038147</ele>
        <time>2020-08-02T09:56:57.000Z</time>
      </trkpt>
      <trkpt lat="47.28313" lon="-2.3627">
        <ele>20.200000762939</ele>
        <time>2020-08-02T09:56:58.000Z</time>
      </trkpt>
      <trkpt lat="47.28301" lon="-2.36257">
        <ele>20.200000762939</ele>
        <time>2020-08-02T09:57:00.000Z</time>
      </trkpt>
      <trkpt lat="47.28294" lon="-2.36252">
        <ele>19.799999237061</ele>
        <time>2020-08-02T09:57:01.000Z</time>
      </trkpt>
      <trkpt lat="47.28287" lon="-2.36247">
        <ele>19</ele>
        <time>2020-08-02T09:57:02.000Z</time>
      </trkpt>
      <trkpt lat="47.28281" lon="-2.36242">
        <ele>18.60000038147</ele>
        <time>2020-08-02T09:57:03.000Z</time>
      </trkpt>
      <trkpt lat="47.28275" lon="-2.36232">
        <ele>18.200000762939</ele>
        <time>2020-08-02T09:57:04.000Z</time>
      </trkpt>
      <trkpt lat="47.28267" lon="-2.36216">
        <ele>18.200000762939</ele>
        <time>2020-08-02T09:57:06.000Z</time>
      </trkpt>
      <trkpt lat="47.28241" lon="-2.36154">
        <ele>18.200000762939</ele>
        <time>2020-08-02T09:57:14.000Z</time>
      </trkpt>
      <trkpt lat="47.28235" lon="-2.36135">
        <ele>18.200000762939</ele>
        <time>2020-08-02T09:57:18.000Z</time>
      </trkpt>
      <trkpt lat="47.28223" lon="-2.36116">
        <ele>18.200000762939</ele>
        <time>2020-08-02T09:57:23.000Z</time>
      </trkpt>
      <trkpt lat="47.28208" lon="-2.36092">
        <ele>18.200000762939</ele>
        <time>2020-08-02T09:57:27.000Z</time>
      </trkpt>
      <trkpt lat="47.28204" lon="-2.36085">
        <ele>18.200000762939</ele>
        <time>2020-08-02T09:57:28.000Z</time>
      </trkpt>
      <trkpt lat="47.28194" lon="-2.36053">
        <ele>18.200000762939</ele>
        <time>2020-08-02T09:57:33.000Z</time>
      </trkpt>
      <trkpt lat="47.28179" lon="-2.36012">
        <ele>18.200000762939</ele>
        <time>2020-08-02T09:57:40.000Z</time>
      </trkpt>
      <trkpt lat="47.28167" lon="-2.35977">
        <ele>18.200000762939</ele>
        <time>2020-08-02T09:57:46.000Z</time>
      </trkpt>
      <trkpt lat="47.28154" lon="-2.35952">
        <ele>18.200000762939</ele>
        <time>2020-08-02T09:57:52.000Z</time>
      </trkpt>
      <trkpt lat="47.28145" lon="-2.35934">
        <ele>18.60000038147</ele>
        <time>2020-08-02T09:57:57.000Z</time>
      </trkpt>
      <trkpt lat="47.28144" lon="-2.3593">
        <ele>19</ele>
        <time>2020-08-02T09:57:58.000Z</time>
      </trkpt>
      <trkpt lat="47.28142" lon="-2.35927">
        <ele>19.60000038147</ele>
        <time>2020-08-02T09:57:59.000Z</time>
      </trkpt>
      <trkpt lat="47.2814" lon="-2.35924">
        <ele>20</ele>
        <time>2020-08-02T09:58:00.000Z</time>
      </trkpt>
      <trkpt lat="47.28138" lon="-2.35921">
        <ele>20.39999961853</ele>
        <time>2020-08-02T09:58:01.000Z</time>
      </trkpt>
      <trkpt lat="47.28128" lon="-2.3591">
        <ele>20.39999961853</ele>
        <time>2020-08-02T09:58:04.000Z</time>
      </trkpt>
      <trkpt lat="47.28108" lon="-2.35883">
        <ele>20.39999961853</ele>
        <time>2020-08-02T09:58:10.000Z</time>
      </trkpt>
      <trkpt lat="47.28093" lon="-2.3586">
        <ele>20.39999961853</ele>
        <time>2020-08-02T09:58:15.000Z</time>
      </trkpt>
      <trkpt lat="47.28079" lon="-2.35814">
        <ele>20.39999961853</ele>
        <time>2020-08-02T09:58:22.000Z</time>
      </trkpt>
      <trkpt lat="47.28083" lon="-2.35777">
        <ele>20.799999237061</ele>
        <time>2020-08-02T09:58:28.000Z</time>
      </trkpt>
      <trkpt lat="47.28083" lon="-2.35771">
        <ele>21.200000762939</ele>
        <time>2020-08-02T09:58:29.000Z</time>
      </trkpt>
      <trkpt lat="47.28084" lon="-2.35764">
        <ele>21.60000038147</ele>
        <time>2020-08-02T09:58:30.000Z</time>
      </trkpt>
      <trkpt lat="47.28085" lon="-2.35753">
        <ele>22</ele>
        <time>2020-08-02T09:58:31.000Z</time>
      </trkpt>
      <trkpt lat="47.28086" lon="-2.35748">
        <ele>22.39999961853</ele>
        <time>2020-08-02T09:58:32.000Z</time>
      </trkpt>
      <trkpt lat="47.28088" lon="-2.35735">
        <ele>22.39999961853</ele>
        <time>2020-08-02T09:58:34.000Z</time>
      </trkpt>
      <trkpt lat="47.28091" lon="-2.35724">
        <ele>22.799999237061</ele>
        <time>2020-08-02T09:58:36.000Z</time>
      </trkpt>
      <trkpt lat="47.28091" lon="-2.35718">
        <ele>23.200000762939</ele>
        <time>2020-08-02T09:58:37.000Z</time>
      </trkpt>
      <trkpt lat="47.28091" lon="-2.35712">
        <ele>23.799999237061</ele>
        <time>2020-08-02T09:58:38.000Z</time>
      </trkpt>
      <trkpt lat="47.2809" lon="-2.35706">
        <ele>24.200000762939</ele>
        <time>2020-08-02T09:58:39.000Z</time>
      </trkpt>
      <trkpt lat="47.28089" lon="-2.357">
        <ele>24.60000038147</ele>
        <time>2020-08-02T09:58:40.000Z</time>
      </trkpt>
      <trkpt lat="47.28082" lon="-2.35669">
        <ele>24.60000038147</ele>
        <time>2020-08-02T09:58:44.000Z</time>
      </trkpt>
      <trkpt lat="47.28077" lon="-2.35647">
        <ele>24.200000762939</ele>
        <time>2020-08-02T09:58:47.000Z</time>
      </trkpt>
      <trkpt lat="47.28075" lon="-2.35639">
        <ele>23.799999237061</ele>
        <time>2020-08-02T09:58:48.000Z</time>
      </trkpt>
      <trkpt lat="47.28073" lon="-2.3563">
        <ele>23.39999961853</ele>
        <time>2020-08-02T09:58:49.000Z</time>
      </trkpt>
      <trkpt lat="47.28072" lon="-2.3562">
        <ele>22.799999237061</ele>
        <time>2020-08-02T09:58:50.000Z</time>
      </trkpt>
      <trkpt lat="47.2807" lon="-2.3561">
        <ele>22.200000762939</ele>
        <time>2020-08-02T09:58:51.000Z</time>
      </trkpt>
      <trkpt lat="47.28067" lon="-2.35602">
        <ele>21.60000038147</ele>
        <time>2020-08-02T09:58:52.000Z</time>
      </trkpt>
      <trkpt lat="47.28064" lon="-2.35595">
        <ele>21</ele>
        <time>2020-08-02T09:58:53.000Z</time>
      </trkpt>
      <trkpt lat="47.2806" lon="-2.3559">
        <ele>20.39999961853</ele>
        <time>2020-08-02T09:58:54.000Z</time>
      </trkpt>
      <trkpt lat="47.28055" lon="-2.35586">
        <ele>20.39999961853</ele>
        <time>2020-08-02T09:58:55.000Z</time>
      </trkpt>
      <trkpt lat="47.2805" lon="-2.35583">
        <ele>20</ele>
        <time>2020-08-02T09:58:56.000Z</time>
      </trkpt>
      <trkpt lat="47.28043" lon="-2.35582">
        <ele>19.60000038147</ele>
        <time>2020-08-02T09:58:57.000Z</time>
      </trkpt>
      <trkpt lat="47.28037" lon="-2.35581">
        <ele>19.200000762939</ele>
        <time>2020-08-02T09:58:58.000Z</time>
      </trkpt>
      <trkpt lat="47.28032" lon="-2.35578">
        <ele>18.799999237061</ele>
        <time>2020-08-02T09:58:59.000Z</time>
      </trkpt>
      <trkpt lat="47.28029" lon="-2.35575">
        <ele>18.39999961853</ele>
        <time>2020-08-02T09:59:00.000Z</time>
      </trkpt>
      <trkpt lat="47.28027" lon="-2.35572">
        <ele>18.39999961853</ele>
        <time>2020-08-02T09:59:01.000Z</time>
      </trkpt>
      <trkpt lat="47.28027" lon="-2.35572">
        <ele>18</ele>
        <time>2020-08-02T09:59:02.000Z</time>
      </trkpt>
      <trkpt lat="47.28026" lon="-2.35569">
        <ele>16.200000762939</ele>
        <time>2020-08-02T09:59:19.000Z</time>
      </trkpt>
      <trkpt lat="47.28023" lon="-2.35563">
        <ele>16.200000762939</ele>
        <time>2020-08-02T09:59:21.000Z</time>
      </trkpt>
      <trkpt lat="47.28009" lon="-2.35557">
        <ele>16.200000762939</ele>
        <time>2020-08-02T09:59:25.000Z</time>
      </trkpt>
      <trkpt lat="47.27997" lon="-2.35538">
        <ele>16.200000762939</ele>
        <time>2020-08-02T09:59:29.000Z</time>
      </trkpt>
      <trkpt lat="47.27994" lon="-2.3553">
        <ele>16.200000762939</ele>
        <time>2020-08-02T09:59:30.000Z</time>
      </trkpt>
      <trkpt lat="47.27985" lon="-2.35504">
        <ele>15.800000190735</ele>
        <time>2020-08-02T09:59:33.000Z</time>
      </trkpt>
      <trkpt lat="47.27982" lon="-2.35496">
        <ele>15.39999961853</ele>
        <time>2020-08-02T09:59:34.000Z</time>
      </trkpt>
      <trkpt lat="47.27978" lon="-2.35487">
        <ele>15</ele>
        <time>2020-08-02T09:59:35.000Z</time>
      </trkpt>
      <trkpt lat="47.27973" lon="-2.35479">
        <ele>14.60000038147</ele>
        <time>2020-08-02T09:59:36.000Z</time>
      </trkpt>
      <trkpt lat="47.27968" lon="-2.35473">
        <ele>14.199999809265</ele>
        <time>2020-08-02T09:59:37.000Z</time>
      </trkpt>
      <trkpt lat="47.27963" lon="-2.35469">
        <ele>14.199999809265</ele>
        <time>2020-08-02T09:59:38.000Z</time>
      </trkpt>
      <trkpt lat="47.27953" lon="-2.35453">
        <ele>14.199999809265</ele>
        <time>2020-08-02T09:59:41.000Z</time>
      </trkpt>
      <trkpt lat="47.27945" lon="-2.35435">
        <ele>14.199999809265</ele>
        <time>2020-08-02T09:59:44.000Z</time>
      </trkpt>
      <trkpt lat="47.27942" lon="-2.35429">
        <ele>14.199999809265</ele>
        <time>2020-08-02T09:59:45.000Z</time>
      </trkpt>
      <trkpt lat="47.27933" lon="-2.3541">
        <ele>14.199999809265</ele>
        <time>2020-08-02T09:59:48.000Z</time>
      </trkpt>
      <trkpt lat="47.2793" lon="-2.35394">
        <ele>14.199999809265</ele>
        <time>2020-08-02T09:59:50.000Z</time>
      </trkpt>
      <trkpt lat="47.27927" lon="-2.35357">
        <ele>14.199999809265</ele>
        <time>2020-08-02T09:59:55.000Z</time>
      </trkpt>
      <trkpt lat="47.27927" lon="-2.35351">
        <ele>14.199999809265</ele>
        <time>2020-08-02T09:59:56.000Z</time>
      </trkpt>
      <trkpt lat="47.27926" lon="-2.35329">
        <ele>14.199999809265</ele>
        <time>2020-08-02T09:59:59.000Z</time>
      </trkpt>
      <trkpt lat="47.27923" lon="-2.35315">
        <ele>14.199999809265</ele>
        <time>2020-08-02T10:00:01.000Z</time>
      </trkpt>
      <trkpt lat="47.27922" lon="-2.35299">
        <ele>14.199999809265</ele>
        <time>2020-08-02T10:00:03.000Z</time>
      </trkpt>
      <trkpt lat="47.2792" lon="-2.35272">
        <ele>14.199999809265</ele>
        <time>2020-08-02T10:00:06.000Z</time>
      </trkpt>
      <trkpt lat="47.27913" lon="-2.35205">
        <ele>14.199999809265</ele>
        <time>2020-08-02T10:00:13.000Z</time>
      </trkpt>
      <trkpt lat="47.27909" lon="-2.3514">
        <ele>14.199999809265</ele>
        <time>2020-08-02T10:00:20.000Z</time>
      </trkpt>
      <trkpt lat="47.27909" lon="-2.35131">
        <ele>14.60000038147</ele>
        <time>2020-08-02T10:00:21.000Z</time>
      </trkpt>
      <trkpt lat="47.27908" lon="-2.35123">
        <ele>15</ele>
        <time>2020-08-02T10:00:22.000Z</time>
      </trkpt>
      <trkpt lat="47.27908" lon="-2.35115">
        <ele>15.39999961853</ele>
        <time>2020-08-02T10:00:23.000Z</time>
      </trkpt>
      <trkpt lat="47.27908" lon="-2.35107">
        <ele>15.800000190735</ele>
        <time>2020-08-02T10:00:24.000Z</time>
      </trkpt>
      <trkpt lat="47.27907" lon="-2.351">
        <ele>16.200000762939</ele>
        <time>2020-08-02T10:00:25.000Z</time>
      </trkpt>
      <trkpt lat="47.27906" lon="-2.35084">
        <ele>16.200000762939</ele>
        <time>2020-08-02T10:00:27.000Z</time>
      </trkpt>
      <trkpt lat="47.27901" lon="-2.35037">
        <ele>16.200000762939</ele>
        <time>2020-08-02T10:00:33.000Z</time>
      </trkpt>
      <trkpt lat="47.27899" lon="-2.35029">
        <ele>16.200000762939</ele>
        <time>2020-08-02T10:00:34.000Z</time>
      </trkpt>
      <trkpt lat="47.27892" lon="-2.35006">
        <ele>16.200000762939</ele>
        <time>2020-08-02T10:00:37.000Z</time>
      </trkpt>
      <trkpt lat="47.27885" lon="-2.34984">
        <ele>16.200000762939</ele>
        <time>2020-08-02T10:00:40.000Z</time>
      </trkpt>
      <trkpt lat="47.27873" lon="-2.34959">
        <ele>16.200000762939</ele>
        <time>2020-08-02T10:00:44.000Z</time>
      </trkpt>
      <trkpt lat="47.27869" lon="-2.34954">
        <ele>16.200000762939</ele>
        <time>2020-08-02T10:00:45.000Z</time>
      </trkpt>
      <trkpt lat="47.27857" lon="-2.34941">
        <ele>16.200000762939</ele>
        <time>2020-08-02T10:00:48.000Z</time>
      </trkpt>
      <trkpt lat="47.27845" lon="-2.34927">
        <ele>16.200000762939</ele>
        <time>2020-08-02T10:00:51.000Z</time>
      </trkpt>
      <trkpt lat="47.2781" lon="-2.34891">
        <ele>16.200000762939</ele>
        <time>2020-08-02T10:00:59.000Z</time>
      </trkpt>
      <trkpt lat="47.27795" lon="-2.34879">
        <ele>16.200000762939</ele>
        <time>2020-08-02T10:01:03.000Z</time>
      </trkpt>
      <trkpt lat="47.27782" lon="-2.34866">
        <ele>16.200000762939</ele>
        <time>2020-08-02T10:01:07.000Z</time>
      </trkpt>
      <trkpt lat="47.27779" lon="-2.34861">
        <ele>16.200000762939</ele>
        <time>2020-08-02T10:01:08.000Z</time>
      </trkpt>
      <trkpt lat="47.27762" lon="-2.34833">
        <ele>16.200000762939</ele>
        <time>2020-08-02T10:01:14.000Z</time>
      </trkpt>
      <trkpt lat="47.27758" lon="-2.34832">
        <ele>16.200000762939</ele>
        <time>2020-08-02T10:01:15.000Z</time>
      </trkpt>
      <trkpt lat="47.27746" lon="-2.34824">
        <ele>16.60000038147</ele>
        <time>2020-08-02T10:01:18.000Z</time>
      </trkpt>
      <trkpt lat="47.27742" lon="-2.34819">
        <ele>17</ele>
        <time>2020-08-02T10:01:19.000Z</time>
      </trkpt>
      <trkpt lat="47.27739" lon="-2.34813">
        <ele>17.60000038147</ele>
        <time>2020-08-02T10:01:20.000Z</time>
      </trkpt>
      <trkpt lat="47.27737" lon="-2.34806">
        <ele>18</ele>
        <time>2020-08-02T10:01:21.000Z</time>
      </trkpt>
      <trkpt lat="47.27734" lon="-2.34799">
        <ele>18.39999961853</ele>
        <time>2020-08-02T10:01:22.000Z</time>
      </trkpt>
      <trkpt lat="47.27728" lon="-2.34785">
        <ele>18.39999961853</ele>
        <time>2020-08-02T10:01:24.000Z</time>
      </trkpt>
      <trkpt lat="47.27711" lon="-2.34752">
        <ele>18.39999961853</ele>
        <time>2020-08-02T10:01:29.000Z</time>
      </trkpt>
      <trkpt lat="47.27709" lon="-2.34745">
        <ele>18.39999961853</ele>
        <time>2020-08-02T10:01:30.000Z</time>
      </trkpt>
      <trkpt lat="47.27702" lon="-2.34706">
        <ele>18.39999961853</ele>
        <time>2020-08-02T10:01:35.000Z</time>
      </trkpt>
      <trkpt lat="47.27701" lon="-2.347">
        <ele>18.39999961853</ele>
        <time>2020-08-02T10:01:36.000Z</time>
      </trkpt>
      <trkpt lat="47.27696" lon="-2.34687">
        <ele>18.39999961853</ele>
        <time>2020-08-02T10:01:39.000Z</time>
      </trkpt>
      <trkpt lat="47.27695" lon="-2.3468">
        <ele>18.39999961853</ele>
        <time>2020-08-02T10:01:41.000Z</time>
      </trkpt>
      <trkpt lat="47.27696" lon="-2.34674">
        <ele>18.39999961853</ele>
        <time>2020-08-02T10:01:43.000Z</time>
      </trkpt>
      <trkpt lat="47.27692" lon="-2.34659">
        <ele>18.39999961853</ele>
        <time>2020-08-02T10:01:46.000Z</time>
      </trkpt>
      <trkpt lat="47.27691" lon="-2.34646">
        <ele>18.39999961853</ele>
        <time>2020-08-02T10:01:48.000Z</time>
      </trkpt>
      <trkpt lat="47.27688" lon="-2.34616">
        <ele>18.39999961853</ele>
        <time>2020-08-02T10:01:52.000Z</time>
      </trkpt>
      <trkpt lat="47.27684" lon="-2.34588">
        <ele>18.39999961853</ele>
        <time>2020-08-02T10:01:56.000Z</time>
      </trkpt>
      <trkpt lat="47.27681" lon="-2.34578">
        <ele>18.39999961853</ele>
        <time>2020-08-02T10:01:59.000Z</time>
      </trkpt>
      <trkpt lat="47.2768" lon="-2.34575">
        <ele>18.39999961853</ele>
        <time>2020-08-02T10:02:00.000Z</time>
      </trkpt>
      <trkpt lat="47.27675" lon="-2.34569">
        <ele>18.39999961853</ele>
        <time>2020-08-02T10:02:03.000Z</time>
      </trkpt>
      <trkpt lat="47.27665" lon="-2.34574">
        <ele>18.39999961853</ele>
        <time>2020-08-02T10:02:06.000Z</time>
      </trkpt>
      <trkpt lat="47.2766" lon="-2.34577">
        <ele>18.799999237061</ele>
        <time>2020-08-02T10:02:07.000Z</time>
      </trkpt>
      <trkpt lat="47.27656" lon="-2.34581">
        <ele>19.200000762939</ele>
        <time>2020-08-02T10:02:08.000Z</time>
      </trkpt>
      <trkpt lat="47.27651" lon="-2.34585">
        <ele>19.60000038147</ele>
        <time>2020-08-02T10:02:09.000Z</time>
      </trkpt>
      <trkpt lat="47.27645" lon="-2.3459">
        <ele>20</ele>
        <time>2020-08-02T10:02:10.000Z</time>
      </trkpt>
      <trkpt lat="47.2764" lon="-2.34595">
        <ele>20.39999961853</ele>
        <time>2020-08-02T10:02:11.000Z</time>
      </trkpt>
      <trkpt lat="47.27635" lon="-2.34601">
        <ele>20.39999961853</ele>
        <time>2020-08-02T10:02:12.000Z</time>
      </trkpt>
      <trkpt lat="47.27603" lon="-2.34633">
        <ele>20.39999961853</ele>
        <time>2020-08-02T10:02:18.000Z</time>
      </trkpt>
      <trkpt lat="47.27576" lon="-2.34657">
        <ele>20.39999961853</ele>
        <time>2020-08-02T10:02:24.000Z</time>
      </trkpt>
      <trkpt lat="47.27545" lon="-2.34673">
        <ele>20.39999961853</ele>
        <time>2020-08-02T10:02:30.000Z</time>
      </trkpt>
      <trkpt lat="47.27517" lon="-2.34677">
        <ele>20.39999961853</ele>
        <time>2020-08-02T10:02:35.000Z</time>
      </trkpt>
      <trkpt lat="47.27484" lon="-2.34682">
        <ele>20.39999961853</ele>
        <time>2020-08-02T10:02:41.000Z</time>
      </trkpt>
      <trkpt lat="47.27479" lon="-2.34684">
        <ele>20.39999961853</ele>
        <time>2020-08-02T10:02:42.000Z</time>
      </trkpt>
      <trkpt lat="47.27468" lon="-2.34692">
        <ele>20.39999961853</ele>
        <time>2020-08-02T10:02:45.000Z</time>
      </trkpt>
      <trkpt lat="47.2746" lon="-2.34692">
        <ele>20.39999961853</ele>
        <time>2020-08-02T10:02:47.000Z</time>
      </trkpt>
      <trkpt lat="47.27458" lon="-2.3469">
        <ele>20.39999961853</ele>
        <time>2020-08-02T10:02:48.000Z</time>
      </trkpt>
      <trkpt lat="47.27455" lon="-2.34673">
        <ele>20.39999961853</ele>
        <time>2020-08-02T10:02:51.000Z</time>
      </trkpt>
      <trkpt lat="47.27455" lon="-2.34666">
        <ele>20.39999961853</ele>
        <time>2020-08-02T10:02:52.000Z</time>
      </trkpt>
      <trkpt lat="47.27454" lon="-2.34646">
        <ele>20.39999961853</ele>
        <time>2020-08-02T10:02:56.000Z</time>
      </trkpt>
      <trkpt lat="47.2745" lon="-2.34616">
        <ele>20.39999961853</ele>
        <time>2020-08-02T10:03:02.000Z</time>
      </trkpt>
      <trkpt lat="47.27443" lon="-2.34569">
        <ele>20.39999961853</ele>
        <time>2020-08-02T10:03:09.000Z</time>
      </trkpt>
      <trkpt lat="47.27434" lon="-2.34526">
        <ele>20.799999237061</ele>
        <time>2020-08-02T10:03:15.000Z</time>
      </trkpt>
      <trkpt lat="47.27432" lon="-2.34519">
        <ele>21.200000762939</ele>
        <time>2020-08-02T10:03:16.000Z</time>
      </trkpt>
      <trkpt lat="47.27431" lon="-2.34511">
        <ele>21.60000038147</ele>
        <time>2020-08-02T10:03:17.000Z</time>
      </trkpt>
      <trkpt lat="47.27429" lon="-2.34504">
        <ele>22</ele>
        <time>2020-08-02T10:03:18.000Z</time>
      </trkpt>
      <trkpt lat="47.27427" lon="-2.34497">
        <ele>22.39999961853</ele>
        <time>2020-08-02T10:03:19.000Z</time>
      </trkpt>
      <trkpt lat="47.27426" lon="-2.3449">
        <ele>22.39999961853</ele>
        <time>2020-08-02T10:03:20.000Z</time>
      </trkpt>
      <trkpt lat="47.27423" lon="-2.34475">
        <ele>22.39999961853</ele>
        <time>2020-08-02T10:03:22.000Z</time>
      </trkpt>
      <trkpt lat="47.27421" lon="-2.34417">
        <ele>22.39999961853</ele>
        <time>2020-08-02T10:03:30.000Z</time>
      </trkpt>
      <trkpt lat="47.27415" lon="-2.34374">
        <ele>22</ele>
        <time>2020-08-02T10:03:36.000Z</time>
      </trkpt>
      <trkpt lat="47.27414" lon="-2.34366">
        <ele>21.60000038147</ele>
        <time>2020-08-02T10:03:37.000Z</time>
      </trkpt>
      <trkpt lat="47.27414" lon="-2.34358">
        <ele>21.200000762939</ele>
        <time>2020-08-02T10:03:38.000Z</time>
      </trkpt>
      <trkpt lat="47.27414" lon="-2.3435">
        <ele>20.799999237061</ele>
        <time>2020-08-02T10:03:39.000Z</time>
      </trkpt>
      <trkpt lat="47.27414" lon="-2.34341">
        <ele>20.200000762939</ele>
        <time>2020-08-02T10:03:40.000Z</time>
      </trkpt>
      <trkpt lat="47.27413" lon="-2.34325">
        <ele>20.200000762939</ele>
        <time>2020-08-02T10:03:42.000Z</time>
      </trkpt>
      <trkpt lat="47.27414" lon="-2.34317">
        <ele>20.200000762939</ele>
        <time>2020-08-02T10:03:43.000Z</time>
      </trkpt>
      <trkpt lat="47.27414" lon="-2.34283">
        <ele>19.799999237061</ele>
        <time>2020-08-02T10:03:47.000Z</time>
      </trkpt>
      <trkpt lat="47.27414" lon="-2.34275">
        <ele>19.39999961853</ele>
        <time>2020-08-02T10:03:48.000Z</time>
      </trkpt>
      <trkpt lat="47.27414" lon="-2.34268">
        <ele>19</ele>
        <time>2020-08-02T10:03:49.000Z</time>
      </trkpt>
      <trkpt lat="47.27414" lon="-2.3426">
        <ele>18.60000038147</ele>
        <time>2020-08-02T10:03:50.000Z</time>
      </trkpt>
      <trkpt lat="47.27414" lon="-2.34254">
        <ele>18.200000762939</ele>
        <time>2020-08-02T10:03:51.000Z</time>
      </trkpt>
      <trkpt lat="47.27413" lon="-2.34248">
        <ele>18.200000762939</ele>
        <time>2020-08-02T10:03:53.000Z</time>
      </trkpt>
      <trkpt lat="47.27413" lon="-2.34247">
        <ele>18.200000762939</ele>
        <time>2020-08-02T10:03:54.000Z</time>
      </trkpt>
      <trkpt lat="47.27411" lon="-2.34246">
        <ele>18.200000762939</ele>
        <time>2020-08-02T10:04:00.000Z</time>
      </trkpt>
      <trkpt lat="47.27409" lon="-2.34244">
        <ele>18.200000762939</ele>
        <time>2020-08-02T10:04:01.000Z</time>
      </trkpt>
      <trkpt lat="47.27401" lon="-2.34228">
        <ele>18.200000762939</ele>
        <time>2020-08-02T10:04:05.000Z</time>
      </trkpt>
      <trkpt lat="47.274" lon="-2.34213">
        <ele>18.200000762939</ele>
        <time>2020-08-02T10:04:07.000Z</time>
      </trkpt>
      <trkpt lat="47.274" lon="-2.34197">
        <ele>18.200000762939</ele>
        <time>2020-08-02T10:04:09.000Z</time>
      </trkpt>
      <trkpt lat="47.274" lon="-2.34143">
        <ele>18.200000762939</ele>
        <time>2020-08-02T10:04:15.000Z</time>
      </trkpt>
      <trkpt lat="47.27397" lon="-2.34087">
        <ele>18.200000762939</ele>
        <time>2020-08-02T10:04:22.000Z</time>
      </trkpt>
      <trkpt lat="47.27397" lon="-2.34079">
        <ele>18.60000038147</ele>
        <time>2020-08-02T10:04:23.000Z</time>
      </trkpt>
      <trkpt lat="47.27396" lon="-2.34071">
        <ele>19</ele>
        <time>2020-08-02T10:04:24.000Z</time>
      </trkpt>
      <trkpt lat="47.27396" lon="-2.34063">
        <ele>19.799999237061</ele>
        <time>2020-08-02T10:04:25.000Z</time>
      </trkpt>
      <trkpt lat="47.27396" lon="-2.34056">
        <ele>20.200000762939</ele>
        <time>2020-08-02T10:04:26.000Z</time>
      </trkpt>
      <trkpt lat="47.27396" lon="-2.3404">
        <ele>20.200000762939</ele>
        <time>2020-08-02T10:04:28.000Z</time>
      </trkpt>
      <trkpt lat="47.27395" lon="-2.34024">
        <ele>20.200000762939</ele>
        <time>2020-08-02T10:04:30.000Z</time>
      </trkpt>
      <trkpt lat="47.27393" lon="-2.34003">
        <ele>20.200000762939</ele>
        <time>2020-08-02T10:04:33.000Z</time>
      </trkpt>
      <trkpt lat="47.27392" lon="-2.33996">
        <ele>20.200000762939</ele>
        <time>2020-08-02T10:04:34.000Z</time>
      </trkpt>
      <trkpt lat="47.27391" lon="-2.33989">
        <ele>20.60000038147</ele>
        <time>2020-08-02T10:04:35.000Z</time>
      </trkpt>
      <trkpt lat="47.2739" lon="-2.33982">
        <ele>21</ele>
        <time>2020-08-02T10:04:36.000Z</time>
      </trkpt>
      <trkpt lat="47.2739" lon="-2.33976">
        <ele>21.39999961853</ele>
        <time>2020-08-02T10:04:37.000Z</time>
      </trkpt>
      <trkpt lat="47.27389" lon="-2.3397">
        <ele>21.799999237061</ele>
        <time>2020-08-02T10:04:38.000Z</time>
      </trkpt>
      <trkpt lat="47.27387" lon="-2.33965">
        <ele>22.200000762939</ele>
        <time>2020-08-02T10:04:39.000Z</time>
      </trkpt>
      <trkpt lat="47.27381" lon="-2.3396">
        <ele>22.200000762939</ele>
        <time>2020-08-02T10:04:41.000Z</time>
      </trkpt>
      <trkpt lat="47.27377" lon="-2.3396">
        <ele>22.200000762939</ele>
        <time>2020-08-02T10:04:42.000Z</time>
      </trkpt>
      <trkpt lat="47.27358" lon="-2.33961">
        <ele>22.200000762939</ele>
        <time>2020-08-02T10:04:48.000Z</time>
      </trkpt>
      <trkpt lat="47.27343" lon="-2.33961">
        <ele>22.200000762939</ele>
        <time>2020-08-02T10:04:54.000Z</time>
      </trkpt>
      <trkpt lat="47.27326" lon="-2.33952">
        <ele>22.200000762939</ele>
        <time>2020-08-02T10:05:00.000Z</time>
      </trkpt>
      <trkpt lat="47.27309" lon="-2.33932">
        <ele>22.200000762939</ele>
        <time>2020-08-02T10:05:07.000Z</time>
      </trkpt>
      <trkpt lat="47.2729" lon="-2.33912">
        <ele>22.200000762939</ele>
        <time>2020-08-02T10:05:15.000Z</time>
      </trkpt>
      <trkpt lat="47.27268" lon="-2.33887">
        <ele>22.200000762939</ele>
        <time>2020-08-02T10:05:21.000Z</time>
      </trkpt>
      <trkpt lat="47.27251" lon="-2.33869">
        <ele>22.200000762939</ele>
        <time>2020-08-02T10:05:25.000Z</time>
      </trkpt>
      <trkpt lat="47.27243" lon="-2.33864">
        <ele>22.200000762939</ele>
        <time>2020-08-02T10:05:27.000Z</time>
      </trkpt>
      <trkpt lat="47.27228" lon="-2.33856">
        <ele>22.200000762939</ele>
        <time>2020-08-02T10:05:30.000Z</time>
      </trkpt>
      <trkpt lat="47.27213" lon="-2.3385">
        <ele>22.200000762939</ele>
        <time>2020-08-02T10:05:33.000Z</time>
      </trkpt>
      <trkpt lat="47.27197" lon="-2.33847">
        <ele>22.200000762939</ele>
        <time>2020-08-02T10:05:36.000Z</time>
      </trkpt>
      <trkpt lat="47.27192" lon="-2.3385">
        <ele>22.200000762939</ele>
        <time>2020-08-02T10:05:37.000Z</time>
      </trkpt>
      <trkpt lat="47.27185" lon="-2.33869">
        <ele>22.200000762939</ele>
        <time>2020-08-02T10:05:40.000Z</time>
      </trkpt>
      <trkpt lat="47.27183" lon="-2.33875">
        <ele>22.200000762939</ele>
        <time>2020-08-02T10:05:41.000Z</time>
      </trkpt>
      <trkpt lat="47.27174" lon="-2.33891">
        <ele>22.200000762939</ele>
        <time>2020-08-02T10:05:44.000Z</time>
      </trkpt>
      <trkpt lat="47.27153" lon="-2.33921">
        <ele>21.799999237061</ele>
        <time>2020-08-02T10:05:49.000Z</time>
      </trkpt>
      <trkpt lat="47.27149" lon="-2.33928">
        <ele>21.200000762939</ele>
        <time>2020-08-02T10:05:50.000Z</time>
      </trkpt>
      <trkpt lat="47.27144" lon="-2.33934">
        <ele>20.799999237061</ele>
        <time>2020-08-02T10:05:51.000Z</time>
      </trkpt>
      <trkpt lat="47.2714" lon="-2.3394">
        <ele>20.200000762939</ele>
        <time>2020-08-02T10:05:52.000Z</time>
      </trkpt>
      <trkpt lat="47.27136" lon="-2.33944">
        <ele>19.799999237061</ele>
        <time>2020-08-02T10:05:53.000Z</time>
      </trkpt>
      <trkpt lat="47.27133" lon="-2.33948">
        <ele>19.200000762939</ele>
        <time>2020-08-02T10:05:54.000Z</time>
      </trkpt>
      <trkpt lat="47.2713" lon="-2.33952">
        <ele>18.799999237061</ele>
        <time>2020-08-02T10:05:55.000Z</time>
      </trkpt>
      <trkpt lat="47.27127" lon="-2.33955">
        <ele>18.39999961853</ele>
        <time>2020-08-02T10:05:56.000Z</time>
      </trkpt>
      <trkpt lat="47.27122" lon="-2.33956">
        <ele>18</ele>
        <time>2020-08-02T10:05:57.000Z</time>
      </trkpt>
      <trkpt lat="47.27118" lon="-2.33954">
        <ele>17.60000038147</ele>
        <time>2020-08-02T10:05:58.000Z</time>
      </trkpt>
      <trkpt lat="47.27111" lon="-2.33946">
        <ele>17.60000038147</ele>
        <time>2020-08-02T10:06:00.000Z</time>
      </trkpt>
      <trkpt lat="47.27107" lon="-2.33942">
        <ele>17.200000762939</ele>
        <time>2020-08-02T10:06:01.000Z</time>
      </trkpt>
      <trkpt lat="47.27103" lon="-2.33938">
        <ele>16.799999237061</ele>
        <time>2020-08-02T10:06:02.000Z</time>
      </trkpt>
      <trkpt lat="47.27098" lon="-2.33934">
        <ele>16.200000762939</ele>
        <time>2020-08-02T10:06:03.000Z</time>
      </trkpt>
      <trkpt lat="47.27092" lon="-2.33929">
        <ele>15.39999961853</ele>
        <time>2020-08-02T10:06:04.000Z</time>
      </trkpt>
      <trkpt lat="47.27073" lon="-2.33914">
        <ele>15.39999961853</ele>
        <time>2020-08-02T10:06:07.000Z</time>
      </trkpt>
      <trkpt lat="47.27067" lon="-2.33908">
        <ele>15</ele>
        <time>2020-08-02T10:06:08.000Z</time>
      </trkpt>
      <trkpt lat="47.27059" lon="-2.33901">
        <ele>14.60000038147</ele>
        <time>2020-08-02T10:06:09.000Z</time>
      </trkpt>
      <trkpt lat="47.27052" lon="-2.33894">
        <ele>14.199999809265</ele>
        <time>2020-08-02T10:06:10.000Z</time>
      </trkpt>
      <trkpt lat="47.27045" lon="-2.33887">
        <ele>13.800000190735</ele>
        <time>2020-08-02T10:06:11.000Z</time>
      </trkpt>
      <trkpt lat="47.27037" lon="-2.3388">
        <ele>13.39999961853</ele>
        <time>2020-08-02T10:06:12.000Z</time>
      </trkpt>
      <trkpt lat="47.27007" lon="-2.33858">
        <ele>13</ele>
        <time>2020-08-02T10:06:16.000Z</time>
      </trkpt>
      <trkpt lat="47.26999" lon="-2.33854">
        <ele>12.60000038147</ele>
        <time>2020-08-02T10:06:17.000Z</time>
      </trkpt>
      <trkpt lat="47.26991" lon="-2.33849">
        <ele>12</ele>
        <time>2020-08-02T10:06:18.000Z</time>
      </trkpt>
      <trkpt lat="47.26983" lon="-2.33844">
        <ele>11.60000038147</ele>
        <time>2020-08-02T10:06:19.000Z</time>
      </trkpt>
      <trkpt lat="47.26973" lon="-2.33838">
        <ele>11</ele>
        <time>2020-08-02T10:06:20.000Z</time>
      </trkpt>
      <trkpt lat="47.26964" lon="-2.33834">
        <ele>10.60000038147</ele>
        <time>2020-08-02T10:06:21.000Z</time>
      </trkpt>
      <trkpt lat="47.26955" lon="-2.33829">
        <ele>10</ele>
        <time>2020-08-02T10:06:22.000Z</time>
      </trkpt>
      <trkpt lat="47.26947" lon="-2.33824">
        <ele>9.3999996185303</ele>
        <time>2020-08-02T10:06:23.000Z</time>
      </trkpt>
      <trkpt lat="47.2694" lon="-2.33818">
        <ele>8.8000001907349</ele>
        <time>2020-08-02T10:06:24.000Z</time>
      </trkpt>
      <trkpt lat="47.26934" lon="-2.33811">
        <ele>8.3999996185303</ele>
        <time>2020-08-02T10:06:25.000Z</time>
      </trkpt>
      <trkpt lat="47.2693" lon="-2.33803">
        <ele>7.8000001907349</ele>
        <time>2020-08-02T10:06:26.000Z</time>
      </trkpt>
      <trkpt lat="47.26927" lon="-2.33793">
        <ele>7.4000000953674</ele>
        <time>2020-08-02T10:06:27.000Z</time>
      </trkpt>
      <trkpt lat="47.26926" lon="-2.33783">
        <ele>6.8000001907349</ele>
        <time>2020-08-02T10:06:28.000Z</time>
      </trkpt>
      <trkpt lat="47.26927" lon="-2.33773">
        <ele>6.4000000953674</ele>
        <time>2020-08-02T10:06:29.000Z</time>
      </trkpt>
      <trkpt lat="47.26931" lon="-2.33755">
        <ele>6.4000000953674</ele>
        <time>2020-08-02T10:06:31.000Z</time>
      </trkpt>
      <trkpt lat="47.26938" lon="-2.33719">
        <ele>6.4000000953674</ele>
        <time>2020-08-02T10:06:35.000Z</time>
      </trkpt>
      <trkpt lat="47.26938" lon="-2.33711">
        <ele>6.4000000953674</ele>
        <time>2020-08-02T10:06:36.000Z</time>
      </trkpt>
      <trkpt lat="47.2693" lon="-2.33667">
        <ele>6.4000000953674</ele>
        <time>2020-08-02T10:06:41.000Z</time>
      </trkpt>
      <trkpt lat="47.2692" lon="-2.33614">
        <ele>6</ele>
        <time>2020-08-02T10:06:47.000Z</time>
      </trkpt>
      <trkpt lat="47.26918" lon="-2.33606">
        <ele>5.5999999046326</ele>
        <time>2020-08-02T10:06:48.000Z</time>
      </trkpt>
      <trkpt lat="47.26915" lon="-2.33597">
        <ele>5.1999998092651</ele>
        <time>2020-08-02T10:06:49.000Z</time>
      </trkpt>
      <trkpt lat="47.26911" lon="-2.33588">
        <ele>4.8000001907349</ele>
        <time>2020-08-02T10:06:50.000Z</time>
      </trkpt>
      <trkpt lat="47.26907" lon="-2.33579">
        <ele>4.1999998092651</ele>
        <time>2020-08-02T10:06:51.000Z</time>
      </trkpt>
      <trkpt lat="47.26893" lon="-2.33546">
        <ele>4.1999998092651</ele>
        <time>2020-08-02T10:06:55.000Z</time>
      </trkpt>
      <trkpt lat="47.26888" lon="-2.3354">
        <ele>3.7999999523163</ele>
        <time>2020-08-02T10:06:56.000Z</time>
      </trkpt>
      <trkpt lat="47.26883" lon="-2.33535">
        <ele>3.4000000953674</ele>
        <time>2020-08-02T10:06:57.000Z</time>
      </trkpt>
      <trkpt lat="47.26877" lon="-2.33532">
        <ele>3</ele>
        <time>2020-08-02T10:06:58.000Z</time>
      </trkpt>
      <trkpt lat="47.2687" lon="-2.33532">
        <ele>2.5999999046326</ele>
        <time>2020-08-02T10:06:59.000Z</time>
      </trkpt>
      <trkpt lat="47.26862" lon="-2.33535">
        <ele>2.2000000476837</ele>
        <time>2020-08-02T10:07:00.000Z</time>
      </trkpt>
      <trkpt lat="47.26855" lon="-2.33537">
        <ele>2.2000000476837</ele>
        <time>2020-08-02T10:07:01.000Z</time>
      </trkpt>
      <trkpt lat="47.2684" lon="-2.33544">
        <ele>2.2000000476837</ele>
        <time>2020-08-02T10:07:03.000Z</time>
      </trkpt>
      <trkpt lat="47.26833" lon="-2.33547">
        <ele>1.7999999523163</ele>
        <time>2020-08-02T10:07:04.000Z</time>
      </trkpt>
      <trkpt lat="47.26826" lon="-2.3355">
        <ele>1.3999999761581</ele>
        <time>2020-08-02T10:07:05.000Z</time>
      </trkpt>
      <trkpt lat="47.26819" lon="-2.33553">
        <ele>1</ele>
        <time>2020-08-02T10:07:06.000Z</time>
      </trkpt>
      <trkpt lat="47.26812" lon="-2.33555">
        <ele>0.40000000596046</ele>
        <time>2020-08-02T10:07:07.000Z</time>
      </trkpt>
      <trkpt lat="47.26804" lon="-2.33558">
        <ele>3.1</ele>
        <time>2020-08-02T10:07:08.000Z</time>
      </trkpt>
      <trkpt lat="47.26798" lon="-2.33561">
        <ele>3.2</ele>
        <time>2020-08-02T10:07:09.000Z</time>
      </trkpt>
      <trkpt lat="47.26782" lon="-2.33567">
        <ele>3.4</ele>
        <time>2020-08-02T10:07:12.000Z</time>
      </trkpt>
      <trkpt lat="47.26779" lon="-2.33566">
        <ele>3.4</ele>
        <time>2020-08-02T10:07:13.000Z</time>
      </trkpt>
      <trkpt lat="47.26774" lon="-2.33551">
        <ele>3.2</ele>
        <time>2020-08-02T10:07:16.000Z</time>
      </trkpt>
      <trkpt lat="47.26774" lon="-2.33543">
        <ele>3.5</ele>
        <time>2020-08-02T10:07:17.000Z</time>
      </trkpt>
      <trkpt lat="47.26768" lon="-2.33507">
        <ele>3.6</ele>
        <time>2020-08-02T10:07:21.000Z</time>
      </trkpt>
      <trkpt lat="47.26758" lon="-2.3344">
        <ele>3</ele>
        <time>2020-08-02T10:07:28.000Z</time>
      </trkpt>
      <trkpt lat="47.26752" lon="-2.33398">
        <ele>3.1</ele>
        <time>2020-08-02T10:07:33.000Z</time>
      </trkpt>
      <trkpt lat="47.2675" lon="-2.33375">
        <ele>3</ele>
        <time>2020-08-02T10:07:36.000Z</time>
      </trkpt>
      <trkpt lat="47.26749" lon="-2.3336">
        <ele>3</ele>
        <time>2020-08-02T10:07:38.000Z</time>
      </trkpt>
      <trkpt lat="47.26745" lon="-2.33337">
        <ele>3.7</ele>
        <time>2020-08-02T10:07:42.000Z</time>
      </trkpt>
      <trkpt lat="47.26743" lon="-2.33332">
        <ele>3.9</ele>
        <time>2020-08-02T10:07:43.000Z</time>
      </trkpt>
      <trkpt lat="47.26738" lon="-2.33311">
        <ele>4.8</ele>
        <time>2020-08-02T10:07:48.000Z</time>
      </trkpt>
      <trkpt lat="47.26732" lon="-2.33291">
        <ele>4.7</ele>
        <time>2020-08-02T10:07:54.000Z</time>
      </trkpt>
      <trkpt lat="47.26729" lon="-2.33266">
        <ele>4.6</ele>
        <time>2020-08-02T10:07:58.000Z</time>
      </trkpt>
      <trkpt lat="47.26735" lon="-2.33235">
        <ele>5.4</ele>
        <time>2020-08-02T10:08:02.000Z</time>
      </trkpt>
      <trkpt lat="47.26752" lon="-2.33176">
        <ele>4.3</ele>
        <time>2020-08-02T10:08:09.000Z</time>
      </trkpt>
      <trkpt lat="47.26764" lon="-2.33131">
        <ele>6.8</ele>
        <time>2020-08-02T10:08:14.000Z</time>
      </trkpt>
      <trkpt lat="47.26765" lon="-2.33121">
        <ele>6.8</ele>
        <time>2020-08-02T10:08:15.000Z</time>
      </trkpt>
      <trkpt lat="47.26761" lon="-2.33095">
        <ele>5.7</ele>
        <time>2020-08-02T10:08:18.000Z</time>
      </trkpt>
      <trkpt lat="47.26748" lon="-2.33085">
        <ele>3.9</ele>
        <time>2020-08-02T10:08:21.000Z</time>
      </trkpt>
      <trkpt lat="47.26737" lon="-2.33095">
        <ele>3.7</ele>
        <time>2020-08-02T10:08:24.000Z</time>
      </trkpt>
      <trkpt lat="47.26713" lon="-2.3312">
        <ele>3.8</ele>
        <time>2020-08-02T10:08:29.000Z</time>
      </trkpt>
      <trkpt lat="47.26678" lon="-2.33157">
        <ele>3.8</ele>
        <time>2020-08-02T10:08:36.000Z</time>
      </trkpt>
      <trkpt lat="47.26635" lon="-2.332">
        <ele>3.9</ele>
        <time>2020-08-02T10:08:44.000Z</time>
      </trkpt>
      <trkpt lat="47.26592" lon="-2.33244">
        <ele>3.7</ele>
        <time>2020-08-02T10:08:52.000Z</time>
      </trkpt>
      <trkpt lat="47.26555" lon="-2.33281">
        <ele>3.8</ele>
        <time>2020-08-02T10:09:00.000Z</time>
      </trkpt>
      <trkpt lat="47.26538" lon="-2.33299">
        <ele>3.1</ele>
        <time>2020-08-02T10:09:05.000Z</time>
      </trkpt>
      <trkpt lat="47.26536" lon="-2.33299">
        <ele>3.1</ele>
        <time>2020-08-02T10:09:08.000Z</time>
      </trkpt>
      <trkpt lat="47.26534" lon="-2.33297">
        <ele>3.1</ele>
        <time>2020-08-02T10:09:10.000Z</time>
      </trkpt>
      <trkpt lat="47.26525" lon="-2.33283">
        <ele>3</ele>
        <time>2020-08-02T10:09:14.000Z</time>
      </trkpt>
      <trkpt lat="47.26509" lon="-2.33283">
        <ele>3.1</ele>
        <time>2020-08-02T10:09:18.000Z</time>
      </trkpt>
      <trkpt lat="47.26499" lon="-2.33277">
        <ele>-0.40000000596046</ele>
        <time>2020-08-02T10:09:21.000Z</time>
      </trkpt>
      <trkpt lat="47.26496" lon="-2.33277">
        <ele>-0.80000001192093</ele>
        <time>2020-08-02T10:09:22.000Z</time>
      </trkpt>
      <trkpt lat="47.26492" lon="-2.33277">
        <ele>-1.2000000476837</ele>
        <time>2020-08-02T10:09:23.000Z</time>
      </trkpt>
      <trkpt lat="47.26489" lon="-2.33278">
        <ele>-1.6000000238419</ele>
        <time>2020-08-02T10:09:24.000Z</time>
      </trkpt>
      <trkpt lat="47.26485" lon="-2.33281">
        <ele>-2</ele>
        <time>2020-08-02T10:09:25.000Z</time>
      </trkpt>
      <trkpt lat="47.26473" lon="-2.33299">
        <ele>-2</ele>
        <time>2020-08-02T10:09:29.000Z</time>
      </trkpt>
      <trkpt lat="47.2647" lon="-2.33304">
        <ele>-2</ele>
        <time>2020-08-02T10:09:30.000Z</time>
      </trkpt>
      <trkpt lat="47.26447" lon="-2.33323">
        <ele>-2</ele>
        <time>2020-08-02T10:09:35.000Z</time>
      </trkpt>
      <trkpt lat="47.26409" lon="-2.33352">
        <ele>-2</ele>
        <time>2020-08-02T10:09:42.000Z</time>
      </trkpt>
      <trkpt lat="47.26367" lon="-2.33379">
        <ele>-2</ele>
        <time>2020-08-02T10:09:49.000Z</time>
      </trkpt>
      <trkpt lat="47.26361" lon="-2.33382">
        <ele>-2</ele>
        <time>2020-08-02T10:09:50.000Z</time>
      </trkpt>
      <trkpt lat="47.2632" lon="-2.33405">
        <ele>-2</ele>
        <time>2020-08-02T10:09:57.000Z</time>
      </trkpt>
      <trkpt lat="47.26305" lon="-2.33419">
        <ele>-2</ele>
        <time>2020-08-02T10:10:00.000Z</time>
      </trkpt>
      <trkpt lat="47.263" lon="-2.33422">
        <ele>-2</ele>
        <time>2020-08-02T10:10:01.000Z</time>
      </trkpt>
      <trkpt lat="47.26269" lon="-2.33429">
        <ele>-2</ele>
        <time>2020-08-02T10:10:06.000Z</time>
      </trkpt>
      <trkpt lat="47.26224" lon="-2.33438">
        <ele>-2</ele>
        <time>2020-08-02T10:10:13.000Z</time>
      </trkpt>
      <trkpt lat="47.26185" lon="-2.33444">
        <ele>-2</ele>
        <time>2020-08-02T10:10:20.000Z</time>
      </trkpt>
      <trkpt lat="47.26161" lon="-2.33439">
        <ele>-2</ele>
        <time>2020-08-02T10:10:25.000Z</time>
      </trkpt>
      <trkpt lat="47.26145" lon="-2.3343">
        <ele>-2</ele>
        <time>2020-08-02T10:10:30.000Z</time>
      </trkpt>
      <trkpt lat="47.26139" lon="-2.33431">
        <ele>-2</ele>
        <time>2020-08-02T10:10:32.000Z</time>
      </trkpt>
      <trkpt lat="47.26138" lon="-2.33434">
        <ele>-2</ele>
        <time>2020-08-02T10:10:33.000Z</time>
      </trkpt>
      <trkpt lat="47.26135" lon="-2.33441">
        <ele>-2</ele>
        <time>2020-08-02T10:10:37.000Z</time>
      </trkpt>
      <trkpt lat="47.26127" lon="-2.33451">
        <ele>-2</ele>
        <time>2020-08-02T10:10:41.000Z</time>
      </trkpt>
      <trkpt lat="47.26112" lon="-2.33457">
        <ele>-2</ele>
        <time>2020-08-02T10:10:45.000Z</time>
      </trkpt>
      <trkpt lat="47.26089" lon="-2.33473">
        <ele>-2</ele>
        <time>2020-08-02T10:10:50.000Z</time>
      </trkpt>
      <trkpt lat="47.26073" lon="-2.33466">
        <ele>-2</ele>
        <time>2020-08-02T10:10:53.000Z</time>
      </trkpt>
      <trkpt lat="47.26063" lon="-2.33456">
        <ele>-2</ele>
        <time>2020-08-02T10:10:55.000Z</time>
      </trkpt>
      <trkpt lat="47.26058" lon="-2.33454">
        <ele>-2</ele>
        <time>2020-08-02T10:10:56.000Z</time>
      </trkpt>
      <trkpt lat="47.26052" lon="-2.33454">
        <ele>-2</ele>
        <time>2020-08-02T10:10:57.000Z</time>
      </trkpt>
      <trkpt lat="47.2604" lon="-2.33472">
        <ele>-2</ele>
        <time>2020-08-02T10:11:00.000Z</time>
      </trkpt>
      <trkpt lat="47.26036" lon="-2.33479">
        <ele>-2</ele>
        <time>2020-08-02T10:11:01.000Z</time>
      </trkpt>
      <trkpt lat="47.26025" lon="-2.33488">
        <ele>-2</ele>
        <time>2020-08-02T10:11:03.000Z</time>
      </trkpt>
      <trkpt lat="47.26" lon="-2.33494">
        <ele>-2</ele>
        <time>2020-08-02T10:11:07.000Z</time>
      </trkpt>
      <trkpt lat="47.25988" lon="-2.33499">
        <ele>-2</ele>
        <time>2020-08-02T10:11:09.000Z</time>
      </trkpt>
      <trkpt lat="47.25979" lon="-2.33508">
        <ele>-2</ele>
        <time>2020-08-02T10:11:11.000Z</time>
      </trkpt>
      <trkpt lat="47.25962" lon="-2.3351">
        <ele>-2</ele>
        <time>2020-08-02T10:11:14.000Z</time>
      </trkpt>
      <trkpt lat="47.25957" lon="-2.3351">
        <ele>-2</ele>
        <time>2020-08-02T10:11:15.000Z</time>
      </trkpt>
      <trkpt lat="47.25946" lon="-2.33518">
        <ele>-2</ele>
        <time>2020-08-02T10:11:17.000Z</time>
      </trkpt>
      <trkpt lat="47.25916" lon="-2.33545">
        <ele>-2</ele>
        <time>2020-08-02T10:11:23.000Z</time>
      </trkpt>
      <trkpt lat="47.25906" lon="-2.33554">
        <ele>-1</ele>
        <time>2020-08-02T10:11:25.000Z</time>
      </trkpt>
      <trkpt lat="47.25901" lon="-2.33559">
        <ele>-0.60000002384186</ele>
        <time>2020-08-02T10:11:26.000Z</time>
      </trkpt>
      <trkpt lat="47.25896" lon="-2.33563">
        <ele>-0.20000000298023</ele>
        <time>2020-08-02T10:11:27.000Z</time>
      </trkpt>
      <trkpt lat="47.25891" lon="-2.33567">
        <ele>0.40000000596046</ele>
        <time>2020-08-02T10:11:28.000Z</time>
      </trkpt>
      <trkpt lat="47.25876" lon="-2.33577">
        <ele>0.40000000596046</ele>
        <time>2020-08-02T10:11:31.000Z</time>
      </trkpt>
      <trkpt lat="47.25846" lon="-2.33581">
        <ele>0.40000000596046</ele>
        <time>2020-08-02T10:11:36.000Z</time>
      </trkpt>
      <trkpt lat="47.25803" lon="-2.33582">
        <ele>0.40000000596046</ele>
        <time>2020-08-02T10:11:43.000Z</time>
      </trkpt>
      <trkpt lat="47.25761" lon="-2.33584">
        <ele>0.40000000596046</ele>
        <time>2020-08-02T10:11:50.000Z</time>
      </trkpt>
      <trkpt lat="47.25749" lon="-2.33587">
        <ele>0.40000000596046</ele>
        <time>2020-08-02T10:11:52.000Z</time>
      </trkpt>
      <trkpt lat="47.25737" lon="-2.33588">
        <ele>0.40000000596046</ele>
        <time>2020-08-02T10:11:54.000Z</time>
      </trkpt>
      <trkpt lat="47.25725" lon="-2.33586">
        <ele>0.40000000596046</ele>
        <time>2020-08-02T10:11:56.000Z</time>
      </trkpt>
      <trkpt lat="47.25706" lon="-2.33587">
        <ele>0.40000000596046</ele>
        <time>2020-08-02T10:11:59.000Z</time>
      </trkpt>
      <trkpt lat="47.25661" lon="-2.33579">
        <ele>0.40000000596046</ele>
        <time>2020-08-02T10:12:06.000Z</time>
      </trkpt>
      <trkpt lat="47.25625" lon="-2.3356">
        <ele>0.40000000596046</ele>
        <time>2020-08-02T10:12:12.000Z</time>
      </trkpt>
      <trkpt lat="47.25587" lon="-2.33525">
        <ele>0.40000000596046</ele>
        <time>2020-08-02T10:12:19.000Z</time>
      </trkpt>
      <trkpt lat="47.25556" lon="-2.33478">
        <ele>0.80000001192093</ele>
        <time>2020-08-02T10:12:26.000Z</time>
      </trkpt>
      <trkpt lat="47.25552" lon="-2.3347">
        <ele>1.2000000476837</ele>
        <time>2020-08-02T10:12:27.000Z</time>
      </trkpt>
      <trkpt lat="47.25549" lon="-2.33463">
        <ele>1.6000000238419</ele>
        <time>2020-08-02T10:12:28.000Z</time>
      </trkpt>
      <trkpt lat="47.25546" lon="-2.33455">
        <ele>2</ele>
        <time>2020-08-02T10:12:29.000Z</time>
      </trkpt>
      <trkpt lat="47.25542" lon="-2.33446">
        <ele>2.4000000953674</ele>
        <time>2020-08-02T10:12:30.000Z</time>
      </trkpt>
      <trkpt lat="47.25534" lon="-2.3342">
        <ele>2.4000000953674</ele>
        <time>2020-08-02T10:12:33.000Z</time>
      </trkpt>
      <trkpt lat="47.25524" lon="-2.33353">
        <ele>2.4000000953674</ele>
        <time>2020-08-02T10:12:40.000Z</time>
      </trkpt>
      <trkpt lat="47.25515" lon="-2.33281">
        <ele>2.4000000953674</ele>
        <time>2020-08-02T10:12:47.000Z</time>
      </trkpt>
      <trkpt lat="47.25507" lon="-2.33221">
        <ele>2.4000000953674</ele>
        <time>2020-08-02T10:12:53.000Z</time>
      </trkpt>
      <trkpt lat="47.25497" lon="-2.33152">
        <ele>2.4000000953674</ele>
        <time>2020-08-02T10:13:00.000Z</time>
      </trkpt>
      <trkpt lat="47.25491" lon="-2.33101">
        <ele>2.4000000953674</ele>
        <time>2020-08-02T10:13:06.000Z</time>
      </trkpt>
      <trkpt lat="47.25483" lon="-2.33094">
        <ele>2.4000000953674</ele>
        <time>2020-08-02T10:13:08.000Z</time>
      </trkpt>
      <trkpt lat="47.25469" lon="-2.331">
        <ele>2.4000000953674</ele>
        <time>2020-08-02T10:13:11.000Z</time>
      </trkpt>
      <trkpt lat="47.25436" lon="-2.33115">
        <ele>2.4000000953674</ele>
        <time>2020-08-02T10:13:17.000Z</time>
      </trkpt>
      <trkpt lat="47.25407" lon="-2.33127">
        <ele>2.4000000953674</ele>
        <time>2020-08-02T10:13:23.000Z</time>
      </trkpt>
      <trkpt lat="47.25398" lon="-2.33132">
        <ele>2.4000000953674</ele>
        <time>2020-08-02T10:13:25.000Z</time>
      </trkpt>
      <trkpt lat="47.25387" lon="-2.3314">
        <ele>2.4000000953674</ele>
        <time>2020-08-02T10:13:28.000Z</time>
      </trkpt>
      <trkpt lat="47.25383" lon="-2.3314">
        <ele>2.4000000953674</ele>
        <time>2020-08-02T10:13:29.000Z</time>
      </trkpt>
      <trkpt lat="47.25375" lon="-2.33128">
        <ele>2.4000000953674</ele>
        <time>2020-08-02T10:13:32.000Z</time>
      </trkpt>
      <trkpt lat="47.25374" lon="-2.33124">
        <ele>2.4000000953674</ele>
        <time>2020-08-02T10:13:33.000Z</time>
      </trkpt>
      <trkpt lat="47.25372" lon="-2.33122">
        <ele>2.4000000953674</ele>
        <time>2020-08-02T10:13:35.000Z</time>
      </trkpt>
      <trkpt lat="47.25372" lon="-2.33121">
        <ele>2.4000000953674</ele>
        <time>2020-08-02T10:13:36.000Z</time>
      </trkpt>
      <trkpt lat="47.25372" lon="-2.33112">
        <ele>2.4000000953674</ele>
        <time>2020-08-02T10:42:51.000Z</time>
      </trkpt>
      <trkpt lat="47.2537" lon="-2.33107">
        <ele>2.4000000953674</ele>
        <time>2020-08-02T10:42:53.000Z</time>
      </trkpt>
      <trkpt lat="47.25363" lon="-2.3309">
        <ele>2.4000000953674</ele>
        <time>2020-08-02T10:42:58.000Z</time>
      </trkpt>
      <trkpt lat="47.2535" lon="-2.33057">
        <ele>2.4000000953674</ele>
        <time>2020-08-02T10:43:06.000Z</time>
      </trkpt>
      <trkpt lat="47.25342" lon="-2.33033">
        <ele>2.4000000953674</ele>
        <time>2020-08-02T10:43:11.000Z</time>
      </trkpt>
      <trkpt lat="47.2534" lon="-2.33029">
        <ele>2.4000000953674</ele>
        <time>2020-08-02T10:43:12.000Z</time>
      </trkpt>
      <trkpt lat="47.25324" lon="-2.3299">
        <ele>2.4000000953674</ele>
        <time>2020-08-02T10:43:19.000Z</time>
      </trkpt>
      <trkpt lat="47.25309" lon="-2.32954">
        <ele>2.4000000953674</ele>
        <time>2020-08-02T10:43:26.000Z</time>
      </trkpt>
      <trkpt lat="47.25306" lon="-2.32925">
        <ele>2.4000000953674</ele>
        <time>2020-08-02T10:43:31.000Z</time>
      </trkpt>
      <trkpt lat="47.25314" lon="-2.32914">
        <ele>2.4000000953674</ele>
        <time>2020-08-02T10:43:34.000Z</time>
      </trkpt>
      <trkpt lat="47.25328" lon="-2.329">
        <ele>2.4000000953674</ele>
        <time>2020-08-02T10:43:38.000Z</time>
      </trkpt>
      <trkpt lat="47.25335" lon="-2.32893">
        <ele>2.4000000953674</ele>
        <time>2020-08-02T10:43:40.000Z</time>
      </trkpt>
      <trkpt lat="47.25342" lon="-2.32886">
        <ele>2.4000000953674</ele>
        <time>2020-08-02T10:43:42.000Z</time>
      </trkpt>
      <trkpt lat="47.25346" lon="-2.32883">
        <ele>2.7999999523163</ele>
        <time>2020-08-02T10:43:43.000Z</time>
      </trkpt>
      <trkpt lat="47.2535" lon="-2.3288">
        <ele>3.2000000476837</ele>
        <time>2020-08-02T10:43:44.000Z</time>
      </trkpt>
      <trkpt lat="47.25354" lon="-2.32877">
        <ele>3.5999999046326</ele>
        <time>2020-08-02T10:43:45.000Z</time>
      </trkpt>
      <trkpt lat="47.25358" lon="-2.32873">
        <ele>4</ele>
        <time>2020-08-02T10:43:46.000Z</time>
      </trkpt>
      <trkpt lat="47.25361" lon="-2.32869">
        <ele>4.4000000953674</ele>
        <time>2020-08-02T10:43:47.000Z</time>
      </trkpt>
      <trkpt lat="47.25386" lon="-2.32841">
        <ele>4.4000000953674</ele>
        <time>2020-08-02T10:43:54.000Z</time>
      </trkpt>
      <trkpt lat="47.25413" lon="-2.32805">
        <ele>4.4000000953674</ele>
        <time>2020-08-02T10:44:02.000Z</time>
      </trkpt>
      <trkpt lat="47.25427" lon="-2.3278">
        <ele>4.4000000953674</ele>
        <time>2020-08-02T10:44:08.000Z</time>
      </trkpt>
      <trkpt lat="47.25439" lon="-2.32758">
        <ele>4.4000000953674</ele>
        <time>2020-08-02T10:44:13.000Z</time>
      </trkpt>
      <trkpt lat="47.25449" lon="-2.32744">
        <ele>4.4000000953674</ele>
        <time>2020-08-02T10:44:16.000Z</time>
      </trkpt>
      <trkpt lat="47.25455" lon="-2.32735">
        <ele>4.4000000953674</ele>
        <time>2020-08-02T10:44:18.000Z</time>
      </trkpt>
      <trkpt lat="47.25462" lon="-2.32727">
        <ele>4.4000000953674</ele>
        <time>2020-08-02T10:44:20.000Z</time>
      </trkpt>
      <trkpt lat="47.25471" lon="-2.32715">
        <ele>4.8000001907349</ele>
        <time>2020-08-02T10:44:23.000Z</time>
      </trkpt>
      <trkpt lat="47.25475" lon="-2.32711">
        <ele>5.1999998092651</ele>
        <time>2020-08-02T10:44:24.000Z</time>
      </trkpt>
      <trkpt lat="47.25478" lon="-2.32707">
        <ele>5.5999999046326</ele>
        <time>2020-08-02T10:44:25.000Z</time>
      </trkpt>
      <trkpt lat="47.25481" lon="-2.32702">
        <ele>6</ele>
        <time>2020-08-02T10:44:26.000Z</time>
      </trkpt>
      <trkpt lat="47.25483" lon="-2.32697">
        <ele>6.4000000953674</ele>
        <time>2020-08-02T10:44:27.000Z</time>
      </trkpt>
      <trkpt lat="47.25486" lon="-2.32691">
        <ele>6.4000000953674</ele>
        <time>2020-08-02T10:44:28.000Z</time>
      </trkpt>
      <trkpt lat="47.25488" lon="-2.32666">
        <ele>6.4000000953674</ele>
        <time>2020-08-02T10:44:32.000Z</time>
      </trkpt>
      <trkpt lat="47.25487" lon="-2.32648">
        <ele>6.4000000953674</ele>
        <time>2020-08-02T10:44:35.000Z</time>
      </trkpt>
      <trkpt lat="47.25483" lon="-2.32629">
        <ele>6.4000000953674</ele>
        <time>2020-08-02T10:44:38.000Z</time>
      </trkpt>
      <trkpt lat="47.25475" lon="-2.32588">
        <ele>6.4000000953674</ele>
        <time>2020-08-02T10:44:45.000Z</time>
      </trkpt>
      <trkpt lat="47.25475" lon="-2.32572">
        <ele>6.4000000953674</ele>
        <time>2020-08-02T10:44:49.000Z</time>
      </trkpt>
      <trkpt lat="47.25487" lon="-2.32556">
        <ele>6.4000000953674</ele>
        <time>2020-08-02T10:44:53.000Z</time>
      </trkpt>
      <trkpt lat="47.25515" lon="-2.32529">
        <ele>6.4000000953674</ele>
        <time>2020-08-02T10:45:00.000Z</time>
      </trkpt>
      <trkpt lat="47.25542" lon="-2.32502">
        <ele>6.4000000953674</ele>
        <time>2020-08-02T10:45:06.000Z</time>
      </trkpt>
      <trkpt lat="47.2556" lon="-2.32486">
        <ele>6</ele>
        <time>2020-08-02T10:45:09.000Z</time>
      </trkpt>
      <trkpt lat="47.25566" lon="-2.3248">
        <ele>5.5999999046326</ele>
        <time>2020-08-02T10:45:10.000Z</time>
      </trkpt>
      <trkpt lat="47.25572" lon="-2.32474">
        <ele>5.1999998092651</ele>
        <time>2020-08-02T10:45:11.000Z</time>
      </trkpt>
      <trkpt lat="47.25579" lon="-2.32468">
        <ele>4.4000000953674</ele>
        <time>2020-08-02T10:45:12.000Z</time>
      </trkpt>
      <trkpt lat="47.25597" lon="-2.32449">
        <ele>4.4000000953674</ele>
        <time>2020-08-02T10:45:15.000Z</time>
      </trkpt>
      <trkpt lat="47.25642" lon="-2.32404">
        <ele>3.7999999523163</ele>
        <time>2020-08-02T10:45:22.000Z</time>
      </trkpt>
      <trkpt lat="47.25648" lon="-2.32402">
        <ele>3.4000000953674</ele>
        <time>2020-08-02T10:45:23.000Z</time>
      </trkpt>
      <trkpt lat="47.25654" lon="-2.32401">
        <ele>3</ele>
        <time>2020-08-02T10:45:24.000Z</time>
      </trkpt>
      <trkpt lat="47.2566" lon="-2.32401">
        <ele>2.5999999046326</ele>
        <time>2020-08-02T10:45:25.000Z</time>
      </trkpt>
      <trkpt lat="47.25665" lon="-2.32404">
        <ele>2.2000000476837</ele>
        <time>2020-08-02T10:45:26.000Z</time>
      </trkpt>
      <trkpt lat="47.25674" lon="-2.32412">
        <ele>2.2000000476837</ele>
        <time>2020-08-02T10:45:28.000Z</time>
      </trkpt>
      <trkpt lat="47.2568" lon="-2.32415">
        <ele>2.2000000476837</ele>
        <time>2020-08-02T10:45:29.000Z</time>
      </trkpt>
      <trkpt lat="47.25697" lon="-2.32418">
        <ele>2.2000000476837</ele>
        <time>2020-08-02T10:45:32.000Z</time>
      </trkpt>
      <trkpt lat="47.25726" lon="-2.3242">
        <ele>1.7999999523163</ele>
        <time>2020-08-02T10:45:37.000Z</time>
      </trkpt>
      <trkpt lat="47.25733" lon="-2.32421">
        <ele>1.2000000476837</ele>
        <time>2020-08-02T10:45:38.000Z</time>
      </trkpt>
      <trkpt lat="47.25738" lon="-2.32421">
        <ele>0.80000001192093</ele>
        <time>2020-08-02T10:45:39.000Z</time>
      </trkpt>
      <trkpt lat="47.25744" lon="-2.32422">
        <ele>0.40000000596046</ele>
        <time>2020-08-02T10:45:40.000Z</time>
      </trkpt>
      <trkpt lat="47.25749" lon="-2.32422">
        <ele>4.2</ele>
        <time>2020-08-02T10:45:41.000Z</time>
      </trkpt>
      <trkpt lat="47.25759" lon="-2.3242">
        <ele>4.4</ele>
        <time>2020-08-02T10:45:43.000Z</time>
      </trkpt>
      <trkpt lat="47.25764" lon="-2.32418">
        <ele>4.5</ele>
        <time>2020-08-02T10:45:44.000Z</time>
      </trkpt>
      <trkpt lat="47.2578" lon="-2.32413">
        <ele>5.3</ele>
        <time>2020-08-02T10:45:48.000Z</time>
      </trkpt>
      <trkpt lat="47.25789" lon="-2.32429">
        <ele>5.3</ele>
        <time>2020-08-02T10:45:51.000Z</time>
      </trkpt>
      <trkpt lat="47.25792" lon="-2.32435">
        <ele>5</ele>
        <time>2020-08-02T10:45:52.000Z</time>
      </trkpt>
      <trkpt lat="47.25795" lon="-2.32441">
        <ele>4.6</ele>
        <time>2020-08-02T10:45:53.000Z</time>
      </trkpt>
      <trkpt lat="47.25808" lon="-2.32455">
        <ele>4.1</ele>
        <time>2020-08-02T10:45:56.000Z</time>
      </trkpt>
      <trkpt lat="47.25824" lon="-2.32464">
        <ele>4.4</ele>
        <time>2020-08-02T10:45:59.000Z</time>
      </trkpt>
      <trkpt lat="47.25836" lon="-2.3247">
        <ele>4.1</ele>
        <time>2020-08-02T10:46:01.000Z</time>
      </trkpt>
      <trkpt lat="47.25858" lon="-2.32475">
        <ele>4</ele>
        <time>2020-08-02T10:46:05.000Z</time>
      </trkpt>
      <trkpt lat="47.25863" lon="-2.32474">
        <ele>4</ele>
        <time>2020-08-02T10:46:06.000Z</time>
      </trkpt>
      <trkpt lat="47.25889" lon="-2.32468">
        <ele>4</ele>
        <time>2020-08-02T10:46:11.000Z</time>
      </trkpt>
      <trkpt lat="47.25894" lon="-2.32464">
        <ele>3.9</ele>
        <time>2020-08-02T10:46:12.000Z</time>
      </trkpt>
      <trkpt lat="47.25922" lon="-2.32432">
        <ele>3.2</ele>
        <time>2020-08-02T10:46:18.000Z</time>
      </trkpt>
      <trkpt lat="47.25947" lon="-2.32399">
        <ele>3.6</ele>
        <time>2020-08-02T10:46:24.000Z</time>
      </trkpt>
      <trkpt lat="47.25977" lon="-2.32361">
        <ele>3.7</ele>
        <time>2020-08-02T10:46:31.000Z</time>
      </trkpt>
      <trkpt lat="47.26007" lon="-2.3232">
        <ele>4</ele>
        <time>2020-08-02T10:46:38.000Z</time>
      </trkpt>
      <trkpt lat="47.26012" lon="-2.32315">
        <ele>4.1</ele>
        <time>2020-08-02T10:46:39.000Z</time>
      </trkpt>
      <trkpt lat="47.26034" lon="-2.3229">
        <ele>2.9</ele>
        <time>2020-08-02T10:46:44.000Z</time>
      </trkpt>
      <trkpt lat="47.26065" lon="-2.32253">
        <ele>2.9</ele>
        <time>2020-08-02T10:46:51.000Z</time>
      </trkpt>
      <trkpt lat="47.26085" lon="-2.32228">
        <ele>3</ele>
        <time>2020-08-02T10:46:56.000Z</time>
      </trkpt>
      <trkpt lat="47.26107" lon="-2.32189">
        <ele>3</ele>
        <time>2020-08-02T10:47:02.000Z</time>
      </trkpt>
      <trkpt lat="47.26124" lon="-2.32145">
        <ele>3</ele>
        <time>2020-08-02T10:47:08.000Z</time>
      </trkpt>
      <trkpt lat="47.26142" lon="-2.32091">
        <ele>3</ele>
        <time>2020-08-02T10:47:15.000Z</time>
      </trkpt>
      <trkpt lat="47.26161" lon="-2.32032">
        <ele>3</ele>
        <time>2020-08-02T10:47:23.000Z</time>
      </trkpt>
      <trkpt lat="47.26174" lon="-2.32022">
        <ele>3</ele>
        <time>2020-08-02T10:47:26.000Z</time>
      </trkpt>
      <trkpt lat="47.26188" lon="-2.32024">
        <ele>3</ele>
        <time>2020-08-02T10:47:30.000Z</time>
      </trkpt>
      <trkpt lat="47.26194" lon="-2.32028">
        <ele>3</ele>
        <time>2020-08-02T10:47:34.000Z</time>
      </trkpt>
      <trkpt lat="47.26197" lon="-2.32015">
        <ele>3</ele>
        <time>2020-08-02T10:47:38.000Z</time>
      </trkpt>
      <trkpt lat="47.26203" lon="-2.32006">
        <ele>3</ele>
        <time>2020-08-02T10:47:42.000Z</time>
      </trkpt>
      <trkpt lat="47.26213" lon="-2.31994">
        <ele>3</ele>
        <time>2020-08-02T10:47:46.000Z</time>
      </trkpt>
      <trkpt lat="47.26218" lon="-2.31986">
        <ele>3</ele>
        <time>2020-08-02T10:47:48.000Z</time>
      </trkpt>
      <trkpt lat="47.26222" lon="-2.31984">
        <ele>3</ele>
        <time>2020-08-02T10:47:49.000Z</time>
      </trkpt>
      <trkpt lat="47.26228" lon="-2.31983">
        <ele>3</ele>
        <time>2020-08-02T10:47:51.000Z</time>
      </trkpt>
      <trkpt lat="47.26236" lon="-2.3197">
        <ele>3</ele>
        <time>2020-08-02T10:47:54.000Z</time>
      </trkpt>
      <trkpt lat="47.26249" lon="-2.31948">
        <ele>3</ele>
        <time>2020-08-02T10:47:59.000Z</time>
      </trkpt>
      <trkpt lat="47.26263" lon="-2.31923">
        <ele>3.1</ele>
        <time>2020-08-02T10:48:05.000Z</time>
      </trkpt>
      <trkpt lat="47.26279" lon="-2.31905">
        <ele>3</ele>
        <time>2020-08-02T10:48:10.000Z</time>
      </trkpt>
      <trkpt lat="47.26291" lon="-2.3188">
        <ele>3.5</ele>
        <time>2020-08-02T10:48:16.000Z</time>
      </trkpt>
      <trkpt lat="47.26292" lon="-2.31867">
        <ele>3.5</ele>
        <time>2020-08-02T10:48:18.000Z</time>
      </trkpt>
      <trkpt lat="47.26294" lon="-2.31848">
        <ele>3.8</ele>
        <time>2020-08-02T10:48:21.000Z</time>
      </trkpt>
      <trkpt lat="47.26298" lon="-2.31808">
        <ele>3.8</ele>
        <time>2020-08-02T10:48:27.000Z</time>
      </trkpt>
      <trkpt lat="47.26299" lon="-2.31793">
        <ele>4</ele>
        <time>2020-08-02T10:48:29.000Z</time>
      </trkpt>
      <trkpt lat="47.26297" lon="-2.31759">
        <ele>4.3</ele>
        <time>2020-08-02T10:48:34.000Z</time>
      </trkpt>
      <trkpt lat="47.26296" lon="-2.31729">
        <ele>4.1</ele>
        <time>2020-08-02T10:48:39.000Z</time>
      </trkpt>
      <trkpt lat="47.26309" lon="-2.31719">
        <ele>4.3</ele>
        <time>2020-08-02T10:48:42.000Z</time>
      </trkpt>
      <trkpt lat="47.26328" lon="-2.31703">
        <ele>5.6</ele>
        <time>2020-08-02T10:48:47.000Z</time>
      </trkpt>
      <trkpt lat="47.26336" lon="-2.3169">
        <ele>6.2</ele>
        <time>2020-08-02T10:48:50.000Z</time>
      </trkpt>
      <trkpt lat="47.26345" lon="-2.31685">
        <ele>6.7</ele>
        <time>2020-08-02T10:48:53.000Z</time>
      </trkpt>
      <trkpt lat="47.26348" lon="-2.31684">
        <ele>0.40000000596046</ele>
        <time>2020-08-02T10:48:54.000Z</time>
      </trkpt>
      <trkpt lat="47.26352" lon="-2.31682">
        <ele>0.80000001192093</ele>
        <time>2020-08-02T10:48:55.000Z</time>
      </trkpt>
      <trkpt lat="47.26355" lon="-2.31681">
        <ele>1.6000000238419</ele>
        <time>2020-08-02T10:48:56.000Z</time>
      </trkpt>
      <trkpt lat="47.26358" lon="-2.31679">
        <ele>2</ele>
        <time>2020-08-02T10:48:57.000Z</time>
      </trkpt>
      <trkpt lat="47.26372" lon="-2.31673">
        <ele>2</ele>
        <time>2020-08-02T10:49:01.000Z</time>
      </trkpt>
      <trkpt lat="47.2639" lon="-2.31664">
        <ele>2</ele>
        <time>2020-08-02T10:49:07.000Z</time>
      </trkpt>
      <trkpt lat="47.26407" lon="-2.31654">
        <ele>2</ele>
        <time>2020-08-02T10:49:13.000Z</time>
      </trkpt>
      <trkpt lat="47.26411" lon="-2.31645">
        <ele>2</ele>
        <time>2020-08-02T10:49:15.000Z</time>
      </trkpt>
      <trkpt lat="47.26411" lon="-2.31641">
        <ele>2</ele>
        <time>2020-08-02T10:49:16.000Z</time>
      </trkpt>
      <trkpt lat="47.2641" lon="-2.31627">
        <ele>2</ele>
        <time>2020-08-02T10:49:19.000Z</time>
      </trkpt>
      <trkpt lat="47.26411" lon="-2.31613">
        <ele>2</ele>
        <time>2020-08-02T10:49:22.000Z</time>
      </trkpt>
      <trkpt lat="47.26411" lon="-2.3159">
        <ele>2.4000000953674</ele>
        <time>2020-08-02T10:49:27.000Z</time>
      </trkpt>
      <trkpt lat="47.26411" lon="-2.31585">
        <ele>2.7999999523163</ele>
        <time>2020-08-02T10:49:28.000Z</time>
      </trkpt>
      <trkpt lat="47.26411" lon="-2.3158">
        <ele>3.2000000476837</ele>
        <time>2020-08-02T10:49:29.000Z</time>
      </trkpt>
      <trkpt lat="47.26411" lon="-2.31575">
        <ele>3.5999999046326</ele>
        <time>2020-08-02T10:49:30.000Z</time>
      </trkpt>
      <trkpt lat="47.26411" lon="-2.3157">
        <ele>4</ele>
        <time>2020-08-02T10:49:31.000Z</time>
      </trkpt>
      <trkpt lat="47.26412" lon="-2.31554">
        <ele>4</ele>
        <time>2020-08-02T10:49:35.000Z</time>
      </trkpt>
      <trkpt lat="47.26414" lon="-2.31553">
        <ele>4</ele>
        <time>2020-08-02T10:49:36.000Z</time>
      </trkpt>
      <trkpt lat="47.26416" lon="-2.31554">
        <ele>4</ele>
        <time>2020-08-02T10:49:38.000Z</time>
      </trkpt>
      <trkpt lat="47.26418" lon="-2.31554">
        <ele>4</ele>
        <time>2020-08-02T10:49:41.000Z</time>
      </trkpt>
    </trkseg>
  </trk>
</gpx>